<?xml version="1.0" encoding="UTF-8"?>
<gpx xmlns="http://www.topografix.com/GPX/1/1" version="1.1" creator="EasyGPS 4.93" xmlns:xsi="http://www.w3.org/2001/XMLSchema-instance" xsi:schemaLocation="http://www.topografix.com/GPX/1/1 http://www.topografix.com/GPX/1/1/gpx.xsd http://www.topografix.com/GPX/gpx_overlay/0/3 http://www.topografix.com/GPX/gpx_overlay/0/3/gpx_overlay.xsd http://www.topografix.com/GPX/gpx_modified/0/1 http://www.topografix.com/GPX/gpx_modified/0/1/gpx_modified.xsd">
<metadata>
<bounds minlat="44.98698559" minlon="5.32597804" maxlat="45.05282569" maxlon="5.42344633"/>
<extensions>
<time xmlns="http://www.topografix.com/GPX/gpx_modified/0/1">2013-08-14T17:04:30.375Z</time>
</extensions>
</metadata>
<trk>
<name>grands-goulets-descente-du-giers</name>
<link href="http://www.yadugaz07.com">
</link>
<extensions>
<time xmlns="http://www.topografix.com/GPX/gpx_modified/0/1">2013-08-14T17:04:30.375Z</time>
<label xmlns="http://www.topografix.com/GPX/gpx_overlay/0/3">
</label>
</extensions>
<trkseg>
<trkpt lat="45.02832807" lon="5.32600628">
<ele>186.630</ele>
<time>2013-06-26T07:57:14Z</time>
</trkpt>
<trkpt lat="45.02828599" lon="5.32617509">
<ele>187.110</ele>
<time>2013-06-26T07:57:31Z</time>
</trkpt>
<trkpt lat="45.02836989" lon="5.32663702">
<ele>193.840</ele>
<time>2013-06-26T07:57:49Z</time>
</trkpt>
<trkpt lat="45.02836713" lon="5.32663534">
<ele>199.610</ele>
<time>2013-06-26T07:57:50Z</time>
</trkpt>
<trkpt lat="45.02841415" lon="5.32651540">
<ele>205.860</ele>
<time>2013-06-26T07:57:51Z</time>
</trkpt>
<trkpt lat="45.02843628" lon="5.32645346">
<ele>212.110</ele>
<time>2013-06-26T07:57:52Z</time>
</trkpt>
<trkpt lat="45.02844550" lon="5.32642756">
<ele>216.910</ele>
<time>2013-06-26T07:57:53Z</time>
</trkpt>
<trkpt lat="45.02846779" lon="5.32637836">
<ele>216.910</ele>
<time>2013-06-26T07:57:56Z</time>
</trkpt>
<trkpt lat="45.02846000" lon="5.32635086">
<ele>226.050</ele>
<time>2013-06-26T07:57:58Z</time>
</trkpt>
<trkpt lat="45.02845388" lon="5.32634642">
<ele>226.050</ele>
<time>2013-06-26T07:57:59Z</time>
</trkpt>
<trkpt lat="45.02840149" lon="5.32628129">
<ele>229.890</ele>
<time>2013-06-26T07:58:03Z</time>
</trkpt>
<trkpt lat="45.02838322" lon="5.32627023">
<ele>233.740</ele>
<time>2013-06-26T07:58:04Z</time>
</trkpt>
<trkpt lat="45.02836587" lon="5.32626428">
<ele>237.580</ele>
<time>2013-06-26T07:58:05Z</time>
</trkpt>
<trkpt lat="45.02835011" lon="5.32626126">
<ele>240.950</ele>
<time>2013-06-26T07:58:06Z</time>
</trkpt>
<trkpt lat="45.02833293" lon="5.32625933">
<ele>244.790</ele>
<time>2013-06-26T07:58:07Z</time>
</trkpt>
<trkpt lat="45.02829680" lon="5.32625062">
<ele>244.790</ele>
<time>2013-06-26T07:58:09Z</time>
</trkpt>
<trkpt lat="45.02826638" lon="5.32622589">
<ele>248.160</ele>
<time>2013-06-26T07:58:12Z</time>
</trkpt>
<trkpt lat="45.02825363" lon="5.32621332">
<ele>251.040</ele>
<time>2013-06-26T07:58:13Z</time>
</trkpt>
<trkpt lat="45.02822765" lon="5.32618381">
<ele>251.040</ele>
<time>2013-06-26T07:58:15Z</time>
</trkpt>
<trkpt lat="45.02817426" lon="5.32619370">
<ele>259.690</ele>
<time>2013-06-26T07:58:18Z</time>
</trkpt>
<trkpt lat="45.02815934" lon="5.32620519">
<ele>260.170</ele>
<time>2013-06-26T07:58:19Z</time>
</trkpt>
<trkpt lat="45.02811399" lon="5.32621759">
<ele>262.580</ele>
<time>2013-06-26T07:58:22Z</time>
</trkpt>
<trkpt lat="45.02806412" lon="5.32620418">
<ele>269.790</ele>
<time>2013-06-26T07:58:25Z</time>
</trkpt>
<trkpt lat="45.02803830" lon="5.32618071">
<ele>274.110</ele>
<time>2013-06-26T07:58:27Z</time>
</trkpt>
<trkpt lat="45.02801416" lon="5.32615473">
<ele>278.440</ele>
<time>2013-06-26T07:58:29Z</time>
</trkpt>
<trkpt lat="45.02797578" lon="5.32613813">
<ele>282.280</ele>
<time>2013-06-26T07:58:31Z</time>
</trkpt>
<trkpt lat="45.02795583" lon="5.32613805">
<ele>284.210</ele>
<time>2013-06-26T07:58:32Z</time>
</trkpt>
<trkpt lat="45.02788886" lon="5.32621072">
<ele>289.490</ele>
<time>2013-06-26T07:58:37Z</time>
</trkpt>
<trkpt lat="45.02786807" lon="5.32623259">
<ele>292.380</ele>
<time>2013-06-26T07:58:39Z</time>
</trkpt>
<trkpt lat="45.02785977" lon="5.32623586">
<ele>293.820</ele>
<time>2013-06-26T07:58:40Z</time>
</trkpt>
<trkpt lat="45.02785650" lon="5.32623611">
<ele>297.670</ele>
<time>2013-06-26T07:58:44Z</time>
</trkpt>
<trkpt lat="45.02785432" lon="5.32623787">
<ele>297.670</ele>
<time>2013-06-26T07:58:45Z</time>
</trkpt>
<trkpt lat="45.02785650" lon="5.32622765">
<ele>301.030</ele>
<time>2013-06-26T07:58:48Z</time>
</trkpt>
<trkpt lat="45.02785751" lon="5.32621709">
<ele>304.390</ele>
<time>2013-06-26T07:58:52Z</time>
</trkpt>
<trkpt lat="45.02786404" lon="5.32621130">
<ele>307.760</ele>
<time>2013-06-26T07:58:56Z</time>
</trkpt>
<trkpt lat="45.02786287" lon="5.32620426">
<ele>311.120</ele>
<time>2013-06-26T07:59:02Z</time>
</trkpt>
<trkpt lat="45.02787201" lon="5.32619379">
<ele>314.010</ele>
<time>2013-06-26T07:59:09Z</time>
</trkpt>
<trkpt lat="45.02787033" lon="5.32619211">
<ele>317.850</ele>
<time>2013-06-26T07:59:28Z</time>
</trkpt>
<trkpt lat="45.02787653" lon="5.32618297">
<ele>317.850</ele>
<time>2013-06-26T07:59:53Z</time>
</trkpt>
<trkpt lat="45.02786840" lon="5.32621390">
<ele>317.850</ele>
<time>2013-06-26T07:59:55Z</time>
</trkpt>
<trkpt lat="45.02770160" lon="5.32666812">
<ele>319.780</ele>
<time>2013-06-26T08:00:10Z</time>
</trkpt>
<trkpt lat="45.02758442" lon="5.32732425">
<ele>322.180</ele>
<time>2013-06-26T08:00:27Z</time>
</trkpt>
<trkpt lat="45.02744755" lon="5.32790219">
<ele>324.100</ele>
<time>2013-06-26T08:00:42Z</time>
</trkpt>
<trkpt lat="45.02728477" lon="5.32849051">
<ele>326.020</ele>
<time>2013-06-26T08:00:58Z</time>
</trkpt>
<trkpt lat="45.02710129" lon="5.32895730">
<ele>328.430</ele>
<time>2013-06-26T08:01:13Z</time>
</trkpt>
<trkpt lat="45.02694447" lon="5.32949131">
<ele>331.790</ele>
<time>2013-06-26T08:01:31Z</time>
</trkpt>
<trkpt lat="45.02679007" lon="5.32998526">
<ele>335.160</ele>
<time>2013-06-26T08:01:48Z</time>
</trkpt>
<trkpt lat="45.02667113" lon="5.33041382">
<ele>338.520</ele>
<time>2013-06-26T08:02:04Z</time>
</trkpt>
<trkpt lat="45.02655345" lon="5.33074524">
<ele>340.920</ele>
<time>2013-06-26T08:02:18Z</time>
</trkpt>
<trkpt lat="45.02642563" lon="5.33103567">
<ele>343.330</ele>
<time>2013-06-26T08:02:32Z</time>
</trkpt>
<trkpt lat="45.02632328" lon="5.33126894">
<ele>345.250</ele>
<time>2013-06-26T08:02:42Z</time>
</trkpt>
<trkpt lat="45.02631255" lon="5.33129543">
<ele>345.730</ele>
<time>2013-06-26T08:02:43Z</time>
</trkpt>
<trkpt lat="45.02626704" lon="5.33138964">
<ele>346.690</ele>
<time>2013-06-26T08:02:48Z</time>
</trkpt>
<trkpt lat="45.02608641" lon="5.33172878">
<ele>350.060</ele>
<time>2013-06-26T08:03:05Z</time>
</trkpt>
<trkpt lat="45.02603251" lon="5.33181930">
<ele>351.020</ele>
<time>2013-06-26T08:03:11Z</time>
</trkpt>
<trkpt lat="45.02599371" lon="5.33207805">
<ele>354.380</ele>
<time>2013-06-26T08:03:24Z</time>
</trkpt>
<trkpt lat="45.02597150" lon="5.33232079">
<ele>357.750</ele>
<time>2013-06-26T08:03:37Z</time>
</trkpt>
<trkpt lat="45.02592011" lon="5.33259714">
<ele>360.630</ele>
<time>2013-06-26T08:03:53Z</time>
</trkpt>
<trkpt lat="45.02583009" lon="5.33277618">
<ele>364.000</ele>
<time>2013-06-26T08:04:05Z</time>
</trkpt>
<trkpt lat="45.02573580" lon="5.33296796">
<ele>366.880</ele>
<time>2013-06-26T08:04:18Z</time>
</trkpt>
<trkpt lat="45.02563798" lon="5.33317524">
<ele>369.760</ele>
<time>2013-06-26T08:04:32Z</time>
</trkpt>
<trkpt lat="45.02554217" lon="5.33339987">
<ele>373.130</ele>
<time>2013-06-26T08:04:47Z</time>
</trkpt>
<trkpt lat="45.02548803" lon="5.33362459">
<ele>376.010</ele>
<time>2013-06-26T08:05:02Z</time>
</trkpt>
<trkpt lat="45.02546590" lon="5.33367522">
<ele>376.490</ele>
<time>2013-06-26T08:05:06Z</time>
</trkpt>
<trkpt lat="45.02541276" lon="5.33392182">
<ele>379.860</ele>
<time>2013-06-26T08:05:22Z</time>
</trkpt>
<trkpt lat="45.02537646" lon="5.33409440">
<ele>383.220</ele>
<time>2013-06-26T08:05:35Z</time>
</trkpt>
<trkpt lat="45.02535853" lon="5.33426707">
<ele>386.110</ele>
<time>2013-06-26T08:05:48Z</time>
</trkpt>
<trkpt lat="45.02534562" lon="5.33436715">
<ele>388.030</ele>
<time>2013-06-26T08:05:56Z</time>
</trkpt>
<trkpt lat="45.02533346" lon="5.33439615">
<ele>388.510</ele>
<time>2013-06-26T08:05:58Z</time>
</trkpt>
<trkpt lat="45.02529298" lon="5.33447829">
<ele>389.950</ele>
<time>2013-06-26T08:06:12Z</time>
</trkpt>
<trkpt lat="45.02525593" lon="5.33449262">
<ele>390.430</ele>
<time>2013-06-26T08:06:28Z</time>
</trkpt>
<trkpt lat="45.02526063" lon="5.33452389">
<ele>390.910</ele>
<time>2013-06-26T08:06:33Z</time>
</trkpt>
<trkpt lat="45.02543229" lon="5.33461265">
<ele>389.950</ele>
<time>2013-06-26T08:06:48Z</time>
</trkpt>
<trkpt lat="45.02543296" lon="5.33462078">
<ele>390.430</ele>
<time>2013-06-26T08:07:07Z</time>
</trkpt>
<trkpt lat="45.02542173" lon="5.33461902">
<ele>390.430</ele>
<time>2013-06-26T08:07:11Z</time>
</trkpt>
<trkpt lat="45.02541150" lon="5.33461927">
<ele>390.430</ele>
<time>2013-06-26T08:07:12Z</time>
</trkpt>
<trkpt lat="45.02537479" lon="5.33460536">
<ele>390.910</ele>
<time>2013-06-26T08:07:15Z</time>
</trkpt>
<trkpt lat="45.02533472" lon="5.33463587">
<ele>391.390</ele>
<time>2013-06-26T08:07:19Z</time>
</trkpt>
<trkpt lat="45.02531553" lon="5.33476571">
<ele>394.280</ele>
<time>2013-06-26T08:07:28Z</time>
</trkpt>
<trkpt lat="45.02530505" lon="5.33481390">
<ele>395.240</ele>
<time>2013-06-26T08:07:31Z</time>
</trkpt>
<trkpt lat="45.02529097" lon="5.33495975">
<ele>398.120</ele>
<time>2013-06-26T08:07:39Z</time>
</trkpt>
<trkpt lat="45.02528493" lon="5.33509009">
<ele>400.530</ele>
<time>2013-06-26T08:07:46Z</time>
</trkpt>
<trkpt lat="45.02524965" lon="5.33512009">
<ele>401.490</ele>
<time>2013-06-26T08:07:50Z</time>
</trkpt>
<trkpt lat="45.02520639" lon="5.33515689">
<ele>402.450</ele>
<time>2013-06-26T08:07:56Z</time>
</trkpt>
<trkpt lat="45.02521276" lon="5.33519788">
<ele>402.450</ele>
<time>2013-06-26T08:08:10Z</time>
</trkpt>
<trkpt lat="45.02522056" lon="5.33518841">
<ele>402.450</ele>
<time>2013-06-26T08:08:48Z</time>
</trkpt>
<trkpt lat="45.02523573" lon="5.33518941">
<ele>403.410</ele>
<time>2013-06-26T08:08:57Z</time>
</trkpt>
<trkpt lat="45.02527655" lon="5.33523149">
<ele>403.410</ele>
<time>2013-06-26T08:09:01Z</time>
</trkpt>
<trkpt lat="45.02544737" lon="5.33554263">
<ele>406.770</ele>
<time>2013-06-26T08:09:17Z</time>
</trkpt>
<trkpt lat="45.02560805" lon="5.33585611">
<ele>409.660</ele>
<time>2013-06-26T08:09:32Z</time>
</trkpt>
<trkpt lat="45.02579338" lon="5.33614662">
<ele>412.060</ele>
<time>2013-06-26T08:09:46Z</time>
</trkpt>
<trkpt lat="45.02598834" lon="5.33637889">
<ele>414.470</ele>
<time>2013-06-26T08:09:59Z</time>
</trkpt>
<trkpt lat="45.02630501" lon="5.33656446">
<ele>414.950</ele>
<time>2013-06-26T08:10:11Z</time>
</trkpt>
<trkpt lat="45.02671170" lon="5.33675649">
<ele>414.470</ele>
<time>2013-06-26T08:10:23Z</time>
</trkpt>
<trkpt lat="45.02690147" lon="5.33681324">
<ele>413.980</ele>
<time>2013-06-26T08:10:28Z</time>
</trkpt>
<trkpt lat="45.02739877" lon="5.33704055">
<ele>413.980</ele>
<time>2013-06-26T08:10:41Z</time>
</trkpt>
<trkpt lat="45.02750320" lon="5.33712152">
<ele>415.430</ele>
<time>2013-06-26T08:10:50Z</time>
</trkpt>
<trkpt lat="45.02751150" lon="5.33711733">
<ele>415.430</ele>
<time>2013-06-26T08:10:55Z</time>
</trkpt>
<trkpt lat="45.02774971" lon="5.33716729">
<ele>412.540</ele>
<time>2013-06-26T08:11:02Z</time>
</trkpt>
<trkpt lat="45.02787452" lon="5.33719554">
<ele>410.620</ele>
<time>2013-06-26T08:11:05Z</time>
</trkpt>
<trkpt lat="45.02819547" lon="5.33725706">
<ele>407.740</ele>
<time>2013-06-26T08:11:12Z</time>
</trkpt>
<trkpt lat="45.02828339" lon="5.33729495">
<ele>406.770</ele>
<time>2013-06-26T08:11:14Z</time>
</trkpt>
<trkpt lat="45.02837149" lon="5.33733199">
<ele>406.770</ele>
<time>2013-06-26T08:11:16Z</time>
</trkpt>
<trkpt lat="45.02854424" lon="5.33735244">
<ele>404.850</ele>
<time>2013-06-26T08:11:21Z</time>
</trkpt>
<trkpt lat="45.02861825" lon="5.33736510">
<ele>402.930</ele>
<time>2013-06-26T08:11:23Z</time>
</trkpt>
<trkpt lat="45.02871472" lon="5.33746510">
<ele>405.810</ele>
<time>2013-06-26T08:11:28Z</time>
</trkpt>
<trkpt lat="45.02872671" lon="5.33749946">
<ele>406.290</ele>
<time>2013-06-26T08:11:30Z</time>
</trkpt>
<trkpt lat="45.02873878" lon="5.33753693">
<ele>406.770</ele>
<time>2013-06-26T08:11:32Z</time>
</trkpt>
<trkpt lat="45.02879511" lon="5.33762109">
<ele>408.700</ele>
<time>2013-06-26T08:11:37Z</time>
</trkpt>
<trkpt lat="45.02894070" lon="5.33771471">
<ele>410.620</ele>
<time>2013-06-26T08:11:43Z</time>
</trkpt>
<trkpt lat="45.02905562" lon="5.33780859">
<ele>411.580</ele>
<time>2013-06-26T08:11:50Z</time>
</trkpt>
<trkpt lat="45.02919015" lon="5.33788528">
<ele>412.540</ele>
<time>2013-06-26T08:11:57Z</time>
</trkpt>
<trkpt lat="45.02937840" lon="5.33800917">
<ele>413.020</ele>
<time>2013-06-26T08:12:08Z</time>
</trkpt>
<trkpt lat="45.02963900" lon="5.33817119">
<ele>413.020</ele>
<time>2013-06-26T08:12:19Z</time>
</trkpt>
<trkpt lat="45.02989054" lon="5.33830714">
<ele>413.500</ele>
<time>2013-06-26T08:12:29Z</time>
</trkpt>
<trkpt lat="45.03018273" lon="5.33840924">
<ele>410.620</ele>
<time>2013-06-26T08:12:37Z</time>
</trkpt>
<trkpt lat="45.03036504" lon="5.33858601">
<ele>408.700</ele>
<time>2013-06-26T08:12:41Z</time>
</trkpt>
<trkpt lat="45.03061230" lon="5.33885314">
<ele>404.370</ele>
<time>2013-06-26T08:12:45Z</time>
</trkpt>
<trkpt lat="45.03089042" lon="5.33909764">
<ele>401.970</ele>
<time>2013-06-26T08:12:49Z</time>
</trkpt>
<trkpt lat="45.03142442" lon="5.33957499">
<ele>400.050</ele>
<time>2013-06-26T08:12:58Z</time>
</trkpt>
<trkpt lat="45.03158838" lon="5.33968991">
<ele>395.240</ele>
<time>2013-06-26T08:13:01Z</time>
</trkpt>
<trkpt lat="45.03184427" lon="5.33993893">
<ele>390.910</ele>
<time>2013-06-26T08:13:05Z</time>
</trkpt>
<trkpt lat="45.03192466" lon="5.33999048">
<ele>388.030</ele>
<time>2013-06-26T08:13:06Z</time>
</trkpt>
<trkpt lat="45.03222255" lon="5.34014823">
<ele>383.220</ele>
<time>2013-06-26T08:13:09Z</time>
</trkpt>
<trkpt lat="45.03232230" lon="5.34020959">
<ele>381.780</ele>
<time>2013-06-26T08:13:10Z</time>
</trkpt>
<trkpt lat="45.03265355" lon="5.34054545">
<ele>376.490</ele>
<time>2013-06-26T08:13:14Z</time>
</trkpt>
<trkpt lat="45.03285865" lon="5.34092364">
<ele>379.380</ele>
<time>2013-06-26T08:13:18Z</time>
</trkpt>
<trkpt lat="45.03301238" lon="5.34118256">
<ele>381.780</ele>
<time>2013-06-26T08:13:23Z</time>
</trkpt>
<trkpt lat="45.03312889" lon="5.34148288">
<ele>385.150</ele>
<time>2013-06-26T08:13:31Z</time>
</trkpt>
<trkpt lat="45.03317842" lon="5.34163736">
<ele>387.070</ele>
<time>2013-06-26T08:13:37Z</time>
</trkpt>
<trkpt lat="45.03324866" lon="5.34178555">
<ele>388.990</ele>
<time>2013-06-26T08:13:50Z</time>
</trkpt>
<trkpt lat="45.03334111" lon="5.34197121">
<ele>388.510</ele>
<time>2013-06-26T08:14:07Z</time>
</trkpt>
<trkpt lat="45.03338873" lon="5.34207003">
<ele>388.990</ele>
<time>2013-06-26T08:14:11Z</time>
</trkpt>
<trkpt lat="45.03353113" lon="5.34224555">
<ele>389.470</ele>
<time>2013-06-26T08:14:20Z</time>
</trkpt>
<trkpt lat="45.03361872" lon="5.34227556">
<ele>389.470</ele>
<time>2013-06-26T08:14:36Z</time>
</trkpt>
<trkpt lat="45.03362124" lon="5.34230196">
<ele>389.950</ele>
<time>2013-06-26T08:14:40Z</time>
</trkpt>
<trkpt lat="45.03368352" lon="5.34238092">
<ele>389.470</ele>
<time>2013-06-26T08:14:44Z</time>
</trkpt>
<trkpt lat="45.03387136" lon="5.34263187">
<ele>389.950</ele>
<time>2013-06-26T08:14:54Z</time>
</trkpt>
<trkpt lat="45.03414905" lon="5.34288718">
<ele>389.950</ele>
<time>2013-06-26T08:15:04Z</time>
</trkpt>
<trkpt lat="45.03424108" lon="5.34296103">
<ele>391.390</ele>
<time>2013-06-26T08:15:08Z</time>
</trkpt>
<trkpt lat="45.03427084" lon="5.34298492">
<ele>391.390</ele>
<time>2013-06-26T08:15:11Z</time>
</trkpt>
<trkpt lat="45.03436823" lon="5.34304116">
<ele>392.360</ele>
<time>2013-06-26T08:15:23Z</time>
</trkpt>
<trkpt lat="45.03439464" lon="5.34309220">
<ele>392.840</ele>
<time>2013-06-26T08:15:35Z</time>
</trkpt>
<trkpt lat="45.03438039" lon="5.34309464">
<ele>393.320</ele>
<time>2013-06-26T08:15:58Z</time>
</trkpt>
<trkpt lat="45.03437519" lon="5.34312313">
<ele>395.240</ele>
<time>2013-06-26T08:16:11Z</time>
</trkpt>
<trkpt lat="45.03437854" lon="5.34311173">
<ele>394.760</ele>
<time>2013-06-26T08:16:30Z</time>
</trkpt>
<trkpt lat="45.03440872" lon="5.34301878">
<ele>391.870</ele>
<time>2013-06-26T08:16:34Z</time>
</trkpt>
<trkpt lat="45.03445666" lon="5.34282826">
<ele>386.590</ele>
<time>2013-06-26T08:16:37Z</time>
</trkpt>
<trkpt lat="45.03447770" lon="5.34271301">
<ele>383.700</ele>
<time>2013-06-26T08:16:39Z</time>
</trkpt>
<trkpt lat="45.03448851" lon="5.34257789">
<ele>379.860</ele>
<time>2013-06-26T08:16:41Z</time>
</trkpt>
<trkpt lat="45.03450704" lon="5.34235686">
<ele>373.610</ele>
<time>2013-06-26T08:16:44Z</time>
</trkpt>
<trkpt lat="45.03453537" lon="5.34216743">
<ele>370.240</ele>
<time>2013-06-26T08:16:46Z</time>
</trkpt>
<trkpt lat="45.03456186" lon="5.34200004">
<ele>366.880</ele>
<time>2013-06-26T08:16:48Z</time>
</trkpt>
<trkpt lat="45.03460251" lon="5.34179544">
<ele>363.040</ele>
<time>2013-06-26T08:16:51Z</time>
</trkpt>
<trkpt lat="45.03463025" lon="5.34163962">
<ele>360.630</ele>
<time>2013-06-26T08:16:54Z</time>
</trkpt>
<trkpt lat="45.03466772" lon="5.34159972">
<ele>359.190</ele>
<time>2013-06-26T08:16:56Z</time>
</trkpt>
<trkpt lat="45.03474919" lon="5.34162302">
<ele>359.190</ele>
<time>2013-06-26T08:17:00Z</time>
</trkpt>
<trkpt lat="45.03516812" lon="5.34173325">
<ele>357.750</ele>
<time>2013-06-26T08:17:12Z</time>
</trkpt>
<trkpt lat="45.03549149" lon="5.34186853">
<ele>359.190</ele>
<time>2013-06-26T08:17:24Z</time>
</trkpt>
<trkpt lat="45.03586122" lon="5.34195838">
<ele>359.190</ele>
<time>2013-06-26T08:17:35Z</time>
</trkpt>
<trkpt lat="45.03624259" lon="5.34197121">
<ele>359.670</ele>
<time>2013-06-26T08:17:45Z</time>
</trkpt>
<trkpt lat="45.03653462" lon="5.34191111">
<ele>359.670</ele>
<time>2013-06-26T08:17:52Z</time>
</trkpt>
<trkpt lat="45.03694952" lon="5.34182168">
<ele>359.190</ele>
<time>2013-06-26T08:18:03Z</time>
</trkpt>
<trkpt lat="45.03732814" lon="5.34185487">
<ele>359.670</ele>
<time>2013-06-26T08:18:16Z</time>
</trkpt>
<trkpt lat="45.03750474" lon="5.34189410">
<ele>359.670</ele>
<time>2013-06-26T08:18:28Z</time>
</trkpt>
<trkpt lat="45.03763827" lon="5.34186996">
<ele>357.750</ele>
<time>2013-06-26T08:18:39Z</time>
</trkpt>
<trkpt lat="45.03777497" lon="5.34179242">
<ele>354.860</ele>
<time>2013-06-26T08:18:43Z</time>
</trkpt>
<trkpt lat="45.03778042" lon="5.34178899">
<ele>354.860</ele>
<time>2013-06-26T08:18:54Z</time>
</trkpt>
<trkpt lat="45.03778101" lon="5.34179117">
<ele>355.340</ele>
<time>2013-06-26T08:18:56Z</time>
</trkpt>
<trkpt lat="45.03780012" lon="5.34182503">
<ele>355.340</ele>
<time>2013-06-26T08:19:05Z</time>
</trkpt>
<trkpt lat="45.03785729" lon="5.34183844">
<ele>354.860</ele>
<time>2013-06-26T08:19:09Z</time>
</trkpt>
<trkpt lat="45.03808066" lon="5.34189158">
<ele>355.340</ele>
<time>2013-06-26T08:19:18Z</time>
</trkpt>
<trkpt lat="45.03820941" lon="5.34197976">
<ele>356.310</ele>
<time>2013-06-26T08:19:23Z</time>
</trkpt>
<trkpt lat="45.03859791" lon="5.34213550">
<ele>358.710</ele>
<time>2013-06-26T08:19:37Z</time>
</trkpt>
<trkpt lat="45.03896822" lon="5.34217606">
<ele>358.230</ele>
<time>2013-06-26T08:19:48Z</time>
</trkpt>
<trkpt lat="45.03950542" lon="5.34219015">
<ele>357.750</ele>
<time>2013-06-26T08:20:01Z</time>
</trkpt>
<trkpt lat="45.03961799" lon="5.34219015">
<ele>360.630</ele>
<time>2013-06-26T08:20:06Z</time>
</trkpt>
<trkpt lat="45.03984489" lon="5.34231462">
<ele>362.550</ele>
<time>2013-06-26T08:20:17Z</time>
</trkpt>
<trkpt lat="45.04012484" lon="5.34250706">
<ele>364.960</ele>
<time>2013-06-26T08:20:30Z</time>
</trkpt>
<trkpt lat="45.04043204" lon="5.34280638">
<ele>364.960</ele>
<time>2013-06-26T08:20:43Z</time>
</trkpt>
<trkpt lat="45.04046540" lon="5.34282717">
<ele>364.960</ele>
<time>2013-06-26T08:20:44Z</time>
</trkpt>
<trkpt lat="45.04054335" lon="5.34285718">
<ele>364.480</ele>
<time>2013-06-26T08:20:46Z</time>
</trkpt>
<trkpt lat="45.04085273" lon="5.34281736">
<ele>362.550</ele>
<time>2013-06-26T08:20:52Z</time>
</trkpt>
<trkpt lat="45.04111843" lon="5.34289749">
<ele>358.710</ele>
<time>2013-06-26T08:20:56Z</time>
</trkpt>
<trkpt lat="45.04139789" lon="5.34312598">
<ele>356.790</ele>
<time>2013-06-26T08:21:00Z</time>
</trkpt>
<trkpt lat="45.04161238" lon="5.34320938">
<ele>355.830</ele>
<time>2013-06-26T08:21:05Z</time>
</trkpt>
<trkpt lat="45.04204555" lon="5.34321232">
<ele>351.980</ele>
<time>2013-06-26T08:21:12Z</time>
</trkpt>
<trkpt lat="45.04245358" lon="5.34322556">
<ele>348.620</ele>
<time>2013-06-26T08:21:17Z</time>
</trkpt>
<trkpt lat="45.04274159" lon="5.34323025">
<ele>345.250</ele>
<time>2013-06-26T08:21:20Z</time>
</trkpt>
<trkpt lat="45.04304987" lon="5.34325305">
<ele>341.890</ele>
<time>2013-06-26T08:21:23Z</time>
</trkpt>
<trkpt lat="45.04337090" lon="5.34333453">
<ele>339.000</ele>
<time>2013-06-26T08:21:26Z</time>
</trkpt>
<trkpt lat="45.04379754" lon="5.34354106">
<ele>335.160</ele>
<time>2013-06-26T08:21:30Z</time>
</trkpt>
<trkpt lat="45.04423214" lon="5.34375831">
<ele>331.790</ele>
<time>2013-06-26T08:21:34Z</time>
</trkpt>
<trkpt lat="45.04462483" lon="5.34396015">
<ele>328.910</ele>
<time>2013-06-26T08:21:38Z</time>
</trkpt>
<trkpt lat="45.04481217" lon="5.34405277">
<ele>326.020</ele>
<time>2013-06-26T08:21:40Z</time>
</trkpt>
<trkpt lat="45.04539211" lon="5.34433985">
<ele>323.140</ele>
<time>2013-06-26T08:21:46Z</time>
</trkpt>
<trkpt lat="45.04548792" lon="5.34439148">
<ele>321.700</ele>
<time>2013-06-26T08:21:47Z</time>
</trkpt>
<trkpt lat="45.04577307" lon="5.34448352">
<ele>320.740</ele>
<time>2013-06-26T08:21:53Z</time>
</trkpt>
<trkpt lat="45.04577550" lon="5.34448167">
<ele>320.740</ele>
<time>2013-06-26T08:21:54Z</time>
</trkpt>
<trkpt lat="45.04575153" lon="5.34446231">
<ele>320.740</ele>
<time>2013-06-26T08:21:56Z</time>
</trkpt>
<trkpt lat="45.04541256" lon="5.34433859">
<ele>323.620</ele>
<time>2013-06-26T08:22:08Z</time>
</trkpt>
<trkpt lat="45.04507913" lon="5.34419593">
<ele>326.500</ele>
<time>2013-06-26T08:22:21Z</time>
</trkpt>
<trkpt lat="45.04503840" lon="5.34421773">
<ele>326.990</ele>
<time>2013-06-26T08:22:25Z</time>
</trkpt>
<trkpt lat="45.04502691" lon="5.34431462">
<ele>327.950</ele>
<time>2013-06-26T08:22:30Z</time>
</trkpt>
<trkpt lat="45.04505667" lon="5.34456683">
<ele>331.310</ele>
<time>2013-06-26T08:22:43Z</time>
</trkpt>
<trkpt lat="45.04505902" lon="5.34469332">
<ele>332.750</ele>
<time>2013-06-26T08:22:50Z</time>
</trkpt>
<trkpt lat="45.04510126" lon="5.34496405">
<ele>336.120</ele>
<time>2013-06-26T08:23:04Z</time>
</trkpt>
<trkpt lat="45.04515398" lon="5.34517150">
<ele>338.520</ele>
<time>2013-06-26T08:23:19Z</time>
</trkpt>
<trkpt lat="45.04518097" lon="5.34519497">
<ele>338.520</ele>
<time>2013-06-26T08:23:29Z</time>
</trkpt>
<trkpt lat="45.04518005" lon="5.34517108">
<ele>338.520</ele>
<time>2013-06-26T08:23:41Z</time>
</trkpt>
<trkpt lat="45.04511065" lon="5.34510562">
<ele>339.000</ele>
<time>2013-06-26T08:23:53Z</time>
</trkpt>
<trkpt lat="45.04508550" lon="5.34513152">
<ele>339.480</ele>
<time>2013-06-26T08:24:05Z</time>
</trkpt>
<trkpt lat="45.04508500" lon="5.34511618">
<ele>339.480</ele>
<time>2013-06-26T08:24:21Z</time>
</trkpt>
<trkpt lat="45.04510386" lon="5.34511576">
<ele>339.000</ele>
<time>2013-06-26T08:24:26Z</time>
</trkpt>
<trkpt lat="45.04512833" lon="5.34514619">
<ele>338.520</ele>
<time>2013-06-26T08:24:35Z</time>
</trkpt>
<trkpt lat="45.04509690" lon="5.34519439">
<ele>340.440</ele>
<time>2013-06-26T08:24:49Z</time>
</trkpt>
<trkpt lat="45.04504443" lon="5.34531794">
<ele>343.330</ele>
<time>2013-06-26T08:25:02Z</time>
</trkpt>
<trkpt lat="45.04500453" lon="5.34543059">
<ele>346.210</ele>
<time>2013-06-26T08:25:12Z</time>
</trkpt>
<trkpt lat="45.04492365" lon="5.34553561">
<ele>349.580</ele>
<time>2013-06-26T08:25:23Z</time>
</trkpt>
<trkpt lat="45.04490504" lon="5.34555087">
<ele>350.060</ele>
<time>2013-06-26T08:25:25Z</time>
</trkpt>
<trkpt lat="45.04477864" lon="5.34568473">
<ele>353.900</ele>
<time>2013-06-26T08:25:37Z</time>
</trkpt>
<trkpt lat="45.04471628" lon="5.34571700">
<ele>355.340</ele>
<time>2013-06-26T08:25:42Z</time>
</trkpt>
<trkpt lat="45.04458066" lon="5.34576427">
<ele>358.710</ele>
<time>2013-06-26T08:25:54Z</time>
</trkpt>
<trkpt lat="45.04450732" lon="5.34576905">
<ele>361.110</ele>
<time>2013-06-26T08:26:03Z</time>
</trkpt>
<trkpt lat="45.04442107" lon="5.34579989">
<ele>362.550</ele>
<time>2013-06-26T08:26:08Z</time>
</trkpt>
<trkpt lat="45.04428243" lon="5.34579042">
<ele>364.960</ele>
<time>2013-06-26T08:26:21Z</time>
</trkpt>
<trkpt lat="45.04421203" lon="5.34572940">
<ele>367.840</ele>
<time>2013-06-26T08:26:39Z</time>
</trkpt>
<trkpt lat="45.04411689" lon="5.34564542">
<ele>370.730</ele>
<time>2013-06-26T08:26:57Z</time>
</trkpt>
<trkpt lat="45.04405159" lon="5.34555573">
<ele>373.130</ele>
<time>2013-06-26T08:27:12Z</time>
</trkpt>
<trkpt lat="45.04395076" lon="5.34547811">
<ele>375.530</ele>
<time>2013-06-26T08:27:26Z</time>
</trkpt>
<trkpt lat="45.04380810" lon="5.34540008">
<ele>377.940</ele>
<time>2013-06-26T08:27:40Z</time>
</trkpt>
<trkpt lat="45.04370668" lon="5.34534777">
<ele>380.820</ele>
<time>2013-06-26T08:27:56Z</time>
</trkpt>
<trkpt lat="45.04361691" lon="5.34537611">
<ele>381.780</ele>
<time>2013-06-26T08:28:14Z</time>
</trkpt>
<trkpt lat="45.04359436" lon="5.34537208">
<ele>382.260</ele>
<time>2013-06-26T08:28:16Z</time>
</trkpt>
<trkpt lat="45.04348096" lon="5.34537703">
<ele>386.110</ele>
<time>2013-06-26T08:28:28Z</time>
</trkpt>
<trkpt lat="45.04337752" lon="5.34538717">
<ele>389.470</ele>
<time>2013-06-26T08:28:39Z</time>
</trkpt>
<trkpt lat="45.04325020" lon="5.34545565">
<ele>392.840</ele>
<time>2013-06-26T08:28:49Z</time>
</trkpt>
<trkpt lat="45.04318809" lon="5.34548423">
<ele>394.760</ele>
<time>2013-06-26T08:28:54Z</time>
</trkpt>
<trkpt lat="45.04303671" lon="5.34552866">
<ele>396.680</ele>
<time>2013-06-26T08:29:06Z</time>
</trkpt>
<trkpt lat="45.04295709" lon="5.34551164">
<ele>399.570</ele>
<time>2013-06-26T08:29:20Z</time>
</trkpt>
<trkpt lat="45.04289590" lon="5.34550661">
<ele>400.530</ele>
<time>2013-06-26T08:29:35Z</time>
</trkpt>
<trkpt lat="45.04280881" lon="5.34547359">
<ele>402.930</ele>
<time>2013-06-26T08:29:48Z</time>
</trkpt>
<trkpt lat="45.04270479" lon="5.34548582">
<ele>405.810</ele>
<time>2013-06-26T08:30:02Z</time>
</trkpt>
<trkpt lat="45.04257043" lon="5.34550066">
<ele>408.700</ele>
<time>2013-06-26T08:30:19Z</time>
</trkpt>
<trkpt lat="45.04247152" lon="5.34555414">
<ele>412.060</ele>
<time>2013-06-26T08:30:36Z</time>
</trkpt>
<trkpt lat="45.04234605" lon="5.34562052">
<ele>414.950</ele>
<time>2013-06-26T08:30:52Z</time>
</trkpt>
<trkpt lat="45.04226214" lon="5.34564827">
<ele>418.310</ele>
<time>2013-06-26T08:31:07Z</time>
</trkpt>
<trkpt lat="45.04216022" lon="5.34571222">
<ele>420.710</ele>
<time>2013-06-26T08:31:24Z</time>
</trkpt>
<trkpt lat="45.04208160" lon="5.34570996">
<ele>422.640</ele>
<time>2013-06-26T08:31:44Z</time>
</trkpt>
<trkpt lat="45.04198789" lon="5.34571943">
<ele>425.520</ele>
<time>2013-06-26T08:31:57Z</time>
</trkpt>
<trkpt lat="45.04189250" lon="5.34575061">
<ele>428.890</ele>
<time>2013-06-26T08:32:12Z</time>
</trkpt>
<trkpt lat="45.04176116" lon="5.34577492">
<ele>431.770</ele>
<time>2013-06-26T08:32:28Z</time>
</trkpt>
<trkpt lat="45.04172637" lon="5.34579855">
<ele>433.210</ele>
<time>2013-06-26T08:32:51Z</time>
</trkpt>
<trkpt lat="45.04163057" lon="5.34581180">
<ele>435.610</ele>
<time>2013-06-26T08:33:09Z</time>
</trkpt>
<trkpt lat="45.04151900" lon="5.34586569">
<ele>438.980</ele>
<time>2013-06-26T08:33:22Z</time>
</trkpt>
<trkpt lat="45.04141943" lon="5.34589076">
<ele>441.860</ele>
<time>2013-06-26T08:33:36Z</time>
</trkpt>
<trkpt lat="45.04129328" lon="5.34586846">
<ele>444.270</ele>
<time>2013-06-26T08:33:50Z</time>
</trkpt>
<trkpt lat="45.04115774" lon="5.34583242">
<ele>447.630</ele>
<time>2013-06-26T08:34:04Z</time>
</trkpt>
<trkpt lat="45.04104677" lon="5.34582697">
<ele>450.520</ele>
<time>2013-06-26T08:34:20Z</time>
</trkpt>
<trkpt lat="45.04094560" lon="5.34587508">
<ele>453.400</ele>
<time>2013-06-26T08:34:32Z</time>
</trkpt>
<trkpt lat="45.04087460" lon="5.34590333">
<ele>456.280</ele>
<time>2013-06-26T08:34:45Z</time>
</trkpt>
<trkpt lat="45.04077067" lon="5.34592873">
<ele>459.170</ele>
<time>2013-06-26T08:34:59Z</time>
</trkpt>
<trkpt lat="45.04070093" lon="5.34593509">
<ele>462.050</ele>
<time>2013-06-26T08:35:13Z</time>
</trkpt>
<trkpt lat="45.04055626" lon="5.34594205">
<ele>465.420</ele>
<time>2013-06-26T08:35:29Z</time>
</trkpt>
<trkpt lat="45.04042324" lon="5.34596510">
<ele>468.300</ele>
<time>2013-06-26T08:35:44Z</time>
</trkpt>
<trkpt lat="45.04031461" lon="5.34600534">
<ele>470.700</ele>
<time>2013-06-26T08:36:00Z</time>
</trkpt>
<trkpt lat="45.04026532" lon="5.34605437">
<ele>474.070</ele>
<time>2013-06-26T08:36:10Z</time>
</trkpt>
<trkpt lat="45.04019299" lon="5.34610407">
<ele>476.950</ele>
<time>2013-06-26T08:36:26Z</time>
</trkpt>
<trkpt lat="45.04010590" lon="5.34613350">
<ele>479.350</ele>
<time>2013-06-26T08:36:39Z</time>
</trkpt>
<trkpt lat="45.04000976" lon="5.34615713">
<ele>482.240</ele>
<time>2013-06-26T08:36:54Z</time>
</trkpt>
<trkpt lat="45.03989065" lon="5.34621128">
<ele>485.600</ele>
<time>2013-06-26T08:37:10Z</time>
</trkpt>
<trkpt lat="45.03979200" lon="5.34625285">
<ele>488.490</ele>
<time>2013-06-26T08:37:26Z</time>
</trkpt>
<trkpt lat="45.03968202" lon="5.34627255">
<ele>490.410</ele>
<time>2013-06-26T08:37:42Z</time>
</trkpt>
<trkpt lat="45.03961598" lon="5.34629518">
<ele>493.770</ele>
<time>2013-06-26T08:37:54Z</time>
</trkpt>
<trkpt lat="45.03949846" lon="5.34638051">
<ele>496.660</ele>
<time>2013-06-26T08:38:12Z</time>
</trkpt>
<trkpt lat="45.03940224" lon="5.34638906">
<ele>498.580</ele>
<time>2013-06-26T08:38:28Z</time>
</trkpt>
<trkpt lat="45.03931909" lon="5.34630683">
<ele>500.980</ele>
<time>2013-06-26T08:38:42Z</time>
</trkpt>
<trkpt lat="45.03917961" lon="5.34627263">
<ele>503.870</ele>
<time>2013-06-26T08:38:57Z</time>
</trkpt>
<trkpt lat="45.03904165" lon="5.34624858">
<ele>506.750</ele>
<time>2013-06-26T08:39:13Z</time>
</trkpt>
<trkpt lat="45.03892413" lon="5.34627364">
<ele>509.640</ele>
<time>2013-06-26T08:39:29Z</time>
</trkpt>
<trkpt lat="45.03883386" lon="5.34628110">
<ele>512.040</ele>
<time>2013-06-26T08:39:44Z</time>
</trkpt>
<trkpt lat="45.03877887" lon="5.34629325">
<ele>513.480</ele>
<time>2013-06-26T08:39:56Z</time>
</trkpt>
<trkpt lat="45.03868190" lon="5.34631798">
<ele>514.920</ele>
<time>2013-06-26T08:40:15Z</time>
</trkpt>
<trkpt lat="45.03859129" lon="5.34629719">
<ele>517.330</ele>
<time>2013-06-26T08:40:29Z</time>
</trkpt>
<trkpt lat="45.03848610" lon="5.34628253">
<ele>520.210</ele>
<time>2013-06-26T08:40:45Z</time>
</trkpt>
<trkpt lat="45.03838761" lon="5.34626928">
<ele>523.090</ele>
<time>2013-06-26T08:40:59Z</time>
</trkpt>
<trkpt lat="45.03831410" lon="5.34627917">
<ele>525.020</ele>
<time>2013-06-26T08:41:12Z</time>
</trkpt>
<trkpt lat="45.03823313" lon="5.34630708">
<ele>527.900</ele>
<time>2013-06-26T08:41:27Z</time>
</trkpt>
<trkpt lat="45.03816993" lon="5.34632049">
<ele>528.860</ele>
<time>2013-06-26T08:41:41Z</time>
</trkpt>
<trkpt lat="45.03805024" lon="5.34629845">
<ele>531.750</ele>
<time>2013-06-26T08:41:52Z</time>
</trkpt>
<trkpt lat="45.03803397" lon="5.34629669">
<ele>532.230</ele>
<time>2013-06-26T08:41:53Z</time>
</trkpt>
<trkpt lat="45.03792878" lon="5.34630683">
<ele>533.190</ele>
<time>2013-06-26T08:42:00Z</time>
</trkpt>
<trkpt lat="45.03781135" lon="5.34632527">
<ele>534.630</ele>
<time>2013-06-26T08:42:14Z</time>
</trkpt>
<trkpt lat="45.03766685" lon="5.34633994">
<ele>537.990</ele>
<time>2013-06-26T08:42:32Z</time>
</trkpt>
<trkpt lat="45.03756593" lon="5.34633391">
<ele>540.400</ele>
<time>2013-06-26T08:42:47Z</time>
</trkpt>
<trkpt lat="45.03745026" lon="5.34634983">
<ele>543.280</ele>
<time>2013-06-26T08:43:03Z</time>
</trkpt>
<trkpt lat="45.03735613" lon="5.34635293">
<ele>545.690</ele>
<time>2013-06-26T08:43:16Z</time>
</trkpt>
<trkpt lat="45.03724574" lon="5.34638705">
<ele>548.570</ele>
<time>2013-06-26T08:43:32Z</time>
</trkpt>
<trkpt lat="45.03718833" lon="5.34640691">
<ele>551.450</ele>
<time>2013-06-26T08:43:45Z</time>
</trkpt>
<trkpt lat="45.03717843" lon="5.34641328">
<ele>552.410</ele>
<time>2013-06-26T08:43:47Z</time>
</trkpt>
<trkpt lat="45.03713703" lon="5.34642125">
<ele>553.380</ele>
<time>2013-06-26T08:44:07Z</time>
</trkpt>
<trkpt lat="45.03708975" lon="5.34643298">
<ele>556.260</ele>
<time>2013-06-26T08:44:24Z</time>
</trkpt>
<trkpt lat="45.03704089" lon="5.34645955">
<ele>558.660</ele>
<time>2013-06-26T08:44:42Z</time>
</trkpt>
<trkpt lat="45.03703049" lon="5.34645729">
<ele>559.140</ele>
<time>2013-06-26T08:44:44Z</time>
</trkpt>
<trkpt lat="45.03698289" lon="5.34643918">
<ele>561.550</ele>
<time>2013-06-26T08:44:56Z</time>
</trkpt>
<trkpt lat="45.03692429" lon="5.34640616">
<ele>563.470</ele>
<time>2013-06-26T08:45:10Z</time>
</trkpt>
<trkpt lat="45.03687350" lon="5.34640825">
<ele>566.830</ele>
<time>2013-06-26T08:45:22Z</time>
</trkpt>
<trkpt lat="45.03681491" lon="5.34643901">
<ele>569.720</ele>
<time>2013-06-26T08:45:37Z</time>
</trkpt>
<trkpt lat="45.03675682" lon="5.34648386">
<ele>572.600</ele>
<time>2013-06-26T08:45:52Z</time>
</trkpt>
<trkpt lat="45.03663001" lon="5.34650406">
<ele>574.530</ele>
<time>2013-06-26T08:46:09Z</time>
</trkpt>
<trkpt lat="45.03655792" lon="5.34649283">
<ele>577.890</ele>
<time>2013-06-26T08:46:24Z</time>
</trkpt>
<trkpt lat="45.03645399" lon="5.34650741">
<ele>579.810</ele>
<time>2013-06-26T08:46:41Z</time>
</trkpt>
<trkpt lat="45.03637344" lon="5.34651102">
<ele>582.220</ele>
<time>2013-06-26T08:46:55Z</time>
</trkpt>
<trkpt lat="45.03632499" lon="5.34652175">
<ele>583.660</ele>
<time>2013-06-26T08:47:11Z</time>
</trkpt>
<trkpt lat="45.03628568" lon="5.34650196">
<ele>586.060</ele>
<time>2013-06-26T08:47:30Z</time>
</trkpt>
<trkpt lat="45.03627168" lon="5.34649434">
<ele>586.540</ele>
<time>2013-06-26T08:47:39Z</time>
</trkpt>
<trkpt lat="45.03623011" lon="5.34649987">
<ele>588.460</ele>
<time>2013-06-26T08:47:51Z</time>
</trkpt>
<trkpt lat="45.03617864" lon="5.34651848">
<ele>589.910</ele>
<time>2013-06-26T08:48:00Z</time>
</trkpt>
<trkpt lat="45.03610815" lon="5.34654127">
<ele>592.310</ele>
<time>2013-06-26T08:48:12Z</time>
</trkpt>
<trkpt lat="45.03602165" lon="5.34653918">
<ele>595.670</ele>
<time>2013-06-26T08:48:29Z</time>
</trkpt>
<trkpt lat="45.03598192" lon="5.34655343">
<ele>597.600</ele>
<time>2013-06-26T08:48:42Z</time>
</trkpt>
<trkpt lat="45.03590715" lon="5.34656223">
<ele>599.520</ele>
<time>2013-06-26T08:48:55Z</time>
</trkpt>
<trkpt lat="45.03583993" lon="5.34657472">
<ele>601.920</ele>
<time>2013-06-26T08:49:14Z</time>
</trkpt>
<trkpt lat="45.03577178" lon="5.34657841">
<ele>604.810</ele>
<time>2013-06-26T08:49:29Z</time>
</trkpt>
<trkpt lat="45.03568981" lon="5.34658042">
<ele>607.210</ele>
<time>2013-06-26T08:49:42Z</time>
</trkpt>
<trkpt lat="45.03565268" lon="5.34658696">
<ele>608.170</ele>
<time>2013-06-26T08:50:01Z</time>
</trkpt>
<trkpt lat="45.03560532" lon="5.34658587">
<ele>610.090</ele>
<time>2013-06-26T08:50:15Z</time>
</trkpt>
<trkpt lat="45.03551563" lon="5.34659282">
<ele>612.980</ele>
<time>2013-06-26T08:50:30Z</time>
</trkpt>
<trkpt lat="45.03544229" lon="5.34661654">
<ele>616.340</ele>
<time>2013-06-26T08:50:42Z</time>
</trkpt>
<trkpt lat="45.03539099" lon="5.34665317">
<ele>618.750</ele>
<time>2013-06-26T08:50:53Z</time>
</trkpt>
<trkpt lat="45.03538915" lon="5.34666072">
<ele>619.230</ele>
<time>2013-06-26T08:50:54Z</time>
</trkpt>
<trkpt lat="45.03539770" lon="5.34673708">
<ele>621.150</ele>
<time>2013-06-26T08:51:08Z</time>
</trkpt>
<trkpt lat="45.03538990" lon="5.34673154">
<ele>620.190</ele>
<time>2013-06-26T08:51:32Z</time>
</trkpt>
<trkpt lat="45.03538270" lon="5.34674294">
<ele>620.190</ele>
<time>2013-06-26T08:51:57Z</time>
</trkpt>
<trkpt lat="45.03539602" lon="5.34675158">
<ele>620.190</ele>
<time>2013-06-26T08:52:25Z</time>
</trkpt>
<trkpt lat="45.03540399" lon="5.34674722">
<ele>619.710</ele>
<time>2013-06-26T08:52:50Z</time>
</trkpt>
<trkpt lat="45.03539208" lon="5.34677655">
<ele>620.670</ele>
<time>2013-06-26T08:53:15Z</time>
</trkpt>
<trkpt lat="45.03541631" lon="5.34686507">
<ele>623.550</ele>
<time>2013-06-26T08:53:28Z</time>
</trkpt>
<trkpt lat="45.03545470" lon="5.34698845">
<ele>625.960</ele>
<time>2013-06-26T08:53:42Z</time>
</trkpt>
<trkpt lat="45.03539912" lon="5.34708291">
<ele>627.880</ele>
<time>2013-06-26T08:53:55Z</time>
</trkpt>
<trkpt lat="45.03539041" lon="5.34708115">
<ele>627.880</ele>
<time>2013-06-26T08:53:56Z</time>
</trkpt>
<trkpt lat="45.03531204" lon="5.34707621">
<ele>630.760</ele>
<time>2013-06-26T08:54:10Z</time>
</trkpt>
<trkpt lat="45.03520961" lon="5.34707210">
<ele>634.130</ele>
<time>2013-06-26T08:54:26Z</time>
</trkpt>
<trkpt lat="45.03509796" lon="5.34708342">
<ele>636.050</ele>
<time>2013-06-26T08:54:41Z</time>
</trkpt>
<trkpt lat="45.03501012" lon="5.34706372">
<ele>638.450</ele>
<time>2013-06-26T08:54:54Z</time>
</trkpt>
<trkpt lat="45.03487961" lon="5.34710512">
<ele>639.410</ele>
<time>2013-06-26T08:55:07Z</time>
</trkpt>
<trkpt lat="45.03474986" lon="5.34703924">
<ele>642.300</ele>
<time>2013-06-26T08:55:21Z</time>
</trkpt>
<trkpt lat="45.03468557" lon="5.34699859">
<ele>645.180</ele>
<time>2013-06-26T08:55:34Z</time>
</trkpt>
<trkpt lat="45.03459765" lon="5.34696087">
<ele>648.550</ele>
<time>2013-06-26T08:55:49Z</time>
</trkpt>
<trkpt lat="45.03452430" lon="5.34695626">
<ele>649.510</ele>
<time>2013-06-26T08:55:59Z</time>
</trkpt>
<trkpt lat="45.03440981" lon="5.34699029">
<ele>651.430</ele>
<time>2013-06-26T08:56:14Z</time>
</trkpt>
<trkpt lat="45.03425617" lon="5.34709289">
<ele>652.390</ele>
<time>2013-06-26T08:56:30Z</time>
</trkpt>
<trkpt lat="45.03412851" lon="5.34722918">
<ele>654.800</ele>
<time>2013-06-26T08:56:47Z</time>
</trkpt>
<trkpt lat="45.03404813" lon="5.34730738">
<ele>656.240</ele>
<time>2013-06-26T08:57:01Z</time>
</trkpt>
<trkpt lat="45.03390212" lon="5.34744652">
<ele>656.720</ele>
<time>2013-06-26T08:57:13Z</time>
</trkpt>
<trkpt lat="45.03377907" lon="5.34764752">
<ele>660.080</ele>
<time>2013-06-26T08:57:26Z</time>
</trkpt>
<trkpt lat="45.03371998" lon="5.34770100">
<ele>660.560</ele>
<time>2013-06-26T08:57:31Z</time>
</trkpt>
<trkpt lat="45.03358603" lon="5.34801003">
<ele>663.450</ele>
<time>2013-06-26T08:57:47Z</time>
</trkpt>
<trkpt lat="45.03356039" lon="5.34805756">
<ele>663.450</ele>
<time>2013-06-26T08:58:02Z</time>
</trkpt>
<trkpt lat="45.03356131" lon="5.34807927">
<ele>663.930</ele>
<time>2013-06-26T08:58:22Z</time>
</trkpt>
<trkpt lat="45.03354706" lon="5.34812009">
<ele>662.970</ele>
<time>2013-06-26T08:58:41Z</time>
</trkpt>
<trkpt lat="45.03351085" lon="5.34816158">
<ele>662.490</ele>
<time>2013-06-26T08:58:45Z</time>
</trkpt>
<trkpt lat="45.03346282" lon="5.34820567">
<ele>663.450</ele>
<time>2013-06-26T08:58:50Z</time>
</trkpt>
<trkpt lat="45.03337280" lon="5.34830265">
<ele>664.890</ele>
<time>2013-06-26T08:58:57Z</time>
</trkpt>
<trkpt lat="45.03319527" lon="5.34848001">
<ele>667.290</ele>
<time>2013-06-26T08:59:11Z</time>
</trkpt>
<trkpt lat="45.03318328" lon="5.34849250">
<ele>667.770</ele>
<time>2013-06-26T08:59:12Z</time>
</trkpt>
<trkpt lat="45.03306736" lon="5.34870624">
<ele>670.180</ele>
<time>2013-06-26T08:59:26Z</time>
</trkpt>
<trkpt lat="45.03297868" lon="5.34887228">
<ele>672.100</ele>
<time>2013-06-26T08:59:40Z</time>
</trkpt>
<trkpt lat="45.03296862" lon="5.34889173">
<ele>672.100</ele>
<time>2013-06-26T08:59:54Z</time>
</trkpt>
<trkpt lat="45.03294004" lon="5.34900346">
<ele>674.020</ele>
<time>2013-06-26T09:00:07Z</time>
</trkpt>
<trkpt lat="45.03293702" lon="5.34901461">
<ele>674.020</ele>
<time>2013-06-26T09:00:32Z</time>
</trkpt>
<trkpt lat="45.03293753" lon="5.34904805">
<ele>674.020</ele>
<time>2013-06-26T09:00:55Z</time>
</trkpt>
<trkpt lat="45.03293308" lon="5.34905626">
<ele>674.020</ele>
<time>2013-06-26T09:01:00Z</time>
</trkpt>
<trkpt lat="45.03288346" lon="5.34930680">
<ele>676.910</ele>
<time>2013-06-26T09:01:14Z</time>
</trkpt>
<trkpt lat="45.03283041" lon="5.34940260">
<ele>678.830</ele>
<time>2013-06-26T09:01:27Z</time>
</trkpt>
<trkpt lat="45.03276201" lon="5.34953093">
<ele>681.230</ele>
<time>2013-06-26T09:01:42Z</time>
</trkpt>
<trkpt lat="45.03270015" lon="5.34964509">
<ele>683.150</ele>
<time>2013-06-26T09:01:54Z</time>
</trkpt>
<trkpt lat="45.03263243" lon="5.34976688">
<ele>684.120</ele>
<time>2013-06-26T09:02:08Z</time>
</trkpt>
<trkpt lat="45.03262052" lon="5.34988322">
<ele>686.520</ele>
<time>2013-06-26T09:02:20Z</time>
</trkpt>
<trkpt lat="45.03262170" lon="5.35000032">
<ele>687.000</ele>
<time>2013-06-26T09:02:34Z</time>
</trkpt>
<trkpt lat="45.03264651" lon="5.35009193">
<ele>689.400</ele>
<time>2013-06-26T09:02:51Z</time>
</trkpt>
<trkpt lat="45.03264709" lon="5.35016444">
<ele>690.840</ele>
<time>2013-06-26T09:03:05Z</time>
</trkpt>
<trkpt lat="45.03263243" lon="5.35024138">
<ele>692.770</ele>
<time>2013-06-26T09:03:28Z</time>
</trkpt>
<trkpt lat="45.03260359" lon="5.35038304">
<ele>694.210</ele>
<time>2013-06-26T09:03:41Z</time>
</trkpt>
<trkpt lat="45.03260879" lon="5.35044992">
<ele>695.170</ele>
<time>2013-06-26T09:03:46Z</time>
</trkpt>
<trkpt lat="45.03261080" lon="5.35048043">
<ele>695.650</ele>
<time>2013-06-26T09:03:48Z</time>
</trkpt>
<trkpt lat="45.03261692" lon="5.35058286">
<ele>696.610</ele>
<time>2013-06-26T09:04:02Z</time>
</trkpt>
<trkpt lat="45.03261223" lon="5.35064053">
<ele>697.090</ele>
<time>2013-06-26T09:04:07Z</time>
</trkpt>
<trkpt lat="45.03260829" lon="5.35080817">
<ele>698.050</ele>
<time>2013-06-26T09:04:21Z</time>
</trkpt>
<trkpt lat="45.03256931" lon="5.35083457">
<ele>697.090</ele>
<time>2013-06-26T09:04:27Z</time>
</trkpt>
<trkpt lat="45.03250402" lon="5.35091537">
<ele>697.090</ele>
<time>2013-06-26T09:04:39Z</time>
</trkpt>
<trkpt lat="45.03247904" lon="5.35102408">
<ele>697.570</ele>
<time>2013-06-26T09:04:45Z</time>
</trkpt>
<trkpt lat="45.03250267" lon="5.35116523">
<ele>699.020</ele>
<time>2013-06-26T09:04:52Z</time>
</trkpt>
<trkpt lat="45.03252287" lon="5.35140462">
<ele>700.460</ele>
<time>2013-06-26T09:05:02Z</time>
</trkpt>
<trkpt lat="45.03234786" lon="5.35153404">
<ele>702.380</ele>
<time>2013-06-26T09:05:16Z</time>
</trkpt>
<trkpt lat="45.03231919" lon="5.35150001">
<ele>702.860</ele>
<time>2013-06-26T09:05:18Z</time>
</trkpt>
<trkpt lat="45.03227410" lon="5.35138023">
<ele>703.340</ele>
<time>2013-06-26T09:05:23Z</time>
</trkpt>
<trkpt lat="45.03217922" lon="5.35098645">
<ele>704.300</ele>
<time>2013-06-26T09:05:38Z</time>
</trkpt>
<trkpt lat="45.03205382" lon="5.35055369">
<ele>707.190</ele>
<time>2013-06-26T09:05:55Z</time>
</trkpt>
<trkpt lat="45.03190161" lon="5.35007793">
<ele>710.070</ele>
<time>2013-06-26T09:06:13Z</time>
</trkpt>
<trkpt lat="45.03178099" lon="5.34969178">
<ele>711.990</ele>
<time>2013-06-26T09:06:28Z</time>
</trkpt>
<trkpt lat="45.03164655" lon="5.34930144">
<ele>715.360</ele>
<time>2013-06-26T09:06:43Z</time>
</trkpt>
<trkpt lat="45.03138486" lon="5.34898644">
<ele>717.760</ele>
<time>2013-06-26T09:07:00Z</time>
</trkpt>
<trkpt lat="45.03108932" lon="5.34883289">
<ele>720.650</ele>
<time>2013-06-26T09:07:16Z</time>
</trkpt>
<trkpt lat="45.03073183" lon="5.34863851">
<ele>724.010</ele>
<time>2013-06-26T09:07:35Z</time>
</trkpt>
<trkpt lat="45.03040317" lon="5.34842452">
<ele>726.410</ele>
<time>2013-06-26T09:07:53Z</time>
</trkpt>
<trkpt lat="45.03003789" lon="5.34820668">
<ele>729.300</ele>
<time>2013-06-26T09:08:12Z</time>
</trkpt>
<trkpt lat="45.02971913" lon="5.34815722">
<ele>731.700</ele>
<time>2013-06-26T09:08:28Z</time>
</trkpt>
<trkpt lat="45.02944806" lon="5.34815127">
<ele>735.070</ele>
<time>2013-06-26T09:08:42Z</time>
</trkpt>
<trkpt lat="45.02913742" lon="5.34813836">
<ele>737.950</ele>
<time>2013-06-26T09:08:58Z</time>
</trkpt>
<trkpt lat="45.02887934" lon="5.34811732">
<ele>740.350</ele>
<time>2013-06-26T09:09:12Z</time>
</trkpt>
<trkpt lat="45.02873283" lon="5.34807156">
<ele>741.790</ele>
<time>2013-06-26T09:09:20Z</time>
</trkpt>
<trkpt lat="45.02843871" lon="5.34791918">
<ele>745.160</ele>
<time>2013-06-26T09:09:37Z</time>
</trkpt>
<trkpt lat="45.02835548" lon="5.34792798">
<ele>746.120</ele>
<time>2013-06-26T09:09:47Z</time>
</trkpt>
<trkpt lat="45.02835497" lon="5.34793778">
<ele>745.640</ele>
<time>2013-06-26T09:09:54Z</time>
</trkpt>
<trkpt lat="45.02831793" lon="5.34796972">
<ele>746.600</ele>
<time>2013-06-26T09:09:58Z</time>
</trkpt>
<trkpt lat="45.02829362" lon="5.34828270">
<ele>747.560</ele>
<time>2013-06-26T09:10:10Z</time>
</trkpt>
<trkpt lat="45.02842773" lon="5.34838479">
<ele>748.520</ele>
<time>2013-06-26T09:10:17Z</time>
</trkpt>
<trkpt lat="45.02874205" lon="5.34844799">
<ele>749.970</ele>
<time>2013-06-26T09:10:31Z</time>
</trkpt>
<trkpt lat="45.02906894" lon="5.34864178">
<ele>752.370</ele>
<time>2013-06-26T09:10:45Z</time>
</trkpt>
<trkpt lat="45.02941738" lon="5.34884680">
<ele>754.770</ele>
<time>2013-06-26T09:11:00Z</time>
</trkpt>
<trkpt lat="45.02975978" lon="5.34908166">
<ele>757.660</ele>
<time>2013-06-26T09:11:16Z</time>
</trkpt>
<trkpt lat="45.02992901" lon="5.34951643">
<ele>760.540</ele>
<time>2013-06-26T09:11:32Z</time>
</trkpt>
<trkpt lat="45.02981678" lon="5.34996511">
<ele>763.420</ele>
<time>2013-06-26T09:11:47Z</time>
</trkpt>
<trkpt lat="45.02973690" lon="5.35037834">
<ele>765.830</ele>
<time>2013-06-26T09:12:01Z</time>
</trkpt>
<trkpt lat="45.02996036" lon="5.35064011">
<ele>767.750</ele>
<time>2013-06-26T09:12:14Z</time>
</trkpt>
<trkpt lat="45.03032723" lon="5.35076123">
<ele>770.630</ele>
<time>2013-06-26T09:12:30Z</time>
</trkpt>
<trkpt lat="45.03062261" lon="5.35098544">
<ele>772.080</ele>
<time>2013-06-26T09:12:45Z</time>
</trkpt>
<trkpt lat="45.03066595" lon="5.35113766">
<ele>773.520</ele>
<time>2013-06-26T09:12:50Z</time>
</trkpt>
<trkpt lat="45.03056922" lon="5.35161023">
<ele>776.400</ele>
<time>2013-06-26T09:13:05Z</time>
</trkpt>
<trkpt lat="45.03031114" lon="5.35198272">
<ele>779.290</ele>
<time>2013-06-26T09:13:21Z</time>
</trkpt>
<trkpt lat="45.03014660" lon="5.35226838">
<ele>780.730</ele>
<time>2013-06-26T09:13:33Z</time>
</trkpt>
<trkpt lat="45.03000721" lon="5.35252428">
<ele>782.170</ele>
<time>2013-06-26T09:13:43Z</time>
</trkpt>
<trkpt lat="45.02984142" lon="5.35294530">
<ele>784.570</ele>
<time>2013-06-26T09:13:59Z</time>
</trkpt>
<trkpt lat="45.02998341" lon="5.35327923">
<ele>786.500</ele>
<time>2013-06-26T09:14:13Z</time>
</trkpt>
<trkpt lat="45.03035112" lon="5.35343321">
<ele>789.380</ele>
<time>2013-06-26T09:14:30Z</time>
</trkpt>
<trkpt lat="45.03071498" lon="5.35359649">
<ele>792.260</ele>
<time>2013-06-26T09:14:47Z</time>
</trkpt>
<trkpt lat="45.03107758" lon="5.35384711">
<ele>794.670</ele>
<time>2013-06-26T09:15:04Z</time>
</trkpt>
<trkpt lat="45.03128026" lon="5.35414576">
<ele>797.550</ele>
<time>2013-06-26T09:15:17Z</time>
</trkpt>
<trkpt lat="45.03140314" lon="5.35454465">
<ele>798.990</ele>
<time>2013-06-26T09:15:31Z</time>
</trkpt>
<trkpt lat="45.03150171" lon="5.35515334">
<ele>801.400</ele>
<time>2013-06-26T09:15:51Z</time>
</trkpt>
<trkpt lat="45.03156809" lon="5.35582339">
<ele>803.320</ele>
<time>2013-06-26T09:16:10Z</time>
</trkpt>
<trkpt lat="45.03158100" lon="5.35651029">
<ele>804.760</ele>
<time>2013-06-26T09:16:28Z</time>
</trkpt>
<trkpt lat="45.03158427" lon="5.35710105">
<ele>807.160</ele>
<time>2013-06-26T09:16:42Z</time>
</trkpt>
<trkpt lat="45.03157496" lon="5.35780898">
<ele>810.050</ele>
<time>2013-06-26T09:16:59Z</time>
</trkpt>
<trkpt lat="45.03156390" lon="5.35835599">
<ele>812.450</ele>
<time>2013-06-26T09:17:13Z</time>
</trkpt>
<trkpt lat="45.03153733" lon="5.35903752">
<ele>815.340</ele>
<time>2013-06-26T09:17:31Z</time>
</trkpt>
<trkpt lat="45.03147061" lon="5.35957865">
<ele>817.740</ele>
<time>2013-06-26T09:17:46Z</time>
</trkpt>
<trkpt lat="45.03139886" lon="5.36017184">
<ele>820.620</ele>
<time>2013-06-26T09:18:03Z</time>
</trkpt>
<trkpt lat="45.03142635" lon="5.36075623">
<ele>823.510</ele>
<time>2013-06-26T09:18:20Z</time>
</trkpt>
<trkpt lat="45.03170061" lon="5.36084315">
<ele>826.390</ele>
<time>2013-06-26T09:18:33Z</time>
</trkpt>
<trkpt lat="45.03205634" lon="5.36072999">
<ele>829.270</ele>
<time>2013-06-26T09:18:49Z</time>
</trkpt>
<trkpt lat="45.03237896" lon="5.36061306">
<ele>832.640</ele>
<time>2013-06-26T09:19:04Z</time>
</trkpt>
<trkpt lat="45.03261390" lon="5.36044249">
<ele>836.000</ele>
<time>2013-06-26T09:19:16Z</time>
</trkpt>
<trkpt lat="45.03289377" lon="5.36013412">
<ele>839.370</ele>
<time>2013-06-26T09:19:31Z</time>
</trkpt>
<trkpt lat="45.03296234" lon="5.36012993">
<ele>839.850</ele>
<time>2013-06-26T09:19:34Z</time>
</trkpt>
<trkpt lat="45.03296267" lon="5.36032615">
<ele>841.770</ele>
<time>2013-06-26T09:19:41Z</time>
</trkpt>
<trkpt lat="45.03264500" lon="5.36080727">
<ele>844.180</ele>
<time>2013-06-26T09:20:00Z</time>
</trkpt>
<trkpt lat="45.03233554" lon="5.36107080">
<ele>847.060</ele>
<time>2013-06-26T09:20:16Z</time>
</trkpt>
<trkpt lat="45.03205743" lon="5.36131781">
<ele>850.420</ele>
<time>2013-06-26T09:20:31Z</time>
</trkpt>
<trkpt lat="45.03173799" lon="5.36164949">
<ele>853.310</ele>
<time>2013-06-26T09:20:49Z</time>
</trkpt>
<trkpt lat="45.03146256" lon="5.36191226">
<ele>856.670</ele>
<time>2013-06-26T09:21:04Z</time>
</trkpt>
<trkpt lat="45.03119879" lon="5.36214360">
<ele>859.560</ele>
<time>2013-06-26T09:21:18Z</time>
</trkpt>
<trkpt lat="45.03091246" lon="5.36239112">
<ele>862.440</ele>
<time>2013-06-26T09:21:33Z</time>
</trkpt>
<trkpt lat="45.03056612" lon="5.36262774">
<ele>865.800</ele>
<time>2013-06-26T09:21:50Z</time>
</trkpt>
<trkpt lat="45.03035657" lon="5.36240403">
<ele>867.250</ele>
<time>2013-06-26T09:22:03Z</time>
</trkpt>
<trkpt lat="45.03039806" lon="5.36193673">
<ele>869.170</ele>
<time>2013-06-26T09:22:16Z</time>
</trkpt>
<trkpt lat="45.03045053" lon="5.36139543">
<ele>870.610</ele>
<time>2013-06-26T09:22:31Z</time>
</trkpt>
<trkpt lat="45.03050795" lon="5.36085614">
<ele>872.050</ele>
<time>2013-06-26T09:22:45Z</time>
</trkpt>
<trkpt lat="45.03059311" lon="5.36009012">
<ele>874.460</ele>
<time>2013-06-26T09:23:04Z</time>
</trkpt>
<trkpt lat="45.03061213" lon="5.35928235">
<ele>876.860</ele>
<time>2013-06-26T09:23:23Z</time>
</trkpt>
<trkpt lat="45.03043771" lon="5.35881012">
<ele>878.300</ele>
<time>2013-06-26T09:23:35Z</time>
</trkpt>
<trkpt lat="45.03006882" lon="5.35834811">
<ele>880.710</ele>
<time>2013-06-26T09:23:51Z</time>
</trkpt>
<trkpt lat="45.02980672" lon="5.35790672">
<ele>883.590</ele>
<time>2013-06-26T09:24:06Z</time>
</trkpt>
<trkpt lat="45.02965920" lon="5.35753238">
<ele>886.950</ele>
<time>2013-06-26T09:24:18Z</time>
</trkpt>
<trkpt lat="45.02936139" lon="5.35707213">
<ele>889.840</ele>
<time>2013-06-26T09:24:35Z</time>
</trkpt>
<trkpt lat="45.02900373" lon="5.35691438">
<ele>893.200</ele>
<time>2013-06-26T09:24:52Z</time>
</trkpt>
<trkpt lat="45.02865555" lon="5.35701957">
<ele>896.570</ele>
<time>2013-06-26T09:25:07Z</time>
</trkpt>
<trkpt lat="45.02833251" lon="5.35721336">
<ele>899.450</ele>
<time>2013-06-26T09:25:22Z</time>
</trkpt>
<trkpt lat="45.02802682" lon="5.35742828">
<ele>902.820</ele>
<time>2013-06-26T09:25:36Z</time>
</trkpt>
<trkpt lat="45.02772541" lon="5.35768527">
<ele>905.700</ele>
<time>2013-06-26T09:25:51Z</time>
</trkpt>
<trkpt lat="45.02740488" lon="5.35796128">
<ele>909.060</ele>
<time>2013-06-26T09:26:06Z</time>
</trkpt>
<trkpt lat="45.02704270" lon="5.35828776">
<ele>911.950</ele>
<time>2013-06-26T09:26:22Z</time>
</trkpt>
<trkpt lat="45.02662553" lon="5.35844249">
<ele>914.350</ele>
<time>2013-06-26T09:26:40Z</time>
</trkpt>
<trkpt lat="45.02635555" lon="5.35818776">
<ele>917.720</ele>
<time>2013-06-26T09:26:54Z</time>
</trkpt>
<trkpt lat="45.02630459" lon="5.35779784">
<ele>920.600</ele>
<time>2013-06-26T09:27:06Z</time>
</trkpt>
<trkpt lat="45.02636754" lon="5.35726642">
<ele>923.480</ele>
<time>2013-06-26T09:27:22Z</time>
</trkpt>
<trkpt lat="45.02637374" lon="5.35666494">
<ele>925.890</ele>
<time>2013-06-26T09:27:38Z</time>
</trkpt>
<trkpt lat="45.02610351" lon="5.35624735">
<ele>928.290</ele>
<time>2013-06-26T09:27:53Z</time>
</trkpt>
<trkpt lat="45.02572607" lon="5.35625364">
<ele>931.170</ele>
<time>2013-06-26T09:28:08Z</time>
</trkpt>
<trkpt lat="45.02539993" lon="5.35642840">
<ele>934.540</ele>
<time>2013-06-26T09:28:23Z</time>
</trkpt>
<trkpt lat="45.02510338" lon="5.35661297">
<ele>937.900</ele>
<time>2013-06-26T09:28:37Z</time>
</trkpt>
<trkpt lat="45.02473500" lon="5.35679829">
<ele>940.310</ele>
<time>2013-06-26T09:28:53Z</time>
</trkpt>
<trkpt lat="45.02440953" lon="5.35669696">
<ele>943.670</ele>
<time>2013-06-26T09:29:07Z</time>
</trkpt>
<trkpt lat="45.02410317" lon="5.35641214">
<ele>946.560</ele>
<time>2013-06-26T09:29:22Z</time>
</trkpt>
<trkpt lat="45.02364652" lon="5.35636185">
<ele>948.000</ele>
<time>2013-06-26T09:29:38Z</time>
</trkpt>
<trkpt lat="45.02334771" lon="5.35687080">
<ele>948.480</ele>
<time>2013-06-26T09:29:51Z</time>
</trkpt>
<trkpt lat="45.02303598" lon="5.35776062">
<ele>948.960</ele>
<time>2013-06-26T09:30:09Z</time>
</trkpt>
<trkpt lat="45.02274999" lon="5.35846939">
<ele>950.400</ele>
<time>2013-06-26T09:30:25Z</time>
</trkpt>
<trkpt lat="45.02232017" lon="5.35879126">
<ele>952.320</ele>
<time>2013-06-26T09:30:40Z</time>
</trkpt>
<trkpt lat="45.02183913" lon="5.35864005">
<ele>955.210</ele>
<time>2013-06-26T09:30:56Z</time>
</trkpt>
<trkpt lat="45.02156706" lon="5.35837912">
<ele>958.090</ele>
<time>2013-06-26T09:31:08Z</time>
</trkpt>
<trkpt lat="45.02128358" lon="5.35810704">
<ele>961.460</ele>
<time>2013-06-26T09:31:22Z</time>
</trkpt>
<trkpt lat="45.02095702" lon="5.35776716">
<ele>964.340</ele>
<time>2013-06-26T09:31:38Z</time>
</trkpt>
<trkpt lat="45.02067430" lon="5.35748913">
<ele>967.700</ele>
<time>2013-06-26T09:31:51Z</time>
</trkpt>
<trkpt lat="45.02041429" lon="5.35722544">
<ele>970.590</ele>
<time>2013-06-26T09:32:03Z</time>
</trkpt>
<trkpt lat="45.02008740" lon="5.35701857">
<ele>973.470</ele>
<time>2013-06-26T09:32:17Z</time>
</trkpt>
<trkpt lat="45.01979026" lon="5.35707347">
<ele>976.360</ele>
<time>2013-06-26T09:32:30Z</time>
</trkpt>
<trkpt lat="45.01938583" lon="5.35745183">
<ele>977.800</ele>
<time>2013-06-26T09:32:47Z</time>
</trkpt>
<trkpt lat="45.01906699" lon="5.35781988">
<ele>976.360</ele>
<time>2013-06-26T09:32:56Z</time>
</trkpt>
<trkpt lat="45.01891167" lon="5.35828600">
<ele>976.360</ele>
<time>2013-06-26T09:33:03Z</time>
</trkpt>
<trkpt lat="45.01906179" lon="5.35917305">
<ele>979.240</ele>
<time>2013-06-26T09:33:20Z</time>
</trkpt>
<trkpt lat="45.01889474" lon="5.35973020">
<ele>982.120</ele>
<time>2013-06-26T09:33:33Z</time>
</trkpt>
<trkpt lat="45.01854052" lon="5.36020319">
<ele>985.010</ele>
<time>2013-06-26T09:33:49Z</time>
</trkpt>
<trkpt lat="45.01823383" lon="5.36060988">
<ele>986.450</ele>
<time>2013-06-26T09:34:03Z</time>
</trkpt>
<trkpt lat="45.01779553" lon="5.36108346">
<ele>986.930</ele>
<time>2013-06-26T09:34:20Z</time>
</trkpt>
<trkpt lat="45.01741910" lon="5.36112470">
<ele>987.890</ele>
<time>2013-06-26T09:34:32Z</time>
</trkpt>
<trkpt lat="45.01699900" lon="5.36082831">
<ele>990.780</ele>
<time>2013-06-26T09:34:47Z</time>
</trkpt>
<trkpt lat="45.01661620" lon="5.36044928">
<ele>994.140</ele>
<time>2013-06-26T09:35:02Z</time>
</trkpt>
<trkpt lat="45.01626860" lon="5.36010169">
<ele>997.020</ele>
<time>2013-06-26T09:35:16Z</time>
</trkpt>
<trkpt lat="45.01595722" lon="5.35979214">
<ele>999.910</ele>
<time>2013-06-26T09:35:29Z</time>
</trkpt>
<trkpt lat="45.01557827" lon="5.35941102">
<ele>1003.270</ele>
<time>2013-06-26T09:35:46Z</time>
</trkpt>
<trkpt lat="45.01521215" lon="5.35906954">
<ele>1005.200</ele>
<time>2013-06-26T09:36:02Z</time>
</trkpt>
<trkpt lat="45.01482482" lon="5.35877089">
<ele>1007.120</ele>
<time>2013-06-26T09:36:18Z</time>
</trkpt>
<trkpt lat="45.01439215" lon="5.35860199">
<ele>1010.000</ele>
<time>2013-06-26T09:36:35Z</time>
</trkpt>
<trkpt lat="45.01393726" lon="5.35842924">
<ele>1013.370</ele>
<time>2013-06-26T09:36:53Z</time>
</trkpt>
<trkpt lat="45.01344667" lon="5.35834006">
<ele>1015.770</ele>
<time>2013-06-26T09:37:11Z</time>
</trkpt>
<trkpt lat="45.01302850" lon="5.35842061">
<ele>1018.650</ele>
<time>2013-06-26T09:37:26Z</time>
</trkpt>
<trkpt lat="45.01256296" lon="5.35877299">
<ele>1022.020</ele>
<time>2013-06-26T09:37:44Z</time>
</trkpt>
<trkpt lat="45.01231796" lon="5.35911740">
<ele>1023.940</ele>
<time>2013-06-26T09:37:56Z</time>
</trkpt>
<trkpt lat="45.01204211" lon="5.35968569">
<ele>1026.340</ele>
<time>2013-06-26T09:38:13Z</time>
</trkpt>
<trkpt lat="45.01173207" lon="5.36033168">
<ele>1029.710</ele>
<time>2013-06-26T09:38:31Z</time>
</trkpt>
<trkpt lat="45.01140383" lon="5.36097994">
<ele>1032.590</ele>
<time>2013-06-26T09:38:51Z</time>
</trkpt>
<trkpt lat="45.01116076" lon="5.36148663">
<ele>1035.000</ele>
<time>2013-06-26T09:39:07Z</time>
</trkpt>
<trkpt lat="45.01089698" lon="5.36197772">
<ele>1037.880</ele>
<time>2013-06-26T09:39:22Z</time>
</trkpt>
<trkpt lat="45.01050739" lon="5.36246924">
<ele>1040.760</ele>
<time>2013-06-26T09:39:40Z</time>
</trkpt>
<trkpt lat="45.01017639" lon="5.36281583">
<ele>1043.170</ele>
<time>2013-06-26T09:39:54Z</time>
</trkpt>
<trkpt lat="45.00979266" lon="5.36293938">
<ele>1045.570</ele>
<time>2013-06-26T09:40:08Z</time>
</trkpt>
<trkpt lat="45.00938295" lon="5.36269337">
<ele>1047.970</ele>
<time>2013-06-26T09:40:23Z</time>
</trkpt>
<trkpt lat="45.00904835" lon="5.36225944">
<ele>1051.340</ele>
<time>2013-06-26T09:40:38Z</time>
</trkpt>
<trkpt lat="45.00869002" lon="5.36201050">
<ele>1054.220</ele>
<time>2013-06-26T09:40:52Z</time>
</trkpt>
<trkpt lat="45.00829062" lon="5.36206406">
<ele>1057.110</ele>
<time>2013-06-26T09:41:06Z</time>
</trkpt>
<trkpt lat="45.00802827" lon="5.36215198">
<ele>1059.990</ele>
<time>2013-06-26T09:41:15Z</time>
</trkpt>
<trkpt lat="45.00775896" lon="5.36222432">
<ele>1062.870</ele>
<time>2013-06-26T09:41:27Z</time>
</trkpt>
<trkpt lat="45.00744615" lon="5.36208526">
<ele>1066.240</ele>
<time>2013-06-26T09:41:40Z</time>
</trkpt>
<trkpt lat="45.00715773" lon="5.36178670">
<ele>1069.120</ele>
<time>2013-06-26T09:41:55Z</time>
</trkpt>
<trkpt lat="45.00687886" lon="5.36147824">
<ele>1071.530</ele>
<time>2013-06-26T09:42:08Z</time>
</trkpt>
<trkpt lat="45.00649204" lon="5.36134581">
<ele>1073.450</ele>
<time>2013-06-26T09:42:23Z</time>
</trkpt>
<trkpt lat="45.00603841" lon="5.36156114">
<ele>1074.410</ele>
<time>2013-06-26T09:42:39Z</time>
</trkpt>
<trkpt lat="45.00556894" lon="5.36203153">
<ele>1072.970</ele>
<time>2013-06-26T09:42:51Z</time>
</trkpt>
<trkpt lat="45.00543985" lon="5.36214050">
<ele>1072.010</ele>
<time>2013-06-26T09:42:56Z</time>
</trkpt>
<trkpt lat="45.00546441" lon="5.36222650">
<ele>1072.490</ele>
<time>2013-06-26T09:54:35Z</time>
</trkpt>
<trkpt lat="45.00564831" lon="5.36228123">
<ele>1074.890</ele>
<time>2013-06-26T09:54:49Z</time>
</trkpt>
<trkpt lat="45.00579357" lon="5.36214754">
<ele>1077.780</ele>
<time>2013-06-26T09:55:02Z</time>
</trkpt>
<trkpt lat="45.00601385" lon="5.36205852">
<ele>1080.180</ele>
<time>2013-06-26T09:55:17Z</time>
</trkpt>
<trkpt lat="45.00631493" lon="5.36212198">
<ele>1082.580</ele>
<time>2013-06-26T09:55:35Z</time>
</trkpt>
<trkpt lat="45.00660192" lon="5.36226455">
<ele>1084.020</ele>
<time>2013-06-26T09:55:51Z</time>
</trkpt>
<trkpt lat="45.00679278" lon="5.36249095">
<ele>1085.470</ele>
<time>2013-06-26T09:56:05Z</time>
</trkpt>
<trkpt lat="45.00680619" lon="5.36252565">
<ele>1085.950</ele>
<time>2013-06-26T09:56:06Z</time>
</trkpt>
<trkpt lat="45.00680703" lon="5.36257225">
<ele>1086.430</ele>
<time>2013-06-26T09:56:08Z</time>
</trkpt>
<trkpt lat="45.00661450" lon="5.36253043">
<ele>1087.870</ele>
<time>2013-06-26T09:56:22Z</time>
</trkpt>
<trkpt lat="45.00651081" lon="5.36252691">
<ele>1089.790</ele>
<time>2013-06-26T09:56:29Z</time>
</trkpt>
<trkpt lat="45.00626455" lon="5.36263813">
<ele>1092.200</ele>
<time>2013-06-26T09:56:43Z</time>
</trkpt>
<trkpt lat="45.00601133" lon="5.36282178">
<ele>1093.640</ele>
<time>2013-06-26T09:56:58Z</time>
</trkpt>
<trkpt lat="45.00598879" lon="5.36292328">
<ele>1094.600</ele>
<time>2013-06-26T09:57:02Z</time>
</trkpt>
<trkpt lat="45.00603698" lon="5.36298154">
<ele>1095.560</ele>
<time>2013-06-26T09:57:07Z</time>
</trkpt>
<trkpt lat="45.00629322" lon="5.36294156">
<ele>1098.440</ele>
<time>2013-06-26T09:57:23Z</time>
</trkpt>
<trkpt lat="45.00652850" lon="5.36308212">
<ele>1101.330</ele>
<time>2013-06-26T09:57:38Z</time>
</trkpt>
<trkpt lat="45.00672120" lon="5.36323509">
<ele>1103.730</ele>
<time>2013-06-26T09:57:53Z</time>
</trkpt>
<trkpt lat="45.00675598" lon="5.36324423">
<ele>1103.730</ele>
<time>2013-06-26T09:58:11Z</time>
</trkpt>
<trkpt lat="45.00687040" lon="5.36334674">
<ele>1104.690</ele>
<time>2013-06-26T09:58:27Z</time>
</trkpt>
<trkpt lat="45.00700652" lon="5.36350591">
<ele>1106.130</ele>
<time>2013-06-26T09:58:37Z</time>
</trkpt>
<trkpt lat="45.00721548" lon="5.36366508">
<ele>1108.540</ele>
<time>2013-06-26T09:58:49Z</time>
</trkpt>
<trkpt lat="45.00743869" lon="5.36380841">
<ele>1110.940</ele>
<time>2013-06-26T09:59:02Z</time>
</trkpt>
<trkpt lat="45.00759141" lon="5.36395124">
<ele>1112.380</ele>
<time>2013-06-26T09:59:13Z</time>
</trkpt>
<trkpt lat="45.00769693" lon="5.36411846">
<ele>1113.340</ele>
<time>2013-06-26T09:59:24Z</time>
</trkpt>
<trkpt lat="45.00783096" lon="5.36434192">
<ele>1115.270</ele>
<time>2013-06-26T09:59:34Z</time>
</trkpt>
<trkpt lat="45.00805618" lon="5.36458860">
<ele>1117.190</ele>
<time>2013-06-26T09:59:49Z</time>
</trkpt>
<trkpt lat="45.00829691" lon="5.36471852">
<ele>1118.150</ele>
<time>2013-06-26T10:00:02Z</time>
</trkpt>
<trkpt lat="45.00854862" lon="5.36475984">
<ele>1119.110</ele>
<time>2013-06-26T10:00:14Z</time>
</trkpt>
<trkpt lat="45.00905673" lon="5.36501851">
<ele>1121.520</ele>
<time>2013-06-26T10:00:30Z</time>
</trkpt>
<trkpt lat="45.00932520" lon="5.36517911">
<ele>1123.920</ele>
<time>2013-06-26T10:00:43Z</time>
</trkpt>
<trkpt lat="45.00941698" lon="5.36519738">
<ele>1123.920</ele>
<time>2013-06-26T10:00:53Z</time>
</trkpt>
<trkpt lat="45.00940449" lon="5.36517810">
<ele>1123.920</ele>
<time>2013-06-26T10:01:20Z</time>
</trkpt>
<trkpt lat="45.00943886" lon="5.36521347">
<ele>1124.400</ele>
<time>2013-06-26T10:01:47Z</time>
</trkpt>
<trkpt lat="45.00943417" lon="5.36518799">
<ele>1124.400</ele>
<time>2013-06-26T10:02:10Z</time>
</trkpt>
<trkpt lat="45.00944808" lon="5.36518623">
<ele>1124.400</ele>
<time>2013-06-26T10:02:23Z</time>
</trkpt>
<trkpt lat="45.00971035" lon="5.36538907">
<ele>1125.840</ele>
<time>2013-06-26T10:02:36Z</time>
</trkpt>
<trkpt lat="45.00990523" lon="5.36545101">
<ele>1126.800</ele>
<time>2013-06-26T10:02:45Z</time>
</trkpt>
<trkpt lat="45.01009315" lon="5.36557381">
<ele>1128.730</ele>
<time>2013-06-26T10:02:55Z</time>
</trkpt>
<trkpt lat="45.01026046" lon="5.36570666">
<ele>1130.170</ele>
<time>2013-06-26T10:03:07Z</time>
</trkpt>
<trkpt lat="45.01063705" lon="5.36575863">
<ele>1132.090</ele>
<time>2013-06-26T10:03:20Z</time>
</trkpt>
<trkpt lat="45.01086772" lon="5.36566719">
<ele>1134.490</ele>
<time>2013-06-26T10:03:32Z</time>
</trkpt>
<trkpt lat="45.01116981" lon="5.36551606">
<ele>1136.900</ele>
<time>2013-06-26T10:03:46Z</time>
</trkpt>
<trkpt lat="45.01142990" lon="5.36536343">
<ele>1139.300</ele>
<time>2013-06-26T10:03:59Z</time>
</trkpt>
<trkpt lat="45.01180675" lon="5.36514147">
<ele>1140.740</ele>
<time>2013-06-26T10:04:15Z</time>
</trkpt>
<trkpt lat="45.01207237" lon="5.36496998">
<ele>1142.660</ele>
<time>2013-06-26T10:04:28Z</time>
</trkpt>
<trkpt lat="45.01239675" lon="5.36478038">
<ele>1145.070</ele>
<time>2013-06-26T10:04:43Z</time>
</trkpt>
<trkpt lat="45.01271451" lon="5.36477753">
<ele>1146.030</ele>
<time>2013-06-26T10:04:56Z</time>
</trkpt>
<trkpt lat="45.01295247" lon="5.36493528">
<ele>1146.990</ele>
<time>2013-06-26T10:05:06Z</time>
</trkpt>
<trkpt lat="45.01323519" lon="5.36512706">
<ele>1148.910</ele>
<time>2013-06-26T10:05:20Z</time>
</trkpt>
<trkpt lat="45.01355119" lon="5.36533183">
<ele>1150.840</ele>
<time>2013-06-26T10:05:33Z</time>
</trkpt>
<trkpt lat="45.01387004" lon="5.36560558">
<ele>1152.280</ele>
<time>2013-06-26T10:05:47Z</time>
</trkpt>
<trkpt lat="45.01415201" lon="5.36575838">
<ele>1155.160</ele>
<time>2013-06-26T10:06:01Z</time>
</trkpt>
<trkpt lat="45.01446172" lon="5.36592920">
<ele>1157.080</ele>
<time>2013-06-26T10:06:15Z</time>
</trkpt>
<trkpt lat="45.01479104" lon="5.36612693">
<ele>1159.010</ele>
<time>2013-06-26T10:06:29Z</time>
</trkpt>
<trkpt lat="45.01511031" lon="5.36630270">
<ele>1161.890</ele>
<time>2013-06-26T10:06:43Z</time>
</trkpt>
<trkpt lat="45.01526579" lon="5.36634142">
<ele>1162.850</ele>
<time>2013-06-26T10:06:50Z</time>
</trkpt>
<trkpt lat="45.01556193" lon="5.36640739">
<ele>1163.810</ele>
<time>2013-06-26T10:07:03Z</time>
</trkpt>
<trkpt lat="45.01584347" lon="5.36659406">
<ele>1167.180</ele>
<time>2013-06-26T10:07:16Z</time>
</trkpt>
<trkpt lat="45.01607607" lon="5.36684719">
<ele>1170.060</ele>
<time>2013-06-26T10:07:27Z</time>
</trkpt>
<trkpt lat="45.01630364" lon="5.36704349">
<ele>1171.500</ele>
<time>2013-06-26T10:07:39Z</time>
</trkpt>
<trkpt lat="45.01652082" lon="5.36726369">
<ele>1172.950</ele>
<time>2013-06-26T10:07:51Z</time>
</trkpt>
<trkpt lat="45.01664277" lon="5.36743987">
<ele>1174.390</ele>
<time>2013-06-26T10:08:01Z</time>
</trkpt>
<trkpt lat="45.01671486" lon="5.36755563">
<ele>1174.870</ele>
<time>2013-06-26T10:08:15Z</time>
</trkpt>
<trkpt lat="45.01694142" lon="5.36775813">
<ele>1176.790</ele>
<time>2013-06-26T10:08:28Z</time>
</trkpt>
<trkpt lat="45.01711241" lon="5.36804698">
<ele>1178.710</ele>
<time>2013-06-26T10:08:37Z</time>
</trkpt>
<trkpt lat="45.01704460" lon="5.36831151">
<ele>1181.120</ele>
<time>2013-06-26T10:08:46Z</time>
</trkpt>
<trkpt lat="45.01685517" lon="5.36843397">
<ele>1182.560</ele>
<time>2013-06-26T10:08:59Z</time>
</trkpt>
<trkpt lat="45.01687646" lon="5.36840782">
<ele>1181.600</ele>
<time>2013-06-26T10:09:17Z</time>
</trkpt>
<trkpt lat="45.01679524" lon="5.36836356">
<ele>1181.600</ele>
<time>2013-06-26T10:09:51Z</time>
</trkpt>
<trkpt lat="45.01685450" lon="5.36850479">
<ele>1182.080</ele>
<time>2013-06-26T10:10:20Z</time>
</trkpt>
<trkpt lat="45.01687386" lon="5.36853044">
<ele>1180.640</ele>
<time>2013-06-26T10:10:34Z</time>
</trkpt>
<trkpt lat="45.01687797" lon="5.36851133">
<ele>1180.640</ele>
<time>2013-06-26T10:10:54Z</time>
</trkpt>
<trkpt lat="45.01688249" lon="5.36847680">
<ele>1181.120</ele>
<time>2013-06-26T10:11:25Z</time>
</trkpt>
<trkpt lat="45.01689113" lon="5.36848082">
<ele>1181.120</ele>
<time>2013-06-26T10:11:49Z</time>
</trkpt>
<trkpt lat="45.01687353" lon="5.36846045">
<ele>1181.120</ele>
<time>2013-06-26T10:12:17Z</time>
</trkpt>
<trkpt lat="45.01685953" lon="5.36849214">
<ele>1180.640</ele>
<time>2013-06-26T10:12:49Z</time>
</trkpt>
<trkpt lat="45.01689741" lon="5.36845861">
<ele>1180.640</ele>
<time>2013-06-26T10:13:21Z</time>
</trkpt>
<trkpt lat="45.01689473" lon="5.36849247">
<ele>1181.120</ele>
<time>2013-06-26T10:13:44Z</time>
</trkpt>
<trkpt lat="45.01686925" lon="5.36852147">
<ele>1181.120</ele>
<time>2013-06-26T10:14:12Z</time>
</trkpt>
<trkpt lat="45.01686615" lon="5.36850999">
<ele>1180.640</ele>
<time>2013-06-26T10:14:42Z</time>
</trkpt>
<trkpt lat="45.01686875" lon="5.36844612">
<ele>1182.080</ele>
<time>2013-06-26T10:15:12Z</time>
</trkpt>
<trkpt lat="45.01685953" lon="5.36844931">
<ele>1181.600</ele>
<time>2013-06-26T10:15:28Z</time>
</trkpt>
<trkpt lat="45.01685785" lon="5.36843698">
<ele>1181.600</ele>
<time>2013-06-26T10:15:40Z</time>
</trkpt>
<trkpt lat="45.01682768" lon="5.36841586">
<ele>1182.080</ele>
<time>2013-06-26T10:16:01Z</time>
</trkpt>
<trkpt lat="45.01680907" lon="5.36838125">
<ele>1182.080</ele>
<time>2013-06-26T10:16:16Z</time>
</trkpt>
<trkpt lat="45.01685919" lon="5.36835283">
<ele>1182.080</ele>
<time>2013-06-26T10:16:51Z</time>
</trkpt>
<trkpt lat="45.01685081" lon="5.36836105">
<ele>1182.080</ele>
<time>2013-06-26T10:17:26Z</time>
</trkpt>
<trkpt lat="45.01685265" lon="5.36837001">
<ele>1182.080</ele>
<time>2013-06-26T10:17:57Z</time>
</trkpt>
<trkpt lat="45.01683581" lon="5.36839063">
<ele>1182.080</ele>
<time>2013-06-26T10:18:25Z</time>
</trkpt>
<trkpt lat="45.01689389" lon="5.36836951">
<ele>1182.080</ele>
<time>2013-06-26T10:18:59Z</time>
</trkpt>
<trkpt lat="45.01686892" lon="5.36836264">
<ele>1182.080</ele>
<time>2013-06-26T10:19:34Z</time>
</trkpt>
<trkpt lat="45.01683187" lon="5.36840094">
<ele>1183.040</ele>
<time>2013-06-26T10:19:52Z</time>
</trkpt>
<trkpt lat="45.01655418" lon="5.36848904">
<ele>1184.480</ele>
<time>2013-06-26T10:20:05Z</time>
</trkpt>
<trkpt lat="45.01623105" lon="5.36856565">
<ele>1186.880</ele>
<time>2013-06-26T10:20:18Z</time>
</trkpt>
<trkpt lat="45.01586577" lon="5.36876564">
<ele>1189.290</ele>
<time>2013-06-26T10:20:34Z</time>
</trkpt>
<trkpt lat="45.01554013" lon="5.36886673">
<ele>1191.210</ele>
<time>2013-06-26T10:20:48Z</time>
</trkpt>
<trkpt lat="45.01520963" lon="5.36895566">
<ele>1193.130</ele>
<time>2013-06-26T10:21:02Z</time>
</trkpt>
<trkpt lat="45.01514945" lon="5.36898826">
<ele>1193.610</ele>
<time>2013-06-26T10:21:05Z</time>
</trkpt>
<trkpt lat="45.01478786" lon="5.36921793">
<ele>1196.500</ele>
<time>2013-06-26T10:21:20Z</time>
</trkpt>
<trkpt lat="45.01447370" lon="5.36946804">
<ele>1199.380</ele>
<time>2013-06-26T10:21:34Z</time>
</trkpt>
<trkpt lat="45.01412577" lon="5.36961255">
<ele>1201.790</ele>
<time>2013-06-26T10:21:50Z</time>
</trkpt>
<trkpt lat="45.01379871" lon="5.36973191">
<ele>1202.270</ele>
<time>2013-06-26T10:22:04Z</time>
</trkpt>
<trkpt lat="45.01354339" lon="5.36991681">
<ele>1202.750</ele>
<time>2013-06-26T10:22:16Z</time>
</trkpt>
<trkpt lat="45.01321441" lon="5.37024731">
<ele>1203.230</ele>
<time>2013-06-26T10:22:32Z</time>
</trkpt>
<trkpt lat="45.01287469" lon="5.37042517">
<ele>1205.630</ele>
<time>2013-06-26T10:22:45Z</time>
</trkpt>
<trkpt lat="45.01257562" lon="5.37059583">
<ele>1207.070</ele>
<time>2013-06-26T10:22:57Z</time>
</trkpt>
<trkpt lat="45.01228175" lon="5.37085583">
<ele>1206.590</ele>
<time>2013-06-26T10:23:09Z</time>
</trkpt>
<trkpt lat="45.01216264" lon="5.37135808">
<ele>1206.110</ele>
<time>2013-06-26T10:23:20Z</time>
</trkpt>
<trkpt lat="45.01207162" lon="5.37187692">
<ele>1206.590</ele>
<time>2013-06-26T10:23:33Z</time>
</trkpt>
<trkpt lat="45.01162712" lon="5.37210801">
<ele>1207.070</ele>
<time>2013-06-26T10:23:47Z</time>
</trkpt>
<trkpt lat="45.01140509" lon="5.37232686">
<ele>1208.510</ele>
<time>2013-06-26T10:23:57Z</time>
</trkpt>
<trkpt lat="45.01119034" lon="5.37277957">
<ele>1207.550</ele>
<time>2013-06-26T10:24:08Z</time>
</trkpt>
<trkpt lat="45.01074568" lon="5.37342556">
<ele>1206.590</ele>
<time>2013-06-26T10:24:23Z</time>
</trkpt>
<trkpt lat="45.01059322" lon="5.37357149">
<ele>1206.110</ele>
<time>2013-06-26T10:24:27Z</time>
</trkpt>
<trkpt lat="45.01042558" lon="5.37378204">
<ele>1206.110</ele>
<time>2013-06-26T10:24:32Z</time>
</trkpt>
<trkpt lat="45.01015543" lon="5.37427548">
<ele>1207.550</ele>
<time>2013-06-26T10:24:44Z</time>
</trkpt>
<trkpt lat="45.00984622" lon="5.37476918">
<ele>1208.030</ele>
<time>2013-06-26T10:24:58Z</time>
</trkpt>
<trkpt lat="45.00963408" lon="5.37517637">
<ele>1208.030</ele>
<time>2013-06-26T10:25:10Z</time>
</trkpt>
<trkpt lat="45.00953802" lon="5.37538047">
<ele>1208.030</ele>
<time>2013-06-26T10:25:22Z</time>
</trkpt>
<trkpt lat="45.00950483" lon="5.37551357">
<ele>1207.550</ele>
<time>2013-06-26T10:25:34Z</time>
</trkpt>
<trkpt lat="45.00950801" lon="5.37552615">
<ele>1208.030</ele>
<time>2013-06-26T10:25:57Z</time>
</trkpt>
<trkpt lat="45.00949091" lon="5.37553738">
<ele>1207.550</ele>
<time>2013-06-26T10:26:04Z</time>
</trkpt>
<trkpt lat="45.00941246" lon="5.37561768">
<ele>1208.030</ele>
<time>2013-06-26T10:26:10Z</time>
</trkpt>
<trkpt lat="45.00917450" lon="5.37579646">
<ele>1208.510</ele>
<time>2013-06-26T10:26:26Z</time>
</trkpt>
<trkpt lat="45.00905313" lon="5.37583946">
<ele>1208.510</ele>
<time>2013-06-26T10:26:34Z</time>
</trkpt>
<trkpt lat="45.00892178" lon="5.37582773">
<ele>1208.510</ele>
<time>2013-06-26T10:26:42Z</time>
</trkpt>
<trkpt lat="45.00889756" lon="5.37583552">
<ele>1207.550</ele>
<time>2013-06-26T10:26:56Z</time>
</trkpt>
<trkpt lat="45.00888339" lon="5.37579403">
<ele>1208.510</ele>
<time>2013-06-26T10:27:18Z</time>
</trkpt>
<trkpt lat="45.00887291" lon="5.37578213">
<ele>1208.510</ele>
<time>2013-06-26T10:27:20Z</time>
</trkpt>
<trkpt lat="45.00881860" lon="5.37576796">
<ele>1208.510</ele>
<time>2013-06-26T10:27:25Z</time>
</trkpt>
<trkpt lat="45.00867887" lon="5.37557761">
<ele>1208.510</ele>
<time>2013-06-26T10:27:37Z</time>
</trkpt>
<trkpt lat="45.00842725" lon="5.37517344">
<ele>1209.000</ele>
<time>2013-06-26T10:27:55Z</time>
</trkpt>
<trkpt lat="45.00816573" lon="5.37482777">
<ele>1209.480</ele>
<time>2013-06-26T10:28:10Z</time>
</trkpt>
<trkpt lat="45.00794772" lon="5.37454731">
<ele>1209.480</ele>
<time>2013-06-26T10:28:25Z</time>
</trkpt>
<trkpt lat="45.00776784" lon="5.37419443">
<ele>1209.960</ele>
<time>2013-06-26T10:28:40Z</time>
</trkpt>
<trkpt lat="45.00772158" lon="5.37407977">
<ele>1209.960</ele>
<time>2013-06-26T10:28:52Z</time>
</trkpt>
<trkpt lat="45.00773407" lon="5.37410852">
<ele>1209.960</ele>
<time>2013-06-26T10:28:55Z</time>
</trkpt>
<trkpt lat="45.00790112" lon="5.37451060">
<ele>1209.960</ele>
<time>2013-06-26T10:29:09Z</time>
</trkpt>
<trkpt lat="45.00812332" lon="5.37479290">
<ele>1209.000</ele>
<time>2013-06-26T10:29:23Z</time>
</trkpt>
<trkpt lat="45.00842138" lon="5.37517687">
<ele>1208.510</ele>
<time>2013-06-26T10:29:36Z</time>
</trkpt>
<trkpt lat="45.00870896" lon="5.37559287">
<ele>1208.030</ele>
<time>2013-06-26T10:29:49Z</time>
</trkpt>
<trkpt lat="45.00894877" lon="5.37582396">
<ele>1207.550</ele>
<time>2013-06-26T10:30:02Z</time>
</trkpt>
<trkpt lat="45.00915547" lon="5.37593518">
<ele>1203.710</ele>
<time>2013-06-26T10:30:12Z</time>
</trkpt>
<trkpt lat="45.00925563" lon="5.37596704">
<ele>1201.300</ele>
<time>2013-06-26T10:30:16Z</time>
</trkpt>
<trkpt lat="45.00932009" lon="5.37603535">
<ele>1198.900</ele>
<time>2013-06-26T10:30:20Z</time>
</trkpt>
<trkpt lat="45.00944842" lon="5.37610618">
<ele>1196.500</ele>
<time>2013-06-26T10:30:33Z</time>
</trkpt>
<trkpt lat="45.00958060" lon="5.37611959">
<ele>1194.090</ele>
<time>2013-06-26T10:30:41Z</time>
</trkpt>
<trkpt lat="45.00969451" lon="5.37618170">
<ele>1190.250</ele>
<time>2013-06-26T10:30:49Z</time>
</trkpt>
<trkpt lat="45.00974011" lon="5.37621204">
<ele>1188.810</ele>
<time>2013-06-26T10:30:52Z</time>
</trkpt>
<trkpt lat="45.00977732" lon="5.37624163">
<ele>1188.330</ele>
<time>2013-06-26T10:31:09Z</time>
</trkpt>
<trkpt lat="45.00977757" lon="5.37624406">
<ele>1188.330</ele>
<time>2013-06-26T10:31:31Z</time>
</trkpt>
<trkpt lat="45.00979811" lon="5.37624557">
<ele>1188.330</ele>
<time>2013-06-26T10:31:46Z</time>
</trkpt>
<trkpt lat="45.00976341" lon="5.37618957">
<ele>1187.850</ele>
<time>2013-06-26T10:32:14Z</time>
</trkpt>
<trkpt lat="45.00979157" lon="5.37619502">
<ele>1188.330</ele>
<time>2013-06-26T10:32:40Z</time>
</trkpt>
<trkpt lat="45.00975771" lon="5.37616292">
<ele>1188.330</ele>
<time>2013-06-26T10:33:03Z</time>
</trkpt>
<trkpt lat="45.00978420" lon="5.37616585">
<ele>1188.810</ele>
<time>2013-06-26T10:33:23Z</time>
</trkpt>
<trkpt lat="45.00978428" lon="5.37616594">
<ele>1189.290</ele>
<time>2013-06-26T10:33:53Z</time>
</trkpt>
<trkpt lat="45.00981496" lon="5.37625965">
<ele>1188.810</ele>
<time>2013-06-26T10:34:13Z</time>
</trkpt>
<trkpt lat="45.00984119" lon="5.37634196">
<ele>1187.370</ele>
<time>2013-06-26T10:34:26Z</time>
</trkpt>
<trkpt lat="45.00980708" lon="5.37641580">
<ele>1186.400</ele>
<time>2013-06-26T10:34:39Z</time>
</trkpt>
<trkpt lat="45.00979375" lon="5.37640960">
<ele>1185.920</ele>
<time>2013-06-26T10:34:51Z</time>
</trkpt>
<trkpt lat="45.00974874" lon="5.37647590">
<ele>1185.440</ele>
<time>2013-06-26T10:34:55Z</time>
</trkpt>
<trkpt lat="45.00957607" lon="5.37669735">
<ele>1182.080</ele>
<time>2013-06-26T10:35:06Z</time>
</trkpt>
<trkpt lat="45.00947440" lon="5.37682878">
<ele>1178.710</ele>
<time>2013-06-26T10:35:13Z</time>
</trkpt>
<trkpt lat="45.00943878" lon="5.37691595">
<ele>1177.270</ele>
<time>2013-06-26T10:35:16Z</time>
</trkpt>
<trkpt lat="45.00932965" lon="5.37709063">
<ele>1173.430</ele>
<time>2013-06-26T10:35:23Z</time>
</trkpt>
<trkpt lat="45.00918011" lon="5.37723815">
<ele>1170.060</ele>
<time>2013-06-26T10:35:29Z</time>
</trkpt>
<trkpt lat="45.00895062" lon="5.37739196">
<ele>1169.580</ele>
<time>2013-06-26T10:35:40Z</time>
</trkpt>
<trkpt lat="45.00892413" lon="5.37741895">
<ele>1169.580</ele>
<time>2013-06-26T10:35:42Z</time>
</trkpt>
<trkpt lat="45.00888549" lon="5.37745650">
<ele>1169.580</ele>
<time>2013-06-26T10:35:45Z</time>
</trkpt>
<trkpt lat="45.00886370" lon="5.37761685">
<ele>1168.620</ele>
<time>2013-06-26T10:35:56Z</time>
</trkpt>
<trkpt lat="45.00887065" lon="5.37766856">
<ele>1168.620</ele>
<time>2013-06-26T10:36:10Z</time>
</trkpt>
<trkpt lat="45.00886311" lon="5.37770804">
<ele>1168.620</ele>
<time>2013-06-26T10:36:13Z</time>
</trkpt>
<trkpt lat="45.00888742" lon="5.37774995">
<ele>1169.100</ele>
<time>2013-06-26T10:36:16Z</time>
</trkpt>
<trkpt lat="45.00891047" lon="5.37784793">
<ele>1169.580</ele>
<time>2013-06-26T10:36:31Z</time>
</trkpt>
<trkpt lat="45.00889110" lon="5.37782966">
<ele>1168.620</ele>
<time>2013-06-26T10:36:48Z</time>
</trkpt>
<trkpt lat="45.00887627" lon="5.37779907">
<ele>1168.620</ele>
<time>2013-06-26T10:37:00Z</time>
</trkpt>
<trkpt lat="45.00888934" lon="5.37774081">
<ele>1168.620</ele>
<time>2013-06-26T10:37:04Z</time>
</trkpt>
<trkpt lat="45.00908925" lon="5.37755616">
<ele>1165.740</ele>
<time>2013-06-26T10:37:16Z</time>
</trkpt>
<trkpt lat="45.00918313" lon="5.37753889">
<ele>1164.770</ele>
<time>2013-06-26T10:37:18Z</time>
</trkpt>
<trkpt lat="45.00931934" lon="5.37755675">
<ele>1165.260</ele>
<time>2013-06-26T10:37:22Z</time>
</trkpt>
<trkpt lat="45.00947826" lon="5.37769421">
<ele>1163.330</ele>
<time>2013-06-26T10:37:26Z</time>
</trkpt>
<trkpt lat="45.00959351" lon="5.37778549">
<ele>1162.370</ele>
<time>2013-06-26T10:37:29Z</time>
</trkpt>
<trkpt lat="45.00970532" lon="5.37783394">
<ele>1161.890</ele>
<time>2013-06-26T10:37:32Z</time>
</trkpt>
<trkpt lat="45.00983541" lon="5.37782405">
<ele>1162.370</ele>
<time>2013-06-26T10:37:38Z</time>
</trkpt>
<trkpt lat="45.01001822" lon="5.37760578">
<ele>1162.850</ele>
<time>2013-06-26T10:37:52Z</time>
</trkpt>
<trkpt lat="45.01011193" lon="5.37754166">
<ele>1162.850</ele>
<time>2013-06-26T10:37:58Z</time>
</trkpt>
<trkpt lat="45.01024503" lon="5.37739104">
<ele>1162.850</ele>
<time>2013-06-26T10:38:08Z</time>
</trkpt>
<trkpt lat="45.01031921" lon="5.37723455">
<ele>1160.930</ele>
<time>2013-06-26T10:38:14Z</time>
</trkpt>
<trkpt lat="45.01036355" lon="5.37710563">
<ele>1159.490</ele>
<time>2013-06-26T10:38:27Z</time>
</trkpt>
<trkpt lat="45.01039540" lon="5.37693925">
<ele>1158.050</ele>
<time>2013-06-26T10:38:39Z</time>
</trkpt>
<trkpt lat="45.01043304" lon="5.37670104">
<ele>1154.200</ele>
<time>2013-06-26T10:38:45Z</time>
</trkpt>
<trkpt lat="45.01047076" lon="5.37653608">
<ele>1151.800</ele>
<time>2013-06-26T10:38:49Z</time>
</trkpt>
<trkpt lat="45.01049330" lon="5.37651387">
<ele>1147.470</ele>
<time>2013-06-26T10:38:54Z</time>
</trkpt>
<trkpt lat="45.01049029" lon="5.37652359">
<ele>1146.510</ele>
<time>2013-06-26T10:38:55Z</time>
</trkpt>
<trkpt lat="45.01051476" lon="5.37660657">
<ele>1144.590</ele>
<time>2013-06-26T10:38:58Z</time>
</trkpt>
<trkpt lat="45.01053815" lon="5.37664756">
<ele>1143.630</ele>
<time>2013-06-26T10:39:00Z</time>
</trkpt>
<trkpt lat="45.01057201" lon="5.37671370">
<ele>1141.220</ele>
<time>2013-06-26T10:39:03Z</time>
</trkpt>
<trkpt lat="45.01061761" lon="5.37679047">
<ele>1138.820</ele>
<time>2013-06-26T10:39:06Z</time>
</trkpt>
<trkpt lat="45.01064619" lon="5.37687446">
<ele>1134.490</ele>
<time>2013-06-26T10:39:10Z</time>
</trkpt>
<trkpt lat="45.01068659" lon="5.37688167">
<ele>1131.610</ele>
<time>2013-06-26T10:39:13Z</time>
</trkpt>
<trkpt lat="45.01071635" lon="5.37687404">
<ele>1129.690</ele>
<time>2013-06-26T10:39:16Z</time>
</trkpt>
<trkpt lat="45.01077033" lon="5.37680858">
<ele>1126.320</ele>
<time>2013-06-26T10:39:19Z</time>
</trkpt>
<trkpt lat="45.01082724" lon="5.37670984">
<ele>1122.480</ele>
<time>2013-06-26T10:39:23Z</time>
</trkpt>
<trkpt lat="45.01084995" lon="5.37661202">
<ele>1118.630</ele>
<time>2013-06-26T10:39:26Z</time>
</trkpt>
<trkpt lat="45.01087141" lon="5.37652938">
<ele>1114.790</ele>
<time>2013-06-26T10:39:29Z</time>
</trkpt>
<trkpt lat="45.01088113" lon="5.37651949">
<ele>1113.820</ele>
<time>2013-06-26T10:39:30Z</time>
</trkpt>
<trkpt lat="45.01090167" lon="5.37652007">
<ele>1111.420</ele>
<time>2013-06-26T10:39:33Z</time>
</trkpt>
<trkpt lat="45.01090058" lon="5.37657975">
<ele>1109.020</ele>
<time>2013-06-26T10:39:36Z</time>
</trkpt>
<trkpt lat="45.01092179" lon="5.37659601">
<ele>1107.100</ele>
<time>2013-06-26T10:39:39Z</time>
</trkpt>
<trkpt lat="45.01093461" lon="5.37654027">
<ele>1105.650</ele>
<time>2013-06-26T10:39:48Z</time>
</trkpt>
<trkpt lat="45.01093973" lon="5.37647179">
<ele>1104.210</ele>
<time>2013-06-26T10:39:51Z</time>
</trkpt>
<trkpt lat="45.01096588" lon="5.37645436">
<ele>1101.810</ele>
<time>2013-06-26T10:39:55Z</time>
</trkpt>
<trkpt lat="45.01098080" lon="5.37661747">
<ele>1097.960</ele>
<time>2013-06-26T10:40:00Z</time>
</trkpt>
<trkpt lat="45.01100661" lon="5.37670925">
<ele>1095.560</ele>
<time>2013-06-26T10:40:03Z</time>
</trkpt>
<trkpt lat="45.01103779" lon="5.37680145">
<ele>1093.160</ele>
<time>2013-06-26T10:40:06Z</time>
</trkpt>
<trkpt lat="45.01117408" lon="5.37701385">
<ele>1088.830</ele>
<time>2013-06-26T10:40:11Z</time>
</trkpt>
<trkpt lat="45.01126511" lon="5.37712064">
<ele>1084.990</ele>
<time>2013-06-26T10:40:15Z</time>
</trkpt>
<trkpt lat="45.01131574" lon="5.37724813">
<ele>1080.180</ele>
<time>2013-06-26T10:40:18Z</time>
</trkpt>
<trkpt lat="45.01133300" lon="5.37726145">
<ele>1077.780</ele>
<time>2013-06-26T10:40:23Z</time>
</trkpt>
<trkpt lat="45.01135781" lon="5.37733513">
<ele>1074.890</ele>
<time>2013-06-26T10:40:28Z</time>
</trkpt>
<trkpt lat="45.01136913" lon="5.37739892">
<ele>1072.490</ele>
<time>2013-06-26T10:40:42Z</time>
</trkpt>
<trkpt lat="45.01134197" lon="5.37735290">
<ele>1072.490</ele>
<time>2013-06-26T10:41:10Z</time>
</trkpt>
<trkpt lat="45.01134231" lon="5.37733387">
<ele>1072.970</ele>
<time>2013-06-26T10:41:27Z</time>
</trkpt>
<trkpt lat="45.01142529" lon="5.37731158">
<ele>1073.930</ele>
<time>2013-06-26T10:41:45Z</time>
</trkpt>
<trkpt lat="45.01150517" lon="5.37724259">
<ele>1075.370</ele>
<time>2013-06-26T10:42:27Z</time>
</trkpt>
<trkpt lat="45.01143484" lon="5.37733027">
<ele>1074.890</ele>
<time>2013-06-26T10:42:47Z</time>
</trkpt>
<trkpt lat="45.01142596" lon="5.37741853">
<ele>1071.050</ele>
<time>2013-06-26T10:42:52Z</time>
</trkpt>
<trkpt lat="45.01142696" lon="5.37751241">
<ele>1067.200</ele>
<time>2013-06-26T10:42:56Z</time>
</trkpt>
<trkpt lat="45.01143459" lon="5.37752615">
<ele>1066.720</ele>
<time>2013-06-26T10:42:59Z</time>
</trkpt>
<trkpt lat="45.01141490" lon="5.37760461">
<ele>1063.360</ele>
<time>2013-06-26T10:43:03Z</time>
</trkpt>
<trkpt lat="45.01141565" lon="5.37771232">
<ele>1059.030</ele>
<time>2013-06-26T10:43:07Z</time>
</trkpt>
<trkpt lat="45.01141498" lon="5.37780460">
<ele>1056.150</ele>
<time>2013-06-26T10:43:10Z</time>
</trkpt>
<trkpt lat="45.01136620" lon="5.37795179">
<ele>1052.300</ele>
<time>2013-06-26T10:43:15Z</time>
</trkpt>
<trkpt lat="45.01134742" lon="5.37801264">
<ele>1049.900</ele>
<time>2013-06-26T10:43:17Z</time>
</trkpt>
<trkpt lat="45.01130509" lon="5.37811884">
<ele>1046.530</ele>
<time>2013-06-26T10:43:22Z</time>
</trkpt>
<trkpt lat="45.01128355" lon="5.37827910">
<ele>1043.170</ele>
<time>2013-06-26T10:43:28Z</time>
</trkpt>
<trkpt lat="45.01123955" lon="5.37835672">
<ele>1043.170</ele>
<time>2013-06-26T10:43:41Z</time>
</trkpt>
<trkpt lat="45.01136075" lon="5.37840617">
<ele>1039.800</ele>
<time>2013-06-26T10:43:50Z</time>
</trkpt>
<trkpt lat="45.01140894" lon="5.37843098">
<ele>1038.360</ele>
<time>2013-06-26T10:43:54Z</time>
</trkpt>
<trkpt lat="45.01146208" lon="5.37845864">
<ele>1037.400</ele>
<time>2013-06-26T10:43:56Z</time>
</trkpt>
<trkpt lat="45.01152528" lon="5.37852201">
<ele>1034.520</ele>
<time>2013-06-26T10:43:59Z</time>
</trkpt>
<trkpt lat="45.01156200" lon="5.37857071">
<ele>1032.590</ele>
<time>2013-06-26T10:44:01Z</time>
</trkpt>
<trkpt lat="45.01161572" lon="5.37858781">
<ele>1031.630</ele>
<time>2013-06-26T10:44:02Z</time>
</trkpt>
<trkpt lat="45.01183709" lon="5.37860348">
<ele>1030.190</ele>
<time>2013-06-26T10:44:11Z</time>
</trkpt>
<trkpt lat="45.01183843" lon="5.37868068">
<ele>1027.310</ele>
<time>2013-06-26T10:44:14Z</time>
</trkpt>
<trkpt lat="45.01181823" lon="5.37874698">
<ele>1024.420</ele>
<time>2013-06-26T10:44:18Z</time>
</trkpt>
<trkpt lat="45.01178722" lon="5.37877162">
<ele>1021.060</ele>
<time>2013-06-26T10:44:22Z</time>
</trkpt>
<trkpt lat="45.01177808" lon="5.37882149">
<ele>1017.690</ele>
<time>2013-06-26T10:44:28Z</time>
</trkpt>
<trkpt lat="45.01178487" lon="5.37887941">
<ele>1013.850</ele>
<time>2013-06-26T10:44:32Z</time>
</trkpt>
<trkpt lat="45.01179099" lon="5.37893247">
<ele>1011.440</ele>
<time>2013-06-26T10:44:36Z</time>
</trkpt>
<trkpt lat="45.01182209" lon="5.37895166">
<ele>1009.520</ele>
<time>2013-06-26T10:44:54Z</time>
</trkpt>
<trkpt lat="45.01183097" lon="5.37890934">
<ele>1008.560</ele>
<time>2013-06-26T10:45:02Z</time>
</trkpt>
<trkpt lat="45.01183650" lon="5.37885988">
<ele>1007.120</ele>
<time>2013-06-26T10:45:05Z</time>
</trkpt>
<trkpt lat="45.01182980" lon="5.37883465">
<ele>1006.160</ele>
<time>2013-06-26T10:45:07Z</time>
</trkpt>
<trkpt lat="45.01184204" lon="5.37882669">
<ele>1005.200</ele>
<time>2013-06-26T10:45:09Z</time>
</trkpt>
<trkpt lat="45.01187456" lon="5.37892375">
<ele>1001.350</ele>
<time>2013-06-26T10:45:13Z</time>
</trkpt>
<trkpt lat="45.01188487" lon="5.37893968">
<ele>1000.390</ele>
<time>2013-06-26T10:45:14Z</time>
</trkpt>
<trkpt lat="45.01192317" lon="5.37900941">
<ele>996.060</ele>
<time>2013-06-26T10:45:18Z</time>
</trkpt>
<trkpt lat="45.01190566" lon="5.37898477">
<ele>994.620</ele>
<time>2013-06-26T10:45:20Z</time>
</trkpt>
<trkpt lat="45.01193524" lon="5.37890598">
<ele>991.740</ele>
<time>2013-06-26T10:45:23Z</time>
</trkpt>
<trkpt lat="45.01194924" lon="5.37879258">
<ele>987.890</ele>
<time>2013-06-26T10:45:26Z</time>
</trkpt>
<trkpt lat="45.01196031" lon="5.37872661">
<ele>985.490</ele>
<time>2013-06-26T10:45:29Z</time>
</trkpt>
<trkpt lat="45.01198310" lon="5.37866291">
<ele>983.570</ele>
<time>2013-06-26T10:45:33Z</time>
</trkpt>
<trkpt lat="45.01201613" lon="5.37867607">
<ele>981.160</ele>
<time>2013-06-26T10:45:40Z</time>
</trkpt>
<trkpt lat="45.01206575" lon="5.37862209">
<ele>979.240</ele>
<time>2013-06-26T10:45:51Z</time>
</trkpt>
<trkpt lat="45.01213004" lon="5.37870758">
<ele>975.390</ele>
<time>2013-06-26T10:45:55Z</time>
</trkpt>
<trkpt lat="45.01215912" lon="5.37873047">
<ele>974.430</ele>
<time>2013-06-26T10:45:57Z</time>
</trkpt>
<trkpt lat="45.01218762" lon="5.37878847">
<ele>972.030</ele>
<time>2013-06-26T10:46:00Z</time>
</trkpt>
<trkpt lat="45.01223842" lon="5.37886675">
<ele>969.150</ele>
<time>2013-06-26T10:46:03Z</time>
</trkpt>
<trkpt lat="45.01227295" lon="5.37891604">
<ele>967.220</ele>
<time>2013-06-26T10:46:06Z</time>
</trkpt>
<trkpt lat="45.01231100" lon="5.37904613">
<ele>962.900</ele>
<time>2013-06-26T10:46:11Z</time>
</trkpt>
<trkpt lat="45.01232291" lon="5.37909114">
<ele>961.460</ele>
<time>2013-06-26T10:46:12Z</time>
</trkpt>
<trkpt lat="45.01239256" lon="5.37919876">
<ele>958.090</ele>
<time>2013-06-26T10:46:17Z</time>
</trkpt>
<trkpt lat="45.01242131" lon="5.37919926">
<ele>958.090</ele>
<time>2013-06-26T10:46:18Z</time>
</trkpt>
<trkpt lat="45.01245534" lon="5.37912500">
<ele>954.250</ele>
<time>2013-06-26T10:46:22Z</time>
</trkpt>
<trkpt lat="45.01245693" lon="5.37910497">
<ele>952.800</ele>
<time>2013-06-26T10:46:24Z</time>
</trkpt>
<trkpt lat="45.01250739" lon="5.37897027">
<ele>949.440</ele>
<time>2013-06-26T10:46:31Z</time>
</trkpt>
<trkpt lat="45.01251645" lon="5.37893808">
<ele>948.960</ele>
<time>2013-06-26T10:46:32Z</time>
</trkpt>
<trkpt lat="45.01256456" lon="5.37878428">
<ele>945.110</ele>
<time>2013-06-26T10:46:37Z</time>
</trkpt>
<trkpt lat="45.01255358" lon="5.37871932">
<ele>943.190</ele>
<time>2013-06-26T10:46:40Z</time>
</trkpt>
<trkpt lat="45.01255735" lon="5.37868554">
<ele>942.230</ele>
<time>2013-06-26T10:46:41Z</time>
</trkpt>
<trkpt lat="45.01255492" lon="5.37862259">
<ele>940.790</ele>
<time>2013-06-26T10:46:43Z</time>
</trkpt>
<trkpt lat="45.01258669" lon="5.37851832">
<ele>937.420</ele>
<time>2013-06-26T10:46:47Z</time>
</trkpt>
<trkpt lat="45.01262524" lon="5.37847021">
<ele>934.540</ele>
<time>2013-06-26T10:46:58Z</time>
</trkpt>
<trkpt lat="45.01267470" lon="5.37830668">
<ele>935.500</ele>
<time>2013-06-26T10:47:16Z</time>
</trkpt>
<trkpt lat="45.01271267" lon="5.37828379">
<ele>935.500</ele>
<time>2013-06-26T10:47:20Z</time>
</trkpt>
<trkpt lat="45.01274770" lon="5.37833165">
<ele>933.580</ele>
<time>2013-06-26T10:47:24Z</time>
</trkpt>
<trkpt lat="45.01277654" lon="5.37835630">
<ele>932.620</ele>
<time>2013-06-26T10:47:36Z</time>
</trkpt>
<trkpt lat="45.01283051" lon="5.37829184">
<ele>932.620</ele>
<time>2013-06-26T10:48:04Z</time>
</trkpt>
<trkpt lat="45.01279908" lon="5.37828815">
<ele>932.620</ele>
<time>2013-06-26T10:48:36Z</time>
</trkpt>
<trkpt lat="45.01278793" lon="5.37828186">
<ele>932.620</ele>
<time>2013-06-26T10:49:02Z</time>
</trkpt>
<trkpt lat="45.01274468" lon="5.37835412">
<ele>933.100</ele>
<time>2013-06-26T10:49:35Z</time>
</trkpt>
<trkpt lat="45.01274787" lon="5.37840089">
<ele>932.140</ele>
<time>2013-06-26T10:49:47Z</time>
</trkpt>
<trkpt lat="45.01280604" lon="5.37846275">
<ele>928.770</ele>
<time>2013-06-26T10:49:51Z</time>
</trkpt>
<trkpt lat="45.01282716" lon="5.37849041">
<ele>926.850</ele>
<time>2013-06-26T10:49:53Z</time>
</trkpt>
<trkpt lat="45.01288190" lon="5.37854808">
<ele>923.960</ele>
<time>2013-06-26T10:50:01Z</time>
</trkpt>
<trkpt lat="45.01293160" lon="5.37850591">
<ele>923.960</ele>
<time>2013-06-26T10:50:14Z</time>
</trkpt>
<trkpt lat="45.01292095" lon="5.37847985">
<ele>923.480</ele>
<time>2013-06-26T10:50:17Z</time>
</trkpt>
<trkpt lat="45.01294895" lon="5.37838505">
<ele>918.680</ele>
<time>2013-06-26T10:50:22Z</time>
</trkpt>
<trkpt lat="45.01297971" lon="5.37825471">
<ele>913.870</ele>
<time>2013-06-26T10:50:26Z</time>
</trkpt>
<trkpt lat="45.01298005" lon="5.37822286">
<ele>911.950</ele>
<time>2013-06-26T10:50:28Z</time>
</trkpt>
<trkpt lat="45.01298583" lon="5.37822210">
<ele>911.470</ele>
<time>2013-06-26T10:50:29Z</time>
</trkpt>
<trkpt lat="45.01298592" lon="5.37825949">
<ele>909.540</ele>
<time>2013-06-26T10:50:31Z</time>
</trkpt>
<trkpt lat="45.01302456" lon="5.37832277">
<ele>906.180</ele>
<time>2013-06-26T10:50:35Z</time>
</trkpt>
<trkpt lat="45.01303922" lon="5.37839837">
<ele>903.300</ele>
<time>2013-06-26T10:50:38Z</time>
</trkpt>
<trkpt lat="45.01308013" lon="5.37827675">
<ele>899.450</ele>
<time>2013-06-26T10:50:44Z</time>
</trkpt>
<trkpt lat="45.01307929" lon="5.37826150">
<ele>898.010</ele>
<time>2013-06-26T10:50:45Z</time>
</trkpt>
<trkpt lat="45.01307862" lon="5.37821825">
<ele>895.610</ele>
<time>2013-06-26T10:50:48Z</time>
</trkpt>
<trkpt lat="45.01309077" lon="5.37820592">
<ele>893.680</ele>
<time>2013-06-26T10:50:50Z</time>
</trkpt>
<trkpt lat="45.01309454" lon="5.37820282">
<ele>893.200</ele>
<time>2013-06-26T10:50:51Z</time>
</trkpt>
<trkpt lat="45.01315263" lon="5.37824197">
<ele>889.840</ele>
<time>2013-06-26T10:50:54Z</time>
</trkpt>
<trkpt lat="45.01317141" lon="5.37827306">
<ele>888.400</ele>
<time>2013-06-26T10:50:55Z</time>
</trkpt>
<trkpt lat="45.01319538" lon="5.37838655">
<ele>885.030</ele>
<time>2013-06-26T10:50:59Z</time>
</trkpt>
<trkpt lat="45.01319638" lon="5.37838479">
<ele>884.070</ele>
<time>2013-06-26T10:51:00Z</time>
</trkpt>
<trkpt lat="45.01330107" lon="5.37829067">
<ele>882.630</ele>
<time>2013-06-26T10:51:02Z</time>
</trkpt>
<trkpt lat="45.01332681" lon="5.37828740">
<ele>880.220</ele>
<time>2013-06-26T10:51:04Z</time>
</trkpt>
<trkpt lat="45.01332530" lon="5.37838974">
<ele>875.900</ele>
<time>2013-06-26T10:51:09Z</time>
</trkpt>
<trkpt lat="45.01331541" lon="5.37836124">
<ele>873.980</ele>
<time>2013-06-26T10:51:12Z</time>
</trkpt>
<trkpt lat="45.01332077" lon="5.37831732">
<ele>872.050</ele>
<time>2013-06-26T10:51:13Z</time>
</trkpt>
<trkpt lat="45.01332253" lon="5.37828983">
<ele>871.090</ele>
<time>2013-06-26T10:51:14Z</time>
</trkpt>
<trkpt lat="45.01334282" lon="5.37825881">
<ele>870.130</ele>
<time>2013-06-26T10:51:15Z</time>
</trkpt>
<trkpt lat="45.01339998" lon="5.37825337">
<ele>868.690</ele>
<time>2013-06-26T10:51:18Z</time>
</trkpt>
<trkpt lat="45.01348078" lon="5.37838622">
<ele>865.320</ele>
<time>2013-06-26T10:51:23Z</time>
</trkpt>
<trkpt lat="45.01347844" lon="5.37842796">
<ele>864.360</ele>
<time>2013-06-26T10:51:24Z</time>
</trkpt>
<trkpt lat="45.01347693" lon="5.37854313">
<ele>861.960</ele>
<time>2013-06-26T10:51:26Z</time>
</trkpt>
<trkpt lat="45.01348279" lon="5.37872753">
<ele>858.590</ele>
<time>2013-06-26T10:51:30Z</time>
</trkpt>
<trkpt lat="45.01348699" lon="5.37887220">
<ele>856.190</ele>
<time>2013-06-26T10:51:33Z</time>
</trkpt>
<trkpt lat="45.01348363" lon="5.37891260">
<ele>854.750</ele>
<time>2013-06-26T10:51:34Z</time>
</trkpt>
<trkpt lat="45.01347248" lon="5.37898419">
<ele>853.310</ele>
<time>2013-06-26T10:51:35Z</time>
</trkpt>
<trkpt lat="45.01347165" lon="5.37906239">
<ele>851.870</ele>
<time>2013-06-26T10:51:36Z</time>
</trkpt>
<trkpt lat="45.01347190" lon="5.37909927">
<ele>850.420</ele>
<time>2013-06-26T10:51:37Z</time>
</trkpt>
<trkpt lat="45.01348841" lon="5.37921485">
<ele>847.060</ele>
<time>2013-06-26T10:51:42Z</time>
</trkpt>
<trkpt lat="45.01354977" lon="5.37921653">
<ele>845.620</ele>
<time>2013-06-26T10:51:47Z</time>
</trkpt>
<trkpt lat="45.01355211" lon="5.37919139">
<ele>844.660</ele>
<time>2013-06-26T10:51:49Z</time>
</trkpt>
<trkpt lat="45.01361674" lon="5.37909809">
<ele>841.290</ele>
<time>2013-06-26T10:51:54Z</time>
</trkpt>
<trkpt lat="45.01363107" lon="5.37908695">
<ele>840.330</ele>
<time>2013-06-26T10:51:55Z</time>
</trkpt>
<trkpt lat="45.01364641" lon="5.37907119">
<ele>838.890</ele>
<time>2013-06-26T10:51:56Z</time>
</trkpt>
<trkpt lat="45.01367558" lon="5.37906457">
<ele>836.960</ele>
<time>2013-06-26T10:51:58Z</time>
</trkpt>
<trkpt lat="45.01368413" lon="5.37907974">
<ele>834.560</ele>
<time>2013-06-26T10:52:02Z</time>
</trkpt>
<trkpt lat="45.01369251" lon="5.37912291">
<ele>833.120</ele>
<time>2013-06-26T10:52:05Z</time>
</trkpt>
<trkpt lat="45.01376954" lon="5.37920496">
<ele>831.680</ele>
<time>2013-06-26T10:52:19Z</time>
</trkpt>
<trkpt lat="45.01421613" lon="5.37854942">
<ele>831.680</ele>
<time>2013-06-26T10:52:40Z</time>
</trkpt>
<trkpt lat="45.01423993" lon="5.37862678">
<ele>831.680</ele>
<time>2013-06-26T10:53:03Z</time>
</trkpt>
<trkpt lat="45.01423750" lon="5.37863810">
<ele>832.160</ele>
<time>2013-06-26T10:53:27Z</time>
</trkpt>
<trkpt lat="45.01425762" lon="5.37873709">
<ele>830.240</ele>
<time>2013-06-26T10:53:31Z</time>
</trkpt>
<trkpt lat="45.01426516" lon="5.37875695">
<ele>829.270</ele>
<time>2013-06-26T10:53:32Z</time>
</trkpt>
<trkpt lat="45.01429391" lon="5.37877221">
<ele>825.430</ele>
<time>2013-06-26T10:53:36Z</time>
</trkpt>
<trkpt lat="45.01431009" lon="5.37876483">
<ele>823.990</ele>
<time>2013-06-26T10:53:38Z</time>
</trkpt>
<trkpt lat="45.01438159" lon="5.37872342">
<ele>820.140</ele>
<time>2013-06-26T10:53:44Z</time>
</trkpt>
<trkpt lat="45.01438494" lon="5.37872812">
<ele>820.140</ele>
<time>2013-06-26T10:53:45Z</time>
</trkpt>
<trkpt lat="45.01441285" lon="5.37891939">
<ele>816.780</ele>
<time>2013-06-26T10:53:54Z</time>
</trkpt>
<trkpt lat="45.01443263" lon="5.37900933">
<ele>813.410</ele>
<time>2013-06-26T10:53:57Z</time>
</trkpt>
<trkpt lat="45.01444319" lon="5.37906163">
<ele>810.530</ele>
<time>2013-06-26T10:54:00Z</time>
</trkpt>
<trkpt lat="45.01445208" lon="5.37911980">
<ele>808.130</ele>
<time>2013-06-26T10:54:03Z</time>
</trkpt>
<trkpt lat="45.01450212" lon="5.37898963">
<ele>805.240</ele>
<time>2013-06-26T10:54:07Z</time>
</trkpt>
<trkpt lat="45.01457412" lon="5.37889316">
<ele>801.880</ele>
<time>2013-06-26T10:54:10Z</time>
</trkpt>
<trkpt lat="45.01463053" lon="5.37897136">
<ele>798.030</ele>
<time>2013-06-26T10:54:14Z</time>
</trkpt>
<trkpt lat="45.01465433" lon="5.37899475">
<ele>795.630</ele>
<time>2013-06-26T10:54:16Z</time>
</trkpt>
<trkpt lat="45.01474360" lon="5.37888360">
<ele>791.300</ele>
<time>2013-06-26T10:54:20Z</time>
</trkpt>
<trkpt lat="45.01479766" lon="5.37893071">
<ele>787.460</ele>
<time>2013-06-26T10:54:24Z</time>
</trkpt>
<trkpt lat="45.01485189" lon="5.37905945">
<ele>784.570</ele>
<time>2013-06-26T10:54:29Z</time>
</trkpt>
<trkpt lat="45.01486966" lon="5.37906004">
<ele>782.650</ele>
<time>2013-06-26T10:54:31Z</time>
</trkpt>
<trkpt lat="45.01494887" lon="5.37903884">
<ele>780.250</ele>
<time>2013-06-26T10:54:40Z</time>
</trkpt>
<trkpt lat="45.01496497" lon="5.37905233">
<ele>780.250</ele>
<time>2013-06-26T10:54:43Z</time>
</trkpt>
<trkpt lat="45.01500017" lon="5.37917320">
<ele>777.360</ele>
<time>2013-06-26T10:54:48Z</time>
</trkpt>
<trkpt lat="45.01504158" lon="5.37920161">
<ele>776.400</ele>
<time>2013-06-26T10:55:00Z</time>
</trkpt>
<trkpt lat="45.01517627" lon="5.37912517">
<ele>776.880</ele>
<time>2013-06-26T10:55:27Z</time>
</trkpt>
<trkpt lat="45.01514744" lon="5.37910857">
<ele>777.360</ele>
<time>2013-06-26T10:55:43Z</time>
</trkpt>
<trkpt lat="45.01526311" lon="5.37902668">
<ele>777.360</ele>
<time>2013-06-26T10:56:10Z</time>
</trkpt>
<trkpt lat="45.01522807" lon="5.37901713">
<ele>776.400</ele>
<time>2013-06-26T10:56:30Z</time>
</trkpt>
<trkpt lat="45.01526009" lon="5.37896432">
<ele>773.040</ele>
<time>2013-06-26T10:56:35Z</time>
</trkpt>
<trkpt lat="45.01529706" lon="5.37891235">
<ele>769.670</ele>
<time>2013-06-26T10:56:37Z</time>
</trkpt>
<trkpt lat="45.01532908" lon="5.37884287">
<ele>766.790</ele>
<time>2013-06-26T10:56:39Z</time>
</trkpt>
<trkpt lat="45.01535179" lon="5.37880775">
<ele>764.870</ele>
<time>2013-06-26T10:56:41Z</time>
</trkpt>
<trkpt lat="45.01537534" lon="5.37888402">
<ele>761.020</ele>
<time>2013-06-26T10:56:45Z</time>
</trkpt>
<trkpt lat="45.01539068" lon="5.37888872">
<ele>759.580</ele>
<time>2013-06-26T10:56:47Z</time>
</trkpt>
<trkpt lat="45.01544374" lon="5.37882845">
<ele>755.250</ele>
<time>2013-06-26T10:56:51Z</time>
</trkpt>
<trkpt lat="45.01549135" lon="5.37875997">
<ele>753.330</ele>
<time>2013-06-26T10:56:54Z</time>
</trkpt>
<trkpt lat="45.01558959" lon="5.37855579">
<ele>748.520</ele>
<time>2013-06-26T10:56:59Z</time>
</trkpt>
<trkpt lat="45.01565304" lon="5.37862359">
<ele>743.240</ele>
<time>2013-06-26T10:57:04Z</time>
</trkpt>
<trkpt lat="45.01570115" lon="5.37869426">
<ele>739.390</ele>
<time>2013-06-26T10:57:07Z</time>
</trkpt>
<trkpt lat="45.01573828" lon="5.37881135">
<ele>735.550</ele>
<time>2013-06-26T10:57:10Z</time>
</trkpt>
<trkpt lat="45.01576418" lon="5.37883926">
<ele>733.620</ele>
<time>2013-06-26T10:57:12Z</time>
</trkpt>
<trkpt lat="45.01586242" lon="5.37879987">
<ele>729.780</ele>
<time>2013-06-26T10:57:17Z</time>
</trkpt>
<trkpt lat="45.01587331" lon="5.37881378">
<ele>728.820</ele>
<time>2013-06-26T10:57:18Z</time>
</trkpt>
<trkpt lat="45.01591681" lon="5.37881043">
<ele>726.410</ele>
<time>2013-06-26T10:57:21Z</time>
</trkpt>
<trkpt lat="45.01599410" lon="5.37878947">
<ele>722.090</ele>
<time>2013-06-26T10:57:26Z</time>
</trkpt>
<trkpt lat="45.01601857" lon="5.37884144">
<ele>718.720</ele>
<time>2013-06-26T10:57:29Z</time>
</trkpt>
<trkpt lat="45.01610030" lon="5.37877447">
<ele>714.400</ele>
<time>2013-06-26T10:57:33Z</time>
</trkpt>
<trkpt lat="45.01620540" lon="5.37871102">
<ele>710.550</ele>
<time>2013-06-26T10:57:37Z</time>
</trkpt>
<trkpt lat="45.01623298" lon="5.37870188">
<ele>709.590</ele>
<time>2013-06-26T10:57:39Z</time>
</trkpt>
<trkpt lat="45.01624824" lon="5.37869786">
<ele>709.110</ele>
<time>2013-06-26T10:57:40Z</time>
</trkpt>
<trkpt lat="45.01630263" lon="5.37877497">
<ele>704.780</ele>
<time>2013-06-26T10:57:45Z</time>
</trkpt>
<trkpt lat="45.01634178" lon="5.37891529">
<ele>701.420</ele>
<time>2013-06-26T10:57:49Z</time>
</trkpt>
<trkpt lat="45.01637254" lon="5.37902702">
<ele>698.050</ele>
<time>2013-06-26T10:57:52Z</time>
</trkpt>
<trkpt lat="45.01638671" lon="5.37907681">
<ele>696.610</ele>
<time>2013-06-26T10:57:53Z</time>
</trkpt>
<trkpt lat="45.01645401" lon="5.37923849">
<ele>692.290</ele>
<time>2013-06-26T10:57:57Z</time>
</trkpt>
<trkpt lat="45.01646784" lon="5.37924847">
<ele>691.330</ele>
<time>2013-06-26T10:57:58Z</time>
</trkpt>
<trkpt lat="45.01653691" lon="5.37921393">
<ele>687.960</ele>
<time>2013-06-26T10:58:01Z</time>
</trkpt>
<trkpt lat="45.01666197" lon="5.37911419">
<ele>684.120</ele>
<time>2013-06-26T10:58:04Z</time>
</trkpt>
<trkpt lat="45.01682273" lon="5.37899449">
<ele>679.790</ele>
<time>2013-06-26T10:58:10Z</time>
</trkpt>
<trkpt lat="45.01687269" lon="5.37901704">
<ele>675.460</ele>
<time>2013-06-26T10:58:14Z</time>
</trkpt>
<trkpt lat="45.01687503" lon="5.37901168">
<ele>674.980</ele>
<time>2013-06-26T10:58:15Z</time>
</trkpt>
<trkpt lat="45.01696087" lon="5.37898544">
<ele>674.980</ele>
<time>2013-06-26T10:58:31Z</time>
</trkpt>
<trkpt lat="45.01700294" lon="5.37897463">
<ele>674.020</ele>
<time>2013-06-26T10:58:46Z</time>
</trkpt>
<trkpt lat="45.01701560" lon="5.37894990">
<ele>674.500</ele>
<time>2013-06-26T10:59:09Z</time>
</trkpt>
<trkpt lat="45.01703806" lon="5.37892727">
<ele>674.980</ele>
<time>2013-06-26T10:59:32Z</time>
</trkpt>
<trkpt lat="45.01704628" lon="5.37894554">
<ele>675.460</ele>
<time>2013-06-26T10:59:52Z</time>
</trkpt>
<trkpt lat="45.01705357" lon="5.37894186">
<ele>674.980</ele>
<time>2013-06-26T10:59:56Z</time>
</trkpt>
<trkpt lat="45.01707662" lon="5.37909784">
<ele>671.620</ele>
<time>2013-06-26T11:00:01Z</time>
</trkpt>
<trkpt lat="45.01712557" lon="5.37921385">
<ele>667.770</ele>
<time>2013-06-26T11:00:04Z</time>
</trkpt>
<trkpt lat="45.01715407" lon="5.37929960">
<ele>663.450</ele>
<time>2013-06-26T11:00:06Z</time>
</trkpt>
<trkpt lat="45.01716413" lon="5.37932583">
<ele>662.490</ele>
<time>2013-06-26T11:00:07Z</time>
</trkpt>
<trkpt lat="45.01722892" lon="5.37943991">
<ele>658.160</ele>
<time>2013-06-26T11:00:11Z</time>
</trkpt>
<trkpt lat="45.01726622" lon="5.37957888">
<ele>653.830</ele>
<time>2013-06-26T11:00:14Z</time>
</trkpt>
<trkpt lat="45.01737661" lon="5.37962322">
<ele>649.990</ele>
<time>2013-06-26T11:00:18Z</time>
</trkpt>
<trkpt lat="45.01746043" lon="5.37956379">
<ele>647.590</ele>
<time>2013-06-26T11:00:20Z</time>
</trkpt>
<trkpt lat="45.01759923" lon="5.37941820">
<ele>642.780</ele>
<time>2013-06-26T11:00:24Z</time>
</trkpt>
<trkpt lat="45.01768531" lon="5.37948383">
<ele>637.970</ele>
<time>2013-06-26T11:00:28Z</time>
</trkpt>
<trkpt lat="45.01770250" lon="5.37954024">
<ele>636.530</ele>
<time>2013-06-26T11:00:29Z</time>
</trkpt>
<trkpt lat="45.01776008" lon="5.37972439">
<ele>631.720</ele>
<time>2013-06-26T11:00:32Z</time>
</trkpt>
<trkpt lat="45.01781230" lon="5.37987996">
<ele>627.880</ele>
<time>2013-06-26T11:00:35Z</time>
</trkpt>
<trkpt lat="45.01787676" lon="5.38000736">
<ele>624.030</ele>
<time>2013-06-26T11:00:38Z</time>
</trkpt>
<trkpt lat="45.01794733" lon="5.38011390">
<ele>620.670</ele>
<time>2013-06-26T11:00:41Z</time>
</trkpt>
<trkpt lat="45.01798522" lon="5.38013326">
<ele>619.710</ele>
<time>2013-06-26T11:00:43Z</time>
</trkpt>
<trkpt lat="45.01813299" lon="5.38004307">
<ele>620.670</ele>
<time>2013-06-26T11:01:03Z</time>
</trkpt>
<trkpt lat="45.01815244" lon="5.38005875">
<ele>620.190</ele>
<time>2013-06-26T11:01:10Z</time>
</trkpt>
<trkpt lat="45.01819015" lon="5.38019026">
<ele>616.340</ele>
<time>2013-06-26T11:01:16Z</time>
</trkpt>
<trkpt lat="45.01820113" lon="5.38039126">
<ele>610.090</ele>
<time>2013-06-26T11:01:20Z</time>
</trkpt>
<trkpt lat="45.01820851" lon="5.38043861">
<ele>608.650</ele>
<time>2013-06-26T11:01:21Z</time>
</trkpt>
<trkpt lat="45.01825268" lon="5.38073986">
<ele>602.880</ele>
<time>2013-06-26T11:01:25Z</time>
</trkpt>
<trkpt lat="45.01831588" lon="5.38096215">
<ele>598.560</ele>
<time>2013-06-26T11:01:30Z</time>
</trkpt>
<trkpt lat="45.01835796" lon="5.38121260">
<ele>594.230</ele>
<time>2013-06-26T11:01:33Z</time>
</trkpt>
<trkpt lat="45.01837866" lon="5.38136305">
<ele>590.870</ele>
<time>2013-06-26T11:01:35Z</time>
</trkpt>
<trkpt lat="45.01840515" lon="5.38144042">
<ele>589.430</ele>
<time>2013-06-26T11:01:36Z</time>
</trkpt>
<trkpt lat="45.01852862" lon="5.38171635">
<ele>584.140</ele>
<time>2013-06-26T11:01:40Z</time>
</trkpt>
<trkpt lat="45.01864144" lon="5.38199631">
<ele>579.330</ele>
<time>2013-06-26T11:01:46Z</time>
</trkpt>
<trkpt lat="45.01871235" lon="5.38216378">
<ele>576.450</ele>
<time>2013-06-26T11:01:50Z</time>
</trkpt>
<trkpt lat="45.01873624" lon="5.38220175">
<ele>575.010</ele>
<time>2013-06-26T11:01:51Z</time>
</trkpt>
<trkpt lat="45.01884528" lon="5.38241582">
<ele>569.720</ele>
<time>2013-06-26T11:01:54Z</time>
</trkpt>
<trkpt lat="45.01895090" lon="5.38262210">
<ele>565.390</ele>
<time>2013-06-26T11:01:57Z</time>
</trkpt>
<trkpt lat="45.01900982" lon="5.38271338">
<ele>563.950</ele>
<time>2013-06-26T11:02:00Z</time>
</trkpt>
<trkpt lat="45.01904779" lon="5.38274330">
<ele>563.950</ele>
<time>2013-06-26T11:02:10Z</time>
</trkpt>
<trkpt lat="45.01906673" lon="5.38276551">
<ele>562.990</ele>
<time>2013-06-26T11:02:30Z</time>
</trkpt>
<trkpt lat="45.01905374" lon="5.38281078">
<ele>562.990</ele>
<time>2013-06-26T11:02:52Z</time>
</trkpt>
<trkpt lat="45.01905324" lon="5.38282695">
<ele>562.990</ele>
<time>2013-06-26T11:03:13Z</time>
</trkpt>
<trkpt lat="45.01905173" lon="5.38282544">
<ele>562.990</ele>
<time>2013-06-26T11:03:31Z</time>
</trkpt>
<trkpt lat="45.01905517" lon="5.38282394">
<ele>487.530</ele>
<time>2013-06-26T11:35:19Z</time>
</trkpt>
<trkpt lat="45.02079684" lon="5.38393714">
<ele>487.050</ele>
<time>2013-06-26T11:35:20Z</time>
</trkpt>
<trkpt lat="45.02078922" lon="5.38393672">
<ele>490.410</ele>
<time>2013-06-26T11:35:35Z</time>
</trkpt>
<trkpt lat="45.02079592" lon="5.38392616">
<ele>490.890</ele>
<time>2013-06-26T11:35:37Z</time>
</trkpt>
<trkpt lat="45.02085619" lon="5.38395876">
<ele>491.370</ele>
<time>2013-06-26T11:35:46Z</time>
</trkpt>
<trkpt lat="45.02086658" lon="5.38396815">
<ele>494.260</ele>
<time>2013-06-26T11:35:51Z</time>
</trkpt>
<trkpt lat="45.02087018" lon="5.38401081">
<ele>491.850</ele>
<time>2013-06-26T11:36:03Z</time>
</trkpt>
<trkpt lat="45.02105308" lon="5.38398106">
<ele>491.850</ele>
<time>2013-06-26T11:36:13Z</time>
</trkpt>
<trkpt lat="45.02118794" lon="5.38413839">
<ele>492.810</ele>
<time>2013-06-26T11:36:21Z</time>
</trkpt>
<trkpt lat="45.02146865" lon="5.38442044">
<ele>496.660</ele>
<time>2013-06-26T11:36:31Z</time>
</trkpt>
<trkpt lat="45.02147946" lon="5.38442471">
<ele>497.140</ele>
<time>2013-06-26T11:36:32Z</time>
</trkpt>
<trkpt lat="45.02151014" lon="5.38441247">
<ele>496.180</ele>
<time>2013-06-26T11:36:46Z</time>
</trkpt>
<trkpt lat="45.02156546" lon="5.38447727">
<ele>495.700</ele>
<time>2013-06-26T11:36:50Z</time>
</trkpt>
<trkpt lat="45.02160561" lon="5.38450417">
<ele>497.140</ele>
<time>2013-06-26T11:36:53Z</time>
</trkpt>
<trkpt lat="45.02162623" lon="5.38452756">
<ele>498.100</ele>
<time>2013-06-26T11:36:55Z</time>
</trkpt>
<trkpt lat="45.02176562" lon="5.38467692">
<ele>500.020</ele>
<time>2013-06-26T11:37:05Z</time>
</trkpt>
<trkpt lat="45.02186243" lon="5.38475135">
<ele>499.060</ele>
<time>2013-06-26T11:37:15Z</time>
</trkpt>
<trkpt lat="45.02187484" lon="5.38472671">
<ele>500.020</ele>
<time>2013-06-26T11:37:58Z</time>
</trkpt>
<trkpt lat="45.02187685" lon="5.38473090">
<ele>500.980</ele>
<time>2013-06-26T11:38:39Z</time>
</trkpt>
<trkpt lat="45.02187794" lon="5.38474230">
<ele>499.540</ele>
<time>2013-06-26T11:39:11Z</time>
</trkpt>
<trkpt lat="45.02188984" lon="5.38474012">
<ele>499.060</ele>
<time>2013-06-26T11:39:46Z</time>
</trkpt>
<trkpt lat="45.02189454" lon="5.38470852">
<ele>499.060</ele>
<time>2013-06-26T11:40:17Z</time>
</trkpt>
<trkpt lat="45.02189345" lon="5.38475353">
<ele>500.020</ele>
<time>2013-06-26T11:40:36Z</time>
</trkpt>
<trkpt lat="45.02197643" lon="5.38502418">
<ele>500.020</ele>
<time>2013-06-26T11:40:47Z</time>
</trkpt>
<trkpt lat="45.02211129" lon="5.38532702">
<ele>496.660</ele>
<time>2013-06-26T11:40:57Z</time>
</trkpt>
<trkpt lat="45.02213082" lon="5.38535954">
<ele>495.220</ele>
<time>2013-06-26T11:40:58Z</time>
</trkpt>
<trkpt lat="45.02220752" lon="5.38545543">
<ele>491.370</ele>
<time>2013-06-26T11:41:01Z</time>
</trkpt>
<trkpt lat="45.02226426" lon="5.38550354">
<ele>489.450</ele>
<time>2013-06-26T11:41:03Z</time>
</trkpt>
<trkpt lat="45.02228195" lon="5.38551981">
<ele>488.970</ele>
<time>2013-06-26T11:41:07Z</time>
</trkpt>
<trkpt lat="45.02232637" lon="5.38572181">
<ele>486.560</ele>
<time>2013-06-26T11:41:12Z</time>
</trkpt>
<trkpt lat="45.02245277" lon="5.38594293">
<ele>483.680</ele>
<time>2013-06-26T11:41:18Z</time>
</trkpt>
<trkpt lat="45.02246685" lon="5.38596388">
<ele>483.200</ele>
<time>2013-06-26T11:41:19Z</time>
</trkpt>
<trkpt lat="45.02251304" lon="5.38602104">
<ele>481.280</ele>
<time>2013-06-26T11:41:23Z</time>
</trkpt>
<trkpt lat="45.02256475" lon="5.38606756">
<ele>478.390</ele>
<time>2013-06-26T11:41:27Z</time>
</trkpt>
<trkpt lat="45.02260792" lon="5.38607377">
<ele>476.950</ele>
<time>2013-06-26T11:41:30Z</time>
</trkpt>
<trkpt lat="45.02268344" lon="5.38604929">
<ele>473.590</ele>
<time>2013-06-26T11:41:35Z</time>
</trkpt>
<trkpt lat="45.02271622" lon="5.38603219">
<ele>473.110</ele>
<time>2013-06-26T11:41:40Z</time>
</trkpt>
<trkpt lat="45.02283859" lon="5.38607343">
<ele>467.340</ele>
<time>2013-06-26T11:41:45Z</time>
</trkpt>
<trkpt lat="45.02284655" lon="5.38622305">
<ele>463.490</ele>
<time>2013-06-26T11:41:50Z</time>
</trkpt>
<trkpt lat="45.02278193" lon="5.38630653">
<ele>460.610</ele>
<time>2013-06-26T11:41:54Z</time>
</trkpt>
<trkpt lat="45.02272879" lon="5.38641776">
<ele>457.720</ele>
<time>2013-06-26T11:41:58Z</time>
</trkpt>
<trkpt lat="45.02267950" lon="5.38655522">
<ele>455.320</ele>
<time>2013-06-26T11:42:02Z</time>
</trkpt>
<trkpt lat="45.02263751" lon="5.38683744">
<ele>451.960</ele>
<time>2013-06-26T11:42:09Z</time>
</trkpt>
<trkpt lat="45.02263776" lon="5.38716635">
<ele>451.480</ele>
<time>2013-06-26T11:42:19Z</time>
</trkpt>
<trkpt lat="45.02265687" lon="5.38726391">
<ele>450.030</ele>
<time>2013-06-26T11:42:24Z</time>
</trkpt>
<trkpt lat="45.02258680" lon="5.38737019">
<ele>448.110</ele>
<time>2013-06-26T11:42:31Z</time>
</trkpt>
<trkpt lat="45.02251027" lon="5.38738235">
<ele>446.670</ele>
<time>2013-06-26T11:42:34Z</time>
</trkpt>
<trkpt lat="45.02247096" lon="5.38745829">
<ele>445.230</ele>
<time>2013-06-26T11:42:36Z</time>
</trkpt>
<trkpt lat="45.02241069" lon="5.38769013">
<ele>443.310</ele>
<time>2013-06-26T11:42:42Z</time>
</trkpt>
<trkpt lat="45.02259593" lon="5.38806765">
<ele>439.460</ele>
<time>2013-06-26T11:42:50Z</time>
</trkpt>
<trkpt lat="45.02275343" lon="5.38805575">
<ele>436.580</ele>
<time>2013-06-26T11:42:54Z</time>
</trkpt>
<trkpt lat="45.02294337" lon="5.38794846">
<ele>432.730</ele>
<time>2013-06-26T11:42:59Z</time>
</trkpt>
<trkpt lat="45.02300866" lon="5.38784260">
<ele>431.770</ele>
<time>2013-06-26T11:43:01Z</time>
</trkpt>
<trkpt lat="45.02308443" lon="5.38760145">
<ele>428.400</ele>
<time>2013-06-26T11:43:04Z</time>
</trkpt>
<trkpt lat="45.02306373" lon="5.38716517">
<ele>425.520</ele>
<time>2013-06-26T11:43:09Z</time>
</trkpt>
<trkpt lat="45.02315945" lon="5.38693031">
<ele>423.120</ele>
<time>2013-06-26T11:43:13Z</time>
</trkpt>
<trkpt lat="45.02329046" lon="5.38680500">
<ele>420.710</ele>
<time>2013-06-26T11:43:16Z</time>
</trkpt>
<trkpt lat="45.02338811" lon="5.38662496">
<ele>418.310</ele>
<time>2013-06-26T11:43:18Z</time>
</trkpt>
<trkpt lat="45.02347662" lon="5.38643511">
<ele>415.910</ele>
<time>2013-06-26T11:43:20Z</time>
</trkpt>
<trkpt lat="45.02362506" lon="5.38599263">
<ele>413.980</ele>
<time>2013-06-26T11:43:24Z</time>
</trkpt>
<trkpt lat="45.02366010" lon="5.38587654">
<ele>413.020</ele>
<time>2013-06-26T11:43:25Z</time>
</trkpt>
<trkpt lat="45.02385188" lon="5.38546692">
<ele>408.700</ele>
<time>2013-06-26T11:43:29Z</time>
</trkpt>
<trkpt lat="45.02395833" lon="5.38523038">
<ele>405.330</ele>
<time>2013-06-26T11:43:32Z</time>
</trkpt>
<trkpt lat="45.02400762" lon="5.38512896">
<ele>404.370</ele>
<time>2013-06-26T11:43:33Z</time>
</trkpt>
<trkpt lat="45.02404399" lon="5.38499435">
<ele>402.450</ele>
<time>2013-06-26T11:43:35Z</time>
</trkpt>
<trkpt lat="45.02417634" lon="5.38485177">
<ele>401.490</ele>
<time>2013-06-26T11:43:39Z</time>
</trkpt>
<trkpt lat="45.02426351" lon="5.38489494">
<ele>400.050</ele>
<time>2013-06-26T11:43:49Z</time>
</trkpt>
<trkpt lat="45.02426888" lon="5.38492796">
<ele>400.530</ele>
<time>2013-06-26T11:44:02Z</time>
</trkpt>
<trkpt lat="45.02446652" lon="5.38509903">
<ele>396.680</ele>
<time>2013-06-26T11:44:07Z</time>
</trkpt>
<trkpt lat="45.02466207" lon="5.38532283">
<ele>393.320</ele>
<time>2013-06-26T11:44:10Z</time>
</trkpt>
<trkpt lat="45.02501478" lon="5.38551654">
<ele>388.510</ele>
<time>2013-06-26T11:44:14Z</time>
</trkpt>
<trkpt lat="45.02511134" lon="5.38545979">
<ele>386.590</ele>
<time>2013-06-26T11:44:15Z</time>
</trkpt>
<trkpt lat="45.02530639" lon="5.38529341">
<ele>384.180</ele>
<time>2013-06-26T11:44:17Z</time>
</trkpt>
<trkpt lat="45.02564033" lon="5.38512510">
<ele>379.860</ele>
<time>2013-06-26T11:44:20Z</time>
</trkpt>
<trkpt lat="45.02595825" lon="5.38490918">
<ele>376.490</ele>
<time>2013-06-26T11:44:23Z</time>
</trkpt>
<trkpt lat="45.02618037" lon="5.38475236">
<ele>374.570</ele>
<time>2013-06-26T11:44:25Z</time>
</trkpt>
<trkpt lat="45.02638715" lon="5.38466661">
<ele>373.610</ele>
<time>2013-06-26T11:44:27Z</time>
</trkpt>
<trkpt lat="45.02677591" lon="5.38460232">
<ele>372.170</ele>
<time>2013-06-26T11:44:33Z</time>
</trkpt>
<trkpt lat="45.02679368" lon="5.38448581">
<ele>371.690</ele>
<time>2013-06-26T11:44:42Z</time>
</trkpt>
<trkpt lat="45.02685386" lon="5.38453393">
<ele>371.690</ele>
<time>2013-06-26T11:45:19Z</time>
</trkpt>
<trkpt lat="45.02682335" lon="5.38454298">
<ele>371.690</ele>
<time>2013-06-26T11:45:58Z</time>
</trkpt>
<trkpt lat="45.02683056" lon="5.38453393">
<ele>372.650</ele>
<time>2013-06-26T11:46:16Z</time>
</trkpt>
<trkpt lat="45.02689024" lon="5.38446687">
<ele>372.170</ele>
<time>2013-06-26T11:46:20Z</time>
</trkpt>
<trkpt lat="45.02709953" lon="5.38402774">
<ele>369.280</ele>
<time>2013-06-26T11:46:30Z</time>
</trkpt>
<trkpt lat="45.02720841" lon="5.38375759">
<ele>366.880</ele>
<time>2013-06-26T11:46:34Z</time>
</trkpt>
<trkpt lat="45.02743766" lon="5.38373320">
<ele>364.000</ele>
<time>2013-06-26T11:46:39Z</time>
</trkpt>
<trkpt lat="45.02750010" lon="5.38400478">
<ele>362.550</ele>
<time>2013-06-26T11:46:42Z</time>
</trkpt>
<trkpt lat="45.02753262" lon="5.38435975">
<ele>360.630</ele>
<time>2013-06-26T11:46:46Z</time>
</trkpt>
<trkpt lat="45.02766631" lon="5.38472009">
<ele>358.710</ele>
<time>2013-06-26T11:46:50Z</time>
</trkpt>
<trkpt lat="45.02817669" lon="5.38528855">
<ele>358.710</ele>
<time>2013-06-26T11:47:00Z</time>
</trkpt>
<trkpt lat="45.02840300" lon="5.38536633">
<ele>359.670</ele>
<time>2013-06-26T11:47:06Z</time>
</trkpt>
<trkpt lat="45.02860752" lon="5.38522527">
<ele>361.110</ele>
<time>2013-06-26T11:47:16Z</time>
</trkpt>
<trkpt lat="45.02887105" lon="5.38499015">
<ele>362.550</ele>
<time>2013-06-26T11:47:28Z</time>
</trkpt>
<trkpt lat="45.02913424" lon="5.38478010">
<ele>364.960</ele>
<time>2013-06-26T11:47:42Z</time>
</trkpt>
<trkpt lat="45.02923910" lon="5.38467676">
<ele>366.400</ele>
<time>2013-06-26T11:47:54Z</time>
</trkpt>
<trkpt lat="45.02924614" lon="5.38466301">
<ele>365.920</ele>
<time>2013-06-26T11:48:20Z</time>
</trkpt>
<trkpt lat="45.02923650" lon="5.38464767">
<ele>365.920</ele>
<time>2013-06-26T11:48:32Z</time>
</trkpt>
<trkpt lat="45.02925125" lon="5.38463946">
<ele>365.920</ele>
<time>2013-06-26T11:48:34Z</time>
</trkpt>
<trkpt lat="45.02929660" lon="5.38462319">
<ele>365.920</ele>
<time>2013-06-26T11:48:45Z</time>
</trkpt>
<trkpt lat="45.02931965" lon="5.38465504">
<ele>365.920</ele>
<time>2013-06-26T11:49:06Z</time>
</trkpt>
<trkpt lat="45.02930942" lon="5.38467382">
<ele>365.440</ele>
<time>2013-06-26T11:49:29Z</time>
</trkpt>
<trkpt lat="45.02931914" lon="5.38469830">
<ele>365.440</ele>
<time>2013-06-26T11:49:50Z</time>
</trkpt>
<trkpt lat="45.02932694" lon="5.38470282">
<ele>365.920</ele>
<time>2013-06-26T11:50:11Z</time>
</trkpt>
<trkpt lat="45.02934203" lon="5.38466142">
<ele>365.920</ele>
<time>2013-06-26T11:50:15Z</time>
</trkpt>
<trkpt lat="45.02953297" lon="5.38438900">
<ele>368.320</ele>
<time>2013-06-26T11:50:28Z</time>
</trkpt>
<trkpt lat="45.02975861" lon="5.38414610">
<ele>371.690</ele>
<time>2013-06-26T11:50:42Z</time>
</trkpt>
<trkpt lat="45.02996748" lon="5.38397066">
<ele>374.090</ele>
<time>2013-06-26T11:50:55Z</time>
</trkpt>
<trkpt lat="45.03024509" lon="5.38375592">
<ele>376.490</ele>
<time>2013-06-26T11:51:11Z</time>
</trkpt>
<trkpt lat="45.03029304" lon="5.38373572">
<ele>376.970</ele>
<time>2013-06-26T11:51:15Z</time>
</trkpt>
<trkpt lat="45.03032070" lon="5.38370898">
<ele>376.970</ele>
<time>2013-06-26T11:51:18Z</time>
</trkpt>
<trkpt lat="45.03039287" lon="5.38369532">
<ele>376.970</ele>
<time>2013-06-26T11:51:22Z</time>
</trkpt>
<trkpt lat="45.03082612" lon="5.38360882">
<ele>375.530</ele>
<time>2013-06-26T11:51:36Z</time>
</trkpt>
<trkpt lat="45.03088874" lon="5.38379607">
<ele>378.420</ele>
<time>2013-06-26T11:51:45Z</time>
</trkpt>
<trkpt lat="45.03089645" lon="5.38400285">
<ele>381.300</ele>
<time>2013-06-26T11:51:56Z</time>
</trkpt>
<trkpt lat="45.03093207" lon="5.38422069">
<ele>384.660</ele>
<time>2013-06-26T11:52:09Z</time>
</trkpt>
<trkpt lat="45.03094104" lon="5.38428742">
<ele>385.630</ele>
<time>2013-06-26T11:52:12Z</time>
</trkpt>
<trkpt lat="45.03096208" lon="5.38435673">
<ele>386.110</ele>
<time>2013-06-26T11:52:16Z</time>
</trkpt>
<trkpt lat="45.03098932" lon="5.38458631">
<ele>389.950</ele>
<time>2013-06-26T11:52:30Z</time>
</trkpt>
<trkpt lat="45.03093467" lon="5.38480986">
<ele>392.840</ele>
<time>2013-06-26T11:52:44Z</time>
</trkpt>
<trkpt lat="45.03090173" lon="5.38495243">
<ele>394.760</ele>
<time>2013-06-26T11:52:52Z</time>
</trkpt>
<trkpt lat="45.03087340" lon="5.38523180">
<ele>398.120</ele>
<time>2013-06-26T11:53:08Z</time>
</trkpt>
<trkpt lat="45.03095160" lon="5.38539182">
<ele>401.010</ele>
<time>2013-06-26T11:53:21Z</time>
</trkpt>
<trkpt lat="45.03103450" lon="5.38551042">
<ele>402.450</ele>
<time>2013-06-26T11:53:30Z</time>
</trkpt>
<trkpt lat="45.03115050" lon="5.38569122">
<ele>405.810</ele>
<time>2013-06-26T11:53:44Z</time>
</trkpt>
<trkpt lat="45.03117448" lon="5.38579666">
<ele>406.770</ele>
<time>2013-06-26T11:53:50Z</time>
</trkpt>
<trkpt lat="45.03117297" lon="5.38603228">
<ele>409.660</ele>
<time>2013-06-26T11:54:05Z</time>
</trkpt>
<trkpt lat="45.03118973" lon="5.38622565">
<ele>413.020</ele>
<time>2013-06-26T11:54:17Z</time>
</trkpt>
<trkpt lat="45.03128746" lon="5.38642237">
<ele>415.910</ele>
<time>2013-06-26T11:54:31Z</time>
</trkpt>
<trkpt lat="45.03138084" lon="5.38654407">
<ele>418.790</ele>
<time>2013-06-26T11:54:42Z</time>
</trkpt>
<trkpt lat="45.03140791" lon="5.38659839">
<ele>419.750</ele>
<time>2013-06-26T11:54:46Z</time>
</trkpt>
<trkpt lat="45.03143725" lon="5.38677399">
<ele>422.160</ele>
<time>2013-06-26T11:55:00Z</time>
</trkpt>
<trkpt lat="45.03144739" lon="5.38678380">
<ele>422.160</ele>
<time>2013-06-26T11:55:12Z</time>
</trkpt>
<trkpt lat="45.03152283" lon="5.38695848">
<ele>423.600</ele>
<time>2013-06-26T11:55:23Z</time>
</trkpt>
<trkpt lat="45.03154471" lon="5.38698387">
<ele>424.080</ele>
<time>2013-06-26T11:55:25Z</time>
</trkpt>
<trkpt lat="45.03164085" lon="5.38708731">
<ele>426.960</ele>
<time>2013-06-26T11:55:41Z</time>
</trkpt>
<trkpt lat="45.03167932" lon="5.38708462">
<ele>427.440</ele>
<time>2013-06-26T11:55:54Z</time>
</trkpt>
<trkpt lat="45.03170187" lon="5.38701472">
<ele>428.890</ele>
<time>2013-06-26T11:56:06Z</time>
</trkpt>
<trkpt lat="45.03178577" lon="5.38698848">
<ele>431.770</ele>
<time>2013-06-26T11:56:18Z</time>
</trkpt>
<trkpt lat="45.03183539" lon="5.38699418">
<ele>432.730</ele>
<time>2013-06-26T11:56:24Z</time>
</trkpt>
<trkpt lat="45.03185215" lon="5.38700768">
<ele>432.730</ele>
<time>2013-06-26T11:56:37Z</time>
</trkpt>
<trkpt lat="45.03187889" lon="5.38700030">
<ele>432.730</ele>
<time>2013-06-26T11:57:17Z</time>
</trkpt>
<trkpt lat="45.03185316" lon="5.38700910">
<ele>432.730</ele>
<time>2013-06-26T11:57:41Z</time>
</trkpt>
<trkpt lat="45.03184059" lon="5.38703224">
<ele>433.210</ele>
<time>2013-06-26T11:58:10Z</time>
</trkpt>
<trkpt lat="45.03185660" lon="5.38700407">
<ele>433.210</ele>
<time>2013-06-26T11:58:26Z</time>
</trkpt>
<trkpt lat="45.03189800" lon="5.38703618">
<ele>434.650</ele>
<time>2013-06-26T11:58:33Z</time>
</trkpt>
<trkpt lat="45.03190781" lon="5.38704447">
<ele>436.580</ele>
<time>2013-06-26T11:58:37Z</time>
</trkpt>
<trkpt lat="45.03191083" lon="5.38704984">
<ele>434.650</ele>
<time>2013-06-26T11:58:38Z</time>
</trkpt>
<trkpt lat="45.03199741" lon="5.38717708">
<ele>437.540</ele>
<time>2013-06-26T11:58:52Z</time>
</trkpt>
<trkpt lat="45.03206866" lon="5.38736014">
<ele>440.420</ele>
<time>2013-06-26T11:59:07Z</time>
</trkpt>
<trkpt lat="45.03212314" lon="5.38752669">
<ele>443.310</ele>
<time>2013-06-26T11:59:22Z</time>
</trkpt>
<trkpt lat="45.03220243" lon="5.38765627">
<ele>446.670</ele>
<time>2013-06-26T11:59:37Z</time>
</trkpt>
<trkpt lat="45.03224107" lon="5.38775585">
<ele>447.630</ele>
<time>2013-06-26T11:59:55Z</time>
</trkpt>
<trkpt lat="45.03228994" lon="5.38790069">
<ele>450.520</ele>
<time>2013-06-26T12:00:09Z</time>
</trkpt>
<trkpt lat="45.03232079" lon="5.38808115">
<ele>452.920</ele>
<time>2013-06-26T12:00:26Z</time>
</trkpt>
<trkpt lat="45.03232338" lon="5.38823110">
<ele>455.320</ele>
<time>2013-06-26T12:00:39Z</time>
</trkpt>
<trkpt lat="45.03233889" lon="5.38845900">
<ele>458.210</ele>
<time>2013-06-26T12:00:58Z</time>
</trkpt>
<trkpt lat="45.03237300" lon="5.38862228">
<ele>460.610</ele>
<time>2013-06-26T12:01:13Z</time>
</trkpt>
<trkpt lat="45.03237804" lon="5.38878246">
<ele>463.970</ele>
<time>2013-06-26T12:01:29Z</time>
</trkpt>
<trkpt lat="45.03240167" lon="5.38892646">
<ele>466.380</ele>
<time>2013-06-26T12:01:42Z</time>
</trkpt>
<trkpt lat="45.03245423" lon="5.38900433">
<ele>469.260</ele>
<time>2013-06-26T12:01:55Z</time>
</trkpt>
<trkpt lat="45.03253905" lon="5.38894834">
<ele>472.140</ele>
<time>2013-06-26T12:02:12Z</time>
</trkpt>
<trkpt lat="45.03261901" lon="5.38890727">
<ele>474.550</ele>
<time>2013-06-26T12:02:24Z</time>
</trkpt>
<trkpt lat="45.03267039" lon="5.38879629">
<ele>476.950</ele>
<time>2013-06-26T12:02:38Z</time>
</trkpt>
<trkpt lat="45.03268833" lon="5.38866830">
<ele>478.870</ele>
<time>2013-06-26T12:02:53Z</time>
</trkpt>
<trkpt lat="45.03274717" lon="5.38854425">
<ele>480.800</ele>
<time>2013-06-26T12:03:07Z</time>
</trkpt>
<trkpt lat="45.03281582" lon="5.38842229">
<ele>483.680</ele>
<time>2013-06-26T12:03:22Z</time>
</trkpt>
<trkpt lat="45.03287952" lon="5.38830210">
<ele>486.560</ele>
<time>2013-06-26T12:03:34Z</time>
</trkpt>
<trkpt lat="45.03293451" lon="5.38815877">
<ele>489.450</ele>
<time>2013-06-26T12:03:50Z</time>
</trkpt>
<trkpt lat="45.03296963" lon="5.38811417">
<ele>490.410</ele>
<time>2013-06-26T12:04:04Z</time>
</trkpt>
<trkpt lat="45.03297977" lon="5.38808844">
<ele>491.370</ele>
<time>2013-06-26T12:04:12Z</time>
</trkpt>
<trkpt lat="45.03301456" lon="5.38801569">
<ele>492.330</ele>
<time>2013-06-26T12:04:17Z</time>
</trkpt>
<trkpt lat="45.03304104" lon="5.38792483">
<ele>493.290</ele>
<time>2013-06-26T12:04:24Z</time>
</trkpt>
<trkpt lat="45.03305068" lon="5.38789750">
<ele>493.770</ele>
<time>2013-06-26T12:04:26Z</time>
</trkpt>
<trkpt lat="45.03312193" lon="5.38775895">
<ele>496.180</ele>
<time>2013-06-26T12:04:35Z</time>
</trkpt>
<trkpt lat="45.03322226" lon="5.38773590">
<ele>498.580</ele>
<time>2013-06-26T12:04:44Z</time>
</trkpt>
<trkpt lat="45.03329309" lon="5.38775643">
<ele>499.540</ele>
<time>2013-06-26T12:04:50Z</time>
</trkpt>
<trkpt lat="45.03330440" lon="5.38775099">
<ele>499.540</ele>
<time>2013-06-26T12:04:51Z</time>
</trkpt>
<trkpt lat="45.03331438" lon="5.38773875">
<ele>500.020</ele>
<time>2013-06-26T12:04:52Z</time>
</trkpt>
<trkpt lat="45.03332318" lon="5.38772584">
<ele>500.020</ele>
<time>2013-06-26T12:04:53Z</time>
</trkpt>
<trkpt lat="45.03337640" lon="5.38755158">
<ele>501.950</ele>
<time>2013-06-26T12:05:04Z</time>
</trkpt>
<trkpt lat="45.03345243" lon="5.38732854">
<ele>505.310</ele>
<time>2013-06-26T12:05:18Z</time>
</trkpt>
<trkpt lat="45.03352367" lon="5.38705118">
<ele>507.230</ele>
<time>2013-06-26T12:05:34Z</time>
</trkpt>
<trkpt lat="45.03354706" lon="5.38698178">
<ele>507.710</ele>
<time>2013-06-26T12:05:38Z</time>
</trkpt>
<trkpt lat="45.03359215" lon="5.38683367">
<ele>511.080</ele>
<time>2013-06-26T12:05:48Z</time>
</trkpt>
<trkpt lat="45.03361847" lon="5.38676385">
<ele>512.520</ele>
<time>2013-06-26T12:05:53Z</time>
</trkpt>
<trkpt lat="45.03364932" lon="5.38668347">
<ele>514.440</ele>
<time>2013-06-26T12:06:05Z</time>
</trkpt>
<trkpt lat="45.03369290" lon="5.38660627">
<ele>517.810</ele>
<time>2013-06-26T12:06:19Z</time>
</trkpt>
<trkpt lat="45.03374378" lon="5.38655355">
<ele>520.690</ele>
<time>2013-06-26T12:06:30Z</time>
</trkpt>
<trkpt lat="45.03374420" lon="5.38653008">
<ele>520.690</ele>
<time>2013-06-26T12:06:47Z</time>
</trkpt>
<trkpt lat="45.03382634" lon="5.38643662">
<ele>523.090</ele>
<time>2013-06-26T12:07:01Z</time>
</trkpt>
<trkpt lat="45.03389357" lon="5.38631475">
<ele>526.460</ele>
<time>2013-06-26T12:07:15Z</time>
</trkpt>
<trkpt lat="45.03394771" lon="5.38618097">
<ele>528.860</ele>
<time>2013-06-26T12:07:30Z</time>
</trkpt>
<trkpt lat="45.03342812" lon="5.38582231">
<ele>531.270</ele>
<time>2013-06-26T12:07:43Z</time>
</trkpt>
<trkpt lat="45.03351345" lon="5.38576607">
<ele>533.670</ele>
<time>2013-06-26T12:07:57Z</time>
</trkpt>
<trkpt lat="45.03355075" lon="5.38576347">
<ele>534.630</ele>
<time>2013-06-26T12:08:09Z</time>
</trkpt>
<trkpt lat="45.03357564" lon="5.38575333">
<ele>535.590</ele>
<time>2013-06-26T12:08:12Z</time>
</trkpt>
<trkpt lat="45.03371688" lon="5.38571611">
<ele>538.960</ele>
<time>2013-06-26T12:08:26Z</time>
</trkpt>
<trkpt lat="45.03381788" lon="5.38569231">
<ele>540.400</ele>
<time>2013-06-26T12:08:39Z</time>
</trkpt>
<trkpt lat="45.03387085" lon="5.38570714">
<ele>542.320</ele>
<time>2013-06-26T12:08:44Z</time>
</trkpt>
<trkpt lat="45.03404126" lon="5.38568543">
<ele>544.240</ele>
<time>2013-06-26T12:08:59Z</time>
</trkpt>
<trkpt lat="45.03417939" lon="5.38566691">
<ele>545.690</ele>
<time>2013-06-26T12:09:11Z</time>
</trkpt>
<trkpt lat="45.03429313" lon="5.38563774">
<ele>546.170</ele>
<time>2013-06-26T12:09:21Z</time>
</trkpt>
<trkpt lat="45.03443663" lon="5.38552383">
<ele>546.650</ele>
<time>2013-06-26T12:09:32Z</time>
</trkpt>
<trkpt lat="45.03463302" lon="5.38544420">
<ele>546.170</ele>
<time>2013-06-26T12:09:45Z</time>
</trkpt>
<trkpt lat="45.03476009" lon="5.38549173">
<ele>546.170</ele>
<time>2013-06-26T12:09:52Z</time>
</trkpt>
<trkpt lat="45.03480820" lon="5.38551972">
<ele>545.690</ele>
<time>2013-06-26T12:09:55Z</time>
</trkpt>
<trkpt lat="45.03497358" lon="5.38548661">
<ele>546.650</ele>
<time>2013-06-26T12:10:06Z</time>
</trkpt>
<trkpt lat="45.03501448" lon="5.38545493">
<ele>546.650</ele>
<time>2013-06-26T12:10:27Z</time>
</trkpt>
<trkpt lat="45.03501825" lon="5.38544403">
<ele>546.170</ele>
<time>2013-06-26T12:10:28Z</time>
</trkpt>
<trkpt lat="45.03512881" lon="5.38537866">
<ele>545.200</ele>
<time>2013-06-26T12:10:34Z</time>
</trkpt>
<trkpt lat="45.03534682" lon="5.38531747">
<ele>545.690</ele>
<time>2013-06-26T12:10:45Z</time>
</trkpt>
<trkpt lat="45.03559191" lon="5.38517590">
<ele>546.650</ele>
<time>2013-06-26T12:10:55Z</time>
</trkpt>
<trkpt lat="45.03580749" lon="5.38495705">
<ele>548.090</ele>
<time>2013-06-26T12:11:07Z</time>
</trkpt>
<trkpt lat="45.03604327" lon="5.38487733">
<ele>550.010</ele>
<time>2013-06-26T12:11:20Z</time>
</trkpt>
<trkpt lat="45.03637302" lon="5.38502268">
<ele>551.450</ele>
<time>2013-06-26T12:11:38Z</time>
</trkpt>
<trkpt lat="45.03650051" lon="5.38508286">
<ele>552.410</ele>
<time>2013-06-26T12:11:45Z</time>
</trkpt>
<trkpt lat="45.03677937" lon="5.38511287">
<ele>552.900</ele>
<time>2013-06-26T12:12:00Z</time>
</trkpt>
<trkpt lat="45.03700409" lon="5.38482134">
<ele>549.530</ele>
<time>2013-06-26T12:12:08Z</time>
</trkpt>
<trkpt lat="45.03734616" lon="5.38422740">
<ele>545.690</ele>
<time>2013-06-26T12:12:17Z</time>
</trkpt>
<trkpt lat="45.03739972" lon="5.38413394">
<ele>545.690</ele>
<time>2013-06-26T12:12:19Z</time>
</trkpt>
<trkpt lat="45.03747356" lon="5.38399011">
<ele>543.760</ele>
<time>2013-06-26T12:12:21Z</time>
</trkpt>
<trkpt lat="45.03749996" lon="5.38394678">
<ele>543.760</ele>
<time>2013-06-26T12:12:22Z</time>
</trkpt>
<trkpt lat="45.03758948" lon="5.38375944">
<ele>542.320</ele>
<time>2013-06-26T12:12:24Z</time>
</trkpt>
<trkpt lat="45.03764874" lon="5.38364813">
<ele>541.360</ele>
<time>2013-06-26T12:12:26Z</time>
</trkpt>
<trkpt lat="45.03788972" lon="5.38353087">
<ele>538.480</ele>
<time>2013-06-26T12:12:31Z</time>
</trkpt>
<trkpt lat="45.03830387" lon="5.38352667">
<ele>536.550</ele>
<time>2013-06-26T12:12:40Z</time>
</trkpt>
<trkpt lat="45.03897820" lon="5.38390704">
<ele>535.590</ele>
<time>2013-06-26T12:12:55Z</time>
</trkpt>
<trkpt lat="45.03922236" lon="5.38401576">
<ele>536.550</ele>
<time>2013-06-26T12:13:05Z</time>
</trkpt>
<trkpt lat="45.03945764" lon="5.38403495">
<ele>538.960</ele>
<time>2013-06-26T12:13:18Z</time>
</trkpt>
<trkpt lat="45.03952336" lon="5.38400201">
<ele>538.960</ele>
<time>2013-06-26T12:13:21Z</time>
</trkpt>
<trkpt lat="45.03980516" lon="5.38376086">
<ele>541.360</ele>
<time>2013-06-26T12:13:35Z</time>
</trkpt>
<trkpt lat="45.04001646" lon="5.38349801">
<ele>543.760</ele>
<time>2013-06-26T12:13:49Z</time>
</trkpt>
<trkpt lat="45.04008302" lon="5.38346406">
<ele>544.720</ele>
<time>2013-06-26T12:13:53Z</time>
</trkpt>
<trkpt lat="45.04017622" lon="5.38334076">
<ele>545.690</ele>
<time>2013-06-26T12:14:00Z</time>
</trkpt>
<trkpt lat="45.04025040" lon="5.38282444">
<ele>548.090</ele>
<time>2013-06-26T12:14:20Z</time>
</trkpt>
<trkpt lat="45.04025283" lon="5.38262134">
<ele>550.490</ele>
<time>2013-06-26T12:14:30Z</time>
</trkpt>
<trkpt lat="45.04042215" lon="5.38238774">
<ele>553.380</ele>
<time>2013-06-26T12:14:45Z</time>
</trkpt>
<trkpt lat="45.04059129" lon="5.38236167">
<ele>556.740</ele>
<time>2013-06-26T12:14:57Z</time>
</trkpt>
<trkpt lat="45.04075415" lon="5.38252847">
<ele>560.110</ele>
<time>2013-06-26T12:15:10Z</time>
</trkpt>
<trkpt lat="45.04090704" lon="5.38272888">
<ele>562.030</ele>
<time>2013-06-26T12:15:23Z</time>
</trkpt>
<trkpt lat="45.04122295" lon="5.38291069">
<ele>561.070</ele>
<time>2013-06-26T12:15:36Z</time>
</trkpt>
<trkpt lat="45.04154180" lon="5.38276535">
<ele>562.030</ele>
<time>2013-06-26T12:15:48Z</time>
</trkpt>
<trkpt lat="45.04189074" lon="5.38241297">
<ele>564.430</ele>
<time>2013-06-26T12:16:03Z</time>
</trkpt>
<trkpt lat="45.04218469" lon="5.38204961">
<ele>567.320</ele>
<time>2013-06-26T12:16:19Z</time>
</trkpt>
<trkpt lat="45.04248518" lon="5.38174493">
<ele>569.720</ele>
<time>2013-06-26T12:16:34Z</time>
</trkpt>
<trkpt lat="45.04281325" lon="5.38148074">
<ele>572.120</ele>
<time>2013-06-26T12:16:51Z</time>
</trkpt>
<trkpt lat="45.04305013" lon="5.38113129">
<ele>573.080</ele>
<time>2013-06-26T12:17:05Z</time>
</trkpt>
<trkpt lat="45.04335447" lon="5.38059016">
<ele>574.530</ele>
<time>2013-06-26T12:17:24Z</time>
</trkpt>
<trkpt lat="45.04367659" lon="5.38002656">
<ele>576.450</ele>
<time>2013-06-26T12:17:43Z</time>
</trkpt>
<trkpt lat="45.04389661" lon="5.37939540">
<ele>575.010</ele>
<time>2013-06-26T12:17:56Z</time>
</trkpt>
<trkpt lat="45.04424505" lon="5.37882518">
<ele>572.120</ele>
<time>2013-06-26T12:18:05Z</time>
</trkpt>
<trkpt lat="45.04451889" lon="5.37867615">
<ele>570.680</ele>
<time>2013-06-26T12:18:10Z</time>
</trkpt>
<trkpt lat="45.04471134" lon="5.37865872">
<ele>569.720</ele>
<time>2013-06-26T12:18:13Z</time>
</trkpt>
<trkpt lat="45.04506463" lon="5.37869132">
<ele>566.350</ele>
<time>2013-06-26T12:18:19Z</time>
</trkpt>
<trkpt lat="45.04550803" lon="5.37883272">
<ele>565.390</ele>
<time>2013-06-26T12:18:29Z</time>
</trkpt>
<trkpt lat="45.04572345" lon="5.37880951">
<ele>565.870</ele>
<time>2013-06-26T12:18:34Z</time>
</trkpt>
<trkpt lat="45.04616945" lon="5.37843785">
<ele>567.320</ele>
<time>2013-06-26T12:18:48Z</time>
</trkpt>
<trkpt lat="45.04676499" lon="5.37782589">
<ele>565.870</ele>
<time>2013-06-26T12:19:04Z</time>
</trkpt>
<trkpt lat="45.04706657" lon="5.37756035">
<ele>565.390</ele>
<time>2013-06-26T12:19:11Z</time>
</trkpt>
<trkpt lat="45.04714452" lon="5.37747477">
<ele>565.870</ele>
<time>2013-06-26T12:19:13Z</time>
</trkpt>
<trkpt lat="45.04746697" lon="5.37699541">
<ele>568.760</ele>
<time>2013-06-26T12:19:27Z</time>
</trkpt>
<trkpt lat="45.04761742" lon="5.37663901">
<ele>571.640</ele>
<time>2013-06-26T12:19:42Z</time>
</trkpt>
<trkpt lat="45.04768465" lon="5.37611070">
<ele>574.040</ele>
<time>2013-06-26T12:19:59Z</time>
</trkpt>
<trkpt lat="45.04784659" lon="5.37570812">
<ele>575.970</ele>
<time>2013-06-26T12:20:14Z</time>
</trkpt>
<trkpt lat="45.04802261" lon="5.37543730">
<ele>580.290</ele>
<time>2013-06-26T12:20:28Z</time>
</trkpt>
<trkpt lat="45.04803677" lon="5.37541986">
<ele>580.290</ele>
<time>2013-06-26T12:20:29Z</time>
</trkpt>
<trkpt lat="45.04829963" lon="5.37510185">
<ele>582.220</ele>
<time>2013-06-26T12:20:47Z</time>
</trkpt>
<trkpt lat="45.04856466" lon="5.37492709">
<ele>583.180</ele>
<time>2013-06-26T12:21:01Z</time>
</trkpt>
<trkpt lat="45.04890924" lon="5.37468402">
<ele>585.100</ele>
<time>2013-06-26T12:21:19Z</time>
</trkpt>
<trkpt lat="45.04913723" lon="5.37420633">
<ele>587.020</ele>
<time>2013-06-26T12:21:36Z</time>
</trkpt>
<trkpt lat="45.04905123" lon="5.37382512">
<ele>589.430</ele>
<time>2013-06-26T12:21:49Z</time>
</trkpt>
<trkpt lat="45.04902315" lon="5.37341139">
<ele>590.870</ele>
<time>2013-06-26T12:22:02Z</time>
</trkpt>
<trkpt lat="45.04931250" lon="5.37330955">
<ele>589.430</ele>
<time>2013-06-26T12:22:14Z</time>
</trkpt>
<trkpt lat="45.04971483" lon="5.37339337">
<ele>586.060</ele>
<time>2013-06-26T12:22:22Z</time>
</trkpt>
<trkpt lat="45.04998347" lon="5.37338549">
<ele>583.180</ele>
<time>2013-06-26T12:22:26Z</time>
</trkpt>
<trkpt lat="45.05013753" lon="5.37338113">
<ele>582.220</ele>
<time>2013-06-26T12:22:28Z</time>
</trkpt>
<trkpt lat="45.05022026" lon="5.37338315">
<ele>581.730</ele>
<time>2013-06-26T12:22:29Z</time>
</trkpt>
<trkpt lat="45.05062066" lon="5.37367794">
<ele>577.890</ele>
<time>2013-06-26T12:22:34Z</time>
</trkpt>
<trkpt lat="45.05076483" lon="5.37381926">
<ele>575.970</ele>
<time>2013-06-26T12:22:36Z</time>
</trkpt>
<trkpt lat="45.05096080" lon="5.37391095">
<ele>575.010</ele>
<time>2013-06-26T12:22:40Z</time>
</trkpt>
<trkpt lat="45.05132097" lon="5.37375849">
<ele>572.600</ele>
<time>2013-06-26T12:22:53Z</time>
</trkpt>
<trkpt lat="45.05139003" lon="5.37372722">
<ele>572.600</ele>
<time>2013-06-26T12:22:55Z</time>
</trkpt>
<trkpt lat="45.05166790" lon="5.37340066">
<ele>573.080</ele>
<time>2013-06-26T12:23:02Z</time>
</trkpt>
<trkpt lat="45.05182279" lon="5.37280697">
<ele>572.600</ele>
<time>2013-06-26T12:23:10Z</time>
</trkpt>
<trkpt lat="45.05188415" lon="5.37223801">
<ele>571.640</ele>
<time>2013-06-26T12:23:20Z</time>
</trkpt>
<trkpt lat="45.05195271" lon="5.37201061">
<ele>570.200</ele>
<time>2013-06-26T12:23:24Z</time>
</trkpt>
<trkpt lat="45.05216980" lon="5.37170752">
<ele>568.280</ele>
<time>2013-06-26T12:23:29Z</time>
</trkpt>
<trkpt lat="45.05240626" lon="5.37149873">
<ele>566.830</ele>
<time>2013-06-26T12:23:33Z</time>
</trkpt>
<trkpt lat="45.05256593" lon="5.37135280">
<ele>565.870</ele>
<time>2013-06-26T12:23:36Z</time>
</trkpt>
<trkpt lat="45.05269636" lon="5.37118105">
<ele>565.870</ele>
<time>2013-06-26T12:23:46Z</time>
</trkpt>
<trkpt lat="45.05268739" lon="5.37119312">
<ele>565.870</ele>
<time>2013-06-26T12:23:55Z</time>
</trkpt>
<trkpt lat="45.05275126" lon="5.37130368">
<ele>568.280</ele>
<time>2013-06-26T12:24:07Z</time>
</trkpt>
<trkpt lat="45.05281412" lon="5.37132807">
<ele>570.680</ele>
<time>2013-06-26T12:24:18Z</time>
</trkpt>
<trkpt lat="45.05282409" lon="5.37139814">
<ele>572.600</ele>
<time>2013-06-26T12:24:31Z</time>
</trkpt>
<trkpt lat="45.05282569" lon="5.37148045">
<ele>574.530</ele>
<time>2013-06-26T12:24:43Z</time>
</trkpt>
<trkpt lat="45.05281119" lon="5.37150208">
<ele>574.530</ele>
<time>2013-06-26T12:24:58Z</time>
</trkpt>
<trkpt lat="45.05280448" lon="5.37151256">
<ele>575.010</ele>
<time>2013-06-26T12:25:13Z</time>
</trkpt>
<trkpt lat="45.05279635" lon="5.37153007">
<ele>574.530</ele>
<time>2013-06-26T12:25:15Z</time>
</trkpt>
<trkpt lat="45.05277439" lon="5.37161197">
<ele>575.010</ele>
<time>2013-06-26T12:25:20Z</time>
</trkpt>
<trkpt lat="45.05266719" lon="5.37191874">
<ele>576.930</ele>
<time>2013-06-26T12:25:34Z</time>
</trkpt>
<trkpt lat="45.05266258" lon="5.37193970">
<ele>576.930</ele>
<time>2013-06-26T12:25:35Z</time>
</trkpt>
<trkpt lat="45.05261547" lon="5.37202796">
<ele>578.850</ele>
<time>2013-06-26T12:25:40Z</time>
</trkpt>
<trkpt lat="45.05244833" lon="5.37230833">
<ele>580.770</ele>
<time>2013-06-26T12:25:55Z</time>
</trkpt>
<trkpt lat="45.05242872" lon="5.37234664">
<ele>581.730</ele>
<time>2013-06-26T12:25:57Z</time>
</trkpt>
<trkpt lat="45.05229855" lon="5.37269432">
<ele>585.100</ele>
<time>2013-06-26T12:26:14Z</time>
</trkpt>
<trkpt lat="45.05221121" lon="5.37299481">
<ele>586.540</ele>
<time>2013-06-26T12:26:27Z</time>
</trkpt>
<trkpt lat="45.05209034" lon="5.37353896">
<ele>587.980</ele>
<time>2013-06-26T12:26:46Z</time>
</trkpt>
<trkpt lat="45.05204751" lon="5.37384541">
<ele>589.910</ele>
<time>2013-06-26T12:26:58Z</time>
</trkpt>
<trkpt lat="45.05196352" lon="5.37414649">
<ele>592.310</ele>
<time>2013-06-26T12:27:10Z</time>
</trkpt>
<trkpt lat="45.05179496" lon="5.37441789">
<ele>593.750</ele>
<time>2013-06-26T12:27:25Z</time>
</trkpt>
<trkpt lat="45.05158399" lon="5.37459877">
<ele>596.640</ele>
<time>2013-06-26T12:27:39Z</time>
</trkpt>
<trkpt lat="45.05150143" lon="5.37467262">
<ele>597.120</ele>
<time>2013-06-26T12:27:44Z</time>
</trkpt>
<trkpt lat="45.05138660" lon="5.37471595">
<ele>598.080</ele>
<time>2013-06-26T12:27:51Z</time>
</trkpt>
<trkpt lat="45.05116825" lon="5.37481922">
<ele>600.480</ele>
<time>2013-06-26T12:28:05Z</time>
</trkpt>
<trkpt lat="45.05094764" lon="5.37480472">
<ele>600.960</ele>
<time>2013-06-26T12:28:15Z</time>
</trkpt>
<trkpt lat="45.05068503" lon="5.37474889">
<ele>601.920</ele>
<time>2013-06-26T12:28:27Z</time>
</trkpt>
<trkpt lat="45.05045051" lon="5.37455502">
<ele>603.360</ele>
<time>2013-06-26T12:28:40Z</time>
</trkpt>
<trkpt lat="45.05017667" lon="5.37445217">
<ele>606.730</ele>
<time>2013-06-26T12:28:54Z</time>
</trkpt>
<trkpt lat="45.04997785" lon="5.37461847">
<ele>609.610</ele>
<time>2013-06-26T12:29:07Z</time>
</trkpt>
<trkpt lat="45.04983997" lon="5.37477513">
<ele>611.540</ele>
<time>2013-06-26T12:29:18Z</time>
</trkpt>
<trkpt lat="45.04972598" lon="5.37494352">
<ele>613.940</ele>
<time>2013-06-26T12:29:29Z</time>
</trkpt>
<trkpt lat="45.04965959" lon="5.37506623">
<ele>615.380</ele>
<time>2013-06-26T12:29:36Z</time>
</trkpt>
<trkpt lat="45.04951886" lon="5.37524787">
<ele>616.820</ele>
<time>2013-06-26T12:29:51Z</time>
</trkpt>
<trkpt lat="45.04930755" lon="5.37533814">
<ele>619.230</ele>
<time>2013-06-26T12:30:05Z</time>
</trkpt>
<trkpt lat="45.04920127" lon="5.37542506">
<ele>622.110</ele>
<time>2013-06-26T12:30:14Z</time>
</trkpt>
<trkpt lat="45.04909876" lon="5.37562371">
<ele>624.510</ele>
<time>2013-06-26T12:30:24Z</time>
</trkpt>
<trkpt lat="45.04902952" lon="5.37575833">
<ele>626.440</ele>
<time>2013-06-26T12:30:32Z</time>
</trkpt>
<trkpt lat="45.04892827" lon="5.37594885">
<ele>628.360</ele>
<time>2013-06-26T12:30:44Z</time>
</trkpt>
<trkpt lat="45.04884470" lon="5.37622989">
<ele>631.720</ele>
<time>2013-06-26T12:31:00Z</time>
</trkpt>
<trkpt lat="45.04879961" lon="5.37645930">
<ele>634.610</ele>
<time>2013-06-26T12:31:12Z</time>
</trkpt>
<trkpt lat="45.04875409" lon="5.37677212">
<ele>637.010</ele>
<time>2013-06-26T12:31:28Z</time>
</trkpt>
<trkpt lat="45.04875250" lon="5.37680179">
<ele>637.490</ele>
<time>2013-06-26T12:31:30Z</time>
</trkpt>
<trkpt lat="45.04873691" lon="5.37710069">
<ele>640.860</ele>
<time>2013-06-26T12:31:46Z</time>
</trkpt>
<trkpt lat="45.04872333" lon="5.37746840">
<ele>643.260</ele>
<time>2013-06-26T12:32:03Z</time>
</trkpt>
<trkpt lat="45.04865963" lon="5.37775531">
<ele>645.660</ele>
<time>2013-06-26T12:32:19Z</time>
</trkpt>
<trkpt lat="45.04858143" lon="5.37798397">
<ele>648.070</ele>
<time>2013-06-26T12:32:33Z</time>
</trkpt>
<trkpt lat="45.04852912" lon="5.37815664">
<ele>651.430</ele>
<time>2013-06-26T12:32:44Z</time>
</trkpt>
<trkpt lat="45.04846701" lon="5.37835009">
<ele>654.310</ele>
<time>2013-06-26T12:32:57Z</time>
</trkpt>
<trkpt lat="45.04843575" lon="5.37840449">
<ele>655.280</ele>
<time>2013-06-26T12:33:03Z</time>
</trkpt>
<trkpt lat="45.04842569" lon="5.37843442">
<ele>655.280</ele>
<time>2013-06-26T12:33:05Z</time>
</trkpt>
<trkpt lat="45.04832578" lon="5.37864212">
<ele>658.160</ele>
<time>2013-06-26T12:33:20Z</time>
</trkpt>
<trkpt lat="45.04821606" lon="5.37887438">
<ele>661.520</ele>
<time>2013-06-26T12:33:35Z</time>
</trkpt>
<trkpt lat="45.04815713" lon="5.37902475">
<ele>664.890</ele>
<time>2013-06-26T12:33:45Z</time>
</trkpt>
<trkpt lat="45.04810768" lon="5.37917479">
<ele>667.770</ele>
<time>2013-06-26T12:33:55Z</time>
</trkpt>
<trkpt lat="45.04803551" lon="5.37932625">
<ele>670.660</ele>
<time>2013-06-26T12:34:07Z</time>
</trkpt>
<trkpt lat="45.04801263" lon="5.37939196">
<ele>672.100</ele>
<time>2013-06-26T12:34:12Z</time>
</trkpt>
<trkpt lat="45.04790652" lon="5.37957201">
<ele>675.460</ele>
<time>2013-06-26T12:34:26Z</time>
</trkpt>
<trkpt lat="45.04788271" lon="5.37962616">
<ele>676.420</ele>
<time>2013-06-26T12:34:30Z</time>
</trkpt>
<trkpt lat="45.04782328" lon="5.37975104">
<ele>678.350</ele>
<time>2013-06-26T12:34:40Z</time>
</trkpt>
<trkpt lat="45.04775464" lon="5.37992271">
<ele>681.710</ele>
<time>2013-06-26T12:34:51Z</time>
</trkpt>
<trkpt lat="45.04771415" lon="5.37998088">
<ele>683.150</ele>
<time>2013-06-26T12:34:56Z</time>
</trkpt>
<trkpt lat="45.04763167" lon="5.38016067">
<ele>686.520</ele>
<time>2013-06-26T12:35:08Z</time>
</trkpt>
<trkpt lat="45.04757660" lon="5.38030065">
<ele>689.400</ele>
<time>2013-06-26T12:35:17Z</time>
</trkpt>
<trkpt lat="45.04751056" lon="5.38033744">
<ele>690.360</ele>
<time>2013-06-26T12:35:31Z</time>
</trkpt>
<trkpt lat="45.04747015" lon="5.38033334">
<ele>689.880</ele>
<time>2013-06-26T12:36:00Z</time>
</trkpt>
<trkpt lat="45.04746320" lon="5.38040324">
<ele>693.250</ele>
<time>2013-06-26T12:36:11Z</time>
</trkpt>
<trkpt lat="45.04741525" lon="5.38051405">
<ele>695.170</ele>
<time>2013-06-26T12:36:25Z</time>
</trkpt>
<trkpt lat="45.04736488" lon="5.38066501">
<ele>698.530</ele>
<time>2013-06-26T12:36:40Z</time>
</trkpt>
<trkpt lat="45.04731676" lon="5.38076735">
<ele>701.900</ele>
<time>2013-06-26T12:36:53Z</time>
</trkpt>
<trkpt lat="45.04724585" lon="5.38092677">
<ele>703.340</ele>
<time>2013-06-26T12:37:10Z</time>
</trkpt>
<trkpt lat="45.04719682" lon="5.38107161">
<ele>706.710</ele>
<time>2013-06-26T12:37:26Z</time>
</trkpt>
<trkpt lat="45.04717729" lon="5.38121402">
<ele>709.590</ele>
<time>2013-06-26T12:37:41Z</time>
</trkpt>
<trkpt lat="45.04715709" lon="5.38130865">
<ele>712.950</ele>
<time>2013-06-26T12:37:53Z</time>
</trkpt>
<trkpt lat="45.04712968" lon="5.38143564">
<ele>715.360</ele>
<time>2013-06-26T12:38:11Z</time>
</trkpt>
<trkpt lat="45.04709959" lon="5.38152298">
<ele>717.280</ele>
<time>2013-06-26T12:38:28Z</time>
</trkpt>
<trkpt lat="45.04706833" lon="5.38164921">
<ele>720.160</ele>
<time>2013-06-26T12:38:42Z</time>
</trkpt>
<trkpt lat="45.04701032" lon="5.38182783">
<ele>722.090</ele>
<time>2013-06-26T12:39:00Z</time>
</trkpt>
<trkpt lat="45.04696598" lon="5.38196856">
<ele>724.490</ele>
<time>2013-06-26T12:39:15Z</time>
</trkpt>
<trkpt lat="45.04691091" lon="5.38210753">
<ele>727.860</ele>
<time>2013-06-26T12:39:30Z</time>
</trkpt>
<trkpt lat="45.04683531" lon="5.38224122">
<ele>730.260</ele>
<time>2013-06-26T12:39:46Z</time>
</trkpt>
<trkpt lat="45.04677555" lon="5.38233292">
<ele>731.220</ele>
<time>2013-06-26T12:40:01Z</time>
</trkpt>
<trkpt lat="45.04671109" lon="5.38242202">
<ele>732.180</ele>
<time>2013-06-26T12:40:14Z</time>
</trkpt>
<trkpt lat="45.04670103" lon="5.38242906">
<ele>732.660</ele>
<time>2013-06-26T12:40:15Z</time>
</trkpt>
<trkpt lat="45.04652258" lon="5.38259678">
<ele>735.550</ele>
<time>2013-06-26T12:40:30Z</time>
</trkpt>
<trkpt lat="45.04640163" lon="5.38264448">
<ele>738.910</ele>
<time>2013-06-26T12:40:40Z</time>
</trkpt>
<trkpt lat="45.04630029" lon="5.38268119">
<ele>740.830</ele>
<time>2013-06-26T12:40:47Z</time>
</trkpt>
<trkpt lat="45.04613911" lon="5.38286534">
<ele>744.200</ele>
<time>2013-06-26T12:41:03Z</time>
</trkpt>
<trkpt lat="45.04607080" lon="5.38307271">
<ele>746.120</ele>
<time>2013-06-26T12:41:15Z</time>
</trkpt>
<trkpt lat="45.04596954" lon="5.38332643">
<ele>749.000</ele>
<time>2013-06-26T12:41:30Z</time>
</trkpt>
<trkpt lat="45.04587399" lon="5.38350438">
<ele>751.890</ele>
<time>2013-06-26T12:41:42Z</time>
</trkpt>
<trkpt lat="45.04578162" lon="5.38369088">
<ele>755.250</ele>
<time>2013-06-26T12:41:56Z</time>
</trkpt>
<trkpt lat="45.04577198" lon="5.38372256">
<ele>755.730</ele>
<time>2013-06-26T12:41:58Z</time>
</trkpt>
<trkpt lat="45.04570409" lon="5.38394535">
<ele>759.580</ele>
<time>2013-06-26T12:42:13Z</time>
</trkpt>
<trkpt lat="45.04562622" lon="5.38413830">
<ele>761.500</ele>
<time>2013-06-26T12:42:26Z</time>
</trkpt>
<trkpt lat="45.04553762" lon="5.38436729">
<ele>764.390</ele>
<time>2013-06-26T12:42:40Z</time>
</trkpt>
<trkpt lat="45.04551784" lon="5.38441650">
<ele>765.350</ele>
<time>2013-06-26T12:42:44Z</time>
</trkpt>
<trkpt lat="45.04543629" lon="5.38453217">
<ele>768.710</ele>
<time>2013-06-26T12:42:55Z</time>
</trkpt>
<trkpt lat="45.04533537" lon="5.38469494">
<ele>772.080</ele>
<time>2013-06-26T12:43:08Z</time>
</trkpt>
<trkpt lat="45.04530477" lon="5.38474943">
<ele>773.520</ele>
<time>2013-06-26T12:43:13Z</time>
</trkpt>
<trkpt lat="45.04525406" lon="5.38488530">
<ele>776.880</ele>
<time>2013-06-26T12:43:24Z</time>
</trkpt>
<trkpt lat="45.04517896" lon="5.38501019">
<ele>779.770</ele>
<time>2013-06-26T12:43:36Z</time>
</trkpt>
<trkpt lat="45.04506178" lon="5.38521395">
<ele>783.130</ele>
<time>2013-06-26T12:43:53Z</time>
</trkpt>
<trkpt lat="45.04504837" lon="5.38523541">
<ele>783.130</ele>
<time>2013-06-26T12:43:55Z</time>
</trkpt>
<trkpt lat="45.04501023" lon="5.38530967">
<ele>784.570</ele>
<time>2013-06-26T12:44:01Z</time>
</trkpt>
<trkpt lat="45.04495525" lon="5.38548628">
<ele>787.940</ele>
<time>2013-06-26T12:44:13Z</time>
</trkpt>
<trkpt lat="45.04494569" lon="5.38549961">
<ele>787.940</ele>
<time>2013-06-26T12:44:14Z</time>
</trkpt>
<trkpt lat="45.04489079" lon="5.38564595">
<ele>791.300</ele>
<time>2013-06-26T12:44:26Z</time>
</trkpt>
<trkpt lat="45.04483237" lon="5.38577763">
<ele>792.740</ele>
<time>2013-06-26T12:44:37Z</time>
</trkpt>
<trkpt lat="45.04477747" lon="5.38590646">
<ele>792.260</ele>
<time>2013-06-26T12:44:45Z</time>
</trkpt>
<trkpt lat="45.04468644" lon="5.38614744">
<ele>795.630</ele>
<time>2013-06-26T12:44:59Z</time>
</trkpt>
<trkpt lat="45.04464973" lon="5.38638021">
<ele>798.510</ele>
<time>2013-06-26T12:45:13Z</time>
</trkpt>
<trkpt lat="45.04462643" lon="5.38657031">
<ele>801.400</ele>
<time>2013-06-26T12:45:25Z</time>
</trkpt>
<trkpt lat="45.04460547" lon="5.38683317">
<ele>804.280</ele>
<time>2013-06-26T12:45:41Z</time>
</trkpt>
<trkpt lat="45.04459131" lon="5.38695035">
<ele>805.720</ele>
<time>2013-06-26T12:45:55Z</time>
</trkpt>
<trkpt lat="45.04458116" lon="5.38706761">
<ele>807.160</ele>
<time>2013-06-26T12:46:17Z</time>
</trkpt>
<trkpt lat="45.04457857" lon="5.38721446">
<ele>810.530</ele>
<time>2013-06-26T12:46:32Z</time>
</trkpt>
<trkpt lat="45.04456339" lon="5.38736357">
<ele>812.930</ele>
<time>2013-06-26T12:46:46Z</time>
</trkpt>
<trkpt lat="45.04450430" lon="5.38749240">
<ele>815.820</ele>
<time>2013-06-26T12:47:02Z</time>
</trkpt>
<trkpt lat="45.04438377" lon="5.38755535">
<ele>817.740</ele>
<time>2013-06-26T12:47:17Z</time>
</trkpt>
<trkpt lat="45.04426324" lon="5.38762048">
<ele>820.140</ele>
<time>2013-06-26T12:47:33Z</time>
</trkpt>
<trkpt lat="45.04419392" lon="5.38772232">
<ele>823.030</ele>
<time>2013-06-26T12:47:45Z</time>
</trkpt>
<trkpt lat="45.04413374" lon="5.38783464">
<ele>824.950</ele>
<time>2013-06-26T12:48:00Z</time>
</trkpt>
<trkpt lat="45.04408621" lon="5.38796212">
<ele>826.870</ele>
<time>2013-06-26T12:48:16Z</time>
</trkpt>
<trkpt lat="45.04407842" lon="5.38799481">
<ele>828.310</ele>
<time>2013-06-26T12:48:19Z</time>
</trkpt>
<trkpt lat="45.04406257" lon="5.38810780">
<ele>830.240</ele>
<time>2013-06-26T12:48:35Z</time>
</trkpt>
<trkpt lat="45.04406911" lon="5.38820721">
<ele>833.120</ele>
<time>2013-06-26T12:48:49Z</time>
</trkpt>
<trkpt lat="45.04405076" lon="5.38828516">
<ele>835.520</ele>
<time>2013-06-26T12:49:03Z</time>
</trkpt>
<trkpt lat="45.04401798" lon="5.38837376">
<ele>836.480</ele>
<time>2013-06-26T12:49:16Z</time>
</trkpt>
<trkpt lat="45.04402947" lon="5.38846026">
<ele>839.370</ele>
<time>2013-06-26T12:49:28Z</time>
</trkpt>
<trkpt lat="45.04403768" lon="5.38853092">
<ele>840.810</ele>
<time>2013-06-26T12:49:39Z</time>
</trkpt>
<trkpt lat="45.04401748" lon="5.38864626">
<ele>842.730</ele>
<time>2013-06-26T12:49:52Z</time>
</trkpt>
<trkpt lat="45.04396585" lon="5.38876167">
<ele>845.620</ele>
<time>2013-06-26T12:50:06Z</time>
</trkpt>
<trkpt lat="45.04394774" lon="5.38880275">
<ele>846.100</ele>
<time>2013-06-26T12:50:11Z</time>
</trkpt>
<trkpt lat="45.04389326" lon="5.38889662">
<ele>848.020</ele>
<time>2013-06-26T12:50:25Z</time>
</trkpt>
<trkpt lat="45.04385177" lon="5.38901179">
<ele>849.460</ele>
<time>2013-06-26T12:50:38Z</time>
</trkpt>
<trkpt lat="45.04383425" lon="5.38903836">
<ele>849.460</ele>
<time>2013-06-26T12:50:48Z</time>
</trkpt>
<trkpt lat="45.04379109" lon="5.38908346">
<ele>850.420</ele>
<time>2013-06-26T12:51:00Z</time>
</trkpt>
<trkpt lat="45.04378304" lon="5.38908891">
<ele>850.420</ele>
<time>2013-06-26T12:51:01Z</time>
</trkpt>
<trkpt lat="45.04361490" lon="5.38928823">
<ele>850.420</ele>
<time>2013-06-26T12:51:14Z</time>
</trkpt>
<trkpt lat="45.04356058" lon="5.38942267">
<ele>852.350</ele>
<time>2013-06-26T12:51:26Z</time>
</trkpt>
<trkpt lat="45.04347710" lon="5.38954404">
<ele>854.750</ele>
<time>2013-06-26T12:51:40Z</time>
</trkpt>
<trkpt lat="45.04341289" lon="5.38966072">
<ele>855.710</ele>
<time>2013-06-26T12:51:51Z</time>
</trkpt>
<trkpt lat="45.04339621" lon="5.38969978">
<ele>856.190</ele>
<time>2013-06-26T12:51:55Z</time>
</trkpt>
<trkpt lat="45.04338381" lon="5.38971394">
<ele>856.670</ele>
<time>2013-06-26T12:51:57Z</time>
</trkpt>
<trkpt lat="45.04335280" lon="5.38977169">
<ele>857.630</ele>
<time>2013-06-26T12:52:03Z</time>
</trkpt>
<trkpt lat="45.04334114" lon="5.38983640">
<ele>858.590</ele>
<time>2013-06-26T12:52:07Z</time>
</trkpt>
<trkpt lat="45.04332933" lon="5.38985828">
<ele>859.080</ele>
<time>2013-06-26T12:52:09Z</time>
</trkpt>
<trkpt lat="45.04328440" lon="5.38991913">
<ele>860.040</ele>
<time>2013-06-26T12:52:21Z</time>
</trkpt>
<trkpt lat="45.04326018" lon="5.38990689">
<ele>859.560</ele>
<time>2013-06-26T12:52:25Z</time>
</trkpt>
<trkpt lat="45.04323989" lon="5.38991452">
<ele>859.560</ele>
<time>2013-06-26T12:52:27Z</time>
</trkpt>
<trkpt lat="45.04317552" lon="5.38996867">
<ele>860.520</ele>
<time>2013-06-26T12:52:34Z</time>
</trkpt>
<trkpt lat="45.04316253" lon="5.38996808">
<ele>861.000</ele>
<time>2013-06-26T12:52:35Z</time>
</trkpt>
<trkpt lat="45.04313327" lon="5.38995559">
<ele>861.480</ele>
<time>2013-06-26T12:52:36Z</time>
</trkpt>
<trkpt lat="45.04308784" lon="5.38990304">
<ele>861.960</ele>
<time>2013-06-26T12:52:39Z</time>
</trkpt>
<trkpt lat="45.04303663" lon="5.38989767">
<ele>862.440</ele>
<time>2013-06-26T12:52:43Z</time>
</trkpt>
<trkpt lat="45.04297460" lon="5.39004327">
<ele>863.880</ele>
<time>2013-06-26T12:52:50Z</time>
</trkpt>
<trkpt lat="45.04296212" lon="5.39003916">
<ele>863.880</ele>
<time>2013-06-26T12:52:51Z</time>
</trkpt>
<trkpt lat="45.04295893" lon="5.39017445">
<ele>865.320</ele>
<time>2013-06-26T12:53:00Z</time>
</trkpt>
<trkpt lat="45.04294703" lon="5.39039648">
<ele>867.250</ele>
<time>2013-06-26T12:53:12Z</time>
</trkpt>
<trkpt lat="45.04291333" lon="5.39046496">
<ele>867.730</ele>
<time>2013-06-26T12:53:25Z</time>
</trkpt>
<trkpt lat="45.04289883" lon="5.39050821">
<ele>867.250</ele>
<time>2013-06-26T12:53:30Z</time>
</trkpt>
<trkpt lat="45.04288701" lon="5.39051576">
<ele>867.250</ele>
<time>2013-06-26T12:53:31Z</time>
</trkpt>
<trkpt lat="45.04284049" lon="5.39051173">
<ele>867.250</ele>
<time>2013-06-26T12:53:34Z</time>
</trkpt>
<trkpt lat="45.04259021" lon="5.39046043">
<ele>866.290</ele>
<time>2013-06-26T12:53:46Z</time>
</trkpt>
<trkpt lat="45.04254151" lon="5.39047561">
<ele>866.290</ele>
<time>2013-06-26T12:53:49Z</time>
</trkpt>
<trkpt lat="45.04249105" lon="5.39053797">
<ele>867.250</ele>
<time>2013-06-26T12:53:52Z</time>
</trkpt>
<trkpt lat="45.04247253" lon="5.39060175">
<ele>868.210</ele>
<time>2013-06-26T12:53:55Z</time>
</trkpt>
<trkpt lat="45.04239240" lon="5.39087425">
<ele>869.650</ele>
<time>2013-06-26T12:54:04Z</time>
</trkpt>
<trkpt lat="45.04235174" lon="5.39090300">
<ele>869.650</ele>
<time>2013-06-26T12:54:06Z</time>
</trkpt>
<trkpt lat="45.04227061" lon="5.39116141">
<ele>870.130</ele>
<time>2013-06-26T12:54:12Z</time>
</trkpt>
<trkpt lat="45.04224974" lon="5.39115789">
<ele>870.130</ele>
<time>2013-06-26T12:54:13Z</time>
</trkpt>
<trkpt lat="45.04217086" lon="5.39129494">
<ele>870.610</ele>
<time>2013-06-26T12:54:17Z</time>
</trkpt>
<trkpt lat="45.04214102" lon="5.39133978">
<ele>870.610</ele>
<time>2013-06-26T12:54:19Z</time>
</trkpt>
<trkpt lat="45.04213641" lon="5.39137390">
<ele>870.610</ele>
<time>2013-06-26T12:54:20Z</time>
</trkpt>
<trkpt lat="45.04211714" lon="5.39142905">
<ele>871.090</ele>
<time>2013-06-26T12:54:22Z</time>
</trkpt>
<trkpt lat="45.04209375" lon="5.39145998">
<ele>871.570</ele>
<time>2013-06-26T12:54:24Z</time>
</trkpt>
<trkpt lat="45.04208218" lon="5.39147255">
<ele>871.570</ele>
<time>2013-06-26T12:54:25Z</time>
</trkpt>
<trkpt lat="45.04206877" lon="5.39148428">
<ele>872.050</ele>
<time>2013-06-26T12:54:26Z</time>
</trkpt>
<trkpt lat="45.04204706" lon="5.39150298">
<ele>873.010</ele>
<time>2013-06-26T12:54:28Z</time>
</trkpt>
<trkpt lat="45.04202049" lon="5.39151253">
<ele>873.500</ele>
<time>2013-06-26T12:54:30Z</time>
</trkpt>
<trkpt lat="45.04197992" lon="5.39152083">
<ele>873.500</ele>
<time>2013-06-26T12:54:33Z</time>
</trkpt>
<trkpt lat="45.04194304" lon="5.39159702">
<ele>874.460</ele>
<time>2013-06-26T12:54:36Z</time>
</trkpt>
<trkpt lat="45.04191052" lon="5.39160046">
<ele>874.940</ele>
<time>2013-06-26T12:54:38Z</time>
</trkpt>
<trkpt lat="45.04189887" lon="5.39162217">
<ele>874.940</ele>
<time>2013-06-26T12:54:39Z</time>
</trkpt>
<trkpt lat="45.04184087" lon="5.39175410">
<ele>875.420</ele>
<time>2013-06-26T12:54:47Z</time>
</trkpt>
<trkpt lat="45.04184590" lon="5.39180649">
<ele>875.420</ele>
<time>2013-06-26T12:54:49Z</time>
</trkpt>
<trkpt lat="45.04184841" lon="5.39185016">
<ele>875.900</ele>
<time>2013-06-26T12:54:51Z</time>
</trkpt>
<trkpt lat="45.04185000" lon="5.39204034">
<ele>879.260</ele>
<time>2013-06-26T12:55:00Z</time>
</trkpt>
<trkpt lat="45.04181061" lon="5.39201444">
<ele>879.260</ele>
<time>2013-06-26T12:55:13Z</time>
</trkpt>
<trkpt lat="45.04153518" lon="5.39166366">
<ele>880.710</ele>
<time>2013-06-26T12:55:25Z</time>
</trkpt>
<trkpt lat="45.04152269" lon="5.39163717">
<ele>881.190</ele>
<time>2013-06-26T12:55:27Z</time>
</trkpt>
<trkpt lat="45.04144457" lon="5.39160725">
<ele>883.590</ele>
<time>2013-06-26T12:55:35Z</time>
</trkpt>
<trkpt lat="45.04132010" lon="5.39156995">
<ele>885.510</ele>
<time>2013-06-26T12:55:48Z</time>
</trkpt>
<trkpt lat="45.04129512" lon="5.39155981">
<ele>885.510</ele>
<time>2013-06-26T12:55:50Z</time>
</trkpt>
<trkpt lat="45.04119244" lon="5.39152930">
<ele>887.910</ele>
<time>2013-06-26T12:56:03Z</time>
</trkpt>
<trkpt lat="45.04109823" lon="5.39153181">
<ele>888.880</ele>
<time>2013-06-26T12:56:17Z</time>
</trkpt>
<trkpt lat="45.04100419" lon="5.39154723">
<ele>888.400</ele>
<time>2013-06-26T12:56:31Z</time>
</trkpt>
<trkpt lat="45.04095666" lon="5.39155796">
<ele>887.430</ele>
<time>2013-06-26T12:56:44Z</time>
</trkpt>
<trkpt lat="45.04093646" lon="5.39156995">
<ele>886.950</ele>
<time>2013-06-26T12:56:48Z</time>
</trkpt>
<trkpt lat="45.04075265" lon="5.39163809">
<ele>885.030</ele>
<time>2013-06-26T12:56:57Z</time>
</trkpt>
<trkpt lat="45.04062247" lon="5.39174739">
<ele>884.550</ele>
<time>2013-06-26T12:57:06Z</time>
</trkpt>
<trkpt lat="45.04058517" lon="5.39179777">
<ele>885.030</ele>
<time>2013-06-26T12:57:10Z</time>
</trkpt>
<trkpt lat="45.04052583" lon="5.39182484">
<ele>887.430</ele>
<time>2013-06-26T12:57:21Z</time>
</trkpt>
<trkpt lat="45.04046464" lon="5.39187991">
<ele>889.360</ele>
<time>2013-06-26T12:57:33Z</time>
</trkpt>
<trkpt lat="45.04043581" lon="5.39194018">
<ele>891.280</ele>
<time>2013-06-26T12:57:44Z</time>
</trkpt>
<trkpt lat="45.04039130" lon="5.39199114">
<ele>893.200</ele>
<time>2013-06-26T12:57:56Z</time>
</trkpt>
<trkpt lat="45.04034084" lon="5.39203565">
<ele>895.120</ele>
<time>2013-06-26T12:58:10Z</time>
</trkpt>
<trkpt lat="45.04025627" lon="5.39210136">
<ele>897.050</ele>
<time>2013-06-26T12:58:26Z</time>
</trkpt>
<trkpt lat="45.04022115" lon="5.39211963">
<ele>897.530</ele>
<time>2013-06-26T12:58:32Z</time>
</trkpt>
<trkpt lat="45.04014236" lon="5.39216230">
<ele>898.010</ele>
<time>2013-06-26T12:58:43Z</time>
</trkpt>
<trkpt lat="45.04005343" lon="5.39226238">
<ele>900.410</ele>
<time>2013-06-26T12:58:58Z</time>
</trkpt>
<trkpt lat="45.03996877" lon="5.39230538">
<ele>902.820</ele>
<time>2013-06-26T12:59:11Z</time>
</trkpt>
<trkpt lat="45.03996768" lon="5.39238274">
<ele>903.780</ele>
<time>2013-06-26T12:59:24Z</time>
</trkpt>
<trkpt lat="45.03992342" lon="5.39244804">
<ele>906.180</ele>
<time>2013-06-26T12:59:40Z</time>
</trkpt>
<trkpt lat="45.03990507" lon="5.39255155">
<ele>909.060</ele>
<time>2013-06-26T12:59:54Z</time>
</trkpt>
<trkpt lat="45.03989610" lon="5.39263017">
<ele>911.470</ele>
<time>2013-06-26T13:00:07Z</time>
</trkpt>
<trkpt lat="45.03982251" lon="5.39272321">
<ele>913.390</ele>
<time>2013-06-26T13:00:21Z</time>
</trkpt>
<trkpt lat="45.03974699" lon="5.39283570">
<ele>915.790</ele>
<time>2013-06-26T13:00:34Z</time>
</trkpt>
<trkpt lat="45.03968479" lon="5.39290041">
<ele>917.240</ele>
<time>2013-06-26T13:00:52Z</time>
</trkpt>
<trkpt lat="45.03965009" lon="5.39301951">
<ele>918.680</ele>
<time>2013-06-26T13:01:10Z</time>
</trkpt>
<trkpt lat="45.03959754" lon="5.39313032">
<ele>921.560</ele>
<time>2013-06-26T13:01:25Z</time>
</trkpt>
<trkpt lat="45.03951455" lon="5.39325672">
<ele>924.450</ele>
<time>2013-06-26T13:01:42Z</time>
</trkpt>
<trkpt lat="45.03943308" lon="5.39336217">
<ele>926.850</ele>
<time>2013-06-26T13:01:56Z</time>
</trkpt>
<trkpt lat="45.03939209" lon="5.39349745">
<ele>928.770</ele>
<time>2013-06-26T13:02:11Z</time>
</trkpt>
<trkpt lat="45.03933728" lon="5.39359158">
<ele>931.650</ele>
<time>2013-06-26T13:02:27Z</time>
</trkpt>
<trkpt lat="45.03930878" lon="5.39367582">
<ele>934.060</ele>
<time>2013-06-26T13:02:41Z</time>
</trkpt>
<trkpt lat="45.03932085" lon="5.39364858">
<ele>934.060</ele>
<time>2013-06-26T13:03:00Z</time>
</trkpt>
<trkpt lat="45.03930149" lon="5.39373315">
<ele>936.460</ele>
<time>2013-06-26T13:03:16Z</time>
</trkpt>
<trkpt lat="45.03924960" lon="5.39381412">
<ele>939.830</ele>
<time>2013-06-26T13:03:31Z</time>
</trkpt>
<trkpt lat="45.03919696" lon="5.39387397">
<ele>941.270</ele>
<time>2013-06-26T13:03:43Z</time>
</trkpt>
<trkpt lat="45.03915338" lon="5.39397522">
<ele>943.670</ele>
<time>2013-06-26T13:03:57Z</time>
</trkpt>
<trkpt lat="45.03909915" lon="5.39406549">
<ele>947.040</ele>
<time>2013-06-26T13:04:11Z</time>
</trkpt>
<trkpt lat="45.03904081" lon="5.39415032">
<ele>949.440</ele>
<time>2013-06-26T13:04:26Z</time>
</trkpt>
<trkpt lat="45.03901265" lon="5.39423665">
<ele>952.320</ele>
<time>2013-06-26T13:04:40Z</time>
</trkpt>
<trkpt lat="45.03897417" lon="5.39429071">
<ele>954.250</ele>
<time>2013-06-26T13:04:52Z</time>
</trkpt>
<trkpt lat="45.03891802" lon="5.39437085">
<ele>956.650</ele>
<time>2013-06-26T13:05:05Z</time>
</trkpt>
<trkpt lat="45.03887040" lon="5.39445433">
<ele>958.570</ele>
<time>2013-06-26T13:05:17Z</time>
</trkpt>
<trkpt lat="45.03879975" lon="5.39451778">
<ele>960.980</ele>
<time>2013-06-26T13:05:31Z</time>
</trkpt>
<trkpt lat="45.03874862" lon="5.39459364">
<ele>962.420</ele>
<time>2013-06-26T13:05:42Z</time>
</trkpt>
<trkpt lat="45.03868994" lon="5.39467167">
<ele>964.340</ele>
<time>2013-06-26T13:05:56Z</time>
</trkpt>
<trkpt lat="45.03859640" lon="5.39472666">
<ele>966.260</ele>
<time>2013-06-26T13:06:11Z</time>
</trkpt>
<trkpt lat="45.03854259" lon="5.39481634">
<ele>968.180</ele>
<time>2013-06-26T13:06:23Z</time>
</trkpt>
<trkpt lat="45.03848492" lon="5.39492774">
<ele>970.110</ele>
<time>2013-06-26T13:06:37Z</time>
</trkpt>
<trkpt lat="45.03846003" lon="5.39497300">
<ele>970.590</ele>
<time>2013-06-26T13:06:54Z</time>
</trkpt>
<trkpt lat="45.03843186" lon="5.39506596">
<ele>972.510</ele>
<time>2013-06-26T13:07:09Z</time>
</trkpt>
<trkpt lat="45.03839398" lon="5.39513376">
<ele>973.470</ele>
<time>2013-06-26T13:07:18Z</time>
</trkpt>
<trkpt lat="45.03832793" lon="5.39521834">
<ele>976.360</ele>
<time>2013-06-26T13:07:33Z</time>
</trkpt>
<trkpt lat="45.03830932" lon="5.39519286">
<ele>976.360</ele>
<time>2013-06-26T13:07:54Z</time>
</trkpt>
<trkpt lat="45.03826222" lon="5.39523971">
<ele>977.800</ele>
<time>2013-06-26T13:08:08Z</time>
</trkpt>
<trkpt lat="45.03820178" lon="5.39532110">
<ele>980.200</ele>
<time>2013-06-26T13:08:22Z</time>
</trkpt>
<trkpt lat="45.03814403" lon="5.39539109">
<ele>982.600</ele>
<time>2013-06-26T13:08:36Z</time>
</trkpt>
<trkpt lat="45.03808787" lon="5.39547038">
<ele>984.530</ele>
<time>2013-06-26T13:08:49Z</time>
</trkpt>
<trkpt lat="45.03802492" lon="5.39553895">
<ele>986.450</ele>
<time>2013-06-26T13:09:04Z</time>
</trkpt>
<trkpt lat="45.03797061" lon="5.39557541">
<ele>988.850</ele>
<time>2013-06-26T13:09:16Z</time>
</trkpt>
<trkpt lat="45.03789039" lon="5.39570633">
<ele>991.260</ele>
<time>2013-06-26T13:09:31Z</time>
</trkpt>
<trkpt lat="45.03783859" lon="5.39577054">
<ele>992.220</ele>
<time>2013-06-26T13:09:44Z</time>
</trkpt>
<trkpt lat="45.03781001" lon="5.39582209">
<ele>993.180</ele>
<time>2013-06-26T13:09:48Z</time>
</trkpt>
<trkpt lat="45.03774949" lon="5.39596651">
<ele>995.100</ele>
<time>2013-06-26T13:09:57Z</time>
</trkpt>
<trkpt lat="45.03770951" lon="5.39605594">
<ele>996.540</ele>
<time>2013-06-26T13:10:03Z</time>
</trkpt>
<trkpt lat="45.03756987" lon="5.39618318">
<ele>999.430</ele>
<time>2013-06-26T13:10:16Z</time>
</trkpt>
<trkpt lat="45.03752721" lon="5.39621461">
<ele>1000.390</ele>
<time>2013-06-26T13:10:28Z</time>
</trkpt>
<trkpt lat="45.03746065" lon="5.39627999">
<ele>1002.310</ele>
<time>2013-06-26T13:10:42Z</time>
</trkpt>
<trkpt lat="45.03738765" lon="5.39637563">
<ele>1005.200</ele>
<time>2013-06-26T13:10:58Z</time>
</trkpt>
<trkpt lat="45.03732218" lon="5.39645735">
<ele>1008.080</ele>
<time>2013-06-26T13:11:13Z</time>
</trkpt>
<trkpt lat="45.03727634" lon="5.39651317">
<ele>1010.000</ele>
<time>2013-06-26T13:11:27Z</time>
</trkpt>
<trkpt lat="45.03723367" lon="5.39655291">
<ele>1011.440</ele>
<time>2013-06-26T13:11:35Z</time>
</trkpt>
<trkpt lat="45.03715673" lon="5.39666304">
<ele>1012.890</ele>
<time>2013-06-26T13:11:49Z</time>
</trkpt>
<trkpt lat="45.03710442" lon="5.39671887">
<ele>1014.330</ele>
<time>2013-06-26T13:11:57Z</time>
</trkpt>
<trkpt lat="45.03702530" lon="5.39678416">
<ele>1015.770</ele>
<time>2013-06-26T13:12:09Z</time>
</trkpt>
<trkpt lat="45.03700468" lon="5.39681761">
<ele>1016.250</ele>
<time>2013-06-26T13:12:13Z</time>
</trkpt>
<trkpt lat="45.03708598" lon="5.39680428">
<ele>1019.130</ele>
<time>2013-06-26T13:12:28Z</time>
</trkpt>
<trkpt lat="45.03714985" lon="5.39679179">
<ele>1021.540</ele>
<time>2013-06-26T13:12:45Z</time>
</trkpt>
<trkpt lat="45.03711775" lon="5.39684854">
<ele>1024.420</ele>
<time>2013-06-26T13:12:57Z</time>
</trkpt>
<trkpt lat="45.03708825" lon="5.39688340">
<ele>1026.340</ele>
<time>2013-06-26T13:13:08Z</time>
</trkpt>
<trkpt lat="45.03707886" lon="5.39689438">
<ele>1026.340</ele>
<time>2013-06-26T13:13:18Z</time>
</trkpt>
<trkpt lat="45.03707341" lon="5.39692213">
<ele>1026.340</ele>
<time>2013-06-26T13:13:41Z</time>
</trkpt>
<trkpt lat="45.03703242" lon="5.39696530">
<ele>1028.750</ele>
<time>2013-06-26T13:13:54Z</time>
</trkpt>
<trkpt lat="45.03695279" lon="5.39705800">
<ele>1030.670</ele>
<time>2013-06-26T13:14:07Z</time>
</trkpt>
<trkpt lat="45.03687417" lon="5.39716076">
<ele>1032.590</ele>
<time>2013-06-26T13:14:22Z</time>
</trkpt>
<trkpt lat="45.03684416" lon="5.39723578">
<ele>1034.520</ele>
<time>2013-06-26T13:14:34Z</time>
</trkpt>
<trkpt lat="45.03678792" lon="5.39730912">
<ele>1036.920</ele>
<time>2013-06-26T13:14:47Z</time>
</trkpt>
<trkpt lat="45.03675372" lon="5.39738079">
<ele>1039.320</ele>
<time>2013-06-26T13:14:59Z</time>
</trkpt>
<trkpt lat="45.03681005" lon="5.39736821">
<ele>1040.760</ele>
<time>2013-06-26T13:15:10Z</time>
</trkpt>
<trkpt lat="45.03689144" lon="5.39734516">
<ele>1043.170</ele>
<time>2013-06-26T13:15:26Z</time>
</trkpt>
<trkpt lat="45.03684651" lon="5.39742110">
<ele>1045.090</ele>
<time>2013-06-26T13:15:39Z</time>
</trkpt>
<trkpt lat="45.03677979" lon="5.39746528">
<ele>1047.490</ele>
<time>2013-06-26T13:15:53Z</time>
</trkpt>
<trkpt lat="45.03675942" lon="5.39747223">
<ele>1047.490</ele>
<time>2013-06-26T13:16:08Z</time>
</trkpt>
<trkpt lat="45.03678163" lon="5.39750392">
<ele>1047.490</ele>
<time>2013-06-26T13:16:23Z</time>
</trkpt>
<trkpt lat="45.03674367" lon="5.39745756">
<ele>1047.970</ele>
<time>2013-06-26T13:16:51Z</time>
</trkpt>
<trkpt lat="45.03674593" lon="5.39743175">
<ele>1048.450</ele>
<time>2013-06-26T13:17:15Z</time>
</trkpt>
<trkpt lat="45.03674174" lon="5.39747500">
<ele>1048.940</ele>
<time>2013-06-26T13:17:37Z</time>
</trkpt>
<trkpt lat="45.03671148" lon="5.39748321">
<ele>1048.940</ele>
<time>2013-06-26T13:17:41Z</time>
</trkpt>
<trkpt lat="45.03666136" lon="5.39754046">
<ele>1049.900</ele>
<time>2013-06-26T13:17:48Z</time>
</trkpt>
<trkpt lat="45.03656245" lon="5.39760157">
<ele>1051.340</ele>
<time>2013-06-26T13:17:59Z</time>
</trkpt>
<trkpt lat="45.03644183" lon="5.39766778">
<ele>1053.260</ele>
<time>2013-06-26T13:18:13Z</time>
</trkpt>
<trkpt lat="45.03636279" lon="5.39772704">
<ele>1055.670</ele>
<time>2013-06-26T13:18:26Z</time>
</trkpt>
<trkpt lat="45.03624905" lon="5.39773668">
<ele>1057.590</ele>
<time>2013-06-26T13:18:39Z</time>
</trkpt>
<trkpt lat="45.03616163" lon="5.39781807">
<ele>1059.030</ele>
<time>2013-06-26T13:18:51Z</time>
</trkpt>
<trkpt lat="45.03609591" lon="5.39785663">
<ele>1059.990</ele>
<time>2013-06-26T13:19:05Z</time>
</trkpt>
<trkpt lat="45.03608158" lon="5.39784623">
<ele>1059.990</ele>
<time>2013-06-26T13:19:10Z</time>
</trkpt>
<trkpt lat="45.03597781" lon="5.39790289">
<ele>1061.910</ele>
<time>2013-06-26T13:19:24Z</time>
</trkpt>
<trkpt lat="45.03596390" lon="5.39791312">
<ele>1061.910</ele>
<time>2013-06-26T13:19:26Z</time>
</trkpt>
<trkpt lat="45.03588603" lon="5.39791639">
<ele>1061.910</ele>
<time>2013-06-26T13:19:34Z</time>
</trkpt>
<trkpt lat="45.03579224" lon="5.39793332">
<ele>1061.430</ele>
<time>2013-06-26T13:19:43Z</time>
</trkpt>
<trkpt lat="45.03576449" lon="5.39795285">
<ele>1061.430</ele>
<time>2013-06-26T13:19:46Z</time>
</trkpt>
<trkpt lat="45.03568847" lon="5.39798219">
<ele>1062.390</ele>
<time>2013-06-26T13:19:54Z</time>
</trkpt>
<trkpt lat="45.03566357" lon="5.39799401">
<ele>1062.390</ele>
<time>2013-06-26T13:19:56Z</time>
</trkpt>
<trkpt lat="45.03553877" lon="5.39813876">
<ele>1065.280</ele>
<time>2013-06-26T13:20:11Z</time>
</trkpt>
<trkpt lat="45.03546576" lon="5.39822501">
<ele>1067.680</ele>
<time>2013-06-26T13:20:25Z</time>
</trkpt>
<trkpt lat="45.03542041" lon="5.39829006">
<ele>1069.600</ele>
<time>2013-06-26T13:20:38Z</time>
</trkpt>
<trkpt lat="45.03534045" lon="5.39829098">
<ele>1072.010</ele>
<time>2013-06-26T13:20:52Z</time>
</trkpt>
<trkpt lat="45.03531380" lon="5.39830606">
<ele>1072.010</ele>
<time>2013-06-26T13:21:07Z</time>
</trkpt>
<trkpt lat="45.03528882" lon="5.39831730">
<ele>1072.010</ele>
<time>2013-06-26T13:21:10Z</time>
</trkpt>
<trkpt lat="45.03513577" lon="5.39832392">
<ele>1073.450</ele>
<time>2013-06-26T13:21:25Z</time>
</trkpt>
<trkpt lat="45.03510777" lon="5.39833548">
<ele>1073.930</ele>
<time>2013-06-26T13:21:28Z</time>
</trkpt>
<trkpt lat="45.03498883" lon="5.39835661">
<ele>1075.850</ele>
<time>2013-06-26T13:21:43Z</time>
</trkpt>
<trkpt lat="45.03498313" lon="5.39835912">
<ele>1075.850</ele>
<time>2013-06-26T13:21:44Z</time>
</trkpt>
<trkpt lat="45.03495832" lon="5.39835845">
<ele>1075.850</ele>
<time>2013-06-26T13:21:47Z</time>
</trkpt>
<trkpt lat="45.03484609" lon="5.39836474">
<ele>1078.260</ele>
<time>2013-06-26T13:22:02Z</time>
</trkpt>
<trkpt lat="45.03476059" lon="5.39837010">
<ele>1080.180</ele>
<time>2013-06-26T13:22:13Z</time>
</trkpt>
<trkpt lat="45.03467334" lon="5.39837086">
<ele>1083.060</ele>
<time>2013-06-26T13:22:25Z</time>
</trkpt>
<trkpt lat="45.03458591" lon="5.39834580">
<ele>1084.990</ele>
<time>2013-06-26T13:22:38Z</time>
</trkpt>
<trkpt lat="45.03446689" lon="5.39839860">
<ele>1086.910</ele>
<time>2013-06-26T13:22:53Z</time>
</trkpt>
<trkpt lat="45.03437972" lon="5.39846071">
<ele>1088.350</ele>
<time>2013-06-26T13:23:05Z</time>
</trkpt>
<trkpt lat="45.03425625" lon="5.39853908">
<ele>1091.230</ele>
<time>2013-06-26T13:23:21Z</time>
</trkpt>
<trkpt lat="45.03420328" lon="5.39859859">
<ele>1092.200</ele>
<time>2013-06-26T13:23:37Z</time>
</trkpt>
<trkpt lat="45.03418433" lon="5.39861376">
<ele>1092.680</ele>
<time>2013-06-26T13:23:41Z</time>
</trkpt>
<trkpt lat="45.03401326" lon="5.39871745">
<ele>1094.600</ele>
<time>2013-06-26T13:23:54Z</time>
</trkpt>
<trkpt lat="45.03378343" lon="5.39883706">
<ele>1096.040</ele>
<time>2013-06-26T13:24:09Z</time>
</trkpt>
<trkpt lat="45.03371478" lon="5.39888668">
<ele>1097.480</ele>
<time>2013-06-26T13:24:14Z</time>
</trkpt>
<trkpt lat="45.03369215" lon="5.39891224">
<ele>1097.480</ele>
<time>2013-06-26T13:24:16Z</time>
</trkpt>
<trkpt lat="45.03355460" lon="5.39906152">
<ele>1100.370</ele>
<time>2013-06-26T13:24:27Z</time>
</trkpt>
<trkpt lat="45.03351823" lon="5.39912422">
<ele>1101.810</ele>
<time>2013-06-26T13:24:38Z</time>
</trkpt>
<trkpt lat="45.03347565" lon="5.39914912">
<ele>1102.770</ele>
<time>2013-06-26T13:24:53Z</time>
</trkpt>
<trkpt lat="45.03347531" lon="5.39913646">
<ele>1102.770</ele>
<time>2013-06-26T13:25:19Z</time>
</trkpt>
<trkpt lat="45.03347472" lon="5.39916580">
<ele>1102.770</ele>
<time>2013-06-26T13:25:45Z</time>
</trkpt>
<trkpt lat="45.03347782" lon="5.39915951">
<ele>1101.810</ele>
<time>2013-06-26T13:26:09Z</time>
</trkpt>
<trkpt lat="45.03345880" lon="5.39917510">
<ele>1102.290</ele>
<time>2013-06-26T13:26:36Z</time>
</trkpt>
<trkpt lat="45.03348704" lon="5.39915213">
<ele>1102.770</ele>
<time>2013-06-26T13:27:02Z</time>
</trkpt>
<trkpt lat="45.03348369" lon="5.39917762">
<ele>1102.290</ele>
<time>2013-06-26T13:27:32Z</time>
</trkpt>
<trkpt lat="45.03347355" lon="5.39914752">
<ele>1102.290</ele>
<time>2013-06-26T13:27:52Z</time>
</trkpt>
<trkpt lat="45.03349484" lon="5.39913629">
<ele>1102.290</ele>
<time>2013-06-26T13:28:20Z</time>
</trkpt>
<trkpt lat="45.03347112" lon="5.39914568">
<ele>1102.290</ele>
<time>2013-06-26T13:28:49Z</time>
</trkpt>
<trkpt lat="45.03345016" lon="5.39918281">
<ele>1103.250</ele>
<time>2013-06-26T13:28:59Z</time>
</trkpt>
<trkpt lat="45.03336886" lon="5.39927233">
<ele>1106.130</ele>
<time>2013-06-26T13:29:14Z</time>
</trkpt>
<trkpt lat="45.03339526" lon="5.39931156">
<ele>1107.580</ele>
<time>2013-06-26T13:29:24Z</time>
</trkpt>
<trkpt lat="45.03346106" lon="5.39930846">
<ele>1109.500</ele>
<time>2013-06-26T13:29:33Z</time>
</trkpt>
<trkpt lat="45.03357095" lon="5.39928599">
<ele>1112.380</ele>
<time>2013-06-26T13:29:47Z</time>
</trkpt>
<trkpt lat="45.03362065" lon="5.39926412">
<ele>1113.820</ele>
<time>2013-06-26T13:30:00Z</time>
</trkpt>
<trkpt lat="45.03366055" lon="5.39926060">
<ele>1114.790</ele>
<time>2013-06-26T13:30:19Z</time>
</trkpt>
<trkpt lat="45.03378443" lon="5.39924358">
<ele>1118.150</ele>
<time>2013-06-26T13:30:34Z</time>
</trkpt>
<trkpt lat="45.03389290" lon="5.39918491">
<ele>1120.550</ele>
<time>2013-06-26T13:30:48Z</time>
</trkpt>
<trkpt lat="45.03397210" lon="5.39918801">
<ele>1122.960</ele>
<time>2013-06-26T13:31:01Z</time>
</trkpt>
<trkpt lat="45.03402969" lon="5.39918407">
<ele>1124.400</ele>
<time>2013-06-26T13:31:11Z</time>
</trkpt>
<trkpt lat="45.03403740" lon="5.39919932">
<ele>1124.400</ele>
<time>2013-06-26T13:31:27Z</time>
</trkpt>
<trkpt lat="45.03403027" lon="5.39917544">
<ele>1124.880</ele>
<time>2013-06-26T13:31:58Z</time>
</trkpt>
<trkpt lat="45.03403824" lon="5.39918382">
<ele>1125.360</ele>
<time>2013-06-26T13:32:19Z</time>
</trkpt>
<trkpt lat="45.03408006" lon="5.39916529">
<ele>1126.320</ele>
<time>2013-06-26T13:32:25Z</time>
</trkpt>
<trkpt lat="45.03418258" lon="5.39913872">
<ele>1128.730</ele>
<time>2013-06-26T13:32:37Z</time>
</trkpt>
<trkpt lat="45.03425768" lon="5.39912020">
<ele>1130.650</ele>
<time>2013-06-26T13:32:47Z</time>
</trkpt>
<trkpt lat="45.03438894" lon="5.39904912">
<ele>1133.530</ele>
<time>2013-06-26T13:33:01Z</time>
</trkpt>
<trkpt lat="45.03440126" lon="5.39903655">
<ele>1134.010</ele>
<time>2013-06-26T13:33:03Z</time>
</trkpt>
<trkpt lat="45.03446966" lon="5.39905532">
<ele>1135.940</ele>
<time>2013-06-26T13:33:14Z</time>
</trkpt>
<trkpt lat="45.03435449" lon="5.39912355">
<ele>1138.340</ele>
<time>2013-06-26T13:33:31Z</time>
</trkpt>
<trkpt lat="45.03426103" lon="5.39919321">
<ele>1140.260</ele>
<time>2013-06-26T13:33:45Z</time>
</trkpt>
<trkpt lat="45.03420127" lon="5.39924752">
<ele>1142.180</ele>
<time>2013-06-26T13:33:55Z</time>
</trkpt>
<trkpt lat="45.03415064" lon="5.39930619">
<ele>1143.630</ele>
<time>2013-06-26T13:34:03Z</time>
</trkpt>
<trkpt lat="45.03405609" lon="5.39938121">
<ele>1146.510</ele>
<time>2013-06-26T13:34:18Z</time>
</trkpt>
<trkpt lat="45.03397487" lon="5.39944382">
<ele>1148.430</ele>
<time>2013-06-26T13:34:30Z</time>
</trkpt>
<trkpt lat="45.03390673" lon="5.39952722">
<ele>1149.870</ele>
<time>2013-06-26T13:34:39Z</time>
</trkpt>
<trkpt lat="45.03388544" lon="5.39955304">
<ele>1150.350</ele>
<time>2013-06-26T13:34:54Z</time>
</trkpt>
<trkpt lat="45.03388083" lon="5.39955354">
<ele>1149.870</ele>
<time>2013-06-26T13:35:06Z</time>
</trkpt>
<trkpt lat="45.03387923" lon="5.39955011">
<ele>1149.390</ele>
<time>2013-06-26T13:35:35Z</time>
</trkpt>
<trkpt lat="45.03387940" lon="5.39955614">
<ele>1149.390</ele>
<time>2013-06-26T13:35:46Z</time>
</trkpt>
<trkpt lat="45.03388644" lon="5.39957366">
<ele>1149.870</ele>
<time>2013-06-26T13:35:48Z</time>
</trkpt>
<trkpt lat="45.03381210" lon="5.39964097">
<ele>1152.280</ele>
<time>2013-06-26T13:36:02Z</time>
</trkpt>
<trkpt lat="45.03381327" lon="5.39961305">
<ele>1151.320</ele>
<time>2013-06-26T13:36:16Z</time>
</trkpt>
<trkpt lat="45.03380866" lon="5.39960073">
<ele>1151.800</ele>
<time>2013-06-26T13:36:43Z</time>
</trkpt>
<trkpt lat="45.03379072" lon="5.39960308">
<ele>1151.800</ele>
<time>2013-06-26T13:37:04Z</time>
</trkpt>
<trkpt lat="45.03379156" lon="5.39962026">
<ele>1152.280</ele>
<time>2013-06-26T13:37:27Z</time>
</trkpt>
<trkpt lat="45.03376231" lon="5.39965840">
<ele>1153.720</ele>
<time>2013-06-26T13:37:38Z</time>
</trkpt>
<trkpt lat="45.03365829" lon="5.39970123">
<ele>1157.080</ele>
<time>2013-06-26T13:37:53Z</time>
</trkpt>
<trkpt lat="45.03360909" lon="5.39972755">
<ele>1158.530</ele>
<time>2013-06-26T13:38:00Z</time>
</trkpt>
<trkpt lat="45.03352317" lon="5.39978514">
<ele>1160.930</ele>
<time>2013-06-26T13:38:13Z</time>
</trkpt>
<trkpt lat="45.03344145" lon="5.39986317">
<ele>1163.330</ele>
<time>2013-06-26T13:38:27Z</time>
</trkpt>
<trkpt lat="45.03334799" lon="5.39990734">
<ele>1166.220</ele>
<time>2013-06-26T13:38:40Z</time>
</trkpt>
<trkpt lat="45.03325369" lon="5.39997163">
<ele>1169.100</ele>
<time>2013-06-26T13:38:55Z</time>
</trkpt>
<trkpt lat="45.03319276" lon="5.39999896">
<ele>1170.540</ele>
<time>2013-06-26T13:39:11Z</time>
</trkpt>
<trkpt lat="45.03324129" lon="5.40000541">
<ele>1170.540</ele>
<time>2013-06-26T13:39:35Z</time>
</trkpt>
<trkpt lat="45.03321874" lon="5.39999166">
<ele>1170.060</ele>
<time>2013-06-26T13:40:03Z</time>
</trkpt>
<trkpt lat="45.03324808" lon="5.40000055">
<ele>1170.060</ele>
<time>2013-06-26T13:40:54Z</time>
</trkpt>
<trkpt lat="45.03321530" lon="5.39996711">
<ele>1171.020</ele>
<time>2013-06-26T13:41:27Z</time>
</trkpt>
<trkpt lat="45.03320390" lon="5.39987750">
<ele>1173.430</ele>
<time>2013-06-26T13:41:40Z</time>
</trkpt>
<trkpt lat="45.03319611" lon="5.39986694">
<ele>1173.430</ele>
<time>2013-06-26T13:41:57Z</time>
</trkpt>
<trkpt lat="45.03318085" lon="5.39992746">
<ele>1172.470</ele>
<time>2013-06-26T13:42:17Z</time>
</trkpt>
<trkpt lat="45.03316124" lon="5.39994515">
<ele>1171.500</ele>
<time>2013-06-26T13:42:29Z</time>
</trkpt>
<trkpt lat="45.03317406" lon="5.39993199">
<ele>1171.500</ele>
<time>2013-06-26T13:43:04Z</time>
</trkpt>
<trkpt lat="45.03318136" lon="5.39997197">
<ele>1171.500</ele>
<time>2013-06-26T13:43:31Z</time>
</trkpt>
<trkpt lat="45.03318337" lon="5.40009485">
<ele>1171.980</ele>
<time>2013-06-26T13:43:46Z</time>
</trkpt>
<trkpt lat="45.03319963" lon="5.40012921">
<ele>1171.980</ele>
<time>2013-06-26T13:44:02Z</time>
</trkpt>
<trkpt lat="45.03323131" lon="5.40016039">
<ele>1171.980</ele>
<time>2013-06-26T13:44:18Z</time>
</trkpt>
<trkpt lat="45.03327121" lon="5.40018696">
<ele>1171.500</ele>
<time>2013-06-26T13:44:27Z</time>
</trkpt>
<trkpt lat="45.03330474" lon="5.40022686">
<ele>1171.020</ele>
<time>2013-06-26T13:44:30Z</time>
</trkpt>
<trkpt lat="45.03330750" lon="5.40041747">
<ele>1169.580</ele>
<time>2013-06-26T13:44:42Z</time>
</trkpt>
<trkpt lat="45.03333977" lon="5.40048511">
<ele>1169.580</ele>
<time>2013-06-26T13:44:56Z</time>
</trkpt>
<trkpt lat="45.03337976" lon="5.40052082">
<ele>1170.060</ele>
<time>2013-06-26T13:45:06Z</time>
</trkpt>
<trkpt lat="45.03334170" lon="5.40045242">
<ele>1170.060</ele>
<time>2013-06-26T13:50:23Z</time>
</trkpt>
<trkpt lat="45.03333894" lon="5.40046943">
<ele>1169.580</ele>
<time>2013-06-26T13:50:41Z</time>
</trkpt>
<trkpt lat="45.03308639" lon="5.40057915">
<ele>1166.700</ele>
<time>2013-06-26T13:50:49Z</time>
</trkpt>
<trkpt lat="45.03293409" lon="5.40067865">
<ele>1163.810</ele>
<time>2013-06-26T13:50:54Z</time>
</trkpt>
<trkpt lat="45.03280425" lon="5.40077286">
<ele>1162.370</ele>
<time>2013-06-26T13:50:57Z</time>
</trkpt>
<trkpt lat="45.03260669" lon="5.40085986">
<ele>1159.490</ele>
<time>2013-06-26T13:51:01Z</time>
</trkpt>
<trkpt lat="45.03219313" lon="5.40103538">
<ele>1158.050</ele>
<time>2013-06-26T13:51:10Z</time>
</trkpt>
<trkpt lat="45.03210495" lon="5.40109472">
<ele>1157.080</ele>
<time>2013-06-26T13:51:12Z</time>
</trkpt>
<trkpt lat="45.03200051" lon="5.40114468">
<ele>1156.120</ele>
<time>2013-06-26T13:51:14Z</time>
</trkpt>
<trkpt lat="45.03189432" lon="5.40120394">
<ele>1156.120</ele>
<time>2013-06-26T13:51:16Z</time>
</trkpt>
<trkpt lat="45.03177814" lon="5.40126161">
<ele>1154.200</ele>
<time>2013-06-26T13:51:18Z</time>
</trkpt>
<trkpt lat="45.03160656" lon="5.40136881">
<ele>1152.760</ele>
<time>2013-06-26T13:51:21Z</time>
</trkpt>
<trkpt lat="45.03148955" lon="5.40145800">
<ele>1150.840</ele>
<time>2013-06-26T13:51:23Z</time>
</trkpt>
<trkpt lat="45.03134279" lon="5.40163368">
<ele>1149.390</ele>
<time>2013-06-26T13:51:26Z</time>
</trkpt>
<trkpt lat="45.03130272" lon="5.40208454">
<ele>1146.030</ele>
<time>2013-06-26T13:51:32Z</time>
</trkpt>
<trkpt lat="45.03134740" lon="5.40234413">
<ele>1144.110</ele>
<time>2013-06-26T13:51:35Z</time>
</trkpt>
<trkpt lat="45.03126274" lon="5.40282550">
<ele>1140.260</ele>
<time>2013-06-26T13:51:41Z</time>
</trkpt>
<trkpt lat="45.03115235" lon="5.40307268">
<ele>1138.820</ele>
<time>2013-06-26T13:51:44Z</time>
</trkpt>
<trkpt lat="45.03112771" lon="5.40349547">
<ele>1140.260</ele>
<time>2013-06-26T13:51:51Z</time>
</trkpt>
<trkpt lat="45.03107758" lon="5.40359655">
<ele>1141.220</ele>
<time>2013-06-26T13:51:56Z</time>
</trkpt>
<trkpt lat="45.03102955" lon="5.40373703">
<ele>1142.660</ele>
<time>2013-06-26T13:52:02Z</time>
</trkpt>
<trkpt lat="45.03099829" lon="5.40382940">
<ele>1143.630</ele>
<time>2013-06-26T13:52:06Z</time>
</trkpt>
<trkpt lat="45.03092503" lon="5.40418605">
<ele>1146.510</ele>
<time>2013-06-26T13:52:21Z</time>
</trkpt>
<trkpt lat="45.03091925" lon="5.40439309">
<ele>1147.950</ele>
<time>2013-06-26T13:52:30Z</time>
</trkpt>
<trkpt lat="45.03091422" lon="5.40443768">
<ele>1147.950</ele>
<time>2013-06-26T13:52:32Z</time>
</trkpt>
<trkpt lat="45.03091330" lon="5.40450909">
<ele>1148.430</ele>
<time>2013-06-26T13:52:35Z</time>
</trkpt>
<trkpt lat="45.03090181" lon="5.40456533">
<ele>1148.910</ele>
<time>2013-06-26T13:52:38Z</time>
</trkpt>
<trkpt lat="45.03078170" lon="5.40482174">
<ele>1149.390</ele>
<time>2013-06-26T13:52:51Z</time>
</trkpt>
<trkpt lat="45.03072328" lon="5.40496926">
<ele>1150.840</ele>
<time>2013-06-26T13:53:01Z</time>
</trkpt>
<trkpt lat="45.03069755" lon="5.40509038">
<ele>1151.320</ele>
<time>2013-06-26T13:53:05Z</time>
</trkpt>
<trkpt lat="45.03067223" lon="5.40518870">
<ele>1151.800</ele>
<time>2013-06-26T13:53:09Z</time>
</trkpt>
<trkpt lat="45.03062069" lon="5.40531091">
<ele>1151.800</ele>
<time>2013-06-26T13:53:14Z</time>
</trkpt>
<trkpt lat="45.03037627" lon="5.40570502">
<ele>1151.800</ele>
<time>2013-06-26T13:53:28Z</time>
</trkpt>
<trkpt lat="45.03030100" lon="5.40604935">
<ele>1152.760</ele>
<time>2013-06-26T13:53:39Z</time>
</trkpt>
<trkpt lat="45.03028910" lon="5.40606863">
<ele>1152.760</ele>
<time>2013-06-26T13:53:40Z</time>
</trkpt>
<trkpt lat="45.03023906" lon="5.40626552">
<ele>1152.760</ele>
<time>2013-06-26T13:53:46Z</time>
</trkpt>
<trkpt lat="45.03013085" lon="5.40674052">
<ele>1151.800</ele>
<time>2013-06-26T13:53:58Z</time>
</trkpt>
<trkpt lat="45.03013981" lon="5.40680749">
<ele>1151.800</ele>
<time>2013-06-26T13:54:00Z</time>
</trkpt>
<trkpt lat="45.03017351" lon="5.40697488">
<ele>1151.320</ele>
<time>2013-06-26T13:54:06Z</time>
</trkpt>
<trkpt lat="45.03020637" lon="5.40716523">
<ele>1149.870</ele>
<time>2013-06-26T13:54:10Z</time>
</trkpt>
<trkpt lat="45.03021441" lon="5.40728987">
<ele>1148.910</ele>
<time>2013-06-26T13:54:12Z</time>
</trkpt>
<trkpt lat="45.03026127" lon="5.40776286">
<ele>1148.430</ele>
<time>2013-06-26T13:54:22Z</time>
</trkpt>
<trkpt lat="45.03025708" lon="5.40778323">
<ele>1148.430</ele>
<time>2013-06-26T13:54:23Z</time>
</trkpt>
<trkpt lat="45.02998098" lon="5.40797275">
<ele>1146.030</ele>
<time>2013-06-26T13:54:34Z</time>
</trkpt>
<trkpt lat="45.02978501" lon="5.40803092">
<ele>1144.110</ele>
<time>2013-06-26T13:54:38Z</time>
</trkpt>
<trkpt lat="45.02948435" lon="5.40816603">
<ele>1145.550</ele>
<time>2013-06-26T13:54:46Z</time>
</trkpt>
<trkpt lat="45.02931462" lon="5.40818087">
<ele>1148.910</ele>
<time>2013-06-26T13:54:56Z</time>
</trkpt>
<trkpt lat="45.02929701" lon="5.40817190">
<ele>1149.390</ele>
<time>2013-06-26T13:54:57Z</time>
</trkpt>
<trkpt lat="45.02901622" lon="5.40802748">
<ele>1149.390</ele>
<time>2013-06-26T13:55:09Z</time>
</trkpt>
<trkpt lat="45.02882637" lon="5.40797970">
<ele>1147.950</ele>
<time>2013-06-26T13:55:13Z</time>
</trkpt>
<trkpt lat="45.02871095" lon="5.40797618">
<ele>1147.950</ele>
<time>2013-06-26T13:55:16Z</time>
</trkpt>
<trkpt lat="45.02837920" lon="5.40790603">
<ele>1146.510</ele>
<time>2013-06-26T13:55:25Z</time>
</trkpt>
<trkpt lat="45.02828700" lon="5.40781265">
<ele>1145.070</ele>
<time>2013-06-26T13:55:28Z</time>
</trkpt>
<trkpt lat="45.02802716" lon="5.40764493">
<ele>1146.510</ele>
<time>2013-06-26T13:55:37Z</time>
</trkpt>
<trkpt lat="45.02772281" lon="5.40755550">
<ele>1145.550</ele>
<time>2013-06-26T13:55:46Z</time>
</trkpt>
<trkpt lat="45.02759348" lon="5.40747562">
<ele>1145.070</ele>
<time>2013-06-26T13:55:50Z</time>
</trkpt>
<trkpt lat="45.02728485" lon="5.40728166">
<ele>1145.070</ele>
<time>2013-06-26T13:56:01Z</time>
</trkpt>
<trkpt lat="45.02720129" lon="5.40727126">
<ele>1145.550</ele>
<time>2013-06-26T13:56:18Z</time>
</trkpt>
<trkpt lat="45.02718411" lon="5.40727261">
<ele>1145.550</ele>
<time>2013-06-26T13:56:19Z</time>
</trkpt>
<trkpt lat="45.02715217" lon="5.40725794">
<ele>1145.550</ele>
<time>2013-06-26T13:56:21Z</time>
</trkpt>
<trkpt lat="45.02696198" lon="5.40729465">
<ele>1146.990</ele>
<time>2013-06-26T13:56:29Z</time>
</trkpt>
<trkpt lat="45.02663744" lon="5.40744879">
<ele>1148.430</ele>
<time>2013-06-26T13:56:41Z</time>
</trkpt>
<trkpt lat="45.02627316" lon="5.40765122">
<ele>1150.350</ele>
<time>2013-06-26T13:56:56Z</time>
</trkpt>
<trkpt lat="45.02603595" lon="5.40779991">
<ele>1152.280</ele>
<time>2013-06-26T13:57:07Z</time>
</trkpt>
<trkpt lat="45.02593503" lon="5.40785934">
<ele>1154.200</ele>
<time>2013-06-26T13:57:14Z</time>
</trkpt>
<trkpt lat="45.02591257" lon="5.40800921">
<ele>1155.640</ele>
<time>2013-06-26T13:57:21Z</time>
</trkpt>
<trkpt lat="45.02593579" lon="5.40804299">
<ele>1157.080</ele>
<time>2013-06-26T13:57:24Z</time>
</trkpt>
<trkpt lat="45.02593889" lon="5.40811172">
<ele>1158.050</ele>
<time>2013-06-26T13:57:29Z</time>
</trkpt>
<trkpt lat="45.02584082" lon="5.40837013">
<ele>1161.410</ele>
<time>2013-06-26T13:57:41Z</time>
</trkpt>
<trkpt lat="45.02567327" lon="5.40863819">
<ele>1161.890</ele>
<time>2013-06-26T13:57:54Z</time>
</trkpt>
<trkpt lat="45.02552583" lon="5.40894304">
<ele>1162.850</ele>
<time>2013-06-26T13:58:05Z</time>
</trkpt>
<trkpt lat="45.02539298" lon="5.40923581">
<ele>1163.810</ele>
<time>2013-06-26T13:58:16Z</time>
</trkpt>
<trkpt lat="45.02538837" lon="5.40925778">
<ele>1163.810</ele>
<time>2013-06-26T13:58:17Z</time>
</trkpt>
<trkpt lat="45.02524855" lon="5.40951636">
<ele>1160.450</ele>
<time>2013-06-26T13:58:23Z</time>
</trkpt>
<trkpt lat="45.02518862" lon="5.40960085">
<ele>1160.450</ele>
<time>2013-06-26T13:58:25Z</time>
</trkpt>
<trkpt lat="45.02507547" lon="5.40982607">
<ele>1160.930</ele>
<time>2013-06-26T13:58:31Z</time>
</trkpt>
<trkpt lat="45.02507245" lon="5.40996948">
<ele>1161.410</ele>
<time>2013-06-26T13:58:35Z</time>
</trkpt>
<trkpt lat="45.02505896" lon="5.41014894">
<ele>1161.410</ele>
<time>2013-06-26T13:58:40Z</time>
</trkpt>
<trkpt lat="45.02507027" lon="5.41032630">
<ele>1160.930</ele>
<time>2013-06-26T13:58:45Z</time>
</trkpt>
<trkpt lat="45.02505929" lon="5.41045630">
<ele>1159.970</ele>
<time>2013-06-26T13:58:47Z</time>
</trkpt>
<trkpt lat="45.02505158" lon="5.41086358">
<ele>1157.080</ele>
<time>2013-06-26T13:58:52Z</time>
</trkpt>
<trkpt lat="45.02509408" lon="5.41104664">
<ele>1155.160</ele>
<time>2013-06-26T13:58:54Z</time>
</trkpt>
<trkpt lat="45.02511411" lon="5.41131637">
<ele>1151.800</ele>
<time>2013-06-26T13:58:57Z</time>
</trkpt>
<trkpt lat="45.02514001" lon="5.41165802">
<ele>1145.550</ele>
<time>2013-06-26T13:59:01Z</time>
</trkpt>
<trkpt lat="45.02515024" lon="5.41182658">
<ele>1142.180</ele>
<time>2013-06-26T13:59:04Z</time>
</trkpt>
<trkpt lat="45.02514998" lon="5.41186413">
<ele>1141.700</ele>
<time>2013-06-26T13:59:05Z</time>
</trkpt>
<trkpt lat="45.02518158" lon="5.41198148">
<ele>1140.740</ele>
<time>2013-06-26T13:59:18Z</time>
</trkpt>
<trkpt lat="45.02518175" lon="5.41199807">
<ele>1140.260</ele>
<time>2013-06-26T13:59:19Z</time>
</trkpt>
<trkpt lat="45.02511721" lon="5.41218742">
<ele>1138.340</ele>
<time>2013-06-26T13:59:26Z</time>
</trkpt>
<trkpt lat="45.02498805" lon="5.41237995">
<ele>1134.010</ele>
<time>2013-06-26T13:59:32Z</time>
</trkpt>
<trkpt lat="45.02493884" lon="5.41242655">
<ele>1133.530</ele>
<time>2013-06-26T13:59:34Z</time>
</trkpt>
<trkpt lat="45.02481588" lon="5.41261188">
<ele>1129.690</ele>
<time>2013-06-26T13:59:40Z</time>
</trkpt>
<trkpt lat="45.02479476" lon="5.41264180">
<ele>1128.730</ele>
<time>2013-06-26T13:59:41Z</time>
</trkpt>
<trkpt lat="45.02465964" lon="5.41283324">
<ele>1124.880</ele>
<time>2013-06-26T13:59:45Z</time>
</trkpt>
<trkpt lat="45.02464891" lon="5.41287264">
<ele>1124.400</ele>
<time>2013-06-26T13:59:46Z</time>
</trkpt>
<trkpt lat="45.02454934" lon="5.41304422">
<ele>1121.030</ele>
<time>2013-06-26T13:59:52Z</time>
</trkpt>
<trkpt lat="45.02447725" lon="5.41310716">
<ele>1119.110</ele>
<time>2013-06-26T13:59:55Z</time>
</trkpt>
<trkpt lat="45.02439243" lon="5.41319274">
<ele>1115.750</ele>
<time>2013-06-26T13:59:59Z</time>
</trkpt>
<trkpt lat="45.02433769" lon="5.41324840">
<ele>1114.310</ele>
<time>2013-06-26T14:00:01Z</time>
</trkpt>
<trkpt lat="45.02429210" lon="5.41332610">
<ele>1112.380</ele>
<time>2013-06-26T14:00:04Z</time>
</trkpt>
<trkpt lat="45.02415120" lon="5.41351444">
<ele>1107.580</ele>
<time>2013-06-26T14:00:09Z</time>
</trkpt>
<trkpt lat="45.02413577" lon="5.41354026">
<ele>1107.580</ele>
<time>2013-06-26T14:00:10Z</time>
</trkpt>
<trkpt lat="45.02410870" lon="5.41359851">
<ele>1106.130</ele>
<time>2013-06-26T14:00:12Z</time>
</trkpt>
<trkpt lat="45.02402622" lon="5.41381032">
<ele>1102.290</ele>
<time>2013-06-26T14:00:18Z</time>
</trkpt>
<trkpt lat="45.02395774" lon="5.41398835">
<ele>1099.400</ele>
<time>2013-06-26T14:00:23Z</time>
</trkpt>
<trkpt lat="45.02388733" lon="5.41420913">
<ele>1095.560</ele>
<time>2013-06-26T14:00:29Z</time>
</trkpt>
<trkpt lat="45.02387275" lon="5.41438457">
<ele>1093.640</ele>
<time>2013-06-26T14:00:33Z</time>
</trkpt>
<trkpt lat="45.02387661" lon="5.41450887">
<ele>1091.710</ele>
<time>2013-06-26T14:00:36Z</time>
</trkpt>
<trkpt lat="45.02383922" lon="5.41475940">
<ele>1088.830</ele>
<time>2013-06-26T14:00:43Z</time>
</trkpt>
<trkpt lat="45.02380896" lon="5.41490492">
<ele>1087.390</ele>
<time>2013-06-26T14:00:46Z</time>
</trkpt>
<trkpt lat="45.02380670" lon="5.41498496">
<ele>1086.430</ele>
<time>2013-06-26T14:00:48Z</time>
</trkpt>
<trkpt lat="45.02375976" lon="5.41527263">
<ele>1084.990</ele>
<time>2013-06-26T14:00:57Z</time>
</trkpt>
<trkpt lat="45.02372799" lon="5.41531973">
<ele>1084.990</ele>
<time>2013-06-26T14:01:20Z</time>
</trkpt>
<trkpt lat="45.02374082" lon="5.41534530">
<ele>1084.990</ele>
<time>2013-06-26T14:01:39Z</time>
</trkpt>
<trkpt lat="45.02373671" lon="5.41540615">
<ele>1084.500</ele>
<time>2013-06-26T14:01:51Z</time>
</trkpt>
<trkpt lat="45.02372003" lon="5.41547363">
<ele>1084.500</ele>
<time>2013-06-26T14:01:53Z</time>
</trkpt>
<trkpt lat="45.02375163" lon="5.41572223">
<ele>1082.100</ele>
<time>2013-06-26T14:01:59Z</time>
</trkpt>
<trkpt lat="45.02383210" lon="5.41595391">
<ele>1080.180</ele>
<time>2013-06-26T14:02:04Z</time>
</trkpt>
<trkpt lat="45.02385984" lon="5.41617352">
<ele>1077.780</ele>
<time>2013-06-26T14:02:07Z</time>
</trkpt>
<trkpt lat="45.02392220" lon="5.41664533">
<ele>1074.410</ele>
<time>2013-06-26T14:02:12Z</time>
</trkpt>
<trkpt lat="45.02389924" lon="5.41703870">
<ele>1071.050</ele>
<time>2013-06-26T14:02:15Z</time>
</trkpt>
<trkpt lat="45.02388842" lon="5.41713970">
<ele>1070.570</ele>
<time>2013-06-26T14:02:16Z</time>
</trkpt>
<trkpt lat="45.02391332" lon="5.41743332">
<ele>1069.600</ele>
<time>2013-06-26T14:02:19Z</time>
</trkpt>
<trkpt lat="45.02394726" lon="5.41769089">
<ele>1070.080</ele>
<time>2013-06-26T14:02:22Z</time>
</trkpt>
<trkpt lat="45.02399705" lon="5.41807596">
<ele>1065.760</ele>
<time>2013-06-26T14:02:28Z</time>
</trkpt>
<trkpt lat="45.02397409" lon="5.41817897">
<ele>1063.840</ele>
<time>2013-06-26T14:02:30Z</time>
</trkpt>
<trkpt lat="45.02391810" lon="5.41827226">
<ele>1061.910</ele>
<time>2013-06-26T14:02:33Z</time>
</trkpt>
<trkpt lat="45.02380804" lon="5.41852514">
<ele>1058.070</ele>
<time>2013-06-26T14:02:37Z</time>
</trkpt>
<trkpt lat="45.02371098" lon="5.41878071">
<ele>1054.700</ele>
<time>2013-06-26T14:02:40Z</time>
</trkpt>
<trkpt lat="45.02363303" lon="5.41900962">
<ele>1050.860</ele>
<time>2013-06-26T14:02:43Z</time>
</trkpt>
<trkpt lat="45.02346874" lon="5.41917642">
<ele>1047.490</ele>
<time>2013-06-26T14:02:47Z</time>
</trkpt>
<trkpt lat="45.02337738" lon="5.41928169">
<ele>1046.530</ele>
<time>2013-06-26T14:02:49Z</time>
</trkpt>
<trkpt lat="45.02332809" lon="5.41932788">
<ele>1045.570</ele>
<time>2013-06-26T14:02:50Z</time>
</trkpt>
<trkpt lat="45.02318904" lon="5.41939208">
<ele>1045.090</ele>
<time>2013-06-26T14:02:58Z</time>
</trkpt>
<trkpt lat="45.02317496" lon="5.41941237">
<ele>1044.610</ele>
<time>2013-06-26T14:03:14Z</time>
</trkpt>
<trkpt lat="45.02314311" lon="5.41945067">
<ele>1044.130</ele>
<time>2013-06-26T14:03:22Z</time>
</trkpt>
<trkpt lat="45.02303313" lon="5.41958730">
<ele>1041.250</ele>
<time>2013-06-26T14:03:27Z</time>
</trkpt>
<trkpt lat="45.02280313" lon="5.41969685">
<ele>1038.840</ele>
<time>2013-06-26T14:03:33Z</time>
</trkpt>
<trkpt lat="45.02261010" lon="5.41977975">
<ele>1035.960</ele>
<time>2013-06-26T14:03:37Z</time>
</trkpt>
<trkpt lat="45.02255796" lon="5.41979919">
<ele>1035.480</ele>
<time>2013-06-26T14:03:38Z</time>
</trkpt>
<trkpt lat="45.02244975" lon="5.41984395">
<ele>1034.040</ele>
<time>2013-06-26T14:03:40Z</time>
</trkpt>
<trkpt lat="45.02228119" lon="5.41992148">
<ele>1033.070</ele>
<time>2013-06-26T14:03:43Z</time>
</trkpt>
<trkpt lat="45.02211465" lon="5.42000782">
<ele>1031.150</ele>
<time>2013-06-26T14:03:46Z</time>
</trkpt>
<trkpt lat="45.02193963" lon="5.42017244">
<ele>1025.860</ele>
<time>2013-06-26T14:03:50Z</time>
</trkpt>
<trkpt lat="45.02188280" lon="5.42031895">
<ele>1023.460</ele>
<time>2013-06-26T14:03:52Z</time>
</trkpt>
<trkpt lat="45.02179303" lon="5.42064551">
<ele>1021.540</ele>
<time>2013-06-26T14:03:55Z</time>
</trkpt>
<trkpt lat="45.02162757" lon="5.42121766">
<ele>1021.060</ele>
<time>2013-06-26T14:04:00Z</time>
</trkpt>
<trkpt lat="45.02158265" lon="5.42129645">
<ele>1022.020</ele>
<time>2013-06-26T14:04:02Z</time>
</trkpt>
<trkpt lat="45.02144443" lon="5.42142461">
<ele>1021.540</ele>
<time>2013-06-26T14:04:10Z</time>
</trkpt>
<trkpt lat="45.02139045" lon="5.42152687">
<ele>1021.060</ele>
<time>2013-06-26T14:04:15Z</time>
</trkpt>
<trkpt lat="45.02136589" lon="5.42155394">
<ele>1021.540</ele>
<time>2013-06-26T14:04:27Z</time>
</trkpt>
<trkpt lat="45.02135525" lon="5.42156199">
<ele>1021.540</ele>
<time>2013-06-26T14:04:30Z</time>
</trkpt>
<trkpt lat="45.02129263" lon="5.42160801">
<ele>1021.540</ele>
<time>2013-06-26T14:04:35Z</time>
</trkpt>
<trkpt lat="45.02113430" lon="5.42167414">
<ele>1022.020</ele>
<time>2013-06-26T14:04:47Z</time>
</trkpt>
<trkpt lat="45.02115877" lon="5.42167774">
<ele>1022.020</ele>
<time>2013-06-26T14:04:53Z</time>
</trkpt>
<trkpt lat="45.02142088" lon="5.42143978">
<ele>1021.540</ele>
<time>2013-06-26T14:05:07Z</time>
</trkpt>
<trkpt lat="45.02143739" lon="5.42142151">
<ele>1021.540</ele>
<time>2013-06-26T14:05:08Z</time>
</trkpt>
<trkpt lat="45.02127763" lon="5.42123107">
<ele>1018.170</ele>
<time>2013-06-26T14:05:15Z</time>
</trkpt>
<trkpt lat="45.02092953" lon="5.42117391">
<ele>1014.330</ele>
<time>2013-06-26T14:05:20Z</time>
</trkpt>
<trkpt lat="45.02066776" lon="5.42116351">
<ele>1010.960</ele>
<time>2013-06-26T14:05:23Z</time>
</trkpt>
<trkpt lat="45.02028379" lon="5.42116066">
<ele>1006.640</ele>
<time>2013-06-26T14:05:27Z</time>
</trkpt>
<trkpt lat="45.01997466" lon="5.42113720">
<ele>1003.270</ele>
<time>2013-06-26T14:05:30Z</time>
</trkpt>
<trkpt lat="45.01951743" lon="5.42091658">
<ele>1001.350</ele>
<time>2013-06-26T14:05:36Z</time>
</trkpt>
<trkpt lat="45.01927435" lon="5.42051082">
<ele>998.470</ele>
<time>2013-06-26T14:05:40Z</time>
</trkpt>
<trkpt lat="45.01910864" lon="5.42023312">
<ele>997.510</ele>
<time>2013-06-26T14:05:43Z</time>
</trkpt>
<trkpt lat="45.01866021" lon="5.41989927">
<ele>993.660</ele>
<time>2013-06-26T14:05:50Z</time>
</trkpt>
<trkpt lat="45.01859684" lon="5.41986893">
<ele>993.180</ele>
<time>2013-06-26T14:05:51Z</time>
</trkpt>
<trkpt lat="45.01818605" lon="5.41982182">
<ele>989.810</ele>
<time>2013-06-26T14:05:56Z</time>
</trkpt>
<trkpt lat="45.01801464" lon="5.41982752">
<ele>988.850</ele>
<time>2013-06-26T14:05:58Z</time>
</trkpt>
<trkpt lat="45.01784800" lon="5.41981637">
<ele>988.370</ele>
<time>2013-06-26T14:06:00Z</time>
</trkpt>
<trkpt lat="45.01719665" lon="5.41938311">
<ele>986.450</ele>
<time>2013-06-26T14:06:10Z</time>
</trkpt>
<trkpt lat="45.01704586" lon="5.41925806">
<ele>986.450</ele>
<time>2013-06-26T14:06:13Z</time>
</trkpt>
<trkpt lat="45.01683782" lon="5.41901188">
<ele>985.490</ele>
<time>2013-06-26T14:06:18Z</time>
</trkpt>
<trkpt lat="45.01657530" lon="5.41881348">
<ele>983.090</ele>
<time>2013-06-26T14:06:23Z</time>
</trkpt>
<trkpt lat="45.01621722" lon="5.41862179">
<ele>979.720</ele>
<time>2013-06-26T14:06:28Z</time>
</trkpt>
<trkpt lat="45.01613709" lon="5.41858365">
<ele>979.240</ele>
<time>2013-06-26T14:06:29Z</time>
</trkpt>
<trkpt lat="45.01578044" lon="5.41827486">
<ele>975.880</ele>
<time>2013-06-26T14:06:34Z</time>
</trkpt>
<trkpt lat="45.01570475" lon="5.41822499">
<ele>975.880</ele>
<time>2013-06-26T14:06:35Z</time>
</trkpt>
<trkpt lat="45.01549604" lon="5.41808501">
<ele>975.390</ele>
<time>2013-06-26T14:06:38Z</time>
</trkpt>
<trkpt lat="45.01528474" lon="5.41796464">
<ele>973.950</ele>
<time>2013-06-26T14:06:41Z</time>
</trkpt>
<trkpt lat="45.01503982" lon="5.41774437">
<ele>972.990</ele>
<time>2013-06-26T14:06:45Z</time>
</trkpt>
<trkpt lat="45.01466347" lon="5.41744161">
<ele>969.630</ele>
<time>2013-06-26T14:06:52Z</time>
</trkpt>
<trkpt lat="45.01446515" lon="5.41729183">
<ele>967.220</ele>
<time>2013-06-26T14:06:55Z</time>
</trkpt>
<trkpt lat="45.01430942" lon="5.41721664">
<ele>964.340</ele>
<time>2013-06-26T14:06:57Z</time>
</trkpt>
<trkpt lat="45.01394522" lon="5.41710810">
<ele>960.490</ele>
<time>2013-06-26T14:07:02Z</time>
</trkpt>
<trkpt lat="45.01378639" lon="5.41705797">
<ele>956.650</ele>
<time>2013-06-26T14:07:04Z</time>
</trkpt>
<trkpt lat="45.01364029" lon="5.41701548">
<ele>953.280</ele>
<time>2013-06-26T14:07:06Z</time>
</trkpt>
<trkpt lat="45.01355530" lon="5.41695228">
<ele>951.360</ele>
<time>2013-06-26T14:07:09Z</time>
</trkpt>
<trkpt lat="45.01354180" lon="5.41695521">
<ele>952.320</ele>
<time>2013-06-26T14:07:22Z</time>
</trkpt>
<trkpt lat="45.01353376" lon="5.41696267">
<ele>951.840</ele>
<time>2013-06-26T14:07:28Z</time>
</trkpt>
<trkpt lat="45.01337903" lon="5.41694909">
<ele>948.960</ele>
<time>2013-06-26T14:07:34Z</time>
</trkpt>
<trkpt lat="45.01336386" lon="5.41694105">
<ele>948.960</ele>
<time>2013-06-26T14:07:35Z</time>
</trkpt>
<trkpt lat="45.01329647" lon="5.41691012">
<ele>948.480</ele>
<time>2013-06-26T14:07:38Z</time>
</trkpt>
<trkpt lat="45.01316378" lon="5.41684926">
<ele>946.560</ele>
<time>2013-06-26T14:07:43Z</time>
</trkpt>
<trkpt lat="45.01299706" lon="5.41684180">
<ele>942.710</ele>
<time>2013-06-26T14:07:50Z</time>
</trkpt>
<trkpt lat="45.01291199" lon="5.41683091">
<ele>941.270</ele>
<time>2013-06-26T14:07:53Z</time>
</trkpt>
<trkpt lat="45.01281300" lon="5.41682722">
<ele>940.310</ele>
<time>2013-06-26T14:07:56Z</time>
</trkpt>
<trkpt lat="45.01261041" lon="5.41676117">
<ele>936.940</ele>
<time>2013-06-26T14:08:01Z</time>
</trkpt>
<trkpt lat="45.01244587" lon="5.41668758">
<ele>934.540</ele>
<time>2013-06-26T14:08:05Z</time>
</trkpt>
<trkpt lat="45.01226926" lon="5.41664768">
<ele>933.580</ele>
<time>2013-06-26T14:08:10Z</time>
</trkpt>
<trkpt lat="45.01200733" lon="5.41653871">
<ele>929.730</ele>
<time>2013-06-26T14:08:17Z</time>
</trkpt>
<trkpt lat="45.01196609" lon="5.41652547">
<ele>928.770</ele>
<time>2013-06-26T14:08:18Z</time>
</trkpt>
<trkpt lat="45.01179501" lon="5.41651902">
<ele>924.450</ele>
<time>2013-06-26T14:08:21Z</time>
</trkpt>
<trkpt lat="45.01172947" lon="5.41651768">
<ele>923.480</ele>
<time>2013-06-26T14:08:22Z</time>
</trkpt>
<trkpt lat="45.01162335" lon="5.41649924">
<ele>921.560</ele>
<time>2013-06-26T14:08:24Z</time>
</trkpt>
<trkpt lat="45.01134139" lon="5.41642346">
<ele>916.270</ele>
<time>2013-06-26T14:08:29Z</time>
</trkpt>
<trkpt lat="45.01127659" lon="5.41640712">
<ele>914.830</ele>
<time>2013-06-26T14:08:30Z</time>
</trkpt>
<trkpt lat="45.01117341" lon="5.41637560">
<ele>912.910</ele>
<time>2013-06-26T14:08:32Z</time>
</trkpt>
<trkpt lat="45.01097099" lon="5.41638030">
<ele>908.100</ele>
<time>2013-06-26T14:08:36Z</time>
</trkpt>
<trkpt lat="45.01092799" lon="5.41637091">
<ele>907.140</ele>
<time>2013-06-26T14:08:37Z</time>
</trkpt>
<trkpt lat="45.01085289" lon="5.41635155">
<ele>905.220</ele>
<time>2013-06-26T14:08:39Z</time>
</trkpt>
<trkpt lat="45.01077184" lon="5.41624619">
<ele>900.890</ele>
<time>2013-06-26T14:08:43Z</time>
</trkpt>
<trkpt lat="45.01076295" lon="5.41624309">
<ele>900.410</ele>
<time>2013-06-26T14:08:44Z</time>
</trkpt>
<trkpt lat="45.01071702" lon="5.41619858">
<ele>900.890</ele>
<time>2013-06-26T14:08:57Z</time>
</trkpt>
<trkpt lat="45.01067469" lon="5.41616547">
<ele>898.970</ele>
<time>2013-06-26T14:09:09Z</time>
</trkpt>
<trkpt lat="45.01065591" lon="5.41616304">
<ele>898.970</ele>
<time>2013-06-26T14:09:11Z</time>
</trkpt>
<trkpt lat="45.01060763" lon="5.41617662">
<ele>897.530</ele>
<time>2013-06-26T14:09:24Z</time>
</trkpt>
<trkpt lat="45.01057251" lon="5.41617989">
<ele>897.050</ele>
<time>2013-06-26T14:09:39Z</time>
</trkpt>
<trkpt lat="45.01051677" lon="5.41610914">
<ele>894.160</ele>
<time>2013-06-26T14:09:44Z</time>
</trkpt>
<trkpt lat="45.01037923" lon="5.41609816">
<ele>888.880</ele>
<time>2013-06-26T14:09:49Z</time>
</trkpt>
<trkpt lat="45.01028141" lon="5.41613387">
<ele>886.470</ele>
<time>2013-06-26T14:09:52Z</time>
</trkpt>
<trkpt lat="45.01020145" lon="5.41617561">
<ele>884.070</ele>
<time>2013-06-26T14:09:55Z</time>
</trkpt>
<trkpt lat="45.01010003" lon="5.41625641">
<ele>879.740</ele>
<time>2013-06-26T14:09:59Z</time>
</trkpt>
<trkpt lat="45.01003599" lon="5.41629145">
<ele>877.340</ele>
<time>2013-06-26T14:10:01Z</time>
</trkpt>
<trkpt lat="45.00988109" lon="5.41624862">
<ele>872.050</ele>
<time>2013-06-26T14:10:06Z</time>
</trkpt>
<trkpt lat="45.00975243" lon="5.41618508">
<ele>868.690</ele>
<time>2013-06-26T14:10:11Z</time>
</trkpt>
<trkpt lat="45.00959611" lon="5.41616371">
<ele>865.320</ele>
<time>2013-06-26T14:10:17Z</time>
</trkpt>
<trkpt lat="45.00958026" lon="5.41616337">
<ele>864.840</ele>
<time>2013-06-26T14:10:18Z</time>
</trkpt>
<trkpt lat="45.00954959" lon="5.41618584">
<ele>864.840</ele>
<time>2013-06-26T14:10:31Z</time>
</trkpt>
<trkpt lat="45.00954489" lon="5.41619883">
<ele>864.840</ele>
<time>2013-06-26T14:10:32Z</time>
</trkpt>
<trkpt lat="45.00954866" lon="5.41621366">
<ele>863.880</ele>
<time>2013-06-26T14:10:43Z</time>
</trkpt>
<trkpt lat="45.00953182" lon="5.41622222">
<ele>864.360</ele>
<time>2013-06-26T14:10:49Z</time>
</trkpt>
<trkpt lat="45.00949720" lon="5.41625943">
<ele>864.360</ele>
<time>2013-06-26T14:11:02Z</time>
</trkpt>
<trkpt lat="45.00944423" lon="5.41632489">
<ele>863.400</ele>
<time>2013-06-26T14:11:06Z</time>
</trkpt>
<trkpt lat="45.00936829" lon="5.41643537">
<ele>862.440</ele>
<time>2013-06-26T14:11:09Z</time>
</trkpt>
<trkpt lat="45.00916620" lon="5.41646311">
<ele>858.590</ele>
<time>2013-06-26T14:11:14Z</time>
</trkpt>
<trkpt lat="45.00910845" lon="5.41643436">
<ele>857.150</ele>
<time>2013-06-26T14:11:16Z</time>
</trkpt>
<trkpt lat="45.00892782" lon="5.41660468">
<ele>852.350</ele>
<time>2013-06-26T14:11:21Z</time>
</trkpt>
<trkpt lat="45.00885992" lon="5.41667174">
<ele>850.420</ele>
<time>2013-06-26T14:11:23Z</time>
</trkpt>
<trkpt lat="45.00870226" lon="5.41686452">
<ele>845.620</ele>
<time>2013-06-26T14:11:29Z</time>
</trkpt>
<trkpt lat="45.00863973" lon="5.41688195">
<ele>844.180</ele>
<time>2013-06-26T14:11:31Z</time>
</trkpt>
<trkpt lat="45.00851182" lon="5.41706426">
<ele>840.330</ele>
<time>2013-06-26T14:11:37Z</time>
</trkpt>
<trkpt lat="45.00848777" lon="5.41721547">
<ele>836.960</ele>
<time>2013-06-26T14:11:40Z</time>
</trkpt>
<trkpt lat="45.00831443" lon="5.41731170">
<ele>833.600</ele>
<time>2013-06-26T14:11:46Z</time>
</trkpt>
<trkpt lat="45.00811670" lon="5.41727750">
<ele>830.720</ele>
<time>2013-06-26T14:11:52Z</time>
</trkpt>
<trkpt lat="45.00808376" lon="5.41724757">
<ele>829.760</ele>
<time>2013-06-26T14:12:01Z</time>
</trkpt>
<trkpt lat="45.00806197" lon="5.41720441">
<ele>828.790</ele>
<time>2013-06-26T14:12:15Z</time>
</trkpt>
<trkpt lat="45.00806825" lon="5.41720332">
<ele>828.790</ele>
<time>2013-06-26T14:12:27Z</time>
</trkpt>
<trkpt lat="45.00802676" lon="5.41719167">
<ele>828.310</ele>
<time>2013-06-26T14:12:41Z</time>
</trkpt>
<trkpt lat="45.00799457" lon="5.41720097">
<ele>828.310</ele>
<time>2013-06-26T14:13:04Z</time>
</trkpt>
<trkpt lat="45.00796130" lon="5.41722880">
<ele>828.310</ele>
<time>2013-06-26T14:13:24Z</time>
</trkpt>
<trkpt lat="45.00792383" lon="5.41712277">
<ele>826.870</ele>
<time>2013-06-26T14:13:30Z</time>
</trkpt>
<trkpt lat="45.00780146" lon="5.41716308">
<ele>823.510</ele>
<time>2013-06-26T14:13:37Z</time>
</trkpt>
<trkpt lat="45.00766383" lon="5.41734145">
<ele>820.620</ele>
<time>2013-06-26T14:13:45Z</time>
</trkpt>
<trkpt lat="45.00750834" lon="5.41747246">
<ele>818.220</ele>
<time>2013-06-26T14:13:52Z</time>
</trkpt>
<trkpt lat="45.00732360" lon="5.41773892">
<ele>814.850</ele>
<time>2013-06-26T14:13:59Z</time>
</trkpt>
<trkpt lat="45.00723308" lon="5.41782986">
<ele>813.410</ele>
<time>2013-06-26T14:14:02Z</time>
</trkpt>
<trkpt lat="45.00720299" lon="5.41785652">
<ele>812.930</ele>
<time>2013-06-26T14:14:14Z</time>
</trkpt>
<trkpt lat="45.00709000" lon="5.41807545">
<ele>810.530</ele>
<time>2013-06-26T14:14:21Z</time>
</trkpt>
<trkpt lat="45.00707013" lon="5.41810194">
<ele>810.050</ele>
<time>2013-06-26T14:14:22Z</time>
</trkpt>
<trkpt lat="45.00692312" lon="5.41797018">
<ele>806.200</ele>
<time>2013-06-26T14:14:28Z</time>
</trkpt>
<trkpt lat="45.00692555" lon="5.41791276">
<ele>805.720</ele>
<time>2013-06-26T14:14:29Z</time>
</trkpt>
<trkpt lat="45.00693175" lon="5.41784688">
<ele>805.240</ele>
<time>2013-06-26T14:14:30Z</time>
</trkpt>
<trkpt lat="45.00694826" lon="5.41770975">
<ele>803.800</ele>
<time>2013-06-26T14:14:32Z</time>
</trkpt>
<trkpt lat="45.00701096" lon="5.41749844">
<ele>802.840</ele>
<time>2013-06-26T14:14:35Z</time>
</trkpt>
<trkpt lat="45.00707324" lon="5.41707985">
<ele>797.550</ele>
<time>2013-06-26T14:14:39Z</time>
</trkpt>
<trkpt lat="45.00716175" lon="5.41681490">
<ele>796.110</ele>
<time>2013-06-26T14:14:42Z</time>
</trkpt>
<trkpt lat="45.00708153" lon="5.41680249">
<ele>793.220</ele>
<time>2013-06-26T14:14:47Z</time>
</trkpt>
<trkpt lat="45.00703166" lon="5.41688371">
<ele>791.780</ele>
<time>2013-06-26T14:14:49Z</time>
</trkpt>
<trkpt lat="45.00693854" lon="5.41696921">
<ele>790.820</ele>
<time>2013-06-26T14:14:51Z</time>
</trkpt>
<trkpt lat="45.00668549" lon="5.41728655">
<ele>786.500</ele>
<time>2013-06-26T14:14:56Z</time>
</trkpt>
<trkpt lat="45.00655364" lon="5.41757321">
<ele>783.130</ele>
<time>2013-06-26T14:14:59Z</time>
</trkpt>
<trkpt lat="45.00639699" lon="5.41788191">
<ele>779.770</ele>
<time>2013-06-26T14:15:02Z</time>
</trkpt>
<trkpt lat="45.00619263" lon="5.41827813">
<ele>775.440</ele>
<time>2013-06-26T14:15:07Z</time>
</trkpt>
<trkpt lat="45.00616145" lon="5.41836287">
<ele>774.000</ele>
<time>2013-06-26T14:15:08Z</time>
</trkpt>
<trkpt lat="45.00596506" lon="5.41872161">
<ele>770.150</ele>
<time>2013-06-26T14:15:12Z</time>
</trkpt>
<trkpt lat="45.00590706" lon="5.41882555">
<ele>768.710</ele>
<time>2013-06-26T14:15:13Z</time>
</trkpt>
<trkpt lat="45.00573180" lon="5.41910685">
<ele>765.830</ele>
<time>2013-06-26T14:15:16Z</time>
</trkpt>
<trkpt lat="45.00563406" lon="5.41929234">
<ele>764.390</ele>
<time>2013-06-26T14:15:18Z</time>
</trkpt>
<trkpt lat="45.00540180" lon="5.41965620">
<ele>759.580</ele>
<time>2013-06-26T14:15:22Z</time>
</trkpt>
<trkpt lat="45.00521086" lon="5.41990388">
<ele>756.690</ele>
<time>2013-06-26T14:15:25Z</time>
</trkpt>
<trkpt lat="45.00514624" lon="5.41997463">
<ele>755.730</ele>
<time>2013-06-26T14:15:26Z</time>
</trkpt>
<trkpt lat="45.00496100" lon="5.42032851">
<ele>751.410</ele>
<time>2013-06-26T14:15:30Z</time>
</trkpt>
<trkpt lat="45.00492194" lon="5.42044368">
<ele>750.450</ele>
<time>2013-06-26T14:15:31Z</time>
</trkpt>
<trkpt lat="45.00473821" lon="5.42097358">
<ele>745.640</ele>
<time>2013-06-26T14:15:36Z</time>
</trkpt>
<trkpt lat="45.00469999" lon="5.42104164">
<ele>745.160</ele>
<time>2013-06-26T14:15:37Z</time>
</trkpt>
<trkpt lat="45.00455950" lon="5.42118791">
<ele>742.760</ele>
<time>2013-06-26T14:15:40Z</time>
</trkpt>
<trkpt lat="45.00428760" lon="5.42144682">
<ele>739.390</ele>
<time>2013-06-26T14:15:47Z</time>
</trkpt>
<trkpt lat="45.00417897" lon="5.42154430">
<ele>737.470</ele>
<time>2013-06-26T14:15:49Z</time>
</trkpt>
<trkpt lat="45.00400638" lon="5.42184069">
<ele>734.580</ele>
<time>2013-06-26T14:15:53Z</time>
</trkpt>
<trkpt lat="45.00367739" lon="5.42194948">
<ele>730.260</ele>
<time>2013-06-26T14:15:58Z</time>
</trkpt>
<trkpt lat="45.00359793" lon="5.42195150">
<ele>730.260</ele>
<time>2013-06-26T14:15:59Z</time>
</trkpt>
<trkpt lat="45.00322091" lon="5.42211201">
<ele>725.450</ele>
<time>2013-06-26T14:16:04Z</time>
</trkpt>
<trkpt lat="45.00285773" lon="5.42225735">
<ele>722.090</ele>
<time>2013-06-26T14:16:08Z</time>
</trkpt>
<trkpt lat="45.00258012" lon="5.42233732">
<ele>717.760</ele>
<time>2013-06-26T14:16:12Z</time>
</trkpt>
<trkpt lat="45.00247099" lon="5.42256799">
<ele>714.400</ele>
<time>2013-06-26T14:16:15Z</time>
</trkpt>
<trkpt lat="45.00235515" lon="5.42284895">
<ele>709.110</ele>
<time>2013-06-26T14:16:19Z</time>
</trkpt>
<trkpt lat="45.00216974" lon="5.42296043">
<ele>704.300</ele>
<time>2013-06-26T14:16:24Z</time>
</trkpt>
<trkpt lat="45.00213412" lon="5.42298130">
<ele>703.340</ele>
<time>2013-06-26T14:16:25Z</time>
</trkpt>
<trkpt lat="45.00200923" lon="5.42314827">
<ele>698.530</ele>
<time>2013-06-26T14:16:29Z</time>
</trkpt>
<trkpt lat="45.00198576" lon="5.42321616">
<ele>697.570</ele>
<time>2013-06-26T14:16:30Z</time>
</trkpt>
<trkpt lat="45.00192164" lon="5.42343426">
<ele>694.210</ele>
<time>2013-06-26T14:16:34Z</time>
</trkpt>
<trkpt lat="45.00187847" lon="5.42344633">
<ele>692.770</ele>
<time>2013-06-26T14:16:36Z</time>
</trkpt>
<trkpt lat="45.00180756" lon="5.42340852">
<ele>692.770</ele>
<time>2013-06-26T14:16:45Z</time>
</trkpt>
<trkpt lat="45.00181468" lon="5.42341674">
<ele>692.770</ele>
<time>2013-06-26T14:17:03Z</time>
</trkpt>
<trkpt lat="45.00182005" lon="5.42341816">
<ele>692.770</ele>
<time>2013-06-26T14:17:23Z</time>
</trkpt>
<trkpt lat="45.00184628" lon="5.42338003">
<ele>693.250</ele>
<time>2013-06-26T14:17:28Z</time>
</trkpt>
<trkpt lat="45.00190278" lon="5.42296814">
<ele>691.810</ele>
<time>2013-06-26T14:17:41Z</time>
</trkpt>
<trkpt lat="45.00204426" lon="5.42235106">
<ele>688.920</ele>
<time>2013-06-26T14:17:51Z</time>
</trkpt>
<trkpt lat="45.00215809" lon="5.42169275">
<ele>687.000</ele>
<time>2013-06-26T14:18:04Z</time>
</trkpt>
<trkpt lat="45.00217058" lon="5.42163734">
<ele>686.520</ele>
<time>2013-06-26T14:18:13Z</time>
</trkpt>
<trkpt lat="45.00218340" lon="5.42162586">
<ele>686.520</ele>
<time>2013-06-26T14:18:26Z</time>
</trkpt>
<trkpt lat="45.00218650" lon="5.42162712">
<ele>686.520</ele>
<time>2013-06-26T14:18:45Z</time>
</trkpt>
<trkpt lat="45.00215046" lon="5.42157465">
<ele>686.520</ele>
<time>2013-06-26T14:19:02Z</time>
</trkpt>
<trkpt lat="45.00209472" lon="5.42152821">
<ele>686.040</ele>
<time>2013-06-26T14:19:14Z</time>
</trkpt>
<trkpt lat="45.00209506" lon="5.42151396">
<ele>686.040</ele>
<time>2013-06-26T14:19:17Z</time>
</trkpt>
<trkpt lat="45.00200210" lon="5.42147976">
<ele>685.560</ele>
<time>2013-06-26T14:19:24Z</time>
</trkpt>
<trkpt lat="45.00197310" lon="5.42147574">
<ele>686.040</ele>
<time>2013-06-26T14:19:26Z</time>
</trkpt>
<trkpt lat="45.00195097" lon="5.42147549">
<ele>685.560</ele>
<time>2013-06-26T14:19:28Z</time>
</trkpt>
<trkpt lat="45.00189557" lon="5.42145571">
<ele>685.560</ele>
<time>2013-06-26T14:19:39Z</time>
</trkpt>
<trkpt lat="45.00185508" lon="5.42150860">
<ele>686.040</ele>
<time>2013-06-26T14:19:59Z</time>
</trkpt>
<trkpt lat="45.00185207" lon="5.42150860">
<ele>686.040</ele>
<time>2013-06-26T14:20:04Z</time>
</trkpt>
<trkpt lat="45.00192348" lon="5.42154849">
<ele>686.040</ele>
<time>2013-06-26T14:20:09Z</time>
</trkpt>
<trkpt lat="45.00207351" lon="5.42184999">
<ele>686.520</ele>
<time>2013-06-26T14:20:22Z</time>
</trkpt>
<trkpt lat="45.00199196" lon="5.42237076">
<ele>688.440</ele>
<time>2013-06-26T14:20:40Z</time>
</trkpt>
<trkpt lat="45.00190454" lon="5.42282741">
<ele>689.880</ele>
<time>2013-06-26T14:20:58Z</time>
</trkpt>
<trkpt lat="45.00188584" lon="5.42315782">
<ele>691.330</ele>
<time>2013-06-26T14:21:10Z</time>
</trkpt>
<trkpt lat="45.00190210" lon="5.42319789">
<ele>691.810</ele>
<time>2013-06-26T14:21:20Z</time>
</trkpt>
<trkpt lat="45.00190931" lon="5.42319495">
<ele>687.960</ele>
<time>2013-06-26T14:21:25Z</time>
</trkpt>
<trkpt lat="45.00191057" lon="5.42319470">
<ele>692.770</ele>
<time>2013-06-26T14:21:26Z</time>
</trkpt>
<trkpt lat="45.00190856" lon="5.42320124">
<ele>688.920</ele>
<time>2013-06-26T14:21:35Z</time>
</trkpt>
<trkpt lat="45.00190336" lon="5.42320250">
<ele>695.650</ele>
<time>2013-06-26T14:21:36Z</time>
</trkpt>
<trkpt lat="45.00190546" lon="5.42320359">
<ele>691.810</ele>
<time>2013-06-26T14:21:37Z</time>
</trkpt>
<trkpt lat="45.00189716" lon="5.42318598">
<ele>691.330</ele>
<time>2013-06-26T14:21:44Z</time>
</trkpt>
<trkpt lat="45.00189909" lon="5.42303243">
<ele>690.840</ele>
<time>2013-06-26T14:21:50Z</time>
</trkpt>
<trkpt lat="45.00193815" lon="5.42281257">
<ele>689.880</ele>
<time>2013-06-26T14:21:55Z</time>
</trkpt>
<trkpt lat="45.00201585" lon="5.42259707">
<ele>688.920</ele>
<time>2013-06-26T14:22:05Z</time>
</trkpt>
<trkpt lat="45.00201023" lon="5.42259824">
<ele>688.920</ele>
<time>2013-06-26T14:22:19Z</time>
</trkpt>
<trkpt lat="45.00199607" lon="5.42266882">
<ele>688.920</ele>
<time>2013-06-26T14:22:33Z</time>
</trkpt>
<trkpt lat="45.00193723" lon="5.42271911">
<ele>689.400</ele>
<time>2013-06-26T14:22:54Z</time>
</trkpt>
<trkpt lat="45.00202054" lon="5.42255382">
<ele>688.920</ele>
<time>2013-06-26T14:23:17Z</time>
</trkpt>
<trkpt lat="45.00201736" lon="5.42258735">
<ele>688.920</ele>
<time>2013-06-26T14:23:37Z</time>
</trkpt>
<trkpt lat="45.00200302" lon="5.42254401">
<ele>688.920</ele>
<time>2013-06-26T14:24:01Z</time>
</trkpt>
<trkpt lat="45.00203085" lon="5.42255298">
<ele>688.920</ele>
<time>2013-06-26T14:24:20Z</time>
</trkpt>
<trkpt lat="45.00203965" lon="5.42256899">
<ele>688.920</ele>
<time>2013-06-26T14:24:45Z</time>
</trkpt>
<trkpt lat="45.00207226" lon="5.42250940">
<ele>688.920</ele>
<time>2013-06-26T14:25:09Z</time>
</trkpt>
<trkpt lat="45.00204770" lon="5.42252985">
<ele>688.440</ele>
<time>2013-06-26T14:25:32Z</time>
</trkpt>
<trkpt lat="45.00205315" lon="5.42245533">
<ele>687.960</ele>
<time>2013-06-26T14:25:55Z</time>
</trkpt>
<trkpt lat="45.00205625" lon="5.42250420">
<ele>687.960</ele>
<time>2013-06-26T14:26:15Z</time>
</trkpt>
<trkpt lat="45.00208651" lon="5.42249817">
<ele>688.440</ele>
<time>2013-06-26T14:26:28Z</time>
</trkpt>
<trkpt lat="45.00197503" lon="5.42258022">
<ele>687.960</ele>
<time>2013-06-26T14:26:47Z</time>
</trkpt>
<trkpt lat="45.00191133" lon="5.42265994">
<ele>687.960</ele>
<time>2013-06-26T14:27:03Z</time>
</trkpt>
<trkpt lat="45.00200671" lon="5.42229683">
<ele>686.520</ele>
<time>2013-06-26T14:27:13Z</time>
</trkpt>
<trkpt lat="45.00210830" lon="5.42177145">
<ele>685.080</ele>
<time>2013-06-26T14:27:20Z</time>
</trkpt>
<trkpt lat="45.00201191" lon="5.42150499">
<ele>684.600</ele>
<time>2013-06-26T14:27:24Z</time>
</trkpt>
<trkpt lat="45.00191736" lon="5.42145504">
<ele>684.600</ele>
<time>2013-06-26T14:27:26Z</time>
</trkpt>
<trkpt lat="45.00172994" lon="5.42148186">
<ele>685.080</ele>
<time>2013-06-26T14:27:31Z</time>
</trkpt>
<trkpt lat="45.00139735" lon="5.42173583">
<ele>687.000</ele>
<time>2013-06-26T14:27:44Z</time>
</trkpt>
<trkpt lat="45.00118294" lon="5.42206524">
<ele>689.400</ele>
<time>2013-06-26T14:27:55Z</time>
</trkpt>
<trkpt lat="45.00101580" lon="5.42244754">
<ele>690.840</ele>
<time>2013-06-26T14:28:08Z</time>
</trkpt>
<trkpt lat="45.00074079" lon="5.42289211">
<ele>693.250</ele>
<time>2013-06-26T14:28:22Z</time>
</trkpt>
<trkpt lat="45.00033368" lon="5.42283453">
<ele>696.610</ele>
<time>2013-06-26T14:28:38Z</time>
</trkpt>
<trkpt lat="44.99991342" lon="5.42269858">
<ele>698.530</ele>
<time>2013-06-26T14:28:56Z</time>
</trkpt>
<trkpt lat="44.99958342" lon="5.42260462">
<ele>699.980</ele>
<time>2013-06-26T14:29:12Z</time>
</trkpt>
<trkpt lat="44.99960605" lon="5.42253085">
<ele>700.460</ele>
<time>2013-06-26T14:29:16Z</time>
</trkpt>
<trkpt lat="45.00003655" lon="5.42241334">
<ele>703.820</ele>
<time>2013-06-26T14:29:35Z</time>
</trkpt>
<trkpt lat="45.00040174" lon="5.42227915">
<ele>706.230</ele>
<time>2013-06-26T14:29:51Z</time>
</trkpt>
<trkpt lat="45.00076208" lon="5.42215090">
<ele>707.670</ele>
<time>2013-06-26T14:30:07Z</time>
</trkpt>
<trkpt lat="45.00100541" lon="5.42199131">
<ele>710.070</ele>
<time>2013-06-26T14:30:21Z</time>
</trkpt>
<trkpt lat="45.00102167" lon="5.42193130">
<ele>711.030</ele>
<time>2013-06-26T14:30:24Z</time>
</trkpt>
<trkpt lat="45.00103969" lon="5.42179409">
<ele>711.510</ele>
<time>2013-06-26T14:30:30Z</time>
</trkpt>
<trkpt lat="45.00106366" lon="5.42166593">
<ele>712.470</ele>
<time>2013-06-26T14:30:35Z</time>
</trkpt>
<trkpt lat="45.00120440" lon="5.42133358">
<ele>715.840</ele>
<time>2013-06-26T14:30:51Z</time>
</trkpt>
<trkpt lat="45.00125771" lon="5.42123199">
<ele>716.800</ele>
<time>2013-06-26T14:31:04Z</time>
</trkpt>
<trkpt lat="45.00125896" lon="5.42117047">
<ele>716.800</ele>
<time>2013-06-26T14:31:26Z</time>
</trkpt>
<trkpt lat="45.00131420" lon="5.42121708">
<ele>716.320</ele>
<time>2013-06-26T14:31:53Z</time>
</trkpt>
<trkpt lat="45.00122015" lon="5.42116636">
<ele>715.840</ele>
<time>2013-06-26T14:32:25Z</time>
</trkpt>
<trkpt lat="45.00124941" lon="5.42116343">
<ele>715.840</ele>
<time>2013-06-26T14:32:59Z</time>
</trkpt>
<trkpt lat="45.00118000" lon="5.42118338">
<ele>715.360</ele>
<time>2013-06-26T14:33:31Z</time>
</trkpt>
<trkpt lat="45.00125008" lon="5.42116175">
<ele>715.840</ele>
<time>2013-06-26T14:34:13Z</time>
</trkpt>
<trkpt lat="45.00129886" lon="5.42118941">
<ele>715.840</ele>
<time>2013-06-26T14:34:45Z</time>
</trkpt>
<trkpt lat="45.00128495" lon="5.42117525">
<ele>716.800</ele>
<time>2013-06-26T14:35:04Z</time>
</trkpt>
<trkpt lat="45.00132149" lon="5.42114331">
<ele>717.760</ele>
<time>2013-06-26T14:35:15Z</time>
</trkpt>
<trkpt lat="45.00132434" lon="5.42109738">
<ele>718.720</ele>
<time>2013-06-26T14:35:26Z</time>
</trkpt>
<trkpt lat="45.00132686" lon="5.42108866">
<ele>718.720</ele>
<time>2013-06-26T14:35:27Z</time>
</trkpt>
<trkpt lat="45.00138821" lon="5.42092991">
<ele>722.090</ele>
<time>2013-06-26T14:35:39Z</time>
</trkpt>
<trkpt lat="45.00138653" lon="5.42090594">
<ele>722.090</ele>
<time>2013-06-26T14:35:41Z</time>
</trkpt>
<trkpt lat="45.00138016" lon="5.42088783">
<ele>722.570</ele>
<time>2013-06-26T14:35:43Z</time>
</trkpt>
<trkpt lat="45.00139869" lon="5.42070075">
<ele>724.490</ele>
<time>2013-06-26T14:35:51Z</time>
</trkpt>
<trkpt lat="45.00135980" lon="5.42047117">
<ele>726.890</ele>
<time>2013-06-26T14:36:04Z</time>
</trkpt>
<trkpt lat="45.00126533" lon="5.42027327">
<ele>729.300</ele>
<time>2013-06-26T14:36:16Z</time>
</trkpt>
<trkpt lat="45.00123968" lon="5.42015827">
<ele>729.780</ele>
<time>2013-06-26T14:36:22Z</time>
</trkpt>
<trkpt lat="45.00135779" lon="5.41992769">
<ele>732.180</ele>
<time>2013-06-26T14:36:36Z</time>
</trkpt>
<trkpt lat="45.00138394" lon="5.41982669">
<ele>734.100</ele>
<time>2013-06-26T14:36:43Z</time>
</trkpt>
<trkpt lat="45.00132786" lon="5.41955310">
<ele>736.990</ele>
<time>2013-06-26T14:36:58Z</time>
</trkpt>
<trkpt lat="45.00134722" lon="5.41945042">
<ele>738.430</ele>
<time>2013-06-26T14:37:06Z</time>
</trkpt>
<trkpt lat="45.00138125" lon="5.41927591">
<ele>740.350</ele>
<time>2013-06-26T14:37:15Z</time>
</trkpt>
<trkpt lat="45.00125846" lon="5.41913375">
<ele>742.760</ele>
<time>2013-06-26T14:37:29Z</time>
</trkpt>
<trkpt lat="45.00122074" lon="5.41902663">
<ele>744.200</ele>
<time>2013-06-26T14:37:36Z</time>
</trkpt>
<trkpt lat="45.00126516" lon="5.41883485">
<ele>747.560</ele>
<time>2013-06-26T14:37:48Z</time>
</trkpt>
<trkpt lat="45.00129349" lon="5.41864207">
<ele>750.930</ele>
<time>2013-06-26T14:38:02Z</time>
</trkpt>
<trkpt lat="45.00129769" lon="5.41861810">
<ele>750.930</ele>
<time>2013-06-26T14:38:04Z</time>
</trkpt>
<trkpt lat="45.00130121" lon="5.41849530">
<ele>752.370</ele>
<time>2013-06-26T14:38:11Z</time>
</trkpt>
<trkpt lat="45.00144303" lon="5.41825449">
<ele>755.250</ele>
<time>2013-06-26T14:38:27Z</time>
</trkpt>
<trkpt lat="45.00146122" lon="5.41823245">
<ele>755.730</ele>
<time>2013-06-26T14:38:29Z</time>
</trkpt>
<trkpt lat="45.00161008" lon="5.41809121">
<ele>758.140</ele>
<time>2013-06-26T14:38:41Z</time>
</trkpt>
<trkpt lat="45.00161779" lon="5.41805659">
<ele>758.620</ele>
<time>2013-06-26T14:38:43Z</time>
</trkpt>
<trkpt lat="45.00163724" lon="5.41791150">
<ele>760.540</ele>
<time>2013-06-26T14:38:50Z</time>
</trkpt>
<trkpt lat="45.00153054" lon="5.41775124">
<ele>763.900</ele>
<time>2013-06-26T14:39:03Z</time>
</trkpt>
<trkpt lat="45.00144336" lon="5.41755837">
<ele>767.270</ele>
<time>2013-06-26T14:39:17Z</time>
</trkpt>
<trkpt lat="45.00143825" lon="5.41754982">
<ele>767.270</ele>
<time>2013-06-26T14:39:18Z</time>
</trkpt>
<trkpt lat="45.00143196" lon="5.41748989">
<ele>767.750</ele>
<time>2013-06-26T14:39:23Z</time>
</trkpt>
<trkpt lat="45.00137421" lon="5.41737121">
<ele>769.670</ele>
<time>2013-06-26T14:39:30Z</time>
</trkpt>
<trkpt lat="45.00131001" lon="5.41715252">
<ele>771.600</ele>
<time>2013-06-26T14:39:44Z</time>
</trkpt>
<trkpt lat="45.00122644" lon="5.41697642">
<ele>774.000</ele>
<time>2013-06-26T14:39:57Z</time>
</trkpt>
<trkpt lat="45.00119761" lon="5.41690098">
<ele>774.960</ele>
<time>2013-06-26T14:40:02Z</time>
</trkpt>
<trkpt lat="45.00117950" lon="5.41687910">
<ele>775.440</ele>
<time>2013-06-26T14:40:04Z</time>
</trkpt>
<trkpt lat="45.00116140" lon="5.41682102">
<ele>776.400</ele>
<time>2013-06-26T14:40:18Z</time>
</trkpt>
<trkpt lat="45.00118227" lon="5.41682353">
<ele>777.360</ele>
<time>2013-06-26T14:40:27Z</time>
</trkpt>
<trkpt lat="45.00130674" lon="5.41678196">
<ele>779.770</ele>
<time>2013-06-26T14:40:39Z</time>
</trkpt>
<trkpt lat="45.00131713" lon="5.41674851">
<ele>780.250</ele>
<time>2013-06-26T14:40:41Z</time>
</trkpt>
<trkpt lat="45.00130414" lon="5.41669177">
<ele>780.730</ele>
<time>2013-06-26T14:40:44Z</time>
</trkpt>
<trkpt lat="45.00128939" lon="5.41666989">
<ele>781.210</ele>
<time>2013-06-26T14:40:46Z</time>
</trkpt>
<trkpt lat="45.00127966" lon="5.41644526">
<ele>784.570</ele>
<time>2013-06-26T14:41:00Z</time>
</trkpt>
<trkpt lat="45.00129241" lon="5.41634384">
<ele>785.530</ele>
<time>2013-06-26T14:41:06Z</time>
</trkpt>
<trkpt lat="45.00132015" lon="5.41622356">
<ele>787.460</ele>
<time>2013-06-26T14:41:18Z</time>
</trkpt>
<trkpt lat="45.00137882" lon="5.41610126">
<ele>790.340</ele>
<time>2013-06-26T14:41:34Z</time>
</trkpt>
<trkpt lat="45.00143909" lon="5.41594318">
<ele>791.300</ele>
<time>2013-06-26T14:41:47Z</time>
</trkpt>
<trkpt lat="45.00143741" lon="5.41582927">
<ele>794.190</ele>
<time>2013-06-26T14:41:58Z</time>
</trkpt>
<trkpt lat="45.00143666" lon="5.41566960">
<ele>796.590</ele>
<time>2013-06-26T14:42:13Z</time>
</trkpt>
<trkpt lat="45.00144973" lon="5.41552643">
<ele>798.510</ele>
<time>2013-06-26T14:42:25Z</time>
</trkpt>
<trkpt lat="45.00144831" lon="5.41550221">
<ele>798.990</ele>
<time>2013-06-26T14:42:27Z</time>
</trkpt>
<trkpt lat="45.00147547" lon="5.41534773">
<ele>800.440</ele>
<time>2013-06-26T14:42:41Z</time>
</trkpt>
<trkpt lat="45.00151453" lon="5.41516643">
<ele>803.320</ele>
<time>2013-06-26T14:42:57Z</time>
</trkpt>
<trkpt lat="45.00157362" lon="5.41503391">
<ele>805.720</ele>
<time>2013-06-26T14:43:12Z</time>
</trkpt>
<trkpt lat="45.00162559" lon="5.41494012">
<ele>808.610</ele>
<time>2013-06-26T14:43:25Z</time>
</trkpt>
<trkpt lat="45.00166649" lon="5.41480794">
<ele>811.490</ele>
<time>2013-06-26T14:43:38Z</time>
</trkpt>
<trkpt lat="45.00171075" lon="5.41469637">
<ele>814.370</ele>
<time>2013-06-26T14:43:50Z</time>
</trkpt>
<trkpt lat="45.00171812" lon="5.41465815">
<ele>814.850</ele>
<time>2013-06-26T14:43:54Z</time>
</trkpt>
<trkpt lat="45.00176263" lon="5.41449605">
<ele>817.740</ele>
<time>2013-06-26T14:44:08Z</time>
</trkpt>
<trkpt lat="45.00178006" lon="5.41435557">
<ele>820.620</ele>
<time>2013-06-26T14:44:22Z</time>
</trkpt>
<trkpt lat="45.00177428" lon="5.41419002">
<ele>823.030</ele>
<time>2013-06-26T14:44:35Z</time>
</trkpt>
<trkpt lat="45.00177680" lon="5.41399556">
<ele>825.910</ele>
<time>2013-06-26T14:44:50Z</time>
</trkpt>
<trkpt lat="45.00182893" lon="5.41387914">
<ele>828.310</ele>
<time>2013-06-26T14:45:03Z</time>
</trkpt>
<trkpt lat="45.00188995" lon="5.41375894">
<ele>831.200</ele>
<time>2013-06-26T14:45:16Z</time>
</trkpt>
<trkpt lat="45.00193379" lon="5.41358870">
<ele>833.120</ele>
<time>2013-06-26T14:45:29Z</time>
</trkpt>
<trkpt lat="45.00199296" lon="5.41340321">
<ele>835.520</ele>
<time>2013-06-26T14:45:45Z</time>
</trkpt>
<trkpt lat="45.00199514" lon="5.41335544">
<ele>837.450</ele>
<time>2013-06-26T14:45:59Z</time>
</trkpt>
<trkpt lat="45.00198291" lon="5.41326852">
<ele>839.850</ele>
<time>2013-06-26T14:46:15Z</time>
</trkpt>
<trkpt lat="45.00197704" lon="5.41322946">
<ele>840.330</ele>
<time>2013-06-26T14:46:20Z</time>
</trkpt>
<trkpt lat="45.00198836" lon="5.41303475">
<ele>843.210</ele>
<time>2013-06-26T14:46:34Z</time>
</trkpt>
<trkpt lat="45.00200344" lon="5.41288898">
<ele>846.100</ele>
<time>2013-06-26T14:46:48Z</time>
</trkpt>
<trkpt lat="45.00204611" lon="5.41283056">
<ele>847.060</ele>
<time>2013-06-26T14:47:08Z</time>
</trkpt>
<trkpt lat="45.00204594" lon="5.41275999">
<ele>848.980</ele>
<time>2013-06-26T14:47:20Z</time>
</trkpt>
<trkpt lat="45.00205742" lon="5.41269930">
<ele>852.350</ele>
<time>2013-06-26T14:47:33Z</time>
</trkpt>
<trkpt lat="45.00212875" lon="5.41266368">
<ele>854.750</ele>
<time>2013-06-26T14:47:46Z</time>
</trkpt>
<trkpt lat="45.00222464" lon="5.41261984">
<ele>856.670</ele>
<time>2013-06-26T14:47:59Z</time>
</trkpt>
<trkpt lat="45.00226487" lon="5.41256351">
<ele>860.040</ele>
<time>2013-06-26T14:48:12Z</time>
</trkpt>
<trkpt lat="45.00223562" lon="5.41243879">
<ele>862.920</ele>
<time>2013-06-26T14:48:28Z</time>
</trkpt>
<trkpt lat="45.00218642" lon="5.41231658">
<ele>865.320</ele>
<time>2013-06-26T14:48:43Z</time>
</trkpt>
<trkpt lat="45.00214786" lon="5.41219530">
<ele>866.770</ele>
<time>2013-06-26T14:48:55Z</time>
</trkpt>
<trkpt lat="45.00204175" lon="5.41209019">
<ele>867.250</ele>
<time>2013-06-26T14:49:09Z</time>
</trkpt>
<trkpt lat="45.00203295" lon="5.41208281">
<ele>867.250</ele>
<time>2013-06-26T14:49:10Z</time>
</trkpt>
<trkpt lat="45.00189129" lon="5.41193085">
<ele>868.210</ele>
<time>2013-06-26T14:49:25Z</time>
</trkpt>
<trkpt lat="45.00184670" lon="5.41180705">
<ele>870.610</ele>
<time>2013-06-26T14:49:36Z</time>
</trkpt>
<trkpt lat="45.00181376" lon="5.41171736">
<ele>873.010</ele>
<time>2013-06-26T14:49:49Z</time>
</trkpt>
<trkpt lat="45.00177244" lon="5.41164653">
<ele>874.460</ele>
<time>2013-06-26T14:49:58Z</time>
</trkpt>
<trkpt lat="45.00167143" lon="5.41150178">
<ele>876.380</ele>
<time>2013-06-26T14:50:13Z</time>
</trkpt>
<trkpt lat="45.00158611" lon="5.41136507">
<ele>878.300</ele>
<time>2013-06-26T14:50:28Z</time>
</trkpt>
<trkpt lat="45.00153045" lon="5.41124378">
<ele>880.220</ele>
<time>2013-06-26T14:50:40Z</time>
</trkpt>
<trkpt lat="45.00150681" lon="5.41110045">
<ele>882.630</ele>
<time>2013-06-26T14:50:56Z</time>
</trkpt>
<trkpt lat="45.00151059" lon="5.41107665">
<ele>883.110</ele>
<time>2013-06-26T14:50:59Z</time>
</trkpt>
<trkpt lat="45.00152048" lon="5.41092544">
<ele>885.990</ele>
<time>2013-06-26T14:51:13Z</time>
</trkpt>
<trkpt lat="45.00152710" lon="5.41080340">
<ele>887.910</ele>
<time>2013-06-26T14:51:27Z</time>
</trkpt>
<trkpt lat="45.00149433" lon="5.41068144">
<ele>890.320</ele>
<time>2013-06-26T14:51:42Z</time>
</trkpt>
<trkpt lat="45.00146641" lon="5.41055060">
<ele>891.760</ele>
<time>2013-06-26T14:51:56Z</time>
</trkpt>
<trkpt lat="45.00148377" lon="5.41040769">
<ele>893.680</ele>
<time>2013-06-26T14:52:11Z</time>
</trkpt>
<trkpt lat="45.00149022" lon="5.41024173">
<ele>895.120</ele>
<time>2013-06-26T14:52:26Z</time>
</trkpt>
<trkpt lat="45.00147739" lon="5.41008029">
<ele>898.010</ele>
<time>2013-06-26T14:52:40Z</time>
</trkpt>
<trkpt lat="45.00146633" lon="5.41004442">
<ele>899.450</ele>
<time>2013-06-26T14:52:44Z</time>
</trkpt>
<trkpt lat="45.00144538" lon="5.40991534">
<ele>902.330</ele>
<time>2013-06-26T14:52:56Z</time>
</trkpt>
<trkpt lat="45.00143062" lon="5.40978005">
<ele>904.740</ele>
<time>2013-06-26T14:53:10Z</time>
</trkpt>
<trkpt lat="45.00142911" lon="5.40978466">
<ele>904.260</ele>
<time>2013-06-26T14:53:25Z</time>
</trkpt>
<trkpt lat="45.00142241" lon="5.40965013">
<ele>906.180</ele>
<time>2013-06-26T14:53:47Z</time>
</trkpt>
<trkpt lat="45.00140095" lon="5.40961526">
<ele>906.180</ele>
<time>2013-06-26T14:53:54Z</time>
</trkpt>
<trkpt lat="45.00129509" lon="5.40943648">
<ele>907.620</ele>
<time>2013-06-26T14:54:07Z</time>
</trkpt>
<trkpt lat="45.00124245" lon="5.40931519">
<ele>909.060</ele>
<time>2013-06-26T14:54:15Z</time>
</trkpt>
<trkpt lat="45.00114815" lon="5.40906156">
<ele>911.950</ele>
<time>2013-06-26T14:54:31Z</time>
</trkpt>
<trkpt lat="45.00114270" lon="5.40904219">
<ele>912.430</ele>
<time>2013-06-26T14:54:32Z</time>
</trkpt>
<trkpt lat="45.00108764" lon="5.40893172">
<ele>913.870</ele>
<time>2013-06-26T14:54:45Z</time>
</trkpt>
<trkpt lat="45.00105746" lon="5.40887430">
<ele>914.350</ele>
<time>2013-06-26T14:54:49Z</time>
</trkpt>
<trkpt lat="45.00098244" lon="5.40875503">
<ele>915.790</ele>
<time>2013-06-26T14:54:59Z</time>
</trkpt>
<trkpt lat="45.00091882" lon="5.40866828">
<ele>917.240</ele>
<time>2013-06-26T14:55:12Z</time>
</trkpt>
<trkpt lat="45.00089686" lon="5.40853953">
<ele>920.120</ele>
<time>2013-06-26T14:55:27Z</time>
</trkpt>
<trkpt lat="45.00090282" lon="5.40849385">
<ele>920.600</ele>
<time>2013-06-26T14:55:31Z</time>
</trkpt>
<trkpt lat="45.00092578" lon="5.40834918">
<ele>922.040</ele>
<time>2013-06-26T14:55:41Z</time>
</trkpt>
<trkpt lat="45.00095109" lon="5.40822244">
<ele>923.960</ele>
<time>2013-06-26T14:55:55Z</time>
</trkpt>
<trkpt lat="45.00096166" lon="5.40820744">
<ele>923.960</ele>
<time>2013-06-26T14:55:57Z</time>
</trkpt>
<trkpt lat="45.00104321" lon="5.40815908">
<ele>925.410</ele>
<time>2013-06-26T14:56:08Z</time>
</trkpt>
<trkpt lat="45.00111597" lon="5.40820300">
<ele>925.890</ele>
<time>2013-06-26T14:56:14Z</time>
</trkpt>
<trkpt lat="45.00127154" lon="5.40833543">
<ele>926.850</ele>
<time>2013-06-26T14:56:26Z</time>
</trkpt>
<trkpt lat="45.00145963" lon="5.40832294">
<ele>929.250</ele>
<time>2013-06-26T14:56:38Z</time>
</trkpt>
<trkpt lat="45.00156959" lon="5.40826041">
<ele>931.650</ele>
<time>2013-06-26T14:56:48Z</time>
</trkpt>
<trkpt lat="45.00176271" lon="5.40816637">
<ele>934.060</ele>
<time>2013-06-26T14:57:03Z</time>
</trkpt>
<trkpt lat="45.00186925" lon="5.40805665">
<ele>936.460</ele>
<time>2013-06-26T14:57:16Z</time>
</trkpt>
<trkpt lat="45.00189180" lon="5.40798498">
<ele>938.380</ele>
<time>2013-06-26T14:57:27Z</time>
</trkpt>
<trkpt lat="45.00192038" lon="5.40791659">
<ele>939.350</ele>
<time>2013-06-26T14:57:38Z</time>
</trkpt>
<trkpt lat="45.00195516" lon="5.40789337">
<ele>942.230</ele>
<time>2013-06-26T14:57:50Z</time>
</trkpt>
<trkpt lat="45.00203320" lon="5.40780276">
<ele>944.150</ele>
<time>2013-06-26T14:58:02Z</time>
</trkpt>
<trkpt lat="45.00209229" lon="5.40774417">
<ele>946.560</ele>
<time>2013-06-26T14:58:15Z</time>
</trkpt>
<trkpt lat="45.00214401" lon="5.40768952">
<ele>948.000</ele>
<time>2013-06-26T14:58:26Z</time>
</trkpt>
<trkpt lat="45.00219740" lon="5.40765834">
<ele>950.400</ele>
<time>2013-06-26T14:58:38Z</time>
</trkpt>
<trkpt lat="45.00227460" lon="5.40759212">
<ele>952.800</ele>
<time>2013-06-26T14:58:50Z</time>
</trkpt>
<trkpt lat="45.00232791" lon="5.40752356">
<ele>955.210</ele>
<time>2013-06-26T14:59:03Z</time>
</trkpt>
<trkpt lat="45.00237468" lon="5.40745692">
<ele>957.130</ele>
<time>2013-06-26T14:59:16Z</time>
</trkpt>
<trkpt lat="45.00238448" lon="5.40735802">
<ele>959.050</ele>
<time>2013-06-26T14:59:28Z</time>
</trkpt>
<trkpt lat="45.00234450" lon="5.40722357">
<ele>960.490</ele>
<time>2013-06-26T14:59:40Z</time>
</trkpt>
<trkpt lat="45.00237124" lon="5.40707789">
<ele>962.420</ele>
<time>2013-06-26T14:59:52Z</time>
</trkpt>
<trkpt lat="45.00238054" lon="5.40698678">
<ele>964.340</ele>
<time>2013-06-26T15:00:02Z</time>
</trkpt>
<trkpt lat="45.00242589" lon="5.40687589">
<ele>967.220</ele>
<time>2013-06-26T15:00:13Z</time>
</trkpt>
<trkpt lat="45.00247124" lon="5.40678931">
<ele>969.150</ele>
<time>2013-06-26T15:00:26Z</time>
</trkpt>
<trkpt lat="45.00257458" lon="5.40671856">
<ele>970.590</ele>
<time>2013-06-26T15:00:40Z</time>
</trkpt>
<trkpt lat="45.00267198" lon="5.40665788">
<ele>972.990</ele>
<time>2013-06-26T15:00:53Z</time>
</trkpt>
<trkpt lat="45.00271984" lon="5.40658085">
<ele>974.910</ele>
<time>2013-06-26T15:01:06Z</time>
</trkpt>
<trkpt lat="45.00277969" lon="5.40650918">
<ele>976.840</ele>
<time>2013-06-26T15:01:18Z</time>
</trkpt>
<trkpt lat="45.00285882" lon="5.40648764">
<ele>979.720</ele>
<time>2013-06-26T15:01:31Z</time>
</trkpt>
<trkpt lat="45.00296636" lon="5.40647339">
<ele>981.640</ele>
<time>2013-06-26T15:01:45Z</time>
</trkpt>
<trkpt lat="45.00307825" lon="5.40641346">
<ele>983.570</ele>
<time>2013-06-26T15:01:59Z</time>
</trkpt>
<trkpt lat="45.00317381" lon="5.40637046">
<ele>986.450</ele>
<time>2013-06-26T15:02:13Z</time>
</trkpt>
<trkpt lat="45.00324212" lon="5.40629477">
<ele>988.370</ele>
<time>2013-06-26T15:02:28Z</time>
</trkpt>
<trkpt lat="45.00331856" lon="5.40620157">
<ele>991.260</ele>
<time>2013-06-26T15:02:44Z</time>
</trkpt>
<trkpt lat="45.00339048" lon="5.40616829">
<ele>993.180</ele>
<time>2013-06-26T15:02:58Z</time>
</trkpt>
<trkpt lat="45.00349911" lon="5.40614650">
<ele>996.060</ele>
<time>2013-06-26T15:03:16Z</time>
</trkpt>
<trkpt lat="45.00357321" lon="5.40610484">
<ele>998.470</ele>
<time>2013-06-26T15:03:31Z</time>
</trkpt>
<trkpt lat="45.00366826" lon="5.40607274">
<ele>1000.870</ele>
<time>2013-06-26T15:03:46Z</time>
</trkpt>
<trkpt lat="45.00375987" lon="5.40606109">
<ele>1001.830</ele>
<time>2013-06-26T15:03:58Z</time>
</trkpt>
<trkpt lat="45.00386733" lon="5.40606838">
<ele>1002.790</ele>
<time>2013-06-26T15:04:07Z</time>
</trkpt>
<trkpt lat="45.00392340" lon="5.40601297">
<ele>1004.720</ele>
<time>2013-06-26T15:04:19Z</time>
</trkpt>
<trkpt lat="45.00397730" lon="5.40590460">
<ele>1006.160</ele>
<time>2013-06-26T15:04:34Z</time>
</trkpt>
<trkpt lat="45.00401091" lon="5.40580762">
<ele>1008.560</ele>
<time>2013-06-26T15:04:48Z</time>
</trkpt>
<trkpt lat="45.00409389" lon="5.40570787">
<ele>1011.440</ele>
<time>2013-06-26T15:05:03Z</time>
</trkpt>
<trkpt lat="45.00414125" lon="5.40563478">
<ele>1014.330</ele>
<time>2013-06-26T15:05:15Z</time>
</trkpt>
<trkpt lat="45.00421124" lon="5.40553772">
<ele>1016.250</ele>
<time>2013-06-26T15:05:31Z</time>
</trkpt>
<trkpt lat="45.00427552" lon="5.40543823">
<ele>1018.650</ele>
<time>2013-06-26T15:05:46Z</time>
</trkpt>
<trkpt lat="45.00427309" lon="5.40536891">
<ele>1020.580</ele>
<time>2013-06-26T15:05:58Z</time>
</trkpt>
<trkpt lat="45.00428617" lon="5.40527646">
<ele>1022.500</ele>
<time>2013-06-26T15:06:10Z</time>
</trkpt>
<trkpt lat="45.00424703" lon="5.40519155">
<ele>1024.900</ele>
<time>2013-06-26T15:06:23Z</time>
</trkpt>
<trkpt lat="45.00418793" lon="5.40508392">
<ele>1025.860</ele>
<time>2013-06-26T15:06:37Z</time>
</trkpt>
<trkpt lat="45.00416715" lon="5.40506339">
<ele>1026.340</ele>
<time>2013-06-26T15:06:41Z</time>
</trkpt>
<trkpt lat="45.00411241" lon="5.40500220">
<ele>1027.790</ele>
<time>2013-06-26T15:06:54Z</time>
</trkpt>
<trkpt lat="45.00408919" lon="5.40496079">
<ele>1028.750</ele>
<time>2013-06-26T15:07:05Z</time>
</trkpt>
<trkpt lat="45.00405818" lon="5.40493791">
<ele>1029.230</ele>
<time>2013-06-26T15:07:12Z</time>
</trkpt>
<trkpt lat="45.00386900" lon="5.40483163">
<ele>1029.710</ele>
<time>2013-06-26T15:07:24Z</time>
</trkpt>
<trkpt lat="45.00379432" lon="5.40473037">
<ele>1029.710</ele>
<time>2013-06-26T15:07:32Z</time>
</trkpt>
<trkpt lat="45.00374872" lon="5.40458277">
<ele>1030.190</ele>
<time>2013-06-26T15:07:42Z</time>
</trkpt>
<trkpt lat="45.00374420" lon="5.40448487">
<ele>1031.630</ele>
<time>2013-06-26T15:07:54Z</time>
</trkpt>
<trkpt lat="45.00372307" lon="5.40446224">
<ele>1031.630</ele>
<time>2013-06-26T15:08:23Z</time>
</trkpt>
<trkpt lat="45.00373690" lon="5.40450473">
<ele>1032.590</ele>
<time>2013-06-26T15:09:03Z</time>
</trkpt>
<trkpt lat="45.00381804" lon="5.40448839">
<ele>1032.110</ele>
<time>2013-06-26T15:09:38Z</time>
</trkpt>
<trkpt lat="45.00375082" lon="5.40449451">
<ele>1032.590</ele>
<time>2013-06-26T15:10:17Z</time>
</trkpt>
<trkpt lat="45.00383967" lon="5.40452158">
<ele>1031.630</ele>
<time>2013-06-26T15:10:55Z</time>
</trkpt>
<trkpt lat="45.00379658" lon="5.40451496">
<ele>1030.190</ele>
<time>2013-06-26T15:11:25Z</time>
</trkpt>
<trkpt lat="45.00379524" lon="5.40448235">
<ele>1033.550</ele>
<time>2013-06-26T15:11:49Z</time>
</trkpt>
<trkpt lat="45.00380128" lon="5.40439962">
<ele>1032.590</ele>
<time>2013-06-26T15:12:23Z</time>
</trkpt>
<trkpt lat="45.00381888" lon="5.40448051">
<ele>1031.630</ele>
<time>2013-06-26T15:12:54Z</time>
</trkpt>
<trkpt lat="45.00380262" lon="5.40452041">
<ele>1032.110</ele>
<time>2013-06-26T15:13:25Z</time>
</trkpt>
<trkpt lat="45.00375593" lon="5.40448051">
<ele>1033.550</ele>
<time>2013-06-26T15:14:06Z</time>
</trkpt>
<trkpt lat="45.00375291" lon="5.40430751">
<ele>1035.480</ele>
<time>2013-06-26T15:14:21Z</time>
</trkpt>
<trkpt lat="45.00377546" lon="5.40419838">
<ele>1036.920</ele>
<time>2013-06-26T15:14:30Z</time>
</trkpt>
<trkpt lat="45.00378946" lon="5.40405261">
<ele>1039.320</ele>
<time>2013-06-26T15:14:43Z</time>
</trkpt>
<trkpt lat="45.00378745" lon="5.40402328">
<ele>1040.280</ele>
<time>2013-06-26T15:14:47Z</time>
</trkpt>
<trkpt lat="45.00379499" lon="5.40393015">
<ele>1042.210</ele>
<time>2013-06-26T15:15:01Z</time>
</trkpt>
<trkpt lat="45.00383288" lon="5.40381188">
<ele>1043.170</ele>
<time>2013-06-26T15:15:14Z</time>
</trkpt>
<trkpt lat="45.00388158" lon="5.40376042">
<ele>1045.570</ele>
<time>2013-06-26T15:15:24Z</time>
</trkpt>
<trkpt lat="45.00395073" lon="5.40362313">
<ele>1047.010</ele>
<time>2013-06-26T15:15:37Z</time>
</trkpt>
<trkpt lat="45.00398601" lon="5.40352799">
<ele>1048.450</ele>
<time>2013-06-26T15:15:50Z</time>
</trkpt>
<trkpt lat="45.00399280" lon="5.40352380">
<ele>1048.450</ele>
<time>2013-06-26T15:15:51Z</time>
</trkpt>
<trkpt lat="45.00401476" lon="5.40339648">
<ele>1047.970</ele>
<time>2013-06-26T15:16:05Z</time>
</trkpt>
<trkpt lat="45.00401426" lon="5.40338785">
<ele>1047.970</ele>
<time>2013-06-26T15:16:06Z</time>
</trkpt>
<trkpt lat="45.00402893" lon="5.40325197">
<ele>1046.530</ele>
<time>2013-06-26T15:16:11Z</time>
</trkpt>
<trkpt lat="45.00417444" lon="5.40305416">
<ele>1046.530</ele>
<time>2013-06-26T15:16:19Z</time>
</trkpt>
<trkpt lat="45.00423462" lon="5.40293765">
<ele>1049.900</ele>
<time>2013-06-26T15:16:31Z</time>
</trkpt>
<trkpt lat="45.00428667" lon="5.40286163">
<ele>1051.340</ele>
<time>2013-06-26T15:16:43Z</time>
</trkpt>
<trkpt lat="45.00434971" lon="5.40273355">
<ele>1053.740</ele>
<time>2013-06-26T15:16:59Z</time>
</trkpt>
<trkpt lat="45.00443310" lon="5.40261336">
<ele>1056.630</ele>
<time>2013-06-26T15:17:17Z</time>
</trkpt>
<trkpt lat="45.00448692" lon="5.40253214">
<ele>1059.030</ele>
<time>2013-06-26T15:17:30Z</time>
</trkpt>
<trkpt lat="45.00463477" lon="5.40244890">
<ele>1061.430</ele>
<time>2013-06-26T15:17:46Z</time>
</trkpt>
<trkpt lat="45.00475396" lon="5.40234128">
<ele>1063.840</ele>
<time>2013-06-26T15:18:02Z</time>
</trkpt>
<trkpt lat="45.00481314" lon="5.40223860">
<ele>1066.720</ele>
<time>2013-06-26T15:18:16Z</time>
</trkpt>
<trkpt lat="45.00482135" lon="5.40219518">
<ele>1067.200</ele>
<time>2013-06-26T15:18:21Z</time>
</trkpt>
<trkpt lat="45.00483912" lon="5.40208161">
<ele>1069.600</ele>
<time>2013-06-26T15:18:37Z</time>
</trkpt>
<trkpt lat="45.00486335" lon="5.40197281">
<ele>1071.530</ele>
<time>2013-06-26T15:18:51Z</time>
</trkpt>
<trkpt lat="45.00488606" lon="5.40188581">
<ele>1073.930</ele>
<time>2013-06-26T15:19:03Z</time>
</trkpt>
<trkpt lat="45.00489377" lon="5.40176804">
<ele>1076.810</ele>
<time>2013-06-26T15:19:18Z</time>
</trkpt>
<trkpt lat="45.00489931" lon="5.40168858">
<ele>1078.260</ele>
<time>2013-06-26T15:19:33Z</time>
</trkpt>
<trkpt lat="45.00490492" lon="5.40164047">
<ele>1078.740</ele>
<time>2013-06-26T15:19:51Z</time>
</trkpt>
<trkpt lat="45.00486536" lon="5.40161206">
<ele>1079.700</ele>
<time>2013-06-26T15:20:12Z</time>
</trkpt>
<trkpt lat="45.00488875" lon="5.40152354">
<ele>1083.060</ele>
<time>2013-06-26T15:20:27Z</time>
</trkpt>
<trkpt lat="45.00496351" lon="5.40143360">
<ele>1085.470</ele>
<time>2013-06-26T15:20:41Z</time>
</trkpt>
<trkpt lat="45.00507331" lon="5.40125800">
<ele>1087.870</ele>
<time>2013-06-26T15:20:57Z</time>
</trkpt>
<trkpt lat="45.00511120" lon="5.40118181">
<ele>1090.750</ele>
<time>2013-06-26T15:21:06Z</time>
</trkpt>
<trkpt lat="45.00519066" lon="5.40106866">
<ele>1093.160</ele>
<time>2013-06-26T15:21:23Z</time>
</trkpt>
<trkpt lat="45.00523869" lon="5.40099146">
<ele>1095.080</ele>
<time>2013-06-26T15:21:36Z</time>
</trkpt>
<trkpt lat="45.00523081" lon="5.40090336">
<ele>1097.960</ele>
<time>2013-06-26T15:21:50Z</time>
</trkpt>
<trkpt lat="45.00521447" lon="5.40076867">
<ele>1100.370</ele>
<time>2013-06-26T15:22:03Z</time>
</trkpt>
<trkpt lat="45.00518588" lon="5.40064688">
<ele>1102.290</ele>
<time>2013-06-26T15:22:17Z</time>
</trkpt>
<trkpt lat="45.00518136" lon="5.40053791">
<ele>1105.170</ele>
<time>2013-06-26T15:22:34Z</time>
</trkpt>
<trkpt lat="45.00516342" lon="5.40043021">
<ele>1106.610</ele>
<time>2013-06-26T15:22:44Z</time>
</trkpt>
<trkpt lat="45.00516702" lon="5.40040607">
<ele>1106.610</ele>
<time>2013-06-26T15:22:46Z</time>
</trkpt>
<trkpt lat="45.00522260" lon="5.40023482">
<ele>1109.500</ele>
<time>2013-06-26T15:23:03Z</time>
</trkpt>
<trkpt lat="45.00526115" lon="5.40019208">
<ele>1109.980</ele>
<time>2013-06-26T15:23:16Z</time>
</trkpt>
<trkpt lat="45.00524942" lon="5.40020146">
<ele>1110.460</ele>
<time>2013-06-26T15:23:50Z</time>
</trkpt>
<trkpt lat="45.00525076" lon="5.40019669">
<ele>1109.980</ele>
<time>2013-06-26T15:24:20Z</time>
</trkpt>
<trkpt lat="45.00526300" lon="5.40021529">
<ele>1109.980</ele>
<time>2013-06-26T15:24:50Z</time>
</trkpt>
<trkpt lat="45.00528856" lon="5.40013466">
<ele>1111.420</ele>
<time>2013-06-26T15:25:04Z</time>
</trkpt>
<trkpt lat="45.00531262" lon="5.39997893">
<ele>1114.310</ele>
<time>2013-06-26T15:25:18Z</time>
</trkpt>
<trkpt lat="45.00532284" lon="5.39992277">
<ele>1114.790</ele>
<time>2013-06-26T15:25:23Z</time>
</trkpt>
<trkpt lat="45.00532318" lon="5.39980006">
<ele>1117.190</ele>
<time>2013-06-26T15:25:35Z</time>
</trkpt>
<trkpt lat="45.00532603" lon="5.39970324">
<ele>1118.630</ele>
<time>2013-06-26T15:25:49Z</time>
</trkpt>
<trkpt lat="45.00534757" lon="5.39959964">
<ele>1121.030</ele>
<time>2013-06-26T15:26:05Z</time>
</trkpt>
<trkpt lat="45.00538470" lon="5.39951381">
<ele>1122.480</ele>
<time>2013-06-26T15:26:18Z</time>
</trkpt>
<trkpt lat="45.00542712" lon="5.39941290">
<ele>1125.840</ele>
<time>2013-06-26T15:26:32Z</time>
</trkpt>
<trkpt lat="45.00545461" lon="5.39930871">
<ele>1128.730</ele>
<time>2013-06-26T15:26:45Z</time>
</trkpt>
<trkpt lat="45.00547573" lon="5.39918943">
<ele>1130.650</ele>
<time>2013-06-26T15:26:59Z</time>
</trkpt>
<trkpt lat="45.00545519" lon="5.39905985">
<ele>1134.010</ele>
<time>2013-06-26T15:27:15Z</time>
</trkpt>
<trkpt lat="45.00545302" lon="5.39898969">
<ele>1134.970</ele>
<time>2013-06-26T15:27:25Z</time>
</trkpt>
<trkpt lat="45.00544061" lon="5.39885768">
<ele>1137.860</ele>
<time>2013-06-26T15:27:40Z</time>
</trkpt>
<trkpt lat="45.00543919" lon="5.39876648">
<ele>1140.740</ele>
<time>2013-06-26T15:27:54Z</time>
</trkpt>
<trkpt lat="45.00543575" lon="5.39874494">
<ele>1140.740</ele>
<time>2013-06-26T15:28:12Z</time>
</trkpt>
<trkpt lat="45.00545587" lon="5.39868526">
<ele>1143.630</ele>
<time>2013-06-26T15:28:25Z</time>
</trkpt>
<trkpt lat="45.00550607" lon="5.39860312">
<ele>1146.990</ele>
<time>2013-06-26T15:28:39Z</time>
</trkpt>
<trkpt lat="45.00552946" lon="5.39851083">
<ele>1149.870</ele>
<time>2013-06-26T15:28:52Z</time>
</trkpt>
<trkpt lat="45.00555628" lon="5.39845510">
<ele>1152.760</ele>
<time>2013-06-26T15:29:05Z</time>
</trkpt>
<trkpt lat="45.00556734" lon="5.39843045">
<ele>1152.760</ele>
<time>2013-06-26T15:29:21Z</time>
</trkpt>
<trkpt lat="45.00557154" lon="5.39833079">
<ele>1155.640</ele>
<time>2013-06-26T15:29:34Z</time>
</trkpt>
<trkpt lat="45.00559920" lon="5.39828427">
<ele>1157.080</ele>
<time>2013-06-26T15:29:41Z</time>
</trkpt>
<trkpt lat="45.00560733" lon="5.39819534">
<ele>1160.450</ele>
<time>2013-06-26T15:29:53Z</time>
</trkpt>
<trkpt lat="45.00561571" lon="5.39806014">
<ele>1162.370</ele>
<time>2013-06-26T15:30:08Z</time>
</trkpt>
<trkpt lat="45.00564865" lon="5.39789971">
<ele>1164.290</ele>
<time>2013-06-26T15:30:25Z</time>
</trkpt>
<trkpt lat="45.00568402" lon="5.39780935">
<ele>1166.700</ele>
<time>2013-06-26T15:30:36Z</time>
</trkpt>
<trkpt lat="45.00571528" lon="5.39768077">
<ele>1168.140</ele>
<time>2013-06-26T15:30:49Z</time>
</trkpt>
<trkpt lat="45.00572953" lon="5.39751263">
<ele>1170.060</ele>
<time>2013-06-26T15:31:06Z</time>
</trkpt>
<trkpt lat="45.00569358" lon="5.39751439">
<ele>1171.500</ele>
<time>2013-06-26T15:31:24Z</time>
</trkpt>
<trkpt lat="45.00568645" lon="5.39750962">
<ele>1171.980</ele>
<time>2013-06-26T15:31:53Z</time>
</trkpt>
<trkpt lat="45.00568436" lon="5.39751733">
<ele>1170.060</ele>
<time>2013-06-26T15:32:28Z</time>
</trkpt>
<trkpt lat="45.00568754" lon="5.39752211">
<ele>1171.500</ele>
<time>2013-06-26T15:32:54Z</time>
</trkpt>
<trkpt lat="45.00569894" lon="5.39748221">
<ele>1170.060</ele>
<time>2013-06-26T15:33:16Z</time>
</trkpt>
<trkpt lat="45.00569567" lon="5.39743460">
<ele>1170.060</ele>
<time>2013-06-26T15:33:23Z</time>
</trkpt>
<trkpt lat="45.00563365" lon="5.39740836">
<ele>1169.580</ele>
<time>2013-06-26T15:33:28Z</time>
</trkpt>
<trkpt lat="45.00554480" lon="5.39733226">
<ele>1170.060</ele>
<time>2013-06-26T15:33:35Z</time>
</trkpt>
<trkpt lat="45.00550683" lon="5.39728993">
<ele>1169.580</ele>
<time>2013-06-26T15:33:38Z</time>
</trkpt>
<trkpt lat="45.00544145" lon="5.39725514">
<ele>1169.100</ele>
<time>2013-06-26T15:33:43Z</time>
</trkpt>
<trkpt lat="45.00534145" lon="5.39708004">
<ele>1165.260</ele>
<time>2013-06-26T15:33:49Z</time>
</trkpt>
<trkpt lat="45.00530046" lon="5.39699287">
<ele>1163.330</ele>
<time>2013-06-26T15:33:51Z</time>
</trkpt>
<trkpt lat="45.00509385" lon="5.39673714">
<ele>1158.530</ele>
<time>2013-06-26T15:33:57Z</time>
</trkpt>
<trkpt lat="45.00502956" lon="5.39670227">
<ele>1158.050</ele>
<time>2013-06-26T15:33:59Z</time>
</trkpt>
<trkpt lat="45.00473946" lon="5.39658409">
<ele>1157.080</ele>
<time>2013-06-26T15:34:11Z</time>
</trkpt>
<trkpt lat="45.00471624" lon="5.39657528">
<ele>1157.560</ele>
<time>2013-06-26T15:34:14Z</time>
</trkpt>
<trkpt lat="45.00475640" lon="5.39655165">
<ele>1157.080</ele>
<time>2013-06-26T15:34:22Z</time>
</trkpt>
<trkpt lat="45.00471834" lon="5.39651175">
<ele>1156.600</ele>
<time>2013-06-26T15:34:25Z</time>
</trkpt>
<trkpt lat="45.00468582" lon="5.39642693">
<ele>1155.640</ele>
<time>2013-06-26T15:34:33Z</time>
</trkpt>
<trkpt lat="45.00465782" lon="5.39641276">
<ele>1155.640</ele>
<time>2013-06-26T15:34:39Z</time>
</trkpt>
<trkpt lat="45.00462471" lon="5.39637580">
<ele>1155.160</ele>
<time>2013-06-26T15:34:43Z</time>
</trkpt>
<trkpt lat="45.00448315" lon="5.39607799">
<ele>1153.240</ele>
<time>2013-06-26T15:34:52Z</time>
</trkpt>
<trkpt lat="45.00438826" lon="5.39585444">
<ele>1150.350</ele>
<time>2013-06-26T15:34:56Z</time>
</trkpt>
<trkpt lat="45.00431894" lon="5.39570155">
<ele>1148.430</ele>
<time>2013-06-26T15:34:58Z</time>
</trkpt>
<trkpt lat="45.00419363" lon="5.39553794">
<ele>1146.030</ele>
<time>2013-06-26T15:35:01Z</time>
</trkpt>
<trkpt lat="45.00404452" lon="5.39529269">
<ele>1144.110</ele>
<time>2013-06-26T15:35:05Z</time>
</trkpt>
<trkpt lat="45.00399607" lon="5.39524751">
<ele>1143.140</ele>
<time>2013-06-26T15:35:06Z</time>
</trkpt>
<trkpt lat="45.00392818" lon="5.39514877">
<ele>1141.700</ele>
<time>2013-06-26T15:35:08Z</time>
</trkpt>
<trkpt lat="45.00371813" lon="5.39486454">
<ele>1140.260</ele>
<time>2013-06-26T15:35:14Z</time>
</trkpt>
<trkpt lat="45.00368376" lon="5.39484769">
<ele>1139.780</ele>
<time>2013-06-26T15:35:15Z</time>
</trkpt>
<trkpt lat="45.00355879" lon="5.39478164">
<ele>1139.300</ele>
<time>2013-06-26T15:35:19Z</time>
</trkpt>
<trkpt lat="45.00324187" lon="5.39453161">
<ele>1138.340</ele>
<time>2013-06-26T15:35:29Z</time>
</trkpt>
<trkpt lat="45.00310139" lon="5.39418753">
<ele>1140.260</ele>
<time>2013-06-26T15:35:42Z</time>
</trkpt>
<trkpt lat="45.00306032" lon="5.39404982">
<ele>1140.260</ele>
<time>2013-06-26T15:35:47Z</time>
</trkpt>
<trkpt lat="45.00296225" lon="5.39393339">
<ele>1140.740</ele>
<time>2013-06-26T15:35:53Z</time>
</trkpt>
<trkpt lat="45.00292914" lon="5.39387304">
<ele>1141.220</ele>
<time>2013-06-26T15:35:56Z</time>
</trkpt>
<trkpt lat="45.00278623" lon="5.39356761">
<ele>1140.740</ele>
<time>2013-06-26T15:36:08Z</time>
</trkpt>
<trkpt lat="45.00259160" lon="5.39331942">
<ele>1137.380</ele>
<time>2013-06-26T15:36:17Z</time>
</trkpt>
<trkpt lat="45.00248205" lon="5.39317626">
<ele>1135.450</ele>
<time>2013-06-26T15:36:24Z</time>
</trkpt>
<trkpt lat="45.00242975" lon="5.39312705">
<ele>1135.450</ele>
<time>2013-06-26T15:36:37Z</time>
</trkpt>
<trkpt lat="45.00259864" lon="5.39293771">
<ele>1138.340</ele>
<time>2013-06-26T15:36:50Z</time>
</trkpt>
<trkpt lat="45.00265111" lon="5.39283344">
<ele>1139.780</ele>
<time>2013-06-26T15:36:56Z</time>
</trkpt>
<trkpt lat="45.00281297" lon="5.39258760">
<ele>1141.700</ele>
<time>2013-06-26T15:37:12Z</time>
</trkpt>
<trkpt lat="45.00298220" lon="5.39271902">
<ele>1144.110</ele>
<time>2013-06-26T15:37:26Z</time>
</trkpt>
<trkpt lat="45.00307876" lon="5.39278231">
<ele>1146.030</ele>
<time>2013-06-26T15:37:35Z</time>
</trkpt>
<trkpt lat="45.00314414" lon="5.39277543">
<ele>1146.990</ele>
<time>2013-06-26T15:37:40Z</time>
</trkpt>
<trkpt lat="45.00319175" lon="5.39258122">
<ele>1149.870</ele>
<time>2013-06-26T15:37:52Z</time>
</trkpt>
<trkpt lat="45.00315461" lon="5.39241895">
<ele>1151.320</ele>
<time>2013-06-26T15:38:00Z</time>
</trkpt>
<trkpt lat="45.00313919" lon="5.39230035">
<ele>1152.280</ele>
<time>2013-06-26T15:38:06Z</time>
</trkpt>
<trkpt lat="45.00307976" lon="5.39193733">
<ele>1153.720</ele>
<time>2013-06-26T15:38:21Z</time>
</trkpt>
<trkpt lat="45.00307457" lon="5.39161529">
<ele>1154.680</ele>
<time>2013-06-26T15:38:34Z</time>
</trkpt>
<trkpt lat="45.00311689" lon="5.39142829">
<ele>1156.120</ele>
<time>2013-06-26T15:38:44Z</time>
</trkpt>
<trkpt lat="45.00314447" lon="5.39136786">
<ele>1157.080</ele>
<time>2013-06-26T15:38:48Z</time>
</trkpt>
<trkpt lat="45.00332636" lon="5.39122612">
<ele>1160.450</ele>
<time>2013-06-26T15:39:03Z</time>
</trkpt>
<trkpt lat="45.00351797" lon="5.39116217">
<ele>1162.850</ele>
<time>2013-06-26T15:39:17Z</time>
</trkpt>
<trkpt lat="45.00374537" lon="5.39110199">
<ele>1165.740</ele>
<time>2013-06-26T15:39:34Z</time>
</trkpt>
<trkpt lat="45.00399138" lon="5.39099528">
<ele>1168.620</ele>
<time>2013-06-26T15:39:51Z</time>
</trkpt>
<trkpt lat="45.00420034" lon="5.39083796">
<ele>1171.500</ele>
<time>2013-06-26T15:40:06Z</time>
</trkpt>
<trkpt lat="45.00436328" lon="5.39050201">
<ele>1174.390</ele>
<time>2013-06-26T15:40:25Z</time>
</trkpt>
<trkpt lat="45.00442808" lon="5.39026950">
<ele>1176.310</ele>
<time>2013-06-26T15:40:36Z</time>
</trkpt>
<trkpt lat="45.00447183" lon="5.38998317">
<ele>1179.190</ele>
<time>2013-06-26T15:40:50Z</time>
</trkpt>
<trkpt lat="45.00449815" lon="5.38964546">
<ele>1182.560</ele>
<time>2013-06-26T15:41:06Z</time>
</trkpt>
<trkpt lat="45.00447418" lon="5.38933231">
<ele>1184.960</ele>
<time>2013-06-26T15:41:21Z</time>
</trkpt>
<trkpt lat="45.00451583" lon="5.38909460">
<ele>1187.370</ele>
<time>2013-06-26T15:41:32Z</time>
</trkpt>
<trkpt lat="45.00454953" lon="5.38901883">
<ele>1188.330</ele>
<time>2013-06-26T15:41:36Z</time>
</trkpt>
<trkpt lat="45.00463268" lon="5.38869848">
<ele>1191.690</ele>
<time>2013-06-26T15:41:52Z</time>
</trkpt>
<trkpt lat="45.00464668" lon="5.38864592">
<ele>1192.650</ele>
<time>2013-06-26T15:41:55Z</time>
</trkpt>
<trkpt lat="45.00475137" lon="5.38857124">
<ele>1194.090</ele>
<time>2013-06-26T15:42:04Z</time>
</trkpt>
<trkpt lat="45.00493451" lon="5.38867752">
<ele>1197.460</ele>
<time>2013-06-26T15:42:18Z</time>
</trkpt>
<trkpt lat="45.00510885" lon="5.38875069">
<ele>1200.340</ele>
<time>2013-06-26T15:42:31Z</time>
</trkpt>
<trkpt lat="45.00518890" lon="5.38892412">
<ele>1203.230</ele>
<time>2013-06-26T15:42:43Z</time>
</trkpt>
<trkpt lat="45.00536023" lon="5.38919267">
<ele>1206.590</ele>
<time>2013-06-26T15:43:00Z</time>
</trkpt>
<trkpt lat="45.00555460" lon="5.38920759">
<ele>1208.510</ele>
<time>2013-06-26T15:43:15Z</time>
</trkpt>
<trkpt lat="45.00564932" lon="5.38914012">
<ele>1209.480</ele>
<time>2013-06-26T15:43:24Z</time>
</trkpt>
<trkpt lat="45.00566516" lon="5.38903761">
<ele>1209.960</ele>
<time>2013-06-26T15:43:30Z</time>
</trkpt>
<trkpt lat="45.00563289" lon="5.38892135">
<ele>1210.440</ele>
<time>2013-06-26T15:43:36Z</time>
</trkpt>
<trkpt lat="45.00560045" lon="5.38883703">
<ele>1211.400</ele>
<time>2013-06-26T15:43:41Z</time>
</trkpt>
<trkpt lat="45.00540105" lon="5.38853402">
<ele>1213.320</ele>
<time>2013-06-26T15:43:59Z</time>
</trkpt>
<trkpt lat="45.00528479" lon="5.38828944">
<ele>1216.210</ele>
<time>2013-06-26T15:44:12Z</time>
</trkpt>
<trkpt lat="45.00508069" lon="5.38800831">
<ele>1217.650</ele>
<time>2013-06-26T15:44:28Z</time>
</trkpt>
<trkpt lat="45.00488464" lon="5.38764227">
<ele>1221.010</ele>
<time>2013-06-26T15:44:47Z</time>
</trkpt>
<trkpt lat="45.00474902" lon="5.38729509">
<ele>1224.380</ele>
<time>2013-06-26T15:45:03Z</time>
</trkpt>
<trkpt lat="45.00462681" lon="5.38693962">
<ele>1226.300</ele>
<time>2013-06-26T15:45:19Z</time>
</trkpt>
<trkpt lat="45.00444274" lon="5.38667919">
<ele>1228.220</ele>
<time>2013-06-26T15:45:34Z</time>
</trkpt>
<trkpt lat="45.00425901" lon="5.38650602">
<ele>1229.660</ele>
<time>2013-06-26T15:45:46Z</time>
</trkpt>
<trkpt lat="45.00405030" lon="5.38630351">
<ele>1232.550</ele>
<time>2013-06-26T15:45:59Z</time>
</trkpt>
<trkpt lat="45.00387068" lon="5.38598970">
<ele>1234.950</ele>
<time>2013-06-26T15:46:14Z</time>
</trkpt>
<trkpt lat="45.00367370" lon="5.38577881">
<ele>1236.870</ele>
<time>2013-06-26T15:46:27Z</time>
</trkpt>
<trkpt lat="45.00345343" lon="5.38556675">
<ele>1239.760</ele>
<time>2013-06-26T15:46:40Z</time>
</trkpt>
<trkpt lat="45.00325260" lon="5.38523516">
<ele>1242.640</ele>
<time>2013-06-26T15:46:56Z</time>
</trkpt>
<trkpt lat="45.00315838" lon="5.38492067">
<ele>1243.600</ele>
<time>2013-06-26T15:47:09Z</time>
</trkpt>
<trkpt lat="45.00306392" lon="5.38476728">
<ele>1246.970</ele>
<time>2013-06-26T15:47:17Z</time>
</trkpt>
<trkpt lat="45.00304992" lon="5.38475538">
<ele>1247.450</ele>
<time>2013-06-26T15:47:18Z</time>
</trkpt>
<trkpt lat="45.00287030" lon="5.38450216">
<ele>1249.370</ele>
<time>2013-06-26T15:47:31Z</time>
</trkpt>
<trkpt lat="45.00284515" lon="5.38412455">
<ele>1251.290</ele>
<time>2013-06-26T15:47:45Z</time>
</trkpt>
<trkpt lat="45.00284549" lon="5.38377352">
<ele>1253.700</ele>
<time>2013-06-26T15:48:00Z</time>
</trkpt>
<trkpt lat="45.00278480" lon="5.38349105">
<ele>1255.620</ele>
<time>2013-06-26T15:48:13Z</time>
</trkpt>
<trkpt lat="45.00278740" lon="5.38344897">
<ele>1255.620</ele>
<time>2013-06-26T15:48:30Z</time>
</trkpt>
<trkpt lat="45.00283090" lon="5.38341846">
<ele>1255.620</ele>
<time>2013-06-26T15:48:49Z</time>
</trkpt>
<trkpt lat="45.00273476" lon="5.38343221">
<ele>1256.580</ele>
<time>2013-06-26T15:49:00Z</time>
</trkpt>
<trkpt lat="45.00275563" lon="5.38343699">
<ele>1256.580</ele>
<time>2013-06-26T15:49:24Z</time>
</trkpt>
<trkpt lat="45.00273895" lon="5.38343322">
<ele>1256.100</ele>
<time>2013-06-26T15:49:49Z</time>
</trkpt>
<trkpt lat="45.00276871" lon="5.38343791">
<ele>1256.100</ele>
<time>2013-06-26T15:50:24Z</time>
</trkpt>
<trkpt lat="45.00274792" lon="5.38345744">
<ele>1255.620</ele>
<time>2013-06-26T15:50:55Z</time>
</trkpt>
<trkpt lat="45.00273510" lon="5.38345300">
<ele>1256.100</ele>
<time>2013-06-26T15:51:26Z</time>
</trkpt>
<trkpt lat="45.00270710" lon="5.38345920">
<ele>1256.100</ele>
<time>2013-06-26T15:51:54Z</time>
</trkpt>
<trkpt lat="45.00271113" lon="5.38342114">
<ele>1255.620</ele>
<time>2013-06-26T15:52:24Z</time>
</trkpt>
<trkpt lat="45.00269973" lon="5.38343313">
<ele>1256.100</ele>
<time>2013-06-26T15:52:50Z</time>
</trkpt>
<trkpt lat="45.00272370" lon="5.38341980">
<ele>1256.100</ele>
<time>2013-06-26T15:53:15Z</time>
</trkpt>
<trkpt lat="45.00275077" lon="5.38339508">
<ele>1257.060</ele>
<time>2013-06-26T15:53:32Z</time>
</trkpt>
<trkpt lat="45.00269311" lon="5.38330204">
<ele>1258.980</ele>
<time>2013-06-26T15:53:45Z</time>
</trkpt>
<trkpt lat="45.00273678" lon="5.38318561">
<ele>1261.390</ele>
<time>2013-06-26T15:53:59Z</time>
</trkpt>
<trkpt lat="45.00281104" lon="5.38305947">
<ele>1264.270</ele>
<time>2013-06-26T15:54:14Z</time>
</trkpt>
<trkpt lat="45.00284105" lon="5.38301127">
<ele>1265.230</ele>
<time>2013-06-26T15:54:25Z</time>
</trkpt>
<trkpt lat="45.00284557" lon="5.38299442">
<ele>1265.230</ele>
<time>2013-06-26T15:54:26Z</time>
</trkpt>
<trkpt lat="45.00288321" lon="5.38291396">
<ele>1266.190</ele>
<time>2013-06-26T15:54:32Z</time>
</trkpt>
<trkpt lat="45.00296242" lon="5.38276308">
<ele>1267.640</ele>
<time>2013-06-26T15:54:43Z</time>
</trkpt>
<trkpt lat="45.00297926" lon="5.38273626">
<ele>1268.120</ele>
<time>2013-06-26T15:54:46Z</time>
</trkpt>
<trkpt lat="45.00303333" lon="5.38257902">
<ele>1270.520</ele>
<time>2013-06-26T15:54:58Z</time>
</trkpt>
<trkpt lat="45.00304230" lon="5.38254482">
<ele>1270.520</ele>
<time>2013-06-26T15:55:00Z</time>
</trkpt>
<trkpt lat="45.00309468" lon="5.38229185">
<ele>1272.440</ele>
<time>2013-06-26T15:55:13Z</time>
</trkpt>
<trkpt lat="45.00323047" lon="5.38212421">
<ele>1275.330</ele>
<time>2013-06-26T15:55:28Z</time>
</trkpt>
<trkpt lat="45.00325117" lon="5.38211273">
<ele>1275.330</ele>
<time>2013-06-26T15:55:30Z</time>
</trkpt>
<trkpt lat="45.00335955" lon="5.38194216">
<ele>1277.730</ele>
<time>2013-06-26T15:55:44Z</time>
</trkpt>
<trkpt lat="45.00347162" lon="5.38177754">
<ele>1280.130</ele>
<time>2013-06-26T15:55:58Z</time>
</trkpt>
<trkpt lat="45.00349550" lon="5.38172037">
<ele>1280.610</ele>
<time>2013-06-26T15:56:02Z</time>
</trkpt>
<trkpt lat="45.00353582" lon="5.38156195">
<ele>1282.540</ele>
<time>2013-06-26T15:56:12Z</time>
</trkpt>
<trkpt lat="45.00354630" lon="5.38147663">
<ele>1283.980</ele>
<time>2013-06-26T15:56:15Z</time>
</trkpt>
<trkpt lat="45.00361889" lon="5.38134537">
<ele>1283.500</ele>
<time>2013-06-26T15:56:25Z</time>
</trkpt>
<trkpt lat="45.00366407" lon="5.38121796">
<ele>1284.460</ele>
<time>2013-06-26T15:56:38Z</time>
</trkpt>
<trkpt lat="45.00371176" lon="5.38097723">
<ele>1286.860</ele>
<time>2013-06-26T15:56:52Z</time>
</trkpt>
<trkpt lat="45.00377395" lon="5.38086274">
<ele>1287.340</ele>
<time>2013-06-26T15:56:59Z</time>
</trkpt>
<trkpt lat="45.00383522" lon="5.38068881">
<ele>1288.780</ele>
<time>2013-06-26T15:57:12Z</time>
</trkpt>
<trkpt lat="45.00384847" lon="5.38055621">
<ele>1289.750</ele>
<time>2013-06-26T15:57:24Z</time>
</trkpt>
<trkpt lat="45.00385794" lon="5.38050533">
<ele>1289.270</ele>
<time>2013-06-26T15:57:39Z</time>
</trkpt>
<trkpt lat="45.00384914" lon="5.38048212">
<ele>1289.750</ele>
<time>2013-06-26T15:57:49Z</time>
</trkpt>
<trkpt lat="45.00383397" lon="5.38033904">
<ele>1287.340</ele>
<time>2013-06-26T15:57:54Z</time>
</trkpt>
<trkpt lat="45.00379491" lon="5.38025036">
<ele>1285.900</ele>
<time>2013-06-26T15:57:57Z</time>
</trkpt>
<trkpt lat="45.00371696" lon="5.38015589">
<ele>1284.940</ele>
<time>2013-06-26T15:58:00Z</time>
</trkpt>
<trkpt lat="45.00363406" lon="5.37988499">
<ele>1280.610</ele>
<time>2013-06-26T15:58:05Z</time>
</trkpt>
<trkpt lat="45.00358846" lon="5.37978709">
<ele>1280.130</ele>
<time>2013-06-26T15:58:07Z</time>
</trkpt>
<trkpt lat="45.00347086" lon="5.37952314">
<ele>1277.250</ele>
<time>2013-06-26T15:58:12Z</time>
</trkpt>
<trkpt lat="45.00330750" lon="5.37925308">
<ele>1275.810</ele>
<time>2013-06-26T15:58:21Z</time>
</trkpt>
<trkpt lat="45.00328470" lon="5.37912752">
<ele>1274.360</ele>
<time>2013-06-26T15:58:25Z</time>
</trkpt>
<trkpt lat="45.00325796" lon="5.37896834">
<ele>1271.000</ele>
<time>2013-06-26T15:58:32Z</time>
</trkpt>
<trkpt lat="45.00319661" lon="5.37881345">
<ele>1270.040</ele>
<time>2013-06-26T15:58:38Z</time>
</trkpt>
<trkpt lat="45.00316568" lon="5.37872259">
<ele>1270.520</ele>
<time>2013-06-26T15:58:47Z</time>
</trkpt>
<trkpt lat="45.00304925" lon="5.37851513">
<ele>1272.440</ele>
<time>2013-06-26T15:59:00Z</time>
</trkpt>
<trkpt lat="45.00286670" lon="5.37821959">
<ele>1274.360</ele>
<time>2013-06-26T15:59:15Z</time>
</trkpt>
<trkpt lat="45.00276142" lon="5.37804675">
<ele>1274.850</ele>
<time>2013-06-26T15:59:24Z</time>
</trkpt>
<trkpt lat="45.00275496" lon="5.37802991">
<ele>1274.850</ele>
<time>2013-06-26T15:59:25Z</time>
</trkpt>
<trkpt lat="45.00273133" lon="5.37796159">
<ele>1275.330</ele>
<time>2013-06-26T15:59:29Z</time>
</trkpt>
<trkpt lat="45.00266327" lon="5.37784425">
<ele>1276.290</ele>
<time>2013-06-26T15:59:36Z</time>
</trkpt>
<trkpt lat="45.00262471" lon="5.37778918">
<ele>1276.770</ele>
<time>2013-06-26T15:59:40Z</time>
</trkpt>
<trkpt lat="45.00251055" lon="5.37747704">
<ele>1278.210</ele>
<time>2013-06-26T15:59:53Z</time>
</trkpt>
<trkpt lat="45.00250166" lon="5.37739104">
<ele>1279.170</ele>
<time>2013-06-26T15:59:57Z</time>
</trkpt>
<trkpt lat="45.00254206" lon="5.37729146">
<ele>1278.690</ele>
<time>2013-06-26T16:00:02Z</time>
</trkpt>
<trkpt lat="45.00281448" lon="5.37709558">
<ele>1277.250</ele>
<time>2013-06-26T16:00:13Z</time>
</trkpt>
<trkpt lat="45.00287374" lon="5.37703221">
<ele>1278.690</ele>
<time>2013-06-26T16:00:23Z</time>
</trkpt>
<trkpt lat="45.00296175" lon="5.37689583">
<ele>1279.170</ele>
<time>2013-06-26T16:00:37Z</time>
</trkpt>
<trkpt lat="45.00309904" lon="5.37670548">
<ele>1280.130</ele>
<time>2013-06-26T16:00:50Z</time>
</trkpt>
<trkpt lat="45.00328453" lon="5.37651630">
<ele>1276.290</ele>
<time>2013-06-26T16:00:57Z</time>
</trkpt>
<trkpt lat="45.00340129" lon="5.37635780">
<ele>1271.960</ele>
<time>2013-06-26T16:01:00Z</time>
</trkpt>
<trkpt lat="45.00343901" lon="5.37628815">
<ele>1270.520</ele>
<time>2013-06-26T16:01:01Z</time>
</trkpt>
<trkpt lat="45.00358134" lon="5.37596528">
<ele>1265.230</ele>
<time>2013-06-26T16:01:05Z</time>
</trkpt>
<trkpt lat="45.00361956" lon="5.37587693">
<ele>1263.310</ele>
<time>2013-06-26T16:01:06Z</time>
</trkpt>
<trkpt lat="45.00380849" lon="5.37561910">
<ele>1257.540</ele>
<time>2013-06-26T16:01:10Z</time>
</trkpt>
<trkpt lat="45.00387906" lon="5.37557711">
<ele>1256.580</ele>
<time>2013-06-26T16:01:11Z</time>
</trkpt>
<trkpt lat="45.00414636" lon="5.37536974">
<ele>1251.290</ele>
<time>2013-06-26T16:01:16Z</time>
</trkpt>
<trkpt lat="45.00419481" lon="5.37519699">
<ele>1250.330</ele>
<time>2013-06-26T16:01:18Z</time>
</trkpt>
<trkpt lat="45.00435708" lon="5.37473766">
<ele>1245.530</ele>
<time>2013-06-26T16:01:23Z</time>
</trkpt>
<trkpt lat="45.00441584" lon="5.37459441">
<ele>1244.080</ele>
<time>2013-06-26T16:01:25Z</time>
</trkpt>
<trkpt lat="45.00449061" lon="5.37429476">
<ele>1239.280</ele>
<time>2013-06-26T16:01:29Z</time>
</trkpt>
<trkpt lat="45.00452296" lon="5.37409318">
<ele>1236.390</ele>
<time>2013-06-26T16:01:31Z</time>
</trkpt>
<trkpt lat="45.00453360" lon="5.37380970">
<ele>1233.030</ele>
<time>2013-06-26T16:01:35Z</time>
</trkpt>
<trkpt lat="45.00455624" lon="5.37365380">
<ele>1233.030</ele>
<time>2013-06-26T16:01:46Z</time>
</trkpt>
<trkpt lat="45.00452287" lon="5.37354450">
<ele>1233.510</ele>
<time>2013-06-26T16:02:09Z</time>
</trkpt>
<trkpt lat="45.00455297" lon="5.37350737">
<ele>1232.550</ele>
<time>2013-06-26T16:02:32Z</time>
</trkpt>
<trkpt lat="45.00452287" lon="5.37346277">
<ele>1233.030</ele>
<time>2013-06-26T16:03:03Z</time>
</trkpt>
<trkpt lat="45.00456763" lon="5.37343201">
<ele>1233.510</ele>
<time>2013-06-26T16:03:31Z</time>
</trkpt>
<trkpt lat="45.00456671" lon="5.37340620">
<ele>1233.030</ele>
<time>2013-06-26T16:04:07Z</time>
</trkpt>
<trkpt lat="45.00457350" lon="5.37339010">
<ele>1234.470</ele>
<time>2013-06-26T16:04:42Z</time>
</trkpt>
<trkpt lat="45.00466109" lon="5.37339304">
<ele>1234.950</ele>
<time>2013-06-26T16:05:16Z</time>
</trkpt>
<trkpt lat="45.00462002" lon="5.37339320">
<ele>1235.910</ele>
<time>2013-06-26T16:05:21Z</time>
</trkpt>
<trkpt lat="45.00456302" lon="5.37334165">
<ele>1233.510</ele>
<time>2013-06-26T16:05:26Z</time>
</trkpt>
<trkpt lat="45.00445364" lon="5.37316840">
<ele>1228.220</ele>
<time>2013-06-26T16:05:29Z</time>
</trkpt>
<trkpt lat="45.00441533" lon="5.37307804">
<ele>1227.260</ele>
<time>2013-06-26T16:05:30Z</time>
</trkpt>
<trkpt lat="45.00440050" lon="5.37284394">
<ele>1225.340</ele>
<time>2013-06-26T16:05:33Z</time>
</trkpt>
<trkpt lat="45.00440327" lon="5.37269910">
<ele>1224.860</ele>
<time>2013-06-26T16:05:35Z</time>
</trkpt>
<trkpt lat="45.00442170" lon="5.37251352">
<ele>1224.860</ele>
<time>2013-06-26T16:05:38Z</time>
</trkpt>
<trkpt lat="45.00445054" lon="5.37238411">
<ele>1223.900</ele>
<time>2013-06-26T16:05:40Z</time>
</trkpt>
<trkpt lat="45.00446864" lon="5.37211354">
<ele>1219.570</ele>
<time>2013-06-26T16:05:45Z</time>
</trkpt>
<trkpt lat="45.00446672" lon="5.37200675">
<ele>1218.130</ele>
<time>2013-06-26T16:05:47Z</time>
</trkpt>
<trkpt lat="45.00447158" lon="5.37156092">
<ele>1214.760</ele>
<time>2013-06-26T16:05:53Z</time>
</trkpt>
<trkpt lat="45.00431383" lon="5.37114300">
<ele>1216.210</ele>
<time>2013-06-26T16:06:01Z</time>
</trkpt>
<trkpt lat="45.00408509" lon="5.37094837">
<ele>1216.690</ele>
<time>2013-06-26T16:06:12Z</time>
</trkpt>
<trkpt lat="45.00380513" lon="5.37080688">
<ele>1216.210</ele>
<time>2013-06-26T16:06:27Z</time>
</trkpt>
<trkpt lat="45.00377060" lon="5.37077704">
<ele>1215.720</ele>
<time>2013-06-26T16:06:28Z</time>
</trkpt>
<trkpt lat="45.00368854" lon="5.37072005">
<ele>1215.240</ele>
<time>2013-06-26T16:06:30Z</time>
</trkpt>
<trkpt lat="45.00359885" lon="5.37063975">
<ele>1213.320</ele>
<time>2013-06-26T16:06:32Z</time>
</trkpt>
<trkpt lat="45.00323768" lon="5.37041335">
<ele>1209.480</ele>
<time>2013-06-26T16:06:38Z</time>
</trkpt>
<trkpt lat="45.00301497" lon="5.37029944">
<ele>1208.030</ele>
<time>2013-06-26T16:06:41Z</time>
</trkpt>
<trkpt lat="45.00268313" lon="5.37021076">
<ele>1206.110</ele>
<time>2013-06-26T16:06:45Z</time>
</trkpt>
<trkpt lat="45.00219690" lon="5.37046700">
<ele>1202.270</ele>
<time>2013-06-26T16:06:51Z</time>
</trkpt>
<trkpt lat="45.00213353" lon="5.37055610">
<ele>1201.790</ele>
<time>2013-06-26T16:06:52Z</time>
</trkpt>
<trkpt lat="45.00200839" lon="5.37100218">
<ele>1199.860</ele>
<time>2013-06-26T16:06:56Z</time>
</trkpt>
<trkpt lat="45.00197763" lon="5.37151122">
<ele>1196.500</ele>
<time>2013-06-26T16:07:00Z</time>
</trkpt>
<trkpt lat="45.00198643" lon="5.37203123">
<ele>1193.610</ele>
<time>2013-06-26T16:07:04Z</time>
</trkpt>
<trkpt lat="45.00169566" lon="5.37239869">
<ele>1190.730</ele>
<time>2013-06-26T16:07:10Z</time>
</trkpt>
<trkpt lat="45.00155007" lon="5.37235100">
<ele>1189.770</ele>
<time>2013-06-26T16:07:12Z</time>
</trkpt>
<trkpt lat="45.00120959" lon="5.37207674">
<ele>1185.440</ele>
<time>2013-06-26T16:07:17Z</time>
</trkpt>
<trkpt lat="45.00115310" lon="5.37202226">
<ele>1184.960</ele>
<time>2013-06-26T16:07:18Z</time>
</trkpt>
<trkpt lat="45.00108353" lon="5.37181171">
<ele>1183.040</ele>
<time>2013-06-26T16:07:23Z</time>
</trkpt>
<trkpt lat="45.00111203" lon="5.37161406">
<ele>1181.600</ele>
<time>2013-06-26T16:07:31Z</time>
</trkpt>
<trkpt lat="45.00115125" lon="5.37158640">
<ele>1180.640</ele>
<time>2013-06-26T16:07:50Z</time>
</trkpt>
<trkpt lat="45.00116651" lon="5.37158523">
<ele>1181.600</ele>
<time>2013-06-26T16:08:18Z</time>
</trkpt>
<trkpt lat="45.00115528" lon="5.37158372">
<ele>1182.080</ele>
<time>2013-06-26T16:08:54Z</time>
</trkpt>
<trkpt lat="45.00114203" lon="5.37155941">
<ele>1182.080</ele>
<time>2013-06-26T16:09:02Z</time>
</trkpt>
<trkpt lat="45.00106819" lon="5.37145875">
<ele>1180.640</ele>
<time>2013-06-26T16:09:07Z</time>
</trkpt>
<trkpt lat="45.00070827" lon="5.37094192">
<ele>1177.270</ele>
<time>2013-06-26T16:09:17Z</time>
</trkpt>
<trkpt lat="45.00043754" lon="5.37057873">
<ele>1174.870</ele>
<time>2013-06-26T16:09:22Z</time>
</trkpt>
<trkpt lat="45.00013528" lon="5.37035854">
<ele>1172.470</ele>
<time>2013-06-26T16:09:26Z</time>
</trkpt>
<trkpt lat="44.99996052" lon="5.37028327">
<ele>1171.020</ele>
<time>2013-06-26T16:09:28Z</time>
</trkpt>
<trkpt lat="44.99939969" lon="5.37024379">
<ele>1167.180</ele>
<time>2013-06-26T16:09:34Z</time>
</trkpt>
<trkpt lat="44.99913247" lon="5.37028813">
<ele>1165.740</ele>
<time>2013-06-26T16:09:37Z</time>
</trkpt>
<trkpt lat="44.99853510" lon="5.37011010">
<ele>1161.410</ele>
<time>2013-06-26T16:09:44Z</time>
</trkpt>
<trkpt lat="44.99797585" lon="5.37015360">
<ele>1158.050</ele>
<time>2013-06-26T16:09:50Z</time>
</trkpt>
<trkpt lat="44.99768023" lon="5.37017707">
<ele>1156.600</ele>
<time>2013-06-26T16:09:53Z</time>
</trkpt>
<trkpt lat="44.99718469" lon="5.37022409">
<ele>1153.240</ele>
<time>2013-06-26T16:09:58Z</time>
</trkpt>
<trkpt lat="44.99687925" lon="5.37025468">
<ele>1151.800</ele>
<time>2013-06-26T16:10:01Z</time>
</trkpt>
<trkpt lat="44.99638933" lon="5.37035753">
<ele>1148.430</ele>
<time>2013-06-26T16:10:06Z</time>
</trkpt>
<trkpt lat="44.99619202" lon="5.37040556">
<ele>1146.990</ele>
<time>2013-06-26T16:10:08Z</time>
</trkpt>
<trkpt lat="44.99571551" lon="5.37049952">
<ele>1143.630</ele>
<time>2013-06-26T16:10:13Z</time>
</trkpt>
<trkpt lat="44.99524050" lon="5.37053774">
<ele>1140.260</ele>
<time>2013-06-26T16:10:18Z</time>
</trkpt>
<trkpt lat="44.99478855" lon="5.37035284">
<ele>1137.380</ele>
<time>2013-06-26T16:10:23Z</time>
</trkpt>
<trkpt lat="44.99428153" lon="5.36993793">
<ele>1134.010</ele>
<time>2013-06-26T16:10:29Z</time>
</trkpt>
<trkpt lat="44.99382321" lon="5.36961380">
<ele>1131.130</ele>
<time>2013-06-26T16:10:34Z</time>
</trkpt>
<trkpt lat="44.99363772" lon="5.36948171">
<ele>1129.690</ele>
<time>2013-06-26T16:10:36Z</time>
</trkpt>
<trkpt lat="44.99319691" lon="5.36910259">
<ele>1126.800</ele>
<time>2013-06-26T16:10:41Z</time>
</trkpt>
<trkpt lat="44.99256810" lon="5.36880570">
<ele>1125.840</ele>
<time>2013-06-26T16:10:48Z</time>
</trkpt>
<trkpt lat="44.99238152" lon="5.36877444">
<ele>1125.840</ele>
<time>2013-06-26T16:10:50Z</time>
</trkpt>
<trkpt lat="44.99221447" lon="5.36876799">
<ele>1125.360</ele>
<time>2013-06-26T16:10:53Z</time>
</trkpt>
<trkpt lat="44.99187441" lon="5.36889179">
<ele>1125.360</ele>
<time>2013-06-26T16:10:59Z</time>
</trkpt>
<trkpt lat="44.99177450" lon="5.36895742">
<ele>1124.880</ele>
<time>2013-06-26T16:11:01Z</time>
</trkpt>
<trkpt lat="44.99150754" lon="5.36900528">
<ele>1123.920</ele>
<time>2013-06-26T16:11:06Z</time>
</trkpt>
<trkpt lat="44.99118224" lon="5.36884342">
<ele>1121.030</ele>
<time>2013-06-26T16:11:17Z</time>
</trkpt>
<trkpt lat="44.99106011" lon="5.36883471">
<ele>1120.070</ele>
<time>2013-06-26T16:11:20Z</time>
</trkpt>
<trkpt lat="44.99079592" lon="5.36888290">
<ele>1117.190</ele>
<time>2013-06-26T16:11:25Z</time>
</trkpt>
<trkpt lat="44.99051814" lon="5.36891400">
<ele>1113.820</ele>
<time>2013-06-26T16:11:29Z</time>
</trkpt>
<trkpt lat="44.99019108" lon="5.36899312">
<ele>1110.460</ele>
<time>2013-06-26T16:11:33Z</time>
</trkpt>
<trkpt lat="44.98979176" lon="5.36903176">
<ele>1106.610</ele>
<time>2013-06-26T16:11:37Z</time>
</trkpt>
<trkpt lat="44.98959085" lon="5.36901986">
<ele>1104.690</ele>
<time>2013-06-26T16:11:39Z</time>
</trkpt>
<trkpt lat="44.98916186" lon="5.36878257">
<ele>1101.330</ele>
<time>2013-06-26T16:11:44Z</time>
</trkpt>
<trkpt lat="44.98886716" lon="5.36862994">
<ele>1098.920</ele>
<time>2013-06-26T16:11:47Z</time>
</trkpt>
<trkpt lat="44.98835091" lon="5.36829340">
<ele>1095.560</ele>
<time>2013-06-26T16:11:52Z</time>
</trkpt>
<trkpt lat="44.98818873" lon="5.36814915">
<ele>1094.600</ele>
<time>2013-06-26T16:11:54Z</time>
</trkpt>
<trkpt lat="44.98794951" lon="5.36808528">
<ele>1093.160</ele>
<time>2013-06-26T16:11:57Z</time>
</trkpt>
<trkpt lat="44.98750468" lon="5.36813725">
<ele>1089.310</ele>
<time>2013-06-26T16:12:02Z</time>
</trkpt>
<trkpt lat="44.98741214" lon="5.36809500">
<ele>1088.830</ele>
<time>2013-06-26T16:12:03Z</time>
</trkpt>
<trkpt lat="44.98717091" lon="5.36794832">
<ele>1086.910</ele>
<time>2013-06-26T16:12:06Z</time>
</trkpt>
<trkpt lat="44.98711282" lon="5.36791605">
<ele>1086.910</ele>
<time>2013-06-26T16:12:07Z</time>
</trkpt>
<trkpt lat="44.98698559" lon="5.36778890">
<ele>1085.950</ele>
<time>2013-06-26T16:12:15Z</time>
</trkpt>
<trkpt lat="44.98700059" lon="5.36777490">
<ele>1085.950</ele>
<time>2013-06-26T16:12:37Z</time>
</trkpt>
<trkpt lat="44.98703512" lon="5.36777590">
<ele>1085.470</ele>
<time>2013-06-26T16:12:39Z</time>
</trkpt>
<trkpt lat="44.98718466" lon="5.36785402">
<ele>1084.500</ele>
<time>2013-06-26T16:12:44Z</time>
</trkpt>
<trkpt lat="44.98731214" lon="5.36787213">
<ele>1083.540</ele>
<time>2013-06-26T16:12:47Z</time>
</trkpt>
<trkpt lat="44.98744927" lon="5.36781178">
<ele>1082.100</ele>
<time>2013-06-26T16:12:50Z</time>
</trkpt>
<trkpt lat="44.98764759" lon="5.36761531">
<ele>1080.660</ele>
<time>2013-06-26T16:12:54Z</time>
</trkpt>
<trkpt lat="44.98780584" lon="5.36747751">
<ele>1079.220</ele>
<time>2013-06-26T16:12:57Z</time>
</trkpt>
<trkpt lat="44.98797147" lon="5.36725908">
<ele>1078.260</ele>
<time>2013-06-26T16:13:01Z</time>
</trkpt>
<trkpt lat="44.98814606" lon="5.36694157">
<ele>1077.780</ele>
<time>2013-06-26T16:13:06Z</time>
</trkpt>
<trkpt lat="44.98845527" lon="5.36680779">
<ele>1076.330</ele>
<time>2013-06-26T16:13:12Z</time>
</trkpt>
<trkpt lat="44.98866867" lon="5.36680067">
<ele>1076.330</ele>
<time>2013-06-26T16:13:21Z</time>
</trkpt>
<trkpt lat="44.98876465" lon="5.36674510">
<ele>1075.850</ele>
<time>2013-06-26T16:13:39Z</time>
</trkpt>
<trkpt lat="44.98884293" lon="5.36643849">
<ele>1075.850</ele>
<time>2013-06-26T16:13:49Z</time>
</trkpt>
<trkpt lat="44.98878988" lon="5.36583323">
<ele>1073.930</ele>
<time>2013-06-26T16:14:02Z</time>
</trkpt>
<trkpt lat="44.98879650" lon="5.36558269">
<ele>1073.450</ele>
<time>2013-06-26T16:14:07Z</time>
</trkpt>
<trkpt lat="44.98888727" lon="5.36532730">
<ele>1072.010</ele>
<time>2013-06-26T16:14:11Z</time>
</trkpt>
<trkpt lat="44.98909984" lon="5.36501231">
<ele>1071.050</ele>
<time>2013-06-26T16:14:17Z</time>
</trkpt>
<trkpt lat="44.98936202" lon="5.36480527">
<ele>1069.600</ele>
<time>2013-06-26T16:14:23Z</time>
</trkpt>
<trkpt lat="44.98984105" lon="5.36455834">
<ele>1066.240</ele>
<time>2013-06-26T16:14:32Z</time>
</trkpt>
<trkpt lat="44.98990282" lon="5.36452700">
<ele>1065.760</ele>
<time>2013-06-26T16:14:33Z</time>
</trkpt>
<trkpt lat="44.99030968" lon="5.36432130">
<ele>1062.390</ele>
<time>2013-06-26T16:14:39Z</time>
</trkpt>
<trkpt lat="44.99085325" lon="5.36391679">
<ele>1059.030</ele>
<time>2013-06-26T16:14:47Z</time>
</trkpt>
<trkpt lat="44.99123060" lon="5.36355553">
<ele>1058.070</ele>
<time>2013-06-26T16:14:53Z</time>
</trkpt>
<trkpt lat="44.99181700" lon="5.36280309">
<ele>1054.700</ele>
<time>2013-06-26T16:15:06Z</time>
</trkpt>
<trkpt lat="44.99200802" lon="5.36256504">
<ele>1052.780</ele>
<time>2013-06-26T16:15:11Z</time>
</trkpt>
<trkpt lat="44.99215730" lon="5.36240964">
<ele>1052.300</ele>
<time>2013-06-26T16:15:15Z</time>
</trkpt>
<trkpt lat="44.99229879" lon="5.36235122">
<ele>1054.700</ele>
<time>2013-06-26T16:15:19Z</time>
</trkpt>
<trkpt lat="44.99232620" lon="5.36235013">
<ele>1055.180</ele>
<time>2013-06-26T16:15:20Z</time>
</trkpt>
<trkpt lat="44.99276147" lon="5.36227587">
<ele>1058.550</ele>
<time>2013-06-26T16:15:36Z</time>
</trkpt>
<trkpt lat="44.99310547" lon="5.36212893">
<ele>1059.990</ele>
<time>2013-06-26T16:15:49Z</time>
</trkpt>
<trkpt lat="44.99347008" lon="5.36192668">
<ele>1061.430</ele>
<time>2013-06-26T16:16:02Z</time>
</trkpt>
<trkpt lat="44.99392161" lon="5.36178117">
<ele>1063.840</ele>
<time>2013-06-26T16:16:19Z</time>
</trkpt>
<trkpt lat="44.99416896" lon="5.36171814">
<ele>1064.320</ele>
<time>2013-06-26T16:16:33Z</time>
</trkpt>
<trkpt lat="44.99421917" lon="5.36171118">
<ele>1064.320</ele>
<time>2013-06-26T16:16:36Z</time>
</trkpt>
<trkpt lat="44.99424482" lon="5.36171654">
<ele>1064.320</ele>
<time>2013-06-26T16:16:38Z</time>
</trkpt>
<trkpt lat="44.99432160" lon="5.36161889">
<ele>1065.280</ele>
<time>2013-06-26T16:16:51Z</time>
</trkpt>
<trkpt lat="44.99432973" lon="5.36165468">
<ele>1064.800</ele>
<time>2013-06-26T16:16:57Z</time>
</trkpt>
<trkpt lat="44.99442956" lon="5.36192877">
<ele>1063.840</ele>
<time>2013-06-26T16:17:07Z</time>
</trkpt>
<trkpt lat="44.99446912" lon="5.36243982">
<ele>1063.360</ele>
<time>2013-06-26T16:17:17Z</time>
</trkpt>
<trkpt lat="44.99449309" lon="5.36260963">
<ele>1062.390</ele>
<time>2013-06-26T16:17:20Z</time>
</trkpt>
<trkpt lat="44.99461915" lon="5.36312973">
<ele>1060.950</ele>
<time>2013-06-26T16:17:29Z</time>
</trkpt>
<trkpt lat="44.99476500" lon="5.36356358">
<ele>1060.470</ele>
<time>2013-06-26T16:17:37Z</time>
</trkpt>
<trkpt lat="44.99491805" lon="5.36379768">
<ele>1060.470</ele>
<time>2013-06-26T16:17:42Z</time>
</trkpt>
<trkpt lat="44.99498527" lon="5.36387916">
<ele>1059.510</ele>
<time>2013-06-26T16:17:44Z</time>
</trkpt>
<trkpt lat="44.99511821" lon="5.36396516">
<ele>1059.030</ele>
<time>2013-06-26T16:17:47Z</time>
</trkpt>
<trkpt lat="44.99539993" lon="5.36394320">
<ele>1057.110</ele>
<time>2013-06-26T16:17:52Z</time>
</trkpt>
<trkpt lat="44.99613837" lon="5.36380992">
<ele>1054.220</ele>
<time>2013-06-26T16:18:04Z</time>
</trkpt>
<trkpt lat="44.99638933" lon="5.36378276">
<ele>1054.220</ele>
<time>2013-06-26T16:18:08Z</time>
</trkpt>
<trkpt lat="44.99662486" lon="5.36388829">
<ele>1053.740</ele>
<time>2013-06-26T16:18:12Z</time>
</trkpt>
<trkpt lat="44.99676861" lon="5.36412860">
<ele>1052.300</ele>
<time>2013-06-26T16:18:16Z</time>
</trkpt>
<trkpt lat="44.99693977" lon="5.36503921">
<ele>1050.860</ele>
<time>2013-06-26T16:18:29Z</time>
</trkpt>
<trkpt lat="44.99697480" lon="5.36524038">
<ele>1050.860</ele>
<time>2013-06-26T16:18:32Z</time>
</trkpt>
<trkpt lat="44.99705133" lon="5.36543299">
<ele>1050.380</ele>
<time>2013-06-26T16:18:35Z</time>
</trkpt>
<trkpt lat="44.99730279" lon="5.36567289">
<ele>1049.420</ele>
<time>2013-06-26T16:18:41Z</time>
</trkpt>
<trkpt lat="44.99754209" lon="5.36566199">
<ele>1050.860</ele>
<time>2013-06-26T16:18:46Z</time>
</trkpt>
<trkpt lat="44.99772289" lon="5.36551002">
<ele>1051.340</ele>
<time>2013-06-26T16:18:51Z</time>
</trkpt>
<trkpt lat="44.99778575" lon="5.36542553">
<ele>1051.340</ele>
<time>2013-06-26T16:18:53Z</time>
</trkpt>
<trkpt lat="44.99816612" lon="5.36462196">
<ele>1052.780</ele>
<time>2013-06-26T16:19:09Z</time>
</trkpt>
<trkpt lat="44.99861179" lon="5.36384923">
<ele>1052.780</ele>
<time>2013-06-26T16:19:24Z</time>
</trkpt>
<trkpt lat="44.99921277" lon="5.36333417">
<ele>1052.300</ele>
<time>2013-06-26T16:19:39Z</time>
</trkpt>
<trkpt lat="44.99973622" lon="5.36289345">
<ele>1053.740</ele>
<time>2013-06-26T16:19:54Z</time>
</trkpt>
<trkpt lat="45.00009555" lon="5.36249036">
<ele>1054.700</ele>
<time>2013-06-26T16:20:06Z</time>
</trkpt>
<trkpt lat="45.00053611" lon="5.36205115">
<ele>1054.220</ele>
<time>2013-06-26T16:20:23Z</time>
</trkpt>
<trkpt lat="45.00074155" lon="5.36180891">
<ele>1050.860</ele>
<time>2013-06-26T16:20:28Z</time>
</trkpt>
<trkpt lat="45.00079754" lon="5.36175627">
<ele>1048.940</ele>
<time>2013-06-26T16:20:29Z</time>
</trkpt>
<trkpt lat="45.00121513" lon="5.36163054">
<ele>1047.010</ele>
<time>2013-06-26T16:20:35Z</time>
</trkpt>
<trkpt lat="45.00145191" lon="5.36167497">
<ele>1046.530</ele>
<time>2013-06-26T16:20:39Z</time>
</trkpt>
<trkpt lat="45.00156289" lon="5.36167824">
<ele>1045.570</ele>
<time>2013-06-26T16:20:41Z</time>
</trkpt>
<trkpt lat="45.00190906" lon="5.36163809">
<ele>1043.650</ele>
<time>2013-06-26T16:20:46Z</time>
</trkpt>
<trkpt lat="45.00243033" lon="5.36157908">
<ele>1041.250</ele>
<time>2013-06-26T16:20:53Z</time>
</trkpt>
<trkpt lat="45.00302008" lon="5.36150339">
<ele>1038.360</ele>
<time>2013-06-26T16:21:01Z</time>
</trkpt>
<trkpt lat="45.00327372" lon="5.36150666">
<ele>1036.920</ele>
<time>2013-06-26T16:21:09Z</time>
</trkpt>
<trkpt lat="45.00328344" lon="5.36150616">
<ele>1036.920</ele>
<time>2013-06-26T16:21:11Z</time>
</trkpt>
<trkpt lat="45.00360732" lon="5.36151873">
<ele>1035.000</ele>
<time>2013-06-26T16:34:35Z</time>
</trkpt>
<trkpt lat="45.00366055" lon="5.36152309">
<ele>1034.520</ele>
<time>2013-06-26T16:34:47Z</time>
</trkpt>
<trkpt lat="45.00368678" lon="5.36150297">
<ele>1034.520</ele>
<time>2013-06-26T16:35:08Z</time>
</trkpt>
<trkpt lat="45.00369877" lon="5.36148914">
<ele>1034.040</ele>
<time>2013-06-26T16:35:21Z</time>
</trkpt>
<trkpt lat="45.00368066" lon="5.36150884">
<ele>1034.520</ele>
<time>2013-06-26T16:35:56Z</time>
</trkpt>
<trkpt lat="45.00380446" lon="5.36141404">
<ele>1034.040</ele>
<time>2013-06-26T16:36:07Z</time>
</trkpt>
<trkpt lat="45.00401166" lon="5.36127104">
<ele>1035.480</ele>
<time>2013-06-26T16:36:19Z</time>
</trkpt>
<trkpt lat="45.00414820" lon="5.36120508">
<ele>1036.920</ele>
<time>2013-06-26T16:36:30Z</time>
</trkpt>
<trkpt lat="45.00425859" lon="5.36112201">
<ele>1037.880</ele>
<time>2013-06-26T16:36:41Z</time>
</trkpt>
<trkpt lat="45.00433437" lon="5.36102152">
<ele>1038.840</ele>
<time>2013-06-26T16:36:55Z</time>
</trkpt>
<trkpt lat="45.00437728" lon="5.36099360">
<ele>1039.320</ele>
<time>2013-06-26T16:37:02Z</time>
</trkpt>
<trkpt lat="45.00453319" lon="5.36082546">
<ele>1041.250</ele>
<time>2013-06-26T16:37:17Z</time>
</trkpt>
<trkpt lat="45.00467853" lon="5.36056303">
<ele>1042.210</ele>
<time>2013-06-26T16:37:30Z</time>
</trkpt>
<trkpt lat="45.00471113" lon="5.36052179">
<ele>1042.690</ele>
<time>2013-06-26T16:37:32Z</time>
</trkpt>
<trkpt lat="45.00479260" lon="5.36026647">
<ele>1043.650</ele>
<time>2013-06-26T16:37:45Z</time>
</trkpt>
<trkpt lat="45.00475497" lon="5.35997646">
<ele>1046.530</ele>
<time>2013-06-26T16:37:59Z</time>
</trkpt>
<trkpt lat="45.00469739" lon="5.35987378">
<ele>1048.450</ele>
<time>2013-06-26T16:38:08Z</time>
</trkpt>
<trkpt lat="45.00460527" lon="5.35965736">
<ele>1051.820</ele>
<time>2013-06-26T16:38:22Z</time>
</trkpt>
<trkpt lat="45.00459353" lon="5.35963205">
<ele>1052.300</ele>
<time>2013-06-26T16:38:24Z</time>
</trkpt>
<trkpt lat="45.00455699" lon="5.35950531">
<ele>1054.220</ele>
<time>2013-06-26T16:38:30Z</time>
</trkpt>
<trkpt lat="45.00453243" lon="5.35926668">
<ele>1057.110</ele>
<time>2013-06-26T16:38:43Z</time>
</trkpt>
<trkpt lat="45.00449069" lon="5.35909200">
<ele>1059.990</ele>
<time>2013-06-26T16:38:54Z</time>
</trkpt>
<trkpt lat="45.00444660" lon="5.35890492">
<ele>1062.870</ele>
<time>2013-06-26T16:39:06Z</time>
</trkpt>
<trkpt lat="45.00443445" lon="5.35868489">
<ele>1065.760</ele>
<time>2013-06-26T16:39:20Z</time>
</trkpt>
<trkpt lat="45.00446579" lon="5.35861264">
<ele>1066.720</ele>
<time>2013-06-26T16:39:40Z</time>
</trkpt>
<trkpt lat="45.00453595" lon="5.35851717">
<ele>1069.600</ele>
<time>2013-06-26T16:39:54Z</time>
</trkpt>
<trkpt lat="45.00458163" lon="5.35839144">
<ele>1072.010</ele>
<time>2013-06-26T16:40:06Z</time>
</trkpt>
<trkpt lat="45.00462203" lon="5.35828340">
<ele>1073.450</ele>
<time>2013-06-26T16:40:19Z</time>
</trkpt>
<trkpt lat="45.00464466" lon="5.35823881">
<ele>1073.930</ele>
<time>2013-06-26T16:40:23Z</time>
</trkpt>
<trkpt lat="45.00469915" lon="5.35812532">
<ele>1074.410</ele>
<time>2013-06-26T16:40:30Z</time>
</trkpt>
<trkpt lat="45.00492051" lon="5.35795516">
<ele>1073.930</ele>
<time>2013-06-26T16:40:43Z</time>
</trkpt>
<trkpt lat="45.00511967" lon="5.35775794">
<ele>1070.570</ele>
<time>2013-06-26T16:40:53Z</time>
</trkpt>
<trkpt lat="45.00517943" lon="5.35767253">
<ele>1068.160</ele>
<time>2013-06-26T16:40:55Z</time>
</trkpt>
<trkpt lat="45.00528454" lon="5.35745594">
<ele>1062.870</ele>
<time>2013-06-26T16:40:59Z</time>
</trkpt>
<trkpt lat="45.00553390" lon="5.35728595">
<ele>1061.430</ele>
<time>2013-06-26T16:41:06Z</time>
</trkpt>
<trkpt lat="45.00555301" lon="5.35723189">
<ele>1060.470</ele>
<time>2013-06-26T16:41:08Z</time>
</trkpt>
<trkpt lat="45.00553985" lon="5.35713097">
<ele>1059.030</ele>
<time>2013-06-26T16:41:19Z</time>
</trkpt>
<trkpt lat="45.00553583" lon="5.35712561">
<ele>1059.030</ele>
<time>2013-06-26T16:41:20Z</time>
</trkpt>
<trkpt lat="45.00541337" lon="5.35698915">
<ele>1053.740</ele>
<time>2013-06-26T16:41:25Z</time>
</trkpt>
<trkpt lat="45.00534925" lon="5.35689846">
<ele>1051.820</ele>
<time>2013-06-26T16:41:27Z</time>
</trkpt>
<trkpt lat="45.00533441" lon="5.35666167">
<ele>1047.970</ele>
<time>2013-06-26T16:41:31Z</time>
</trkpt>
<trkpt lat="45.00532142" lon="5.35660895">
<ele>1047.010</ele>
<time>2013-06-26T16:41:32Z</time>
</trkpt>
<trkpt lat="45.00531874" lon="5.35634441">
<ele>1042.690</ele>
<time>2013-06-26T16:41:36Z</time>
</trkpt>
<trkpt lat="45.00543357" lon="5.35613109">
<ele>1039.320</ele>
<time>2013-06-26T16:41:40Z</time>
</trkpt>
<trkpt lat="45.00547699" lon="5.35608172">
<ele>1039.320</ele>
<time>2013-06-26T16:41:41Z</time>
</trkpt>
<trkpt lat="45.00556952" lon="5.35601241">
<ele>1038.840</ele>
<time>2013-06-26T16:41:43Z</time>
</trkpt>
<trkpt lat="45.00594503" lon="5.35588114">
<ele>1035.000</ele>
<time>2013-06-26T16:41:50Z</time>
</trkpt>
<trkpt lat="45.00615659" lon="5.35560588">
<ele>1028.750</ele>
<time>2013-06-26T16:41:55Z</time>
</trkpt>
<trkpt lat="45.00627628" lon="5.35550430">
<ele>1027.310</ele>
<time>2013-06-26T16:41:57Z</time>
</trkpt>
<trkpt lat="45.00640595" lon="5.35547395">
<ele>1027.790</ele>
<time>2013-06-26T16:41:59Z</time>
</trkpt>
<trkpt lat="45.00654241" lon="5.35541293">
<ele>1027.790</ele>
<time>2013-06-26T16:42:07Z</time>
</trkpt>
<trkpt lat="45.00656261" lon="5.35539080">
<ele>1028.270</ele>
<time>2013-06-26T16:42:35Z</time>
</trkpt>
<trkpt lat="45.00653579" lon="5.35538267">
<ele>1028.270</ele>
<time>2013-06-26T16:42:42Z</time>
</trkpt>
<trkpt lat="45.00642288" lon="5.35541427">
<ele>1028.750</ele>
<time>2013-06-26T16:42:55Z</time>
</trkpt>
<trkpt lat="45.00643672" lon="5.35541805">
<ele>1028.270</ele>
<time>2013-06-26T16:43:09Z</time>
</trkpt>
<trkpt lat="45.00645926" lon="5.35541545">
<ele>1028.270</ele>
<time>2013-06-26T16:43:22Z</time>
</trkpt>
<trkpt lat="45.00665054" lon="5.35541796">
<ele>1026.830</ele>
<time>2013-06-26T16:43:31Z</time>
</trkpt>
<trkpt lat="45.00679529" lon="5.35543380">
<ele>1024.900</ele>
<time>2013-06-26T16:43:34Z</time>
</trkpt>
<trkpt lat="45.00701138" lon="5.35542375">
<ele>1022.500</ele>
<time>2013-06-26T16:43:40Z</time>
</trkpt>
<trkpt lat="45.00711029" lon="5.35546616">
<ele>1022.500</ele>
<time>2013-06-26T16:43:45Z</time>
</trkpt>
<trkpt lat="45.00717835" lon="5.35548150">
<ele>1021.540</ele>
<time>2013-06-26T16:43:47Z</time>
</trkpt>
<trkpt lat="45.00750348" lon="5.35555039">
<ele>1018.650</ele>
<time>2013-06-26T16:43:56Z</time>
</trkpt>
<trkpt lat="45.00754112" lon="5.35557864">
<ele>1018.650</ele>
<time>2013-06-26T16:43:57Z</time>
</trkpt>
<trkpt lat="45.00777237" lon="5.35570253">
<ele>1016.730</ele>
<time>2013-06-26T16:44:04Z</time>
</trkpt>
<trkpt lat="45.00792794" lon="5.35575944">
<ele>1014.810</ele>
<time>2013-06-26T16:44:07Z</time>
</trkpt>
<trkpt lat="45.00804319" lon="5.35581853">
<ele>1013.370</ele>
<time>2013-06-26T16:44:09Z</time>
</trkpt>
<trkpt lat="45.00826347" lon="5.35584938">
<ele>1010.480</ele>
<time>2013-06-26T16:44:13Z</time>
</trkpt>
<trkpt lat="45.00845214" lon="5.35587126">
<ele>1009.040</ele>
<time>2013-06-26T16:44:21Z</time>
</trkpt>
<trkpt lat="45.00850528" lon="5.35586204">
<ele>1008.560</ele>
<time>2013-06-26T16:44:25Z</time>
</trkpt>
<trkpt lat="45.00863177" lon="5.35590285">
<ele>1007.120</ele>
<time>2013-06-26T16:44:29Z</time>
</trkpt>
<trkpt lat="45.00890778" lon="5.35600880">
<ele>1003.270</ele>
<time>2013-06-26T16:44:35Z</time>
</trkpt>
<trkpt lat="45.00902882" lon="5.35608474">
<ele>999.430</ele>
<time>2013-06-26T16:44:38Z</time>
</trkpt>
<trkpt lat="45.00912613" lon="5.35613218">
<ele>996.060</ele>
<time>2013-06-26T16:44:42Z</time>
</trkpt>
<trkpt lat="45.00925102" lon="5.35616169">
<ele>992.700</ele>
<time>2013-06-26T16:44:45Z</time>
</trkpt>
<trkpt lat="45.00927851" lon="5.35616814">
<ele>992.700</ele>
<time>2013-06-26T16:44:46Z</time>
</trkpt>
<trkpt lat="45.00931431" lon="5.35618029">
<ele>992.220</ele>
<time>2013-06-26T16:44:48Z</time>
</trkpt>
<trkpt lat="45.00948278" lon="5.35628851">
<ele>989.330</ele>
<time>2013-06-26T16:44:55Z</time>
</trkpt>
<trkpt lat="45.00958999" lon="5.35628893">
<ele>989.810</ele>
<time>2013-06-26T16:45:07Z</time>
</trkpt>
<trkpt lat="45.00974589" lon="5.35638649">
<ele>986.450</ele>
<time>2013-06-26T16:45:13Z</time>
</trkpt>
<trkpt lat="45.00977707" lon="5.35639286">
<ele>985.490</ele>
<time>2013-06-26T16:45:14Z</time>
</trkpt>
<trkpt lat="45.00997254" lon="5.35644717">
<ele>981.640</ele>
<time>2013-06-26T16:45:19Z</time>
</trkpt>
<trkpt lat="45.01008050" lon="5.35646872">
<ele>978.280</ele>
<time>2013-06-26T16:45:22Z</time>
</trkpt>
<trkpt lat="45.01025140" lon="5.35641147">
<ele>974.910</ele>
<time>2013-06-26T16:45:28Z</time>
</trkpt>
<trkpt lat="45.01037395" lon="5.35625054">
<ele>972.990</ele>
<time>2013-06-26T16:45:31Z</time>
</trkpt>
<trkpt lat="45.01056941" lon="5.35599858">
<ele>970.590</ele>
<time>2013-06-26T16:45:37Z</time>
</trkpt>
<trkpt lat="45.01076178" lon="5.35576673">
<ele>967.220</ele>
<time>2013-06-26T16:45:43Z</time>
</trkpt>
<trkpt lat="45.01080511" lon="5.35563849">
<ele>965.780</ele>
<time>2013-06-26T16:45:46Z</time>
</trkpt>
<trkpt lat="45.01083939" lon="5.35552533">
<ele>965.300</ele>
<time>2013-06-26T16:45:49Z</time>
</trkpt>
<trkpt lat="45.01093377" lon="5.35532375">
<ele>964.820</ele>
<time>2013-06-26T16:45:59Z</time>
</trkpt>
<trkpt lat="45.01096990" lon="5.35521126">
<ele>964.340</ele>
<time>2013-06-26T16:46:16Z</time>
</trkpt>
<trkpt lat="45.01098541" lon="5.35520590">
<ele>964.340</ele>
<time>2013-06-26T16:46:17Z</time>
</trkpt>
<trkpt lat="45.01109714" lon="5.35512862">
<ele>963.860</ele>
<time>2013-06-26T16:46:30Z</time>
</trkpt>
<trkpt lat="45.01112538" lon="5.35506533">
<ele>962.900</ele>
<time>2013-06-26T16:46:34Z</time>
</trkpt>
<trkpt lat="45.01112144" lon="5.35497674">
<ele>961.940</ele>
<time>2013-06-26T16:46:36Z</time>
</trkpt>
<trkpt lat="45.01114366" lon="5.35475654">
<ele>958.090</ele>
<time>2013-06-26T16:46:40Z</time>
</trkpt>
<trkpt lat="45.01122136" lon="5.35442965">
<ele>953.770</ele>
<time>2013-06-26T16:46:44Z</time>
</trkpt>
<trkpt lat="45.01127944" lon="5.35422178">
<ele>952.320</ele>
<time>2013-06-26T16:46:46Z</time>
</trkpt>
<trkpt lat="45.01137801" lon="5.35393311">
<ele>949.920</ele>
<time>2013-06-26T16:46:49Z</time>
</trkpt>
<trkpt lat="45.01142453" lon="5.35384107">
<ele>949.440</ele>
<time>2013-06-26T16:46:50Z</time>
</trkpt>
<trkpt lat="45.01152587" lon="5.35360253">
<ele>947.520</ele>
<time>2013-06-26T16:46:54Z</time>
</trkpt>
<trkpt lat="45.01154037" lon="5.35356472">
<ele>947.040</ele>
<time>2013-06-26T16:46:55Z</time>
</trkpt>
<trkpt lat="45.01170122" lon="5.35319827">
<ele>945.590</ele>
<time>2013-06-26T16:47:05Z</time>
</trkpt>
<trkpt lat="45.01177833" lon="5.35302468">
<ele>945.110</ele>
<time>2013-06-26T16:47:08Z</time>
</trkpt>
<trkpt lat="45.01203097" lon="5.35267414">
<ele>941.270</ele>
<time>2013-06-26T16:47:14Z</time>
</trkpt>
<trkpt lat="45.01208771" lon="5.35260315">
<ele>940.790</ele>
<time>2013-06-26T16:47:15Z</time>
</trkpt>
<trkpt lat="45.01242173" lon="5.35230316">
<ele>939.830</ele>
<time>2013-06-26T16:47:21Z</time>
</trkpt>
<trkpt lat="45.01290277" lon="5.35199001">
<ele>935.980</ele>
<time>2013-06-26T16:47:28Z</time>
</trkpt>
<trkpt lat="45.01320393" lon="5.35147461">
<ele>934.060</ele>
<time>2013-06-26T16:47:34Z</time>
</trkpt>
<trkpt lat="45.01335128" lon="5.35120505">
<ele>934.060</ele>
<time>2013-06-26T16:47:37Z</time>
</trkpt>
<trkpt lat="45.01356997" lon="5.35092576">
<ele>933.580</ele>
<time>2013-06-26T16:47:44Z</time>
</trkpt>
<trkpt lat="45.01355697" lon="5.35092006">
<ele>933.580</ele>
<time>2013-06-26T16:47:46Z</time>
</trkpt>
<trkpt lat="45.01353275" lon="5.35093054">
<ele>934.060</ele>
<time>2013-06-26T16:48:04Z</time>
</trkpt>
<trkpt lat="45.01353392" lon="5.35095829">
<ele>933.100</ele>
<time>2013-06-26T16:48:20Z</time>
</trkpt>
<trkpt lat="45.01352931" lon="5.35097899">
<ele>933.580</ele>
<time>2013-06-26T16:48:59Z</time>
</trkpt>
<trkpt lat="45.01341272" lon="5.35117680">
<ele>933.100</ele>
<time>2013-06-26T16:49:39Z</time>
</trkpt>
<trkpt lat="45.01346678" lon="5.35108980">
<ele>934.060</ele>
<time>2013-06-26T16:49:56Z</time>
</trkpt>
<trkpt lat="45.01347391" lon="5.35099483">
<ele>933.580</ele>
<time>2013-06-26T16:49:59Z</time>
</trkpt>
<trkpt lat="45.01353996" lon="5.35073583">
<ele>930.690</ele>
<time>2013-06-26T16:50:04Z</time>
</trkpt>
<trkpt lat="45.01358774" lon="5.35053324">
<ele>928.290</ele>
<time>2013-06-26T16:50:07Z</time>
</trkpt>
<trkpt lat="45.01369704" lon="5.35027332">
<ele>925.410</ele>
<time>2013-06-26T16:50:10Z</time>
</trkpt>
<trkpt lat="45.01375269" lon="5.35016846">
<ele>924.450</ele>
<time>2013-06-26T16:50:11Z</time>
</trkpt>
<trkpt lat="45.01394791" lon="5.34986327">
<ele>919.160</ele>
<time>2013-06-26T16:50:14Z</time>
</trkpt>
<trkpt lat="45.01406928" lon="5.34955574">
<ele>914.350</ele>
<time>2013-06-26T16:50:17Z</time>
</trkpt>
<trkpt lat="45.01412971" lon="5.34938961">
<ele>912.910</ele>
<time>2013-06-26T16:50:19Z</time>
</trkpt>
<trkpt lat="45.01414044" lon="5.34935734">
<ele>912.430</ele>
<time>2013-06-26T16:50:20Z</time>
</trkpt>
<trkpt lat="45.01415754" lon="5.34929498">
<ele>911.470</ele>
<time>2013-06-26T16:50:22Z</time>
</trkpt>
<trkpt lat="45.01416433" lon="5.34917168">
<ele>911.470</ele>
<time>2013-06-26T16:50:28Z</time>
</trkpt>
<trkpt lat="45.01423691" lon="5.34881713">
<ele>906.660</ele>
<time>2013-06-26T16:50:34Z</time>
</trkpt>
<trkpt lat="45.01425225" lon="5.34873121">
<ele>905.700</ele>
<time>2013-06-26T16:50:35Z</time>
</trkpt>
<trkpt lat="45.01429148" lon="5.34853558">
<ele>903.300</ele>
<time>2013-06-26T16:50:37Z</time>
</trkpt>
<trkpt lat="45.01432182" lon="5.34841136">
<ele>902.330</ele>
<time>2013-06-26T16:50:38Z</time>
</trkpt>
<trkpt lat="45.01433205" lon="5.34825563">
<ele>902.330</ele>
<time>2013-06-26T16:50:40Z</time>
</trkpt>
<trkpt lat="45.01434018" lon="5.34818471">
<ele>902.330</ele>
<time>2013-06-26T16:50:41Z</time>
</trkpt>
<trkpt lat="45.01437170" lon="5.34804558">
<ele>900.890</ele>
<time>2013-06-26T16:50:43Z</time>
</trkpt>
<trkpt lat="45.01444512" lon="5.34782865">
<ele>897.050</ele>
<time>2013-06-26T16:50:46Z</time>
</trkpt>
<trkpt lat="45.01453933" lon="5.34756202">
<ele>893.680</ele>
<time>2013-06-26T16:50:49Z</time>
</trkpt>
<trkpt lat="45.01460672" lon="5.34735859">
<ele>893.200</ele>
<time>2013-06-26T16:50:51Z</time>
</trkpt>
<trkpt lat="45.01478258" lon="5.34684889">
<ele>889.360</ele>
<time>2013-06-26T16:50:57Z</time>
</trkpt>
<trkpt lat="45.01485340" lon="5.34668871">
<ele>887.910</ele>
<time>2013-06-26T16:50:59Z</time>
</trkpt>
<trkpt lat="45.01501911" lon="5.34646466">
<ele>883.590</ele>
<time>2013-06-26T16:51:01Z</time>
</trkpt>
<trkpt lat="45.01516345" lon="5.34623911">
<ele>879.740</ele>
<time>2013-06-26T16:51:03Z</time>
</trkpt>
<trkpt lat="45.01538783" lon="5.34593241">
<ele>875.420</ele>
<time>2013-06-26T16:51:06Z</time>
</trkpt>
<trkpt lat="45.01561456" lon="5.34549094">
<ele>870.130</ele>
<time>2013-06-26T16:51:10Z</time>
</trkpt>
<trkpt lat="45.01577265" lon="5.34514988">
<ele>866.770</ele>
<time>2013-06-26T16:51:13Z</time>
</trkpt>
<trkpt lat="45.01581950" lon="5.34503832">
<ele>865.320</ele>
<time>2013-06-26T16:51:14Z</time>
</trkpt>
<trkpt lat="45.01602461" lon="5.34464931">
<ele>861.000</ele>
<time>2013-06-26T16:51:18Z</time>
</trkpt>
<trkpt lat="45.01612712" lon="5.34450112">
<ele>857.630</ele>
<time>2013-06-26T16:51:20Z</time>
</trkpt>
<trkpt lat="45.01623508" lon="5.34434739">
<ele>853.310</ele>
<time>2013-06-26T16:51:22Z</time>
</trkpt>
<trkpt lat="45.01639266" lon="5.34409300">
<ele>849.940</ele>
<time>2013-06-26T16:51:24Z</time>
</trkpt>
<trkpt lat="45.01642845" lon="5.34404037">
<ele>848.020</ele>
<time>2013-06-26T16:51:25Z</time>
</trkpt>
<trkpt lat="45.01655795" lon="5.34383803">
<ele>844.180</ele>
<time>2013-06-26T16:51:27Z</time>
</trkpt>
<trkpt lat="45.01662559" lon="5.34362127">
<ele>840.810</ele>
<time>2013-06-26T16:51:29Z</time>
</trkpt>
<trkpt lat="45.01675593" lon="5.34334559">
<ele>836.480</ele>
<time>2013-06-26T16:51:32Z</time>
</trkpt>
<trkpt lat="45.01692834" lon="5.34305013">
<ele>830.720</ele>
<time>2013-06-26T16:51:35Z</time>
</trkpt>
<trkpt lat="45.01698283" lon="5.34294670">
<ele>829.270</ele>
<time>2013-06-26T16:51:36Z</time>
</trkpt>
<trkpt lat="45.01702893" lon="5.34285860">
<ele>827.350</ele>
<time>2013-06-26T16:51:37Z</time>
</trkpt>
<trkpt lat="45.01719070" lon="5.34262257">
<ele>822.060</ele>
<time>2013-06-26T16:51:40Z</time>
</trkpt>
<trkpt lat="45.01723948" lon="5.34255870">
<ele>820.140</ele>
<time>2013-06-26T16:51:41Z</time>
</trkpt>
<trkpt lat="45.01726915" lon="5.34240782">
<ele>818.700</ele>
<time>2013-06-26T16:51:42Z</time>
</trkpt>
<trkpt lat="45.01730846" lon="5.34228151">
<ele>817.260</ele>
<time>2013-06-26T16:51:43Z</time>
</trkpt>
<trkpt lat="45.01740016" lon="5.34193391">
<ele>814.850</ele>
<time>2013-06-26T16:51:46Z</time>
</trkpt>
<trkpt lat="45.01745892" lon="5.34180139">
<ele>814.370</ele>
<time>2013-06-26T16:51:47Z</time>
</trkpt>
<trkpt lat="45.01751340" lon="5.34167156">
<ele>812.930</ele>
<time>2013-06-26T16:51:49Z</time>
</trkpt>
<trkpt lat="45.01757023" lon="5.34142923">
<ele>809.570</ele>
<time>2013-06-26T16:51:51Z</time>
</trkpt>
<trkpt lat="45.01760736" lon="5.34125548">
<ele>808.610</ele>
<time>2013-06-26T16:51:56Z</time>
</trkpt>
<trkpt lat="45.01748515" lon="5.34124567">
<ele>810.050</ele>
<time>2013-06-26T16:52:08Z</time>
</trkpt>
<trkpt lat="45.01742925" lon="5.34126864">
<ele>810.530</ele>
<time>2013-06-26T16:52:27Z</time>
</trkpt>
<trkpt lat="45.01749974" lon="5.34116923">
<ele>808.130</ele>
<time>2013-06-26T16:52:39Z</time>
</trkpt>
<trkpt lat="45.01761138" lon="5.34090403">
<ele>804.280</ele>
<time>2013-06-26T16:52:43Z</time>
</trkpt>
<trkpt lat="45.01769302" lon="5.34068953">
<ele>802.360</ele>
<time>2013-06-26T16:52:46Z</time>
</trkpt>
<trkpt lat="45.01786150" lon="5.34041109">
<ele>798.510</ele>
<time>2013-06-26T16:52:50Z</time>
</trkpt>
<trkpt lat="45.01801204" lon="5.34030799">
<ele>795.150</ele>
<time>2013-06-26T16:52:53Z</time>
</trkpt>
<trkpt lat="45.01812184" lon="5.34024856">
<ele>792.260</ele>
<time>2013-06-26T16:52:57Z</time>
</trkpt>
<trkpt lat="45.01812352" lon="5.34028318">
<ele>789.380</ele>
<time>2013-06-26T16:53:05Z</time>
</trkpt>
<trkpt lat="45.01810290" lon="5.34027387">
<ele>789.380</ele>
<time>2013-06-26T16:53:22Z</time>
</trkpt>
<trkpt lat="45.01810189" lon="5.34024856">
<ele>788.420</ele>
<time>2013-06-26T16:53:24Z</time>
</trkpt>
<trkpt lat="45.01819359" lon="5.34009760">
<ele>785.530</ele>
<time>2013-06-26T16:53:26Z</time>
</trkpt>
<trkpt lat="45.01825864" lon="5.33995754">
<ele>785.050</ele>
<time>2013-06-26T16:53:28Z</time>
</trkpt>
<trkpt lat="45.01831882" lon="5.33984380">
<ele>783.610</ele>
<time>2013-06-26T16:53:30Z</time>
</trkpt>
<trkpt lat="45.01847514" lon="5.33961556">
<ele>778.320</ele>
<time>2013-06-26T16:53:35Z</time>
</trkpt>
<trkpt lat="45.01857866" lon="5.33954943">
<ele>774.960</ele>
<time>2013-06-26T16:53:37Z</time>
</trkpt>
<trkpt lat="45.01874269" lon="5.33943988">
<ele>770.630</ele>
<time>2013-06-26T16:53:40Z</time>
</trkpt>
<trkpt lat="45.01880044" lon="5.33939906">
<ele>770.150</ele>
<time>2013-06-26T16:53:41Z</time>
</trkpt>
<trkpt lat="45.01894746" lon="5.33929822">
<ele>764.870</ele>
<time>2013-06-26T16:53:44Z</time>
</trkpt>
<trkpt lat="45.01912893" lon="5.33913444">
<ele>758.620</ele>
<time>2013-06-26T16:53:48Z</time>
</trkpt>
<trkpt lat="45.01920604" lon="5.33906512">
<ele>754.290</ele>
<time>2013-06-26T16:53:49Z</time>
</trkpt>
<trkpt lat="45.01934434" lon="5.33891366">
<ele>751.410</ele>
<time>2013-06-26T16:53:52Z</time>
</trkpt>
<trkpt lat="45.01944476" lon="5.33880981">
<ele>747.080</ele>
<time>2013-06-26T16:53:54Z</time>
</trkpt>
<trkpt lat="45.01946194" lon="5.33878885">
<ele>747.560</ele>
<time>2013-06-26T16:53:55Z</time>
</trkpt>
<trkpt lat="45.01964752" lon="5.33866497">
<ele>741.310</ele>
<time>2013-06-26T16:53:58Z</time>
</trkpt>
<trkpt lat="45.01976159" lon="5.33852507">
<ele>736.990</ele>
<time>2013-06-26T16:54:02Z</time>
</trkpt>
<trkpt lat="45.01981893" lon="5.33843170">
<ele>733.140</ele>
<time>2013-06-26T16:54:06Z</time>
</trkpt>
<trkpt lat="45.01986452" lon="5.33840094">
<ele>734.580</ele>
<time>2013-06-26T16:54:30Z</time>
</trkpt>
<trkpt lat="45.01990015" lon="5.33832047">
<ele>732.180</ele>
<time>2013-06-26T16:54:33Z</time>
</trkpt>
<trkpt lat="45.01994164" lon="5.33823682">
<ele>729.780</ele>
<time>2013-06-26T16:54:34Z</time>
</trkpt>
<trkpt lat="45.02003728" lon="5.33801956">
<ele>725.450</ele>
<time>2013-06-26T16:54:36Z</time>
</trkpt>
<trkpt lat="45.02008790" lon="5.33779375">
<ele>722.570</ele>
<time>2013-06-26T16:54:42Z</time>
</trkpt>
<trkpt lat="45.02004624" lon="5.33815258">
<ele>719.200</ele>
<time>2013-06-26T16:54:53Z</time>
</trkpt>
<trkpt lat="45.02004272" lon="5.33822282">
<ele>718.720</ele>
<time>2013-06-26T16:54:54Z</time>
</trkpt>
<trkpt lat="45.02003468" lon="5.33851694">
<ele>716.320</ele>
<time>2013-06-26T16:54:58Z</time>
</trkpt>
<trkpt lat="45.02004331" lon="5.33858576">
<ele>715.360</ele>
<time>2013-06-26T16:54:59Z</time>
</trkpt>
<trkpt lat="45.02020625" lon="5.33866639">
<ele>713.920</ele>
<time>2013-06-26T16:55:06Z</time>
</trkpt>
<trkpt lat="45.02023526" lon="5.33866832">
<ele>712.950</ele>
<time>2013-06-26T16:55:07Z</time>
</trkpt>
<trkpt lat="45.02026736" lon="5.33866815">
<ele>712.470</ele>
<time>2013-06-26T16:55:08Z</time>
</trkpt>
<trkpt lat="45.02051052" lon="5.33880939">
<ele>708.630</ele>
<time>2013-06-26T16:55:14Z</time>
</trkpt>
<trkpt lat="45.02056198" lon="5.33884225">
<ele>708.150</ele>
<time>2013-06-26T16:55:15Z</time>
</trkpt>
<trkpt lat="45.02085652" lon="5.33902011">
<ele>705.750</ele>
<time>2013-06-26T16:55:24Z</time>
</trkpt>
<trkpt lat="45.02093179" lon="5.33909110">
<ele>702.860</ele>
<time>2013-06-26T16:55:26Z</time>
</trkpt>
<trkpt lat="45.02103271" lon="5.33910066">
<ele>701.900</ele>
<time>2013-06-26T16:55:28Z</time>
</trkpt>
<trkpt lat="45.02114721" lon="5.33922094">
<ele>699.980</ele>
<time>2013-06-26T16:55:32Z</time>
</trkpt>
<trkpt lat="45.02124310" lon="5.33932756">
<ele>699.020</ele>
<time>2013-06-26T16:55:35Z</time>
</trkpt>
<trkpt lat="45.02127729" lon="5.33935187">
<ele>698.050</ele>
<time>2013-06-26T16:55:36Z</time>
</trkpt>
<trkpt lat="45.02133647" lon="5.33937986">
<ele>698.050</ele>
<time>2013-06-26T16:55:37Z</time>
</trkpt>
<trkpt lat="45.02144191" lon="5.33931398">
<ele>698.050</ele>
<time>2013-06-26T16:55:44Z</time>
</trkpt>
<trkpt lat="45.02146253" lon="5.33923720">
<ele>698.050</ele>
<time>2013-06-26T16:56:01Z</time>
</trkpt>
<trkpt lat="45.02145474" lon="5.33921516">
<ele>698.530</ele>
<time>2013-06-26T16:56:20Z</time>
</trkpt>
<trkpt lat="45.02159924" lon="5.33924441">
<ele>696.610</ele>
<time>2013-06-26T16:56:30Z</time>
</trkpt>
<trkpt lat="45.02163093" lon="5.33924257">
<ele>696.130</ele>
<time>2013-06-26T16:56:31Z</time>
</trkpt>
<trkpt lat="45.02192639" lon="5.33930208">
<ele>692.770</ele>
<time>2013-06-26T16:56:39Z</time>
</trkpt>
<trkpt lat="45.02179764" lon="5.33918180">
<ele>688.440</ele>
<time>2013-06-26T16:56:46Z</time>
</trkpt>
<trkpt lat="45.02170268" lon="5.33914894">
<ele>686.520</ele>
<time>2013-06-26T16:56:49Z</time>
</trkpt>
<trkpt lat="45.02161039" lon="5.33912606">
<ele>685.560</ele>
<time>2013-06-26T16:56:52Z</time>
</trkpt>
<trkpt lat="45.02154040" lon="5.33906135">
<ele>684.120</ele>
<time>2013-06-26T16:56:54Z</time>
</trkpt>
<trkpt lat="45.02146656" lon="5.33896236">
<ele>683.150</ele>
<time>2013-06-26T16:56:56Z</time>
</trkpt>
<trkpt lat="45.02131401" lon="5.33876823">
<ele>680.270</ele>
<time>2013-06-26T16:57:00Z</time>
</trkpt>
<trkpt lat="45.02121192" lon="5.33864871">
<ele>678.350</ele>
<time>2013-06-26T16:57:03Z</time>
</trkpt>
<trkpt lat="45.02113019" lon="5.33853496">
<ele>676.420</ele>
<time>2013-06-26T16:57:06Z</time>
</trkpt>
<trkpt lat="45.02106632" lon="5.33843120">
<ele>674.980</ele>
<time>2013-06-26T16:57:08Z</time>
</trkpt>
<trkpt lat="45.02092450" lon="5.33819667">
<ele>671.140</ele>
<time>2013-06-26T16:57:12Z</time>
</trkpt>
<trkpt lat="45.02085426" lon="5.33792728">
<ele>668.730</ele>
<time>2013-06-26T16:57:16Z</time>
</trkpt>
<trkpt lat="45.02104151" lon="5.33811620">
<ele>663.930</ele>
<time>2013-06-26T16:57:21Z</time>
</trkpt>
<trkpt lat="45.02106548" lon="5.33814705">
<ele>663.930</ele>
<time>2013-06-26T16:57:22Z</time>
</trkpt>
<trkpt lat="45.02126338" lon="5.33837822">
<ele>662.010</ele>
<time>2013-06-26T16:57:27Z</time>
</trkpt>
<trkpt lat="45.02138114" lon="5.33841904">
<ele>659.120</ele>
<time>2013-06-26T16:57:29Z</time>
</trkpt>
<trkpt lat="45.02143923" lon="5.33843061">
<ele>658.640</ele>
<time>2013-06-26T16:57:30Z</time>
</trkpt>
<trkpt lat="45.02169630" lon="5.33860378">
<ele>656.720</ele>
<time>2013-06-26T16:57:38Z</time>
</trkpt>
<trkpt lat="45.02189118" lon="5.33867159">
<ele>652.870</ele>
<time>2013-06-26T16:57:43Z</time>
</trkpt>
<trkpt lat="45.02192446" lon="5.33865206">
<ele>652.870</ele>
<time>2013-06-26T16:57:44Z</time>
</trkpt>
<trkpt lat="45.02196226" lon="5.33863102">
<ele>652.390</ele>
<time>2013-06-26T16:57:45Z</time>
</trkpt>
<trkpt lat="45.02220416" lon="5.33866044">
<ele>649.990</ele>
<time>2013-06-26T16:57:50Z</time>
</trkpt>
<trkpt lat="45.02223987" lon="5.33867436">
<ele>649.510</ele>
<time>2013-06-26T16:57:51Z</time>
</trkpt>
<trkpt lat="45.02232847" lon="5.33882121">
<ele>647.100</ele>
<time>2013-06-26T16:58:00Z</time>
</trkpt>
<trkpt lat="45.02240634" lon="5.33891827">
<ele>646.620</ele>
<time>2013-06-26T16:58:16Z</time>
</trkpt>
<trkpt lat="45.02242578" lon="5.33897292">
<ele>646.140</ele>
<time>2013-06-26T16:58:33Z</time>
</trkpt>
<trkpt lat="45.02241128" lon="5.33898692">
<ele>646.620</ele>
<time>2013-06-26T16:58:58Z</time>
</trkpt>
<trkpt lat="45.02238655" lon="5.33902665">
<ele>646.140</ele>
<time>2013-06-26T16:59:32Z</time>
</trkpt>
<trkpt lat="45.02241002" lon="5.33910401">
<ele>646.140</ele>
<time>2013-06-26T17:00:02Z</time>
</trkpt>
<trkpt lat="45.02245168" lon="5.33914081">
<ele>645.660</ele>
<time>2013-06-26T17:00:22Z</time>
</trkpt>
<trkpt lat="45.02245453" lon="5.33915229">
<ele>645.660</ele>
<time>2013-06-26T17:00:28Z</time>
</trkpt>
<trkpt lat="45.02250918" lon="5.33916243">
<ele>644.700</ele>
<time>2013-06-26T17:00:32Z</time>
</trkpt>
<trkpt lat="45.02269752" lon="5.33896445">
<ele>640.860</ele>
<time>2013-06-26T17:00:41Z</time>
</trkpt>
<trkpt lat="45.02276014" lon="5.33884962">
<ele>637.970</ele>
<time>2013-06-26T17:00:43Z</time>
</trkpt>
<trkpt lat="45.02286877" lon="5.33880536">
<ele>635.090</ele>
<time>2013-06-26T17:00:46Z</time>
</trkpt>
<trkpt lat="45.02295636" lon="5.33886940">
<ele>633.650</ele>
<time>2013-06-26T17:00:49Z</time>
</trkpt>
<trkpt lat="45.02298485" lon="5.33878659">
<ele>629.800</ele>
<time>2013-06-26T17:00:54Z</time>
</trkpt>
<trkpt lat="45.02283222" lon="5.33866178">
<ele>626.440</ele>
<time>2013-06-26T17:01:00Z</time>
</trkpt>
<trkpt lat="45.02280381" lon="5.33864661">
<ele>624.990</ele>
<time>2013-06-26T17:01:01Z</time>
</trkpt>
<trkpt lat="45.02277983" lon="5.33853505">
<ele>620.670</ele>
<time>2013-06-26T17:01:09Z</time>
</trkpt>
<trkpt lat="45.02264740" lon="5.33856983">
<ele>617.300</ele>
<time>2013-06-26T17:01:13Z</time>
</trkpt>
<trkpt lat="45.02257381" lon="5.33858609">
<ele>615.380</ele>
<time>2013-06-26T17:01:15Z</time>
</trkpt>
<trkpt lat="45.02243693" lon="5.33859992">
<ele>611.060</ele>
<time>2013-06-26T17:01:19Z</time>
</trkpt>
<trkpt lat="45.02236652" lon="5.33855692">
<ele>606.730</ele>
<time>2013-06-26T17:01:25Z</time>
</trkpt>
<trkpt lat="45.02245168" lon="5.33843262">
<ele>603.850</ele>
<time>2013-06-26T17:01:29Z</time>
</trkpt>
<trkpt lat="45.02252150" lon="5.33836355">
<ele>601.920</ele>
<time>2013-06-26T17:01:31Z</time>
</trkpt>
<trkpt lat="45.02252636" lon="5.33832248">
<ele>601.440</ele>
<time>2013-06-26T17:01:33Z</time>
</trkpt>
<trkpt lat="45.02240072" lon="5.33833036">
<ele>597.600</ele>
<time>2013-06-26T17:01:37Z</time>
</trkpt>
<trkpt lat="45.02236795" lon="5.33833221">
<ele>596.640</ele>
<time>2013-06-26T17:01:38Z</time>
</trkpt>
<trkpt lat="45.02238086" lon="5.33823481">
<ele>594.230</ele>
<time>2013-06-26T17:01:42Z</time>
</trkpt>
<trkpt lat="45.02242218" lon="5.33819684">
<ele>592.790</ele>
<time>2013-06-26T17:01:45Z</time>
</trkpt>
<trkpt lat="45.02238337" lon="5.33817940">
<ele>591.350</ele>
<time>2013-06-26T17:01:47Z</time>
</trkpt>
<trkpt lat="45.02215831" lon="5.33822727">
<ele>586.060</ele>
<time>2013-06-26T17:01:54Z</time>
</trkpt>
<trkpt lat="45.02205530" lon="5.33820321">
<ele>582.700</ele>
<time>2013-06-26T17:01:58Z</time>
</trkpt>
<trkpt lat="45.02210660" lon="5.33809768">
<ele>579.330</ele>
<time>2013-06-26T17:02:03Z</time>
</trkpt>
<trkpt lat="45.02207634" lon="5.33806675">
<ele>576.450</ele>
<time>2013-06-26T17:02:07Z</time>
</trkpt>
<trkpt lat="45.02208321" lon="5.33799626">
<ele>573.080</ele>
<time>2013-06-26T17:02:13Z</time>
</trkpt>
<trkpt lat="45.02210199" lon="5.33794999">
<ele>571.640</ele>
<time>2013-06-26T17:02:15Z</time>
</trkpt>
<trkpt lat="45.02194508" lon="5.33793088">
<ele>568.280</ele>
<time>2013-06-26T17:02:21Z</time>
</trkpt>
<trkpt lat="45.02185087" lon="5.33793038">
<ele>564.910</ele>
<time>2013-06-26T17:02:25Z</time>
</trkpt>
<trkpt lat="45.02185388" lon="5.33781798">
<ele>562.030</ele>
<time>2013-06-26T17:02:30Z</time>
</trkpt>
<trkpt lat="45.02180016" lon="5.33770868">
<ele>558.180</ele>
<time>2013-06-26T17:02:34Z</time>
</trkpt>
<trkpt lat="45.02188029" lon="5.33767439">
<ele>555.780</ele>
<time>2013-06-26T17:02:39Z</time>
</trkpt>
<trkpt lat="45.02189672" lon="5.33765855">
<ele>554.340</ele>
<time>2013-06-26T17:02:41Z</time>
</trkpt>
<trkpt lat="45.02177644" lon="5.33751128">
<ele>550.010</ele>
<time>2013-06-26T17:02:46Z</time>
</trkpt>
<trkpt lat="45.02186000" lon="5.33744683">
<ele>546.170</ele>
<time>2013-06-26T17:02:50Z</time>
</trkpt>
<trkpt lat="45.02193812" lon="5.33751279">
<ele>544.240</ele>
<time>2013-06-26T17:02:54Z</time>
</trkpt>
<trkpt lat="45.02195003" lon="5.33750139">
<ele>544.240</ele>
<time>2013-06-26T17:02:55Z</time>
</trkpt>
<trkpt lat="45.02197157" lon="5.33745781">
<ele>542.800</ele>
<time>2013-06-26T17:02:57Z</time>
</trkpt>
<trkpt lat="45.02193628" lon="5.33737868">
<ele>540.400</ele>
<time>2013-06-26T17:03:01Z</time>
</trkpt>
<trkpt lat="45.02184668" lon="5.33730961">
<ele>538.480</ele>
<time>2013-06-26T17:03:05Z</time>
</trkpt>
<trkpt lat="45.02179144" lon="5.33732604">
<ele>537.030</ele>
<time>2013-06-26T17:03:07Z</time>
</trkpt>
<trkpt lat="45.02171382" lon="5.33729779">
<ele>534.630</ele>
<time>2013-06-26T17:03:11Z</time>
</trkpt>
<trkpt lat="45.02168792" lon="5.33728380">
<ele>533.670</ele>
<time>2013-06-26T17:03:13Z</time>
</trkpt>
<trkpt lat="45.02170938" lon="5.33715237">
<ele>529.820</ele>
<time>2013-06-26T17:03:19Z</time>
</trkpt>
<trkpt lat="45.02176780" lon="5.33703259">
<ele>525.500</ele>
<time>2013-06-26T17:03:25Z</time>
</trkpt>
<trkpt lat="45.02174676" lon="5.33686244">
<ele>524.060</ele>
<time>2013-06-26T17:03:37Z</time>
</trkpt>
<trkpt lat="45.02174559" lon="5.33677468">
<ele>524.060</ele>
<time>2013-06-26T17:03:42Z</time>
</trkpt>
<trkpt lat="45.02175967" lon="5.33666873">
<ele>523.580</ele>
<time>2013-06-26T17:03:55Z</time>
</trkpt>
<trkpt lat="45.02176981" lon="5.33667334">
<ele>522.610</ele>
<time>2013-06-26T17:04:16Z</time>
</trkpt>
<trkpt lat="45.02177878" lon="5.33669304">
<ele>522.130</ele>
<time>2013-06-26T17:04:45Z</time>
</trkpt>
<trkpt lat="45.02179119" lon="5.33668508">
<ele>522.130</ele>
<time>2013-06-26T17:05:08Z</time>
</trkpt>
<trkpt lat="45.02179462" lon="5.33665046">
<ele>522.130</ele>
<time>2013-06-26T17:05:31Z</time>
</trkpt>
<trkpt lat="45.02178390" lon="5.33664241">
<ele>522.130</ele>
<time>2013-06-26T17:05:42Z</time>
</trkpt>
<trkpt lat="45.02186084" lon="5.33629750">
<ele>518.290</ele>
<time>2013-06-26T17:05:51Z</time>
</trkpt>
<trkpt lat="45.02182153" lon="5.33598871">
<ele>514.440</ele>
<time>2013-06-26T17:05:55Z</time>
</trkpt>
<trkpt lat="45.02171785" lon="5.33559157">
<ele>511.080</ele>
<time>2013-06-26T17:05:59Z</time>
</trkpt>
<trkpt lat="45.02162095" lon="5.33522730">
<ele>506.750</ele>
<time>2013-06-26T17:06:03Z</time>
</trkpt>
<trkpt lat="45.02151945" lon="5.33489856">
<ele>503.390</ele>
<time>2013-06-26T17:06:07Z</time>
</trkpt>
<trkpt lat="45.02142372" lon="5.33456798">
<ele>500.020</ele>
<time>2013-06-26T17:06:10Z</time>
</trkpt>
<trkpt lat="45.02137880" lon="5.33419725">
<ele>497.140</ele>
<time>2013-06-26T17:06:14Z</time>
</trkpt>
<trkpt lat="45.02128216" lon="5.33385786">
<ele>493.770</ele>
<time>2013-06-26T17:06:18Z</time>
</trkpt>
<trkpt lat="45.02126480" lon="5.33375829">
<ele>492.810</ele>
<time>2013-06-26T17:06:20Z</time>
</trkpt>
<trkpt lat="45.02134561" lon="5.33383464">
<ele>488.970</ele>
<time>2013-06-26T17:06:24Z</time>
</trkpt>
<trkpt lat="45.02151442" lon="5.33397957">
<ele>485.600</ele>
<time>2013-06-26T17:06:28Z</time>
</trkpt>
<trkpt lat="45.02154183" lon="5.33400262">
<ele>485.120</ele>
<time>2013-06-26T17:06:29Z</time>
</trkpt>
<trkpt lat="45.02158893" lon="5.33403296">
<ele>483.680</ele>
<time>2013-06-26T17:06:31Z</time>
</trkpt>
<trkpt lat="45.02161123" lon="5.33395778">
<ele>483.680</ele>
<time>2013-06-26T17:06:35Z</time>
</trkpt>
<trkpt lat="45.02165373" lon="5.33395526">
<ele>483.200</ele>
<time>2013-06-26T17:06:46Z</time>
</trkpt>
<trkpt lat="45.02165607" lon="5.33396448">
<ele>483.200</ele>
<time>2013-06-26T17:06:50Z</time>
</trkpt>
<trkpt lat="45.02177610" lon="5.33404989">
<ele>481.760</ele>
<time>2013-06-26T17:06:55Z</time>
</trkpt>
<trkpt lat="45.02187375" lon="5.33408610">
<ele>479.350</ele>
<time>2013-06-26T17:06:57Z</time>
</trkpt>
<trkpt lat="45.02201985" lon="5.33431057">
<ele>475.990</ele>
<time>2013-06-26T17:07:01Z</time>
</trkpt>
<trkpt lat="45.02205715" lon="5.33445189">
<ele>474.070</ele>
<time>2013-06-26T17:07:08Z</time>
</trkpt>
<trkpt lat="45.02206176" lon="5.33446547">
<ele>474.070</ele>
<time>2013-06-26T17:07:19Z</time>
</trkpt>
<trkpt lat="45.02208984" lon="5.33452540">
<ele>472.630</ele>
<time>2013-06-26T17:07:23Z</time>
</trkpt>
<trkpt lat="45.02213552" lon="5.33459505">
<ele>471.180</ele>
<time>2013-06-26T17:07:25Z</time>
</trkpt>
<trkpt lat="45.02226787" lon="5.33475540">
<ele>467.820</ele>
<time>2013-06-26T17:07:28Z</time>
</trkpt>
<trkpt lat="45.02246375" lon="5.33489177">
<ele>464.450</ele>
<time>2013-06-26T17:07:31Z</time>
</trkpt>
<trkpt lat="45.02264229" lon="5.33493728">
<ele>460.130</ele>
<time>2013-06-26T17:07:34Z</time>
</trkpt>
<trkpt lat="45.02269476" lon="5.33492798">
<ele>458.210</ele>
<time>2013-06-26T17:07:35Z</time>
</trkpt>
<trkpt lat="45.02280842" lon="5.33493728">
<ele>455.800</ele>
<time>2013-06-26T17:07:37Z</time>
</trkpt>
<trkpt lat="45.02295694" lon="5.33508564">
<ele>453.400</ele>
<time>2013-06-26T17:07:41Z</time>
</trkpt>
<trkpt lat="45.02306859" lon="5.33526870">
<ele>451.000</ele>
<time>2013-06-26T17:07:44Z</time>
</trkpt>
<trkpt lat="45.02319004" lon="5.33543701">
<ele>450.520</ele>
<time>2013-06-26T17:07:46Z</time>
</trkpt>
<trkpt lat="45.02343337" lon="5.33560817">
<ele>449.550</ele>
<time>2013-06-26T17:07:54Z</time>
</trkpt>
<trkpt lat="45.02363035" lon="5.33568981">
<ele>447.630</ele>
<time>2013-06-26T17:08:04Z</time>
</trkpt>
<trkpt lat="45.02372296" lon="5.33572166">
<ele>447.150</ele>
<time>2013-06-26T17:08:06Z</time>
</trkpt>
<trkpt lat="45.02390997" lon="5.33573968">
<ele>445.230</ele>
<time>2013-06-26T17:08:11Z</time>
</trkpt>
<trkpt lat="45.02396302" lon="5.33571881">
<ele>445.230</ele>
<time>2013-06-26T17:08:26Z</time>
</trkpt>
<trkpt lat="45.02397073" lon="5.33579517">
<ele>445.230</ele>
<time>2013-06-26T17:08:58Z</time>
</trkpt>
<trkpt lat="45.02397652" lon="5.33571881">
<ele>444.270</ele>
<time>2013-06-26T17:09:32Z</time>
</trkpt>
<trkpt lat="45.02400024" lon="5.33568118">
<ele>444.750</ele>
<time>2013-06-26T17:09:56Z</time>
</trkpt>
<trkpt lat="45.02415656" lon="5.33561002">
<ele>443.310</ele>
<time>2013-06-26T17:10:13Z</time>
</trkpt>
<trkpt lat="45.02428497" lon="5.33552410">
<ele>442.340</ele>
<time>2013-06-26T17:10:16Z</time>
</trkpt>
<trkpt lat="45.02444264" lon="5.33546861">
<ele>440.420</ele>
<time>2013-06-26T17:10:19Z</time>
</trkpt>
<trkpt lat="45.02474321" lon="5.33564472">
<ele>439.940</ele>
<time>2013-06-26T17:10:25Z</time>
</trkpt>
<trkpt lat="45.02526054" lon="5.33577715">
<ele>437.540</ele>
<time>2013-06-26T17:10:34Z</time>
</trkpt>
<trkpt lat="45.02555056" lon="5.33597245">
<ele>434.650</ele>
<time>2013-06-26T17:10:40Z</time>
</trkpt>
<trkpt lat="45.02559012" lon="5.33584010">
<ele>433.690</ele>
<time>2013-06-26T17:10:45Z</time>
</trkpt>
<trkpt lat="45.02550144" lon="5.33570314">
<ele>431.770</ele>
<time>2013-06-26T17:10:48Z</time>
</trkpt>
<trkpt lat="45.02527705" lon="5.33524943">
<ele>427.920</ele>
<time>2013-06-26T17:10:54Z</time>
</trkpt>
<trkpt lat="45.02520849" lon="5.33515739">
<ele>426.960</ele>
<time>2013-06-26T17:10:56Z</time>
</trkpt>
<trkpt lat="45.02518837" lon="5.33511716">
<ele>426.480</ele>
<time>2013-06-26T17:11:05Z</time>
</trkpt>
<trkpt lat="45.02519391" lon="5.33511791">
<ele>426.480</ele>
<time>2013-06-26T17:11:07Z</time>
</trkpt>
<trkpt lat="45.02526574" lon="5.33493301">
<ele>421.680</ele>
<time>2013-06-26T17:11:11Z</time>
</trkpt>
<trkpt lat="45.02530203" lon="5.33462715">
<ele>415.910</ele>
<time>2013-06-26T17:11:14Z</time>
</trkpt>
<trkpt lat="45.02534411" lon="5.33443169">
<ele>411.580</ele>
<time>2013-06-26T17:11:20Z</time>
</trkpt>
<trkpt lat="45.02536054" lon="5.33427528">
<ele>408.220</ele>
<time>2013-06-26T17:11:22Z</time>
</trkpt>
<trkpt lat="45.02538250" lon="5.33411251">
<ele>406.290</ele>
<time>2013-06-26T17:11:24Z</time>
</trkpt>
<trkpt lat="45.02544033" lon="5.33383498">
<ele>401.490</ele>
<time>2013-06-26T17:11:27Z</time>
</trkpt>
<trkpt lat="45.02555089" lon="5.33337289">
<ele>396.200</ele>
<time>2013-06-26T17:11:32Z</time>
</trkpt>
<trkpt lat="45.02559121" lon="5.33328521">
<ele>394.760</ele>
<time>2013-06-26T17:11:33Z</time>
</trkpt>
<trkpt lat="45.02578366" lon="5.33293032">
<ele>388.510</ele>
<time>2013-06-26T17:11:37Z</time>
</trkpt>
<trkpt lat="45.02589757" lon="5.33264232">
<ele>384.660</ele>
<time>2013-06-26T17:11:41Z</time>
</trkpt>
<trkpt lat="45.02594132" lon="5.33248474">
<ele>382.740</ele>
<time>2013-06-26T17:11:43Z</time>
</trkpt>
<trkpt lat="45.02599295" lon="5.33202793">
<ele>377.450</ele>
<time>2013-06-26T17:11:47Z</time>
</trkpt>
<trkpt lat="45.02611533" lon="5.33170941">
<ele>372.650</ele>
<time>2013-06-26T17:11:51Z</time>
</trkpt>
<trkpt lat="45.02615782" lon="5.33162870">
<ele>372.650</ele>
<time>2013-06-26T17:11:52Z</time>
</trkpt>
<trkpt lat="45.02633435" lon="5.33128504">
<ele>368.800</ele>
<time>2013-06-26T17:11:56Z</time>
</trkpt>
<trkpt lat="45.02651640" lon="5.33092881">
<ele>364.960</ele>
<time>2013-06-26T17:12:00Z</time>
</trkpt>
<trkpt lat="45.02663735" lon="5.33058775">
<ele>362.070</ele>
<time>2013-06-26T17:12:03Z</time>
</trkpt>
<trkpt lat="45.02678546" lon="5.33006513">
<ele>358.230</ele>
<time>2013-06-26T17:12:07Z</time>
</trkpt>
<trkpt lat="45.02682896" lon="5.32992499">
<ele>357.750</ele>
<time>2013-06-26T17:12:08Z</time>
</trkpt>
<trkpt lat="45.02697246" lon="5.32949751">
<ele>354.380</ele>
<time>2013-06-26T17:12:11Z</time>
</trkpt>
<trkpt lat="45.02706114" lon="5.32921504">
<ele>352.460</ele>
<time>2013-06-26T17:12:13Z</time>
</trkpt>
<trkpt lat="45.02710766" lon="5.32900055">
<ele>352.460</ele>
<time>2013-06-26T17:12:15Z</time>
</trkpt>
<trkpt lat="45.02722769" lon="5.32872453">
<ele>350.540</ele>
<time>2013-06-26T17:12:18Z</time>
</trkpt>
<trkpt lat="45.02752248" lon="5.32778727">
<ele>346.210</ele>
<time>2013-06-26T17:12:27Z</time>
</trkpt>
<trkpt lat="45.02764092" lon="5.32721906">
<ele>344.290</ele>
<time>2013-06-26T17:12:32Z</time>
</trkpt>
<trkpt lat="45.02771367" lon="5.32687289">
<ele>342.850</ele>
<time>2013-06-26T17:12:35Z</time>
</trkpt>
<trkpt lat="45.02776103" lon="5.32664389">
<ele>342.370</ele>
<time>2013-06-26T17:12:37Z</time>
</trkpt>
<trkpt lat="45.02793378" lon="5.32631038">
<ele>340.920</ele>
<time>2013-06-26T17:12:41Z</time>
</trkpt>
<trkpt lat="45.02818733" lon="5.32597804">
<ele>341.410</ele>
<time>2013-06-26T17:12:48Z</time>
</trkpt>
<trkpt lat="45.02851800" lon="5.32623226">
<ele>340.920</ele>
<time>2013-06-26T17:12:57Z</time>
</trkpt>
<trkpt lat="45.02856494" lon="5.32624391">
<ele>340.920</ele>
<time>2013-06-26T17:13:07Z</time>
</trkpt>
<trkpt lat="45.02856628" lon="5.32625095">
<ele>340.440</ele>
<time>2013-06-26T17:13:34Z</time>
</trkpt>
<trkpt lat="45.02854122" lon="5.32627459">
<ele>339.960</ele>
<time>2013-06-26T17:14:02Z</time>
</trkpt>
<trkpt lat="45.02855421" lon="5.32621424">
<ele>339.000</ele>
<time>2013-06-26T17:14:40Z</time>
</trkpt>
</trkseg>
</trk>
<extensions>
</extensions>
</gpx>
